<?xml version="1.0" encoding="UTF-8" standalone="no" ?>
<gpx xmlns="http://www.topografix.com/GPX/1/1" xmlns:xsi="http://www.w3.org/2001/XMLSchema-instance" xsi:schemaLocation="http://www.topografix.com/GPX/1/1 http://www.topografix.com/GPX/1/1/gpx.xsd" version="1.1" creator="VisuGPX - https://www.visugpx.com">
  <metadata>
    <name>SangliersValdahon30Avril2023</name>
  </metadata>
  <trk>
    <name><![CDATA[SangliersValdahon30Avril2023_1]]></name>
    <trkseg>
      <trkpt lat="47.15182" lon="6.3521">
        <ele>656.6</ele>
        <time>2023-04-30T06:54:21Z</time>
      </trkpt>
      <trkpt lat="47.15161" lon="6.35206">
        <ele>657</ele>
        <time>2023-04-30T06:54:31Z</time>
      </trkpt>
      <trkpt lat="47.15142" lon="6.35202">
        <ele>656.6</ele>
        <time>2023-04-30T06:54:39Z</time>
      </trkpt>
      <trkpt lat="47.15132" lon="6.35205">
        <ele>657.4</ele>
        <time>2023-04-30T06:54:43Z</time>
      </trkpt>
      <trkpt lat="47.1513" lon="6.35209">
        <ele>657.4</ele>
        <time>2023-04-30T06:54:44Z</time>
      </trkpt>
      <trkpt lat="47.15127" lon="6.35221">
        <ele>657.6</ele>
        <time>2023-04-30T06:54:47Z</time>
      </trkpt>
      <trkpt lat="47.15127" lon="6.35225">
        <ele>657.6</ele>
        <time>2023-04-30T06:54:48Z</time>
      </trkpt>
      <trkpt lat="47.15127" lon="6.35229">
        <ele>657.8</ele>
        <time>2023-04-30T06:54:49Z</time>
      </trkpt>
      <trkpt lat="47.15131" lon="6.35262">
        <ele>657.4</ele>
        <time>2023-04-30T06:54:57Z</time>
      </trkpt>
      <trkpt lat="47.15137" lon="6.35297">
        <ele>657.6</ele>
        <time>2023-04-30T06:55:04Z</time>
      </trkpt>
      <trkpt lat="47.15144" lon="6.35334">
        <ele>656.6</ele>
        <time>2023-04-30T06:55:11Z</time>
      </trkpt>
      <trkpt lat="47.1514" lon="6.3535">
        <ele>656.8</ele>
        <time>2023-04-30T06:55:14Z</time>
      </trkpt>
      <trkpt lat="47.15137" lon="6.35356">
        <ele>656.6</ele>
        <time>2023-04-30T06:55:15Z</time>
      </trkpt>
      <trkpt lat="47.1513" lon="6.35375">
        <ele>656</ele>
        <time>2023-04-30T06:55:18Z</time>
      </trkpt>
      <trkpt lat="47.15127" lon="6.35389">
        <ele>655.6</ele>
        <time>2023-04-30T06:55:20Z</time>
      </trkpt>
      <trkpt lat="47.15126" lon="6.35396">
        <ele>655.4</ele>
        <time>2023-04-30T06:55:21Z</time>
      </trkpt>
      <trkpt lat="47.15127" lon="6.35411">
        <ele>655.2</ele>
        <time>2023-04-30T06:55:23Z</time>
      </trkpt>
      <trkpt lat="47.15127" lon="6.35417">
        <ele>655.2</ele>
        <time>2023-04-30T06:55:24Z</time>
      </trkpt>
      <trkpt lat="47.15128" lon="6.35455">
        <ele>656</ele>
        <time>2023-04-30T06:55:31Z</time>
      </trkpt>
      <trkpt lat="47.15122" lon="6.35484">
        <ele>656.2</ele>
        <time>2023-04-30T06:55:36Z</time>
      </trkpt>
      <trkpt lat="47.15121" lon="6.35489">
        <ele>656.4</ele>
        <time>2023-04-30T06:55:37Z</time>
      </trkpt>
      <trkpt lat="47.15106" lon="6.35525">
        <ele>656.6</ele>
        <time>2023-04-30T06:55:44Z</time>
      </trkpt>
      <trkpt lat="47.1509" lon="6.35563">
        <ele>657.2</ele>
        <time>2023-04-30T06:55:52Z</time>
      </trkpt>
      <trkpt lat="47.15088" lon="6.35567">
        <ele>657.6</ele>
        <time>2023-04-30T06:55:53Z</time>
      </trkpt>
      <trkpt lat="47.15074" lon="6.35592">
        <ele>659</ele>
        <time>2023-04-30T06:55:59Z</time>
      </trkpt>
      <trkpt lat="47.15071" lon="6.35596">
        <ele>659.4</ele>
        <time>2023-04-30T06:56:00Z</time>
      </trkpt>
      <trkpt lat="47.15043" lon="6.35638">
        <ele>660.2</ele>
        <time>2023-04-30T06:56:11Z</time>
      </trkpt>
      <trkpt lat="47.15032" lon="6.35656">
        <ele>661.2</ele>
        <time>2023-04-30T06:56:16Z</time>
      </trkpt>
      <trkpt lat="47.15023" lon="6.35669">
        <ele>662</ele>
        <time>2023-04-30T06:56:20Z</time>
      </trkpt>
      <trkpt lat="47.15018" lon="6.35676">
        <ele>662.4</ele>
        <time>2023-04-30T06:56:22Z</time>
      </trkpt>
      <trkpt lat="47.15014" lon="6.35683">
        <ele>663.4</ele>
        <time>2023-04-30T06:56:24Z</time>
      </trkpt>
      <trkpt lat="47.15007" lon="6.35693">
        <ele>663.4</ele>
        <time>2023-04-30T06:56:27Z</time>
      </trkpt>
      <trkpt lat="47.15002" lon="6.35719">
        <ele>664.2</ele>
        <time>2023-04-30T06:56:33Z</time>
      </trkpt>
      <trkpt lat="47.15012" lon="6.35735">
        <ele>664.2</ele>
        <time>2023-04-30T06:56:37Z</time>
      </trkpt>
      <trkpt lat="47.15018" lon="6.35743">
        <ele>664.6</ele>
        <time>2023-04-30T06:56:39Z</time>
      </trkpt>
      <trkpt lat="47.15041" lon="6.35774">
        <ele>664.8</ele>
        <time>2023-04-30T06:56:47Z</time>
      </trkpt>
      <trkpt lat="47.1505" lon="6.35785">
        <ele>665.6</ele>
        <time>2023-04-30T06:56:50Z</time>
      </trkpt>
      <trkpt lat="47.15065" lon="6.35802">
        <ele>666</ele>
        <time>2023-04-30T06:56:55Z</time>
      </trkpt>
      <trkpt lat="47.15084" lon="6.35821">
        <ele>666.8</ele>
        <time>2023-04-30T06:57:01Z</time>
      </trkpt>
      <trkpt lat="47.15093" lon="6.35831">
        <ele>667.4</ele>
        <time>2023-04-30T06:57:04Z</time>
      </trkpt>
      <trkpt lat="47.15103" lon="6.35839">
        <ele>667.8</ele>
        <time>2023-04-30T06:57:07Z</time>
      </trkpt>
      <trkpt lat="47.1513" lon="6.35865">
        <ele>667.6</ele>
        <time>2023-04-30T06:57:15Z</time>
      </trkpt>
      <trkpt lat="47.15142" lon="6.35884">
        <ele>666.6</ele>
        <time>2023-04-30T06:57:19Z</time>
      </trkpt>
      <trkpt lat="47.15151" lon="6.35899">
        <ele>666.4</ele>
        <time>2023-04-30T06:57:22Z</time>
      </trkpt>
      <trkpt lat="47.15159" lon="6.35913">
        <ele>667.8</ele>
        <time>2023-04-30T06:57:25Z</time>
      </trkpt>
      <trkpt lat="47.15167" lon="6.35931">
        <ele>668.4</ele>
        <time>2023-04-30T06:57:29Z</time>
      </trkpt>
      <trkpt lat="47.15177" lon="6.35956">
        <ele>668.8</ele>
        <time>2023-04-30T06:57:34Z</time>
      </trkpt>
      <trkpt lat="47.15186" lon="6.35976">
        <ele>669.6</ele>
        <time>2023-04-30T06:57:38Z</time>
      </trkpt>
      <trkpt lat="47.15205" lon="6.3602">
        <ele>670.2</ele>
        <time>2023-04-30T06:57:47Z</time>
      </trkpt>
      <trkpt lat="47.15207" lon="6.36025">
        <ele>670.4</ele>
        <time>2023-04-30T06:57:48Z</time>
      </trkpt>
      <trkpt lat="47.1522" lon="6.36053">
        <ele>671.4</ele>
        <time>2023-04-30T06:57:55Z</time>
      </trkpt>
      <trkpt lat="47.15228" lon="6.36072">
        <ele>672.4</ele>
        <time>2023-04-30T06:57:59Z</time>
      </trkpt>
      <trkpt lat="47.15235" lon="6.36088">
        <ele>672.6</ele>
        <time>2023-04-30T06:58:03Z</time>
      </trkpt>
      <trkpt lat="47.15244" lon="6.36115">
        <ele>673.4</ele>
        <time>2023-04-30T06:58:10Z</time>
      </trkpt>
      <trkpt lat="47.15238" lon="6.36131">
        <ele>673.2</ele>
        <time>2023-04-30T06:58:15Z</time>
      </trkpt>
      <trkpt lat="47.15234" lon="6.36142">
        <ele>673.4</ele>
        <time>2023-04-30T06:58:18Z</time>
      </trkpt>
      <trkpt lat="47.15229" lon="6.36154">
        <ele>673</ele>
        <time>2023-04-30T06:58:22Z</time>
      </trkpt>
      <trkpt lat="47.15223" lon="6.36172">
        <ele>673.6</ele>
        <time>2023-04-30T06:58:28Z</time>
      </trkpt>
      <trkpt lat="47.15222" lon="6.36178">
        <ele>674.6</ele>
        <time>2023-04-30T06:58:30Z</time>
      </trkpt>
      <trkpt lat="47.15214" lon="6.36186">
        <ele>675.2</ele>
        <time>2023-04-30T06:58:35Z</time>
      </trkpt>
      <trkpt lat="47.15213" lon="6.36187">
        <ele>675.4</ele>
        <time>2023-04-30T06:58:36Z</time>
      </trkpt>
      <trkpt lat="47.15209" lon="6.36189">
        <ele>675.8</ele>
        <time>2023-04-30T06:58:39Z</time>
      </trkpt>
      <trkpt lat="47.15206" lon="6.36194">
        <ele>676.8</ele>
        <time>2023-04-30T06:58:43Z</time>
      </trkpt>
      <trkpt lat="47.15202" lon="6.36202">
        <ele>677.6</ele>
        <time>2023-04-30T06:58:48Z</time>
      </trkpt>
      <trkpt lat="47.15201" lon="6.36203">
        <ele>677.8</ele>
        <time>2023-04-30T06:58:49Z</time>
      </trkpt>
      <trkpt lat="47.15197" lon="6.36206">
        <ele>678.8</ele>
        <time>2023-04-30T06:58:52Z</time>
      </trkpt>
      <trkpt lat="47.15194" lon="6.3621">
        <ele>679.6</ele>
        <time>2023-04-30T06:58:54Z</time>
      </trkpt>
      <trkpt lat="47.15193" lon="6.36211">
        <ele>680</ele>
        <time>2023-04-30T06:58:55Z</time>
      </trkpt>
      <trkpt lat="47.15189" lon="6.36215">
        <ele>681</ele>
        <time>2023-04-30T06:58:58Z</time>
      </trkpt>
      <trkpt lat="47.15186" lon="6.36218">
        <ele>682.6</ele>
        <time>2023-04-30T06:59:00Z</time>
      </trkpt>
      <trkpt lat="47.15184" lon="6.36219">
        <ele>683</ele>
        <time>2023-04-30T06:59:01Z</time>
      </trkpt>
      <trkpt lat="47.15182" lon="6.36222">
        <ele>683.8</ele>
        <time>2023-04-30T06:59:03Z</time>
      </trkpt>
      <trkpt lat="47.15179" lon="6.36225">
        <ele>684.8</ele>
        <time>2023-04-30T06:59:05Z</time>
      </trkpt>
      <trkpt lat="47.15177" lon="6.36226">
        <ele>685</ele>
        <time>2023-04-30T06:59:06Z</time>
      </trkpt>
      <trkpt lat="47.15175" lon="6.36228">
        <ele>685.4</ele>
        <time>2023-04-30T06:59:07Z</time>
      </trkpt>
      <trkpt lat="47.15171" lon="6.36231">
        <ele>686.2</ele>
        <time>2023-04-30T06:59:10Z</time>
      </trkpt>
      <trkpt lat="47.15168" lon="6.36237">
        <ele>687</ele>
        <time>2023-04-30T06:59:13Z</time>
      </trkpt>
      <trkpt lat="47.15167" lon="6.36241">
        <ele>687.2</ele>
        <time>2023-04-30T06:59:15Z</time>
      </trkpt>
      <trkpt lat="47.15163" lon="6.36251">
        <ele>688.2</ele>
        <time>2023-04-30T06:59:19Z</time>
      </trkpt>
      <trkpt lat="47.15161" lon="6.36256">
        <ele>688.4</ele>
        <time>2023-04-30T06:59:21Z</time>
      </trkpt>
      <trkpt lat="47.15156" lon="6.36269">
        <ele>689.8</ele>
        <time>2023-04-30T06:59:26Z</time>
      </trkpt>
      <trkpt lat="47.15151" lon="6.3628">
        <ele>691</ele>
        <time>2023-04-30T06:59:30Z</time>
      </trkpt>
      <trkpt lat="47.1515" lon="6.36282">
        <ele>691.4</ele>
        <time>2023-04-30T06:59:31Z</time>
      </trkpt>
      <trkpt lat="47.15148" lon="6.36288">
        <ele>692.2</ele>
        <time>2023-04-30T06:59:33Z</time>
      </trkpt>
      <trkpt lat="47.15144" lon="6.36295">
        <ele>693.4</ele>
        <time>2023-04-30T06:59:36Z</time>
      </trkpt>
      <trkpt lat="47.15141" lon="6.36303">
        <ele>694.4</ele>
        <time>2023-04-30T06:59:39Z</time>
      </trkpt>
      <trkpt lat="47.15141" lon="6.36305">
        <ele>694.4</ele>
        <time>2023-04-30T06:59:40Z</time>
      </trkpt>
      <trkpt lat="47.15136" lon="6.36316">
        <ele>695.6</ele>
        <time>2023-04-30T06:59:45Z</time>
      </trkpt>
      <trkpt lat="47.1513" lon="6.36324">
        <ele>696.8</ele>
        <time>2023-04-30T06:59:50Z</time>
      </trkpt>
      <trkpt lat="47.15129" lon="6.36325">
        <ele>696.8</ele>
        <time>2023-04-30T06:59:51Z</time>
      </trkpt>
      <trkpt lat="47.15121" lon="6.36332">
        <ele>697.6</ele>
        <time>2023-04-30T06:59:55Z</time>
      </trkpt>
      <trkpt lat="47.15119" lon="6.36333">
        <ele>697.8</ele>
        <time>2023-04-30T06:59:56Z</time>
      </trkpt>
      <trkpt lat="47.15115" lon="6.36339">
        <ele>698.8</ele>
        <time>2023-04-30T06:59:59Z</time>
      </trkpt>
      <trkpt lat="47.15114" lon="6.36341">
        <ele>699</ele>
        <time>2023-04-30T07:00:00Z</time>
      </trkpt>
      <trkpt lat="47.15112" lon="6.36346">
        <ele>699.4</ele>
        <time>2023-04-30T07:00:02Z</time>
      </trkpt>
      <trkpt lat="47.15091" lon="6.36407">
        <ele>696.8</ele>
        <time>2023-04-30T07:01:04Z</time>
      </trkpt>
      <trkpt lat="47.15088" lon="6.36422">
        <ele>695.8</ele>
        <time>2023-04-30T07:01:09Z</time>
      </trkpt>
      <trkpt lat="47.15086" lon="6.36428">
        <ele>695.6</ele>
        <time>2023-04-30T07:01:11Z</time>
      </trkpt>
      <trkpt lat="47.15077" lon="6.36456">
        <ele>695.8</ele>
        <time>2023-04-30T07:01:19Z</time>
      </trkpt>
      <trkpt lat="47.15065" lon="6.36471">
        <ele>696.8</ele>
        <time>2023-04-30T07:01:24Z</time>
      </trkpt>
      <trkpt lat="47.15063" lon="6.36474">
        <ele>697.2</ele>
        <time>2023-04-30T07:01:25Z</time>
      </trkpt>
      <trkpt lat="47.15046" lon="6.3649">
        <ele>697</ele>
        <time>2023-04-30T07:01:32Z</time>
      </trkpt>
      <trkpt lat="47.15024" lon="6.36495">
        <ele>697</ele>
        <time>2023-04-30T07:01:38Z</time>
      </trkpt>
      <trkpt lat="47.15005" lon="6.36499">
        <ele>696</ele>
        <time>2023-04-30T07:01:43Z</time>
      </trkpt>
      <trkpt lat="47.15001" lon="6.36499">
        <ele>695.8</ele>
        <time>2023-04-30T07:01:44Z</time>
      </trkpt>
      <trkpt lat="47.14978" lon="6.36505">
        <ele>695</ele>
        <time>2023-04-30T07:01:50Z</time>
      </trkpt>
      <trkpt lat="47.14974" lon="6.36506">
        <ele>694.6</ele>
        <time>2023-04-30T07:01:51Z</time>
      </trkpt>
      <trkpt lat="47.14955" lon="6.36509">
        <ele>693.6</ele>
        <time>2023-04-30T07:01:56Z</time>
      </trkpt>
      <trkpt lat="47.14948" lon="6.3651">
        <ele>693.4</ele>
        <time>2023-04-30T07:01:58Z</time>
      </trkpt>
      <trkpt lat="47.14936" lon="6.3651">
        <ele>692.6</ele>
        <time>2023-04-30T07:02:01Z</time>
      </trkpt>
      <trkpt lat="47.1492" lon="6.36514">
        <ele>691.6</ele>
        <time>2023-04-30T07:02:05Z</time>
      </trkpt>
      <trkpt lat="47.14916" lon="6.36515">
        <ele>691.4</ele>
        <time>2023-04-30T07:02:06Z</time>
      </trkpt>
      <trkpt lat="47.14897" lon="6.36516">
        <ele>690.2</ele>
        <time>2023-04-30T07:02:11Z</time>
      </trkpt>
      <trkpt lat="47.14889" lon="6.36514">
        <ele>690</ele>
        <time>2023-04-30T07:02:13Z</time>
      </trkpt>
      <trkpt lat="47.14869" lon="6.36511">
        <ele>690.6</ele>
        <time>2023-04-30T07:02:19Z</time>
      </trkpt>
      <trkpt lat="47.14844" lon="6.36509">
        <ele>690.2</ele>
        <time>2023-04-30T07:02:25Z</time>
      </trkpt>
      <trkpt lat="47.14832" lon="6.3651">
        <ele>690.6</ele>
        <time>2023-04-30T07:02:28Z</time>
      </trkpt>
      <trkpt lat="47.1483" lon="6.36514">
        <ele>691</ele>
        <time>2023-04-30T07:02:29Z</time>
      </trkpt>
      <trkpt lat="47.14827" lon="6.36525">
        <ele>691.2</ele>
        <time>2023-04-30T07:02:31Z</time>
      </trkpt>
      <trkpt lat="47.14823" lon="6.36535">
        <ele>691.2</ele>
        <time>2023-04-30T07:02:33Z</time>
      </trkpt>
      <trkpt lat="47.14821" lon="6.3654">
        <ele>691</ele>
        <time>2023-04-30T07:02:34Z</time>
      </trkpt>
      <trkpt lat="47.14806" lon="6.36573">
        <ele>691.2</ele>
        <time>2023-04-30T07:02:41Z</time>
      </trkpt>
      <trkpt lat="47.14791" lon="6.36603">
        <ele>692.4</ele>
        <time>2023-04-30T07:02:48Z</time>
      </trkpt>
      <trkpt lat="47.14788" lon="6.36608">
        <ele>692.8</ele>
        <time>2023-04-30T07:02:49Z</time>
      </trkpt>
      <trkpt lat="47.14782" lon="6.36621">
        <ele>693.6</ele>
        <time>2023-04-30T07:02:52Z</time>
      </trkpt>
      <trkpt lat="47.14775" lon="6.36638">
        <ele>695</ele>
        <time>2023-04-30T07:02:56Z</time>
      </trkpt>
      <trkpt lat="47.14771" lon="6.36651">
        <ele>696.4</ele>
        <time>2023-04-30T07:02:59Z</time>
      </trkpt>
      <trkpt lat="47.14767" lon="6.36659">
        <ele>697.4</ele>
        <time>2023-04-30T07:03:01Z</time>
      </trkpt>
      <trkpt lat="47.14766" lon="6.36663">
        <ele>697.8</ele>
        <time>2023-04-30T07:03:02Z</time>
      </trkpt>
      <trkpt lat="47.14759" lon="6.36687">
        <ele>698.6</ele>
        <time>2023-04-30T07:03:07Z</time>
      </trkpt>
      <trkpt lat="47.14758" lon="6.36692">
        <ele>699</ele>
        <time>2023-04-30T07:03:08Z</time>
      </trkpt>
      <trkpt lat="47.14753" lon="6.3671">
        <ele>700</ele>
        <time>2023-04-30T07:03:11Z</time>
      </trkpt>
      <trkpt lat="47.14748" lon="6.36724">
        <ele>701.6</ele>
        <time>2023-04-30T07:03:14Z</time>
      </trkpt>
      <trkpt lat="47.14744" lon="6.36734">
        <ele>702.4</ele>
        <time>2023-04-30T07:03:16Z</time>
      </trkpt>
      <trkpt lat="47.14742" lon="6.36739">
        <ele>702.6</ele>
        <time>2023-04-30T07:03:17Z</time>
      </trkpt>
      <trkpt lat="47.14737" lon="6.36754">
        <ele>703.6</ele>
        <time>2023-04-30T07:03:20Z</time>
      </trkpt>
      <trkpt lat="47.14732" lon="6.36769">
        <ele>704.8</ele>
        <time>2023-04-30T07:03:23Z</time>
      </trkpt>
      <trkpt lat="47.14731" lon="6.36774">
        <ele>705.2</ele>
        <time>2023-04-30T07:03:24Z</time>
      </trkpt>
      <trkpt lat="47.14727" lon="6.36783">
        <ele>705.8</ele>
        <time>2023-04-30T07:03:26Z</time>
      </trkpt>
      <trkpt lat="47.14723" lon="6.36799">
        <ele>707</ele>
        <time>2023-04-30T07:03:29Z</time>
      </trkpt>
      <trkpt lat="47.14717" lon="6.36816">
        <ele>707.8</ele>
        <time>2023-04-30T07:03:32Z</time>
      </trkpt>
      <trkpt lat="47.14716" lon="6.3682">
        <ele>708.2</ele>
        <time>2023-04-30T07:03:33Z</time>
      </trkpt>
      <trkpt lat="47.14712" lon="6.36836">
        <ele>709.6</ele>
        <time>2023-04-30T07:03:36Z</time>
      </trkpt>
      <trkpt lat="47.14709" lon="6.36842">
        <ele>710.2</ele>
        <time>2023-04-30T07:03:37Z</time>
      </trkpt>
      <trkpt lat="47.14705" lon="6.36853">
        <ele>710.8</ele>
        <time>2023-04-30T07:03:39Z</time>
      </trkpt>
      <trkpt lat="47.14697" lon="6.36874">
        <ele>711.8</ele>
        <time>2023-04-30T07:03:43Z</time>
      </trkpt>
      <trkpt lat="47.14695" lon="6.36878">
        <ele>712.2</ele>
        <time>2023-04-30T07:03:44Z</time>
      </trkpt>
      <trkpt lat="47.14691" lon="6.36888">
        <ele>713</ele>
        <time>2023-04-30T07:03:46Z</time>
      </trkpt>
      <trkpt lat="47.14684" lon="6.36908">
        <ele>713</ele>
        <time>2023-04-30T07:03:50Z</time>
      </trkpt>
      <trkpt lat="47.14672" lon="6.36946">
        <ele>712.4</ele>
        <time>2023-04-30T07:03:58Z</time>
      </trkpt>
      <trkpt lat="47.14671" lon="6.36951">
        <ele>711.6</ele>
        <time>2023-04-30T07:03:59Z</time>
      </trkpt>
      <trkpt lat="47.1467" lon="6.36961">
        <ele>710.4</ele>
        <time>2023-04-30T07:04:01Z</time>
      </trkpt>
      <trkpt lat="47.14668" lon="6.36975">
        <ele>709.4</ele>
        <time>2023-04-30T07:04:04Z</time>
      </trkpt>
      <trkpt lat="47.1467" lon="6.37001">
        <ele>710.2</ele>
        <time>2023-04-30T07:04:10Z</time>
      </trkpt>
      <trkpt lat="47.1467" lon="6.37013">
        <ele>710.4</ele>
        <time>2023-04-30T07:04:13Z</time>
      </trkpt>
      <trkpt lat="47.14669" lon="6.37022">
        <ele>710.6</ele>
        <time>2023-04-30T07:04:15Z</time>
      </trkpt>
      <trkpt lat="47.14669" lon="6.37031">
        <ele>711.2</ele>
        <time>2023-04-30T07:04:17Z</time>
      </trkpt>
      <trkpt lat="47.14671" lon="6.37056">
        <ele>710.6</ele>
        <time>2023-04-30T07:04:22Z</time>
      </trkpt>
      <trkpt lat="47.1467" lon="6.37084">
        <ele>710.6</ele>
        <time>2023-04-30T07:04:28Z</time>
      </trkpt>
      <trkpt lat="47.14667" lon="6.37111">
        <ele>711.6</ele>
        <time>2023-04-30T07:04:33Z</time>
      </trkpt>
      <trkpt lat="47.14665" lon="6.37132">
        <ele>712.2</ele>
        <time>2023-04-30T07:04:36Z</time>
      </trkpt>
      <trkpt lat="47.14663" lon="6.37139">
        <ele>712.4</ele>
        <time>2023-04-30T07:04:37Z</time>
      </trkpt>
      <trkpt lat="47.14659" lon="6.37154">
        <ele>712.6</ele>
        <time>2023-04-30T07:04:39Z</time>
      </trkpt>
      <trkpt lat="47.14656" lon="6.3717">
        <ele>712.8</ele>
        <time>2023-04-30T07:04:41Z</time>
      </trkpt>
      <trkpt lat="47.14647" lon="6.37215">
        <ele>713.6</ele>
        <time>2023-04-30T07:04:47Z</time>
      </trkpt>
      <trkpt lat="47.14646" lon="6.37223">
        <ele>714</ele>
        <time>2023-04-30T07:04:48Z</time>
      </trkpt>
      <trkpt lat="47.14644" lon="6.37246">
        <ele>714.8</ele>
        <time>2023-04-30T07:04:51Z</time>
      </trkpt>
      <trkpt lat="47.14645" lon="6.37253">
        <ele>715</ele>
        <time>2023-04-30T07:04:52Z</time>
      </trkpt>
      <trkpt lat="47.14648" lon="6.37265">
        <ele>715.2</ele>
        <time>2023-04-30T07:04:54Z</time>
      </trkpt>
      <trkpt lat="47.14658" lon="6.3728">
        <ele>715.8</ele>
        <time>2023-04-30T07:04:57Z</time>
      </trkpt>
      <trkpt lat="47.14661" lon="6.37285">
        <ele>716</ele>
        <time>2023-04-30T07:04:58Z</time>
      </trkpt>
      <trkpt lat="47.14674" lon="6.37303">
        <ele>716.8</ele>
        <time>2023-04-30T07:05:02Z</time>
      </trkpt>
      <trkpt lat="47.14692" lon="6.37329">
        <ele>717.8</ele>
        <time>2023-04-30T07:05:09Z</time>
      </trkpt>
      <trkpt lat="47.14695" lon="6.37332">
        <ele>718</ele>
        <time>2023-04-30T07:05:10Z</time>
      </trkpt>
      <trkpt lat="47.1471" lon="6.37349">
        <ele>718.2</ele>
        <time>2023-04-30T07:05:15Z</time>
      </trkpt>
      <trkpt lat="47.14727" lon="6.37367">
        <ele>718.4</ele>
        <time>2023-04-30T07:05:20Z</time>
      </trkpt>
      <trkpt lat="47.14733" lon="6.37374">
        <ele>718.8</ele>
        <time>2023-04-30T07:05:22Z</time>
      </trkpt>
      <trkpt lat="47.14749" lon="6.37394">
        <ele>719.4</ele>
        <time>2023-04-30T07:05:28Z</time>
      </trkpt>
      <trkpt lat="47.1476" lon="6.37411">
        <ele>719.2</ele>
        <time>2023-04-30T07:05:33Z</time>
      </trkpt>
      <trkpt lat="47.14761" lon="6.37424">
        <ele>718.4</ele>
        <time>2023-04-30T07:05:37Z</time>
      </trkpt>
      <trkpt lat="47.14759" lon="6.3743">
        <ele>717.8</ele>
        <time>2023-04-30T07:05:39Z</time>
      </trkpt>
      <trkpt lat="47.14752" lon="6.37444">
        <ele>716.6</ele>
        <time>2023-04-30T07:05:43Z</time>
      </trkpt>
      <trkpt lat="47.14746" lon="6.37458">
        <ele>715.6</ele>
        <time>2023-04-30T07:05:46Z</time>
      </trkpt>
      <trkpt lat="47.14739" lon="6.37474">
        <ele>714.6</ele>
        <time>2023-04-30T07:05:49Z</time>
      </trkpt>
      <trkpt lat="47.14726" lon="6.37504">
        <ele>713.2</ele>
        <time>2023-04-30T07:05:54Z</time>
      </trkpt>
      <trkpt lat="47.14722" lon="6.37519">
        <ele>711.8</ele>
        <time>2023-04-30T07:05:56Z</time>
      </trkpt>
      <trkpt lat="47.14719" lon="6.37533">
        <ele>710</ele>
        <time>2023-04-30T07:05:58Z</time>
      </trkpt>
      <trkpt lat="47.1472" lon="6.3754">
        <ele>709.2</ele>
        <time>2023-04-30T07:05:59Z</time>
      </trkpt>
      <trkpt lat="47.14721" lon="6.37545">
        <ele>708.6</ele>
        <time>2023-04-30T07:06:00Z</time>
      </trkpt>
      <trkpt lat="47.14725" lon="6.37556">
        <ele>707.6</ele>
        <time>2023-04-30T07:06:03Z</time>
      </trkpt>
      <trkpt lat="47.14733" lon="6.3757">
        <ele>707.6</ele>
        <time>2023-04-30T07:06:06Z</time>
      </trkpt>
      <trkpt lat="47.14741" lon="6.37584">
        <ele>706.4</ele>
        <time>2023-04-30T07:06:10Z</time>
      </trkpt>
      <trkpt lat="47.14745" lon="6.37592">
        <ele>706</ele>
        <time>2023-04-30T07:06:12Z</time>
      </trkpt>
      <trkpt lat="47.14748" lon="6.37598">
        <ele>705.2</ele>
        <time>2023-04-30T07:06:14Z</time>
      </trkpt>
      <trkpt lat="47.14757" lon="6.37612">
        <ele>704</ele>
        <time>2023-04-30T07:06:18Z</time>
      </trkpt>
      <trkpt lat="47.1476" lon="6.37617">
        <ele>703.6</ele>
        <time>2023-04-30T07:06:20Z</time>
      </trkpt>
      <trkpt lat="47.14762" lon="6.3762">
        <ele>702.8</ele>
        <time>2023-04-30T07:06:21Z</time>
      </trkpt>
      <trkpt lat="47.14776" lon="6.37638">
        <ele>701.6</ele>
        <time>2023-04-30T07:06:27Z</time>
      </trkpt>
      <trkpt lat="47.14787" lon="6.37649">
        <ele>699.8</ele>
        <time>2023-04-30T07:06:30Z</time>
      </trkpt>
      <trkpt lat="47.14797" lon="6.3766">
        <ele>697.8</ele>
        <time>2023-04-30T07:06:32Z</time>
      </trkpt>
      <trkpt lat="47.14801" lon="6.37664">
        <ele>696.8</ele>
        <time>2023-04-30T07:06:33Z</time>
      </trkpt>
      <trkpt lat="47.14809" lon="6.37673">
        <ele>695.4</ele>
        <time>2023-04-30T07:06:35Z</time>
      </trkpt>
      <trkpt lat="47.14816" lon="6.37681">
        <ele>694.4</ele>
        <time>2023-04-30T07:06:37Z</time>
      </trkpt>
      <trkpt lat="47.14823" lon="6.37689">
        <ele>694</ele>
        <time>2023-04-30T07:06:39Z</time>
      </trkpt>
      <trkpt lat="47.14837" lon="6.37708">
        <ele>695</ele>
        <time>2023-04-30T07:06:44Z</time>
      </trkpt>
      <trkpt lat="47.14852" lon="6.37731">
        <ele>695</ele>
        <time>2023-04-30T07:06:50Z</time>
      </trkpt>
      <trkpt lat="47.14852" lon="6.37739">
        <ele>695.2</ele>
        <time>2023-04-30T07:06:52Z</time>
      </trkpt>
      <trkpt lat="47.1485" lon="6.37743">
        <ele>695.4</ele>
        <time>2023-04-30T07:06:53Z</time>
      </trkpt>
      <trkpt lat="47.14842" lon="6.37752">
        <ele>695</ele>
        <time>2023-04-30T07:06:56Z</time>
      </trkpt>
      <trkpt lat="47.14837" lon="6.37759">
        <ele>695</ele>
        <time>2023-04-30T07:06:58Z</time>
      </trkpt>
      <trkpt lat="47.1482" lon="6.37786">
        <ele>695</ele>
        <time>2023-04-30T07:07:06Z</time>
      </trkpt>
      <trkpt lat="47.14799" lon="6.37817">
        <ele>695.4</ele>
        <time>2023-04-30T07:07:15Z</time>
      </trkpt>
      <trkpt lat="47.14789" lon="6.37833">
        <ele>695.6</ele>
        <time>2023-04-30T07:07:21Z</time>
      </trkpt>
      <trkpt lat="47.14774" lon="6.37856">
        <ele>695.8</ele>
        <time>2023-04-30T07:07:29Z</time>
      </trkpt>
      <trkpt lat="47.14765" lon="6.37859">
        <ele>696.2</ele>
        <time>2023-04-30T07:07:33Z</time>
      </trkpt>
      <trkpt lat="47.14746" lon="6.37852">
        <ele>695.8</ele>
        <time>2023-04-30T07:07:40Z</time>
      </trkpt>
      <trkpt lat="47.1474" lon="6.37856">
        <ele>695.6</ele>
        <time>2023-04-30T07:07:42Z</time>
      </trkpt>
      <trkpt lat="47.14738" lon="6.37863">
        <ele>695.6</ele>
        <time>2023-04-30T07:07:44Z</time>
      </trkpt>
      <trkpt lat="47.14744" lon="6.37877">
        <ele>695.4</ele>
        <time>2023-04-30T07:07:48Z</time>
      </trkpt>
      <trkpt lat="47.14751" lon="6.379">
        <ele>695</ele>
        <time>2023-04-30T07:07:55Z</time>
      </trkpt>
      <trkpt lat="47.14758" lon="6.37919">
        <ele>695</ele>
        <time>2023-04-30T07:08:01Z</time>
      </trkpt>
      <trkpt lat="47.14766" lon="6.37939">
        <ele>695.4</ele>
        <time>2023-04-30T07:08:08Z</time>
      </trkpt>
      <trkpt lat="47.14775" lon="6.37965">
        <ele>696.2</ele>
        <time>2023-04-30T07:08:16Z</time>
      </trkpt>
      <trkpt lat="47.14776" lon="6.37968">
        <ele>696.4</ele>
        <time>2023-04-30T07:08:17Z</time>
      </trkpt>
      <trkpt lat="47.14783" lon="6.37987">
        <ele>697.4</ele>
        <time>2023-04-30T07:08:23Z</time>
      </trkpt>
      <trkpt lat="47.14784" lon="6.3799">
        <ele>697.6</ele>
        <time>2023-04-30T07:08:24Z</time>
      </trkpt>
      <trkpt lat="47.14789" lon="6.38003">
        <ele>698.6</ele>
        <time>2023-04-30T07:08:28Z</time>
      </trkpt>
      <trkpt lat="47.14796" lon="6.3802">
        <ele>699.2</ele>
        <time>2023-04-30T07:08:33Z</time>
      </trkpt>
      <trkpt lat="47.14799" lon="6.3803">
        <ele>699.6</ele>
        <time>2023-04-30T07:08:36Z</time>
      </trkpt>
      <trkpt lat="47.14804" lon="6.38043">
        <ele>701</ele>
        <time>2023-04-30T07:08:40Z</time>
      </trkpt>
      <trkpt lat="47.14805" lon="6.38047">
        <ele>701.4</ele>
        <time>2023-04-30T07:08:41Z</time>
      </trkpt>
      <trkpt lat="47.14809" lon="6.38059">
        <ele>702</ele>
        <time>2023-04-30T07:08:45Z</time>
      </trkpt>
      <trkpt lat="47.14812" lon="6.38068">
        <ele>703.4</ele>
        <time>2023-04-30T07:08:48Z</time>
      </trkpt>
      <trkpt lat="47.14813" lon="6.38072">
        <ele>703.8</ele>
        <time>2023-04-30T07:08:49Z</time>
      </trkpt>
      <trkpt lat="47.14815" lon="6.38078">
        <ele>704.6</ele>
        <time>2023-04-30T07:08:51Z</time>
      </trkpt>
      <trkpt lat="47.14821" lon="6.38095">
        <ele>705.8</ele>
        <time>2023-04-30T07:08:57Z</time>
      </trkpt>
      <trkpt lat="47.14826" lon="6.38108">
        <ele>707</ele>
        <time>2023-04-30T07:09:01Z</time>
      </trkpt>
      <trkpt lat="47.14829" lon="6.38118">
        <ele>708</ele>
        <time>2023-04-30T07:09:04Z</time>
      </trkpt>
      <trkpt lat="47.1483" lon="6.38121">
        <ele>708</ele>
        <time>2023-04-30T07:09:05Z</time>
      </trkpt>
      <trkpt lat="47.14838" lon="6.38141">
        <ele>709</ele>
        <time>2023-04-30T07:09:11Z</time>
      </trkpt>
      <trkpt lat="47.14841" lon="6.38151">
        <ele>710</ele>
        <time>2023-04-30T07:09:14Z</time>
      </trkpt>
      <trkpt lat="47.14842" lon="6.38155">
        <ele>710.2</ele>
        <time>2023-04-30T07:09:15Z</time>
      </trkpt>
      <trkpt lat="47.14847" lon="6.38168">
        <ele>711</ele>
        <time>2023-04-30T07:09:19Z</time>
      </trkpt>
      <trkpt lat="47.14848" lon="6.38178">
        <ele>712.2</ele>
        <time>2023-04-30T07:09:22Z</time>
      </trkpt>
      <trkpt lat="47.14847" lon="6.38184">
        <ele>712.6</ele>
        <time>2023-04-30T07:09:24Z</time>
      </trkpt>
      <trkpt lat="47.14845" lon="6.38186">
        <ele>712.8</ele>
        <time>2023-04-30T07:09:25Z</time>
      </trkpt>
      <trkpt lat="47.14839" lon="6.38194">
        <ele>713</ele>
        <time>2023-04-30T07:09:28Z</time>
      </trkpt>
      <trkpt lat="47.14822" lon="6.38213">
        <ele>713.2</ele>
        <time>2023-04-30T07:09:34Z</time>
      </trkpt>
      <trkpt lat="47.14811" lon="6.38224">
        <ele>713.4</ele>
        <time>2023-04-30T07:09:38Z</time>
      </trkpt>
      <trkpt lat="47.14797" lon="6.38241">
        <ele>713.4</ele>
        <time>2023-04-30T07:09:43Z</time>
      </trkpt>
      <trkpt lat="47.14793" lon="6.38245">
        <ele>713.4</ele>
        <time>2023-04-30T07:09:45Z</time>
      </trkpt>
      <trkpt lat="47.1479" lon="6.38248">
        <ele>713.4</ele>
        <time>2023-04-30T07:09:46Z</time>
      </trkpt>
      <trkpt lat="47.14777" lon="6.38264">
        <ele>713.6</ele>
        <time>2023-04-30T07:09:52Z</time>
      </trkpt>
      <trkpt lat="47.14772" lon="6.38273">
        <ele>714.2</ele>
        <time>2023-04-30T07:09:55Z</time>
      </trkpt>
      <trkpt lat="47.1477" lon="6.38277">
        <ele>714.2</ele>
        <time>2023-04-30T07:09:56Z</time>
      </trkpt>
      <trkpt lat="47.1476" lon="6.38289">
        <ele>714.4</ele>
        <time>2023-04-30T07:10:01Z</time>
      </trkpt>
      <trkpt lat="47.14749" lon="6.38297">
        <ele>715.6</ele>
        <time>2023-04-30T07:10:08Z</time>
      </trkpt>
      <trkpt lat="47.14747" lon="6.38299">
        <ele>716.2</ele>
        <time>2023-04-30T07:10:09Z</time>
      </trkpt>
      <trkpt lat="47.14743" lon="6.38302">
        <ele>716.8</ele>
        <time>2023-04-30T07:10:11Z</time>
      </trkpt>
      <trkpt lat="47.14735" lon="6.3831">
        <ele>717.8</ele>
        <time>2023-04-30T07:10:16Z</time>
      </trkpt>
      <trkpt lat="47.14733" lon="6.38311">
        <ele>718</ele>
        <time>2023-04-30T07:10:17Z</time>
      </trkpt>
      <trkpt lat="47.1472" lon="6.38321">
        <ele>718.4</ele>
        <time>2023-04-30T07:10:24Z</time>
      </trkpt>
      <trkpt lat="47.14715" lon="6.38327">
        <ele>719</ele>
        <time>2023-04-30T07:10:27Z</time>
      </trkpt>
      <trkpt lat="47.14711" lon="6.38331">
        <ele>719.2</ele>
        <time>2023-04-30T07:10:29Z</time>
      </trkpt>
      <trkpt lat="47.14698" lon="6.38339">
        <ele>717.6</ele>
        <time>2023-04-30T07:10:35Z</time>
      </trkpt>
      <trkpt lat="47.14681" lon="6.38354">
        <ele>716.2</ele>
        <time>2023-04-30T07:10:40Z</time>
      </trkpt>
      <trkpt lat="47.14678" lon="6.38356">
        <ele>716</ele>
        <time>2023-04-30T07:10:41Z</time>
      </trkpt>
      <trkpt lat="47.14672" lon="6.3836">
        <ele>715.2</ele>
        <time>2023-04-30T07:10:43Z</time>
      </trkpt>
      <trkpt lat="47.14663" lon="6.38363">
        <ele>714.2</ele>
        <time>2023-04-30T07:10:46Z</time>
      </trkpt>
      <trkpt lat="47.14659" lon="6.38366">
        <ele>714</ele>
        <time>2023-04-30T07:10:47Z</time>
      </trkpt>
      <trkpt lat="47.14646" lon="6.38377">
        <ele>713</ele>
        <time>2023-04-30T07:10:51Z</time>
      </trkpt>
      <trkpt lat="47.14643" lon="6.3838">
        <ele>713</ele>
        <time>2023-04-30T07:10:52Z</time>
      </trkpt>
      <trkpt lat="47.14625" lon="6.38395">
        <ele>713.2</ele>
        <time>2023-04-30T07:10:58Z</time>
      </trkpt>
      <trkpt lat="47.14624" lon="6.38397">
        <ele>714.2</ele>
        <time>2023-04-30T07:10:59Z</time>
      </trkpt>
      <trkpt lat="47.14623" lon="6.38399">
        <ele>715.6</ele>
        <time>2023-04-30T07:11:00Z</time>
      </trkpt>
      <trkpt lat="47.14622" lon="6.38402">
        <ele>717</ele>
        <time>2023-04-30T07:11:01Z</time>
      </trkpt>
      <trkpt lat="47.1462" lon="6.38406">
        <ele>718</ele>
        <time>2023-04-30T07:11:02Z</time>
      </trkpt>
      <trkpt lat="47.14617" lon="6.38411">
        <ele>719.2</ele>
        <time>2023-04-30T07:11:04Z</time>
      </trkpt>
      <trkpt lat="47.14616" lon="6.38416">
        <ele>719.8</ele>
        <time>2023-04-30T07:11:06Z</time>
      </trkpt>
      <trkpt lat="47.14616" lon="6.38418">
        <ele>720.2</ele>
        <time>2023-04-30T07:11:07Z</time>
      </trkpt>
      <trkpt lat="47.14612" lon="6.38428">
        <ele>720.8</ele>
        <time>2023-04-30T07:11:14Z</time>
      </trkpt>
      <trkpt lat="47.14604" lon="6.38436">
        <ele>721.2</ele>
        <time>2023-04-30T07:11:18Z</time>
      </trkpt>
      <trkpt lat="47.14601" lon="6.38441">
        <ele>721.4</ele>
        <time>2023-04-30T07:11:19Z</time>
      </trkpt>
      <trkpt lat="47.14593" lon="6.38454">
        <ele>722.4</ele>
        <time>2023-04-30T07:11:23Z</time>
      </trkpt>
      <trkpt lat="47.1459" lon="6.38461">
        <ele>723</ele>
        <time>2023-04-30T07:11:25Z</time>
      </trkpt>
      <trkpt lat="47.14582" lon="6.38473">
        <ele>723.2</ele>
        <time>2023-04-30T07:11:31Z</time>
      </trkpt>
      <trkpt lat="47.14573" lon="6.38482">
        <ele>723.6</ele>
        <time>2023-04-30T07:11:36Z</time>
      </trkpt>
      <trkpt lat="47.14564" lon="6.38492">
        <ele>724.6</ele>
        <time>2023-04-30T07:11:40Z</time>
      </trkpt>
      <trkpt lat="47.14561" lon="6.38499">
        <ele>725.4</ele>
        <time>2023-04-30T07:11:42Z</time>
      </trkpt>
      <trkpt lat="47.14556" lon="6.3852">
        <ele>724.4</ele>
        <time>2023-04-30T07:11:48Z</time>
      </trkpt>
      <trkpt lat="47.14555" lon="6.38544">
        <ele>725.6</ele>
        <time>2023-04-30T07:11:54Z</time>
      </trkpt>
      <trkpt lat="47.14556" lon="6.38548">
        <ele>727</ele>
        <time>2023-04-30T07:11:55Z</time>
      </trkpt>
      <trkpt lat="47.14556" lon="6.38553">
        <ele>728.4</ele>
        <time>2023-04-30T07:11:56Z</time>
      </trkpt>
      <trkpt lat="47.14559" lon="6.38562">
        <ele>729.8</ele>
        <time>2023-04-30T07:11:59Z</time>
      </trkpt>
      <trkpt lat="47.14561" lon="6.3857">
        <ele>731</ele>
        <time>2023-04-30T07:12:01Z</time>
      </trkpt>
      <trkpt lat="47.14564" lon="6.38581">
        <ele>732.2</ele>
        <time>2023-04-30T07:12:04Z</time>
      </trkpt>
      <trkpt lat="47.14567" lon="6.38586">
        <ele>732.8</ele>
        <time>2023-04-30T07:12:06Z</time>
      </trkpt>
      <trkpt lat="47.1457" lon="6.38589">
        <ele>733.4</ele>
        <time>2023-04-30T07:12:07Z</time>
      </trkpt>
      <trkpt lat="47.14577" lon="6.38605">
        <ele>734.4</ele>
        <time>2023-04-30T07:12:12Z</time>
      </trkpt>
      <trkpt lat="47.1458" lon="6.3861">
        <ele>735.6</ele>
        <time>2023-04-30T07:12:15Z</time>
      </trkpt>
      <trkpt lat="47.1458" lon="6.38617">
        <ele>736.8</ele>
        <time>2023-04-30T07:12:18Z</time>
      </trkpt>
      <trkpt lat="47.14574" lon="6.38624">
        <ele>739.4</ele>
        <time>2023-04-30T07:12:24Z</time>
      </trkpt>
      <trkpt lat="47.14565" lon="6.38618">
        <ele>740.4</ele>
        <time>2023-04-30T07:12:28Z</time>
      </trkpt>
      <trkpt lat="47.14557" lon="6.38617">
        <ele>744.4</ele>
        <time>2023-04-30T07:13:57Z</time>
      </trkpt>
      <trkpt lat="47.14555" lon="6.38617">
        <ele>744.4</ele>
        <time>2023-04-30T07:13:58Z</time>
      </trkpt>
      <trkpt lat="47.14537" lon="6.3861">
        <ele>744.6</ele>
        <time>2023-04-30T07:14:05Z</time>
      </trkpt>
      <trkpt lat="47.14513" lon="6.38599">
        <ele>745</ele>
        <time>2023-04-30T07:14:14Z</time>
      </trkpt>
      <trkpt lat="47.14502" lon="6.38594">
        <ele>745.6</ele>
        <time>2023-04-30T07:14:18Z</time>
      </trkpt>
      <trkpt lat="47.14496" lon="6.38591">
        <ele>745.6</ele>
        <time>2023-04-30T07:14:20Z</time>
      </trkpt>
      <trkpt lat="47.14478" lon="6.38584">
        <ele>745.4</ele>
        <time>2023-04-30T07:14:28Z</time>
      </trkpt>
      <trkpt lat="47.14463" lon="6.3858">
        <ele>744.4</ele>
        <time>2023-04-30T07:14:33Z</time>
      </trkpt>
      <trkpt lat="47.1446" lon="6.38579">
        <ele>744.2</ele>
        <time>2023-04-30T07:14:34Z</time>
      </trkpt>
      <trkpt lat="47.14444" lon="6.38577">
        <ele>743.4</ele>
        <time>2023-04-30T07:14:39Z</time>
      </trkpt>
      <trkpt lat="47.14434" lon="6.38577">
        <ele>743.8</ele>
        <time>2023-04-30T07:14:42Z</time>
      </trkpt>
      <trkpt lat="47.1441" lon="6.38583">
        <ele>743.8</ele>
        <time>2023-04-30T07:14:49Z</time>
      </trkpt>
      <trkpt lat="47.14386" lon="6.38598">
        <ele>743.6</ele>
        <time>2023-04-30T07:14:56Z</time>
      </trkpt>
      <trkpt lat="47.14364" lon="6.3861">
        <ele>743.2</ele>
        <time>2023-04-30T07:15:02Z</time>
      </trkpt>
      <trkpt lat="47.14357" lon="6.38617">
        <ele>742.2</ele>
        <time>2023-04-30T07:15:05Z</time>
      </trkpt>
      <trkpt lat="47.14356" lon="6.38622">
        <ele>742</ele>
        <time>2023-04-30T07:15:06Z</time>
      </trkpt>
      <trkpt lat="47.14358" lon="6.38629">
        <ele>741.2</ele>
        <time>2023-04-30T07:15:09Z</time>
      </trkpt>
      <trkpt lat="47.14358" lon="6.3863">
        <ele>741</ele>
        <time>2023-04-30T07:15:10Z</time>
      </trkpt>
      <trkpt lat="47.14364" lon="6.38642">
        <ele>740.4</ele>
        <time>2023-04-30T07:15:16Z</time>
      </trkpt>
      <trkpt lat="47.14371" lon="6.38656">
        <ele>740.2</ele>
        <time>2023-04-30T07:15:22Z</time>
      </trkpt>
      <trkpt lat="47.14374" lon="6.38663">
        <ele>740.6</ele>
        <time>2023-04-30T07:15:26Z</time>
      </trkpt>
      <trkpt lat="47.14375" lon="6.38667">
        <ele>741.2</ele>
        <time>2023-04-30T07:15:28Z</time>
      </trkpt>
      <trkpt lat="47.14377" lon="6.3867">
        <ele>741</ele>
        <time>2023-04-30T07:15:30Z</time>
      </trkpt>
      <trkpt lat="47.14382" lon="6.38678">
        <ele>741.2</ele>
        <time>2023-04-30T07:15:35Z</time>
      </trkpt>
      <trkpt lat="47.14388" lon="6.38688">
        <ele>742.4</ele>
        <time>2023-04-30T07:15:41Z</time>
      </trkpt>
      <trkpt lat="47.14392" lon="6.38693">
        <ele>743.4</ele>
        <time>2023-04-30T07:15:44Z</time>
      </trkpt>
      <trkpt lat="47.14395" lon="6.38697">
        <ele>743.8</ele>
        <time>2023-04-30T07:15:48Z</time>
      </trkpt>
      <trkpt lat="47.14401" lon="6.38706">
        <ele>744.6</ele>
        <time>2023-04-30T07:15:55Z</time>
      </trkpt>
      <trkpt lat="47.14402" lon="6.38707">
        <ele>744.8</ele>
        <time>2023-04-30T07:15:56Z</time>
      </trkpt>
      <trkpt lat="47.14409" lon="6.38718">
        <ele>744.8</ele>
        <time>2023-04-30T07:16:03Z</time>
      </trkpt>
      <trkpt lat="47.14415" lon="6.38728">
        <ele>745.2</ele>
        <time>2023-04-30T07:16:10Z</time>
      </trkpt>
      <trkpt lat="47.14417" lon="6.38731">
        <ele>745.6</ele>
        <time>2023-04-30T07:16:12Z</time>
      </trkpt>
      <trkpt lat="47.14435" lon="6.38761">
        <ele>747</ele>
        <time>2023-04-30T07:16:32Z</time>
      </trkpt>
      <trkpt lat="47.14447" lon="6.38776">
        <ele>747.6</ele>
        <time>2023-04-30T07:16:43Z</time>
      </trkpt>
      <trkpt lat="47.1445" lon="6.3878">
        <ele>747.6</ele>
        <time>2023-04-30T07:16:45Z</time>
      </trkpt>
      <trkpt lat="47.14458" lon="6.3879">
        <ele>748</ele>
        <time>2023-04-30T07:16:51Z</time>
      </trkpt>
      <trkpt lat="47.14466" lon="6.388">
        <ele>749.4</ele>
        <time>2023-04-30T07:16:56Z</time>
      </trkpt>
      <trkpt lat="47.14467" lon="6.38802">
        <ele>749.8</ele>
        <time>2023-04-30T07:16:57Z</time>
      </trkpt>
      <trkpt lat="47.1447" lon="6.38805">
        <ele>750.8</ele>
        <time>2023-04-30T07:16:59Z</time>
      </trkpt>
      <trkpt lat="47.14475" lon="6.38809">
        <ele>752.2</ele>
        <time>2023-04-30T07:17:02Z</time>
      </trkpt>
      <trkpt lat="47.14479" lon="6.38813">
        <ele>753.4</ele>
        <time>2023-04-30T07:17:05Z</time>
      </trkpt>
      <trkpt lat="47.1448" lon="6.38814">
        <ele>753.8</ele>
        <time>2023-04-30T07:17:06Z</time>
      </trkpt>
      <trkpt lat="47.145" lon="6.38831">
        <ele>758.6</ele>
        <time>2023-04-30T07:17:21Z</time>
      </trkpt>
      <trkpt lat="47.14504" lon="6.38836">
        <ele>759.6</ele>
        <time>2023-04-30T07:17:24Z</time>
      </trkpt>
      <trkpt lat="47.14516" lon="6.38863">
        <ele>762</ele>
        <time>2023-04-30T07:17:43Z</time>
      </trkpt>
      <trkpt lat="47.14509" lon="6.38991">
        <ele>773.2</ele>
        <time>2023-04-30T07:19:14Z</time>
      </trkpt>
      <trkpt lat="47.1451" lon="6.38994">
        <ele>773</ele>
        <time>2023-04-30T07:19:15Z</time>
      </trkpt>
      <trkpt lat="47.14513" lon="6.39008">
        <ele>773.6</ele>
        <time>2023-04-30T07:19:21Z</time>
      </trkpt>
      <trkpt lat="47.14518" lon="6.39053">
        <ele>773.6</ele>
        <time>2023-04-30T07:19:56Z</time>
      </trkpt>
      <trkpt lat="47.14516" lon="6.39057">
        <ele>772.8</ele>
        <time>2023-04-30T07:19:58Z</time>
      </trkpt>
      <trkpt lat="47.14514" lon="6.39064">
        <ele>772.2</ele>
        <time>2023-04-30T07:20:00Z</time>
      </trkpt>
      <trkpt lat="47.14513" lon="6.39067">
        <ele>772</ele>
        <time>2023-04-30T07:20:01Z</time>
      </trkpt>
      <trkpt lat="47.14512" lon="6.39076">
        <ele>771.4</ele>
        <time>2023-04-30T07:20:04Z</time>
      </trkpt>
      <trkpt lat="47.14516" lon="6.39095">
        <ele>771</ele>
        <time>2023-04-30T07:20:09Z</time>
      </trkpt>
      <trkpt lat="47.14517" lon="6.3911">
        <ele>770.8</ele>
        <time>2023-04-30T07:20:13Z</time>
      </trkpt>
      <trkpt lat="47.14515" lon="6.39117">
        <ele>771</ele>
        <time>2023-04-30T07:20:15Z</time>
      </trkpt>
      <trkpt lat="47.14513" lon="6.39143">
        <ele>771</ele>
        <time>2023-04-30T07:20:23Z</time>
      </trkpt>
      <trkpt lat="47.14512" lon="6.39165">
        <ele>771.2</ele>
        <time>2023-04-30T07:20:30Z</time>
      </trkpt>
      <trkpt lat="47.1451" lon="6.39193">
        <ele>770.6</ele>
        <time>2023-04-30T07:20:37Z</time>
      </trkpt>
      <trkpt lat="47.14509" lon="6.39215">
        <ele>770.6</ele>
        <time>2023-04-30T07:20:42Z</time>
      </trkpt>
      <trkpt lat="47.14516" lon="6.39235">
        <ele>770</ele>
        <time>2023-04-30T07:20:47Z</time>
      </trkpt>
      <trkpt lat="47.14525" lon="6.39257">
        <ele>769</ele>
        <time>2023-04-30T07:20:52Z</time>
      </trkpt>
      <trkpt lat="47.14531" lon="6.39267">
        <ele>768.2</ele>
        <time>2023-04-30T07:20:55Z</time>
      </trkpt>
      <trkpt lat="47.14546" lon="6.39284">
        <ele>768</ele>
        <time>2023-04-30T07:21:00Z</time>
      </trkpt>
      <trkpt lat="47.14563" lon="6.39299">
        <ele>767.4</ele>
        <time>2023-04-30T07:21:06Z</time>
      </trkpt>
      <trkpt lat="47.1458" lon="6.39312">
        <ele>768.4</ele>
        <time>2023-04-30T07:21:13Z</time>
      </trkpt>
      <trkpt lat="47.14591" lon="6.39323">
        <ele>769</ele>
        <time>2023-04-30T07:21:16Z</time>
      </trkpt>
      <trkpt lat="47.14599" lon="6.3934">
        <ele>769.4</ele>
        <time>2023-04-30T07:21:19Z</time>
      </trkpt>
      <trkpt lat="47.14611" lon="6.39367">
        <ele>769.4</ele>
        <time>2023-04-30T07:21:24Z</time>
      </trkpt>
      <trkpt lat="47.14609" lon="6.3939">
        <ele>768.4</ele>
        <time>2023-04-30T07:21:28Z</time>
      </trkpt>
      <trkpt lat="47.146" lon="6.39404">
        <ele>768</ele>
        <time>2023-04-30T07:21:31Z</time>
      </trkpt>
      <trkpt lat="47.14595" lon="6.39408">
        <ele>767.8</ele>
        <time>2023-04-30T07:21:32Z</time>
      </trkpt>
      <trkpt lat="47.1457" lon="6.39426">
        <ele>767</ele>
        <time>2023-04-30T07:21:37Z</time>
      </trkpt>
      <trkpt lat="47.14565" lon="6.39427">
        <ele>767</ele>
        <time>2023-04-30T07:21:38Z</time>
      </trkpt>
      <trkpt lat="47.14559" lon="6.39428">
        <ele>766.8</ele>
        <time>2023-04-30T07:21:39Z</time>
      </trkpt>
      <trkpt lat="47.14533" lon="6.39433">
        <ele>766.2</ele>
        <time>2023-04-30T07:21:44Z</time>
      </trkpt>
      <trkpt lat="47.14521" lon="6.39432">
        <ele>765.6</ele>
        <time>2023-04-30T07:21:46Z</time>
      </trkpt>
      <trkpt lat="47.145" lon="6.39431">
        <ele>765</ele>
        <time>2023-04-30T07:21:49Z</time>
      </trkpt>
      <trkpt lat="47.14484" lon="6.39431">
        <ele>764.4</ele>
        <time>2023-04-30T07:21:51Z</time>
      </trkpt>
      <trkpt lat="47.14462" lon="6.39433">
        <ele>763</ele>
        <time>2023-04-30T07:21:54Z</time>
      </trkpt>
      <trkpt lat="47.14447" lon="6.39434">
        <ele>761.6</ele>
        <time>2023-04-30T07:21:56Z</time>
      </trkpt>
      <trkpt lat="47.14439" lon="6.39434">
        <ele>760.8</ele>
        <time>2023-04-30T07:21:57Z</time>
      </trkpt>
      <trkpt lat="47.14431" lon="6.39435">
        <ele>760</ele>
        <time>2023-04-30T07:21:58Z</time>
      </trkpt>
      <trkpt lat="47.14415" lon="6.39438">
        <ele>758.6</ele>
        <time>2023-04-30T07:22:00Z</time>
      </trkpt>
      <trkpt lat="47.14398" lon="6.3944">
        <ele>757.4</ele>
        <time>2023-04-30T07:22:02Z</time>
      </trkpt>
      <trkpt lat="47.1438" lon="6.39443">
        <ele>756.2</ele>
        <time>2023-04-30T07:22:04Z</time>
      </trkpt>
      <trkpt lat="47.14364" lon="6.39445">
        <ele>754.8</ele>
        <time>2023-04-30T07:22:06Z</time>
      </trkpt>
      <trkpt lat="47.1434" lon="6.39448">
        <ele>753.4</ele>
        <time>2023-04-30T07:22:09Z</time>
      </trkpt>
      <trkpt lat="47.14324" lon="6.39449">
        <ele>752.4</ele>
        <time>2023-04-30T07:22:11Z</time>
      </trkpt>
      <trkpt lat="47.14316" lon="6.39451">
        <ele>752</ele>
        <time>2023-04-30T07:22:12Z</time>
      </trkpt>
      <trkpt lat="47.14293" lon="6.39458">
        <ele>750.4</ele>
        <time>2023-04-30T07:22:15Z</time>
      </trkpt>
      <trkpt lat="47.14278" lon="6.39465">
        <ele>749.4</ele>
        <time>2023-04-30T07:22:17Z</time>
      </trkpt>
      <trkpt lat="47.14263" lon="6.39473">
        <ele>748.2</ele>
        <time>2023-04-30T07:22:19Z</time>
      </trkpt>
      <trkpt lat="47.14249" lon="6.39481">
        <ele>747.2</ele>
        <time>2023-04-30T07:22:21Z</time>
      </trkpt>
      <trkpt lat="47.14236" lon="6.39488">
        <ele>745.6</ele>
        <time>2023-04-30T07:22:23Z</time>
      </trkpt>
      <trkpt lat="47.14216" lon="6.39494">
        <ele>744.6</ele>
        <time>2023-04-30T07:22:26Z</time>
      </trkpt>
      <trkpt lat="47.14196" lon="6.395">
        <ele>743.2</ele>
        <time>2023-04-30T07:22:29Z</time>
      </trkpt>
      <trkpt lat="47.14182" lon="6.39504">
        <ele>742.4</ele>
        <time>2023-04-30T07:22:31Z</time>
      </trkpt>
      <trkpt lat="47.14175" lon="6.39505">
        <ele>742</ele>
        <time>2023-04-30T07:22:32Z</time>
      </trkpt>
      <trkpt lat="47.14155" lon="6.39509">
        <ele>741</ele>
        <time>2023-04-30T07:22:35Z</time>
      </trkpt>
      <trkpt lat="47.14139" lon="6.39512">
        <ele>739.6</ele>
        <time>2023-04-30T07:22:38Z</time>
      </trkpt>
      <trkpt lat="47.14125" lon="6.39514">
        <ele>738.2</ele>
        <time>2023-04-30T07:22:42Z</time>
      </trkpt>
      <trkpt lat="47.14121" lon="6.39521">
        <ele>737.4</ele>
        <time>2023-04-30T07:22:45Z</time>
      </trkpt>
      <trkpt lat="47.14122" lon="6.39524">
        <ele>737.4</ele>
        <time>2023-04-30T07:22:46Z</time>
      </trkpt>
      <trkpt lat="47.14125" lon="6.39527">
        <ele>737</ele>
        <time>2023-04-30T07:22:47Z</time>
      </trkpt>
      <trkpt lat="47.14131" lon="6.39531">
        <ele>736.8</ele>
        <time>2023-04-30T07:22:49Z</time>
      </trkpt>
      <trkpt lat="47.14136" lon="6.39536">
        <ele>736.8</ele>
        <time>2023-04-30T07:22:51Z</time>
      </trkpt>
      <trkpt lat="47.14149" lon="6.39548">
        <ele>738</ele>
        <time>2023-04-30T07:22:56Z</time>
      </trkpt>
      <trkpt lat="47.14152" lon="6.39551">
        <ele>738.2</ele>
        <time>2023-04-30T07:22:57Z</time>
      </trkpt>
      <trkpt lat="47.14173" lon="6.39574">
        <ele>739.4</ele>
        <time>2023-04-30T07:23:05Z</time>
      </trkpt>
      <trkpt lat="47.14195" lon="6.39598">
        <ele>740</ele>
        <time>2023-04-30T07:23:14Z</time>
      </trkpt>
      <trkpt lat="47.14203" lon="6.39609">
        <ele>740.6</ele>
        <time>2023-04-30T07:23:17Z</time>
      </trkpt>
      <trkpt lat="47.14209" lon="6.39623">
        <ele>740.2</ele>
        <time>2023-04-30T07:23:20Z</time>
      </trkpt>
      <trkpt lat="47.14217" lon="6.39672">
        <ele>740.8</ele>
        <time>2023-04-30T07:23:28Z</time>
      </trkpt>
      <trkpt lat="47.14224" lon="6.39726">
        <ele>741.6</ele>
        <time>2023-04-30T07:23:37Z</time>
      </trkpt>
      <trkpt lat="47.1423" lon="6.39764">
        <ele>741.4</ele>
        <time>2023-04-30T07:23:43Z</time>
      </trkpt>
      <trkpt lat="47.14232" lon="6.39775">
        <ele>741.8</ele>
        <time>2023-04-30T07:23:45Z</time>
      </trkpt>
      <trkpt lat="47.14238" lon="6.398">
        <ele>742.6</ele>
        <time>2023-04-30T07:23:50Z</time>
      </trkpt>
      <trkpt lat="47.14241" lon="6.3981">
        <ele>742.4</ele>
        <time>2023-04-30T07:23:52Z</time>
      </trkpt>
      <trkpt lat="47.14251" lon="6.39833">
        <ele>743</ele>
        <time>2023-04-30T07:23:58Z</time>
      </trkpt>
      <trkpt lat="47.14258" lon="6.39845">
        <ele>743.6</ele>
        <time>2023-04-30T07:24:01Z</time>
      </trkpt>
      <trkpt lat="47.14265" lon="6.39858">
        <ele>743.8</ele>
        <time>2023-04-30T07:24:04Z</time>
      </trkpt>
      <trkpt lat="47.14274" lon="6.39875">
        <ele>744.8</ele>
        <time>2023-04-30T07:24:08Z</time>
      </trkpt>
      <trkpt lat="47.1428" lon="6.39884">
        <ele>746</ele>
        <time>2023-04-30T07:24:11Z</time>
      </trkpt>
      <trkpt lat="47.1429" lon="6.39898">
        <ele>747</ele>
        <time>2023-04-30T07:24:16Z</time>
      </trkpt>
      <trkpt lat="47.14297" lon="6.39912">
        <ele>748.4</ele>
        <time>2023-04-30T07:24:21Z</time>
      </trkpt>
      <trkpt lat="47.143" lon="6.39919">
        <ele>749</ele>
        <time>2023-04-30T07:24:24Z</time>
      </trkpt>
      <trkpt lat="47.14302" lon="6.39924">
        <ele>749.8</ele>
        <time>2023-04-30T07:24:26Z</time>
      </trkpt>
      <trkpt lat="47.14302" lon="6.39927">
        <ele>750.2</ele>
        <time>2023-04-30T07:24:27Z</time>
      </trkpt>
      <trkpt lat="47.14302" lon="6.39935">
        <ele>750.8</ele>
        <time>2023-04-30T07:24:29Z</time>
      </trkpt>
      <trkpt lat="47.14302" lon="6.39939">
        <ele>751.2</ele>
        <time>2023-04-30T07:24:30Z</time>
      </trkpt>
      <trkpt lat="47.14302" lon="6.39948">
        <ele>752.2</ele>
        <time>2023-04-30T07:24:32Z</time>
      </trkpt>
      <trkpt lat="47.14299" lon="6.39964">
        <ele>752.8</ele>
        <time>2023-04-30T07:24:36Z</time>
      </trkpt>
      <trkpt lat="47.14295" lon="6.39986">
        <ele>753</ele>
        <time>2023-04-30T07:24:42Z</time>
      </trkpt>
      <trkpt lat="47.14295" lon="6.39988">
        <ele>753.2</ele>
        <time>2023-04-30T07:24:43Z</time>
      </trkpt>
      <trkpt lat="47.14294" lon="6.39998">
        <ele>753.2</ele>
        <time>2023-04-30T07:24:46Z</time>
      </trkpt>
      <trkpt lat="47.14296" lon="6.40008">
        <ele>753.6</ele>
        <time>2023-04-30T07:24:49Z</time>
      </trkpt>
      <trkpt lat="47.14298" lon="6.40024">
        <ele>754.4</ele>
        <time>2023-04-30T07:24:55Z</time>
      </trkpt>
      <trkpt lat="47.14299" lon="6.40031">
        <ele>754.4</ele>
        <time>2023-04-30T07:24:57Z</time>
      </trkpt>
      <trkpt lat="47.14304" lon="6.40052">
        <ele>755</ele>
        <time>2023-04-30T07:25:03Z</time>
      </trkpt>
      <trkpt lat="47.14308" lon="6.40075">
        <ele>755</ele>
        <time>2023-04-30T07:25:10Z</time>
      </trkpt>
      <trkpt lat="47.1431" lon="6.40081">
        <ele>755.8</ele>
        <time>2023-04-30T07:25:12Z</time>
      </trkpt>
      <trkpt lat="47.14312" lon="6.40089">
        <ele>757</ele>
        <time>2023-04-30T07:25:14Z</time>
      </trkpt>
      <trkpt lat="47.14314" lon="6.40097">
        <ele>757.8</ele>
        <time>2023-04-30T07:25:16Z</time>
      </trkpt>
      <trkpt lat="47.14315" lon="6.40101">
        <ele>758</ele>
        <time>2023-04-30T07:25:17Z</time>
      </trkpt>
      <trkpt lat="47.14317" lon="6.40125">
        <ele>757.8</ele>
        <time>2023-04-30T07:25:22Z</time>
      </trkpt>
      <trkpt lat="47.14317" lon="6.4013">
        <ele>757.6</ele>
        <time>2023-04-30T07:25:23Z</time>
      </trkpt>
      <trkpt lat="47.14314" lon="6.40138">
        <ele>758.6</ele>
        <time>2023-04-30T07:25:25Z</time>
      </trkpt>
      <trkpt lat="47.14303" lon="6.40138">
        <ele>757.4</ele>
        <time>2023-04-30T07:25:29Z</time>
      </trkpt>
      <trkpt lat="47.14288" lon="6.40138">
        <ele>756.6</ele>
        <time>2023-04-30T07:25:32Z</time>
      </trkpt>
      <trkpt lat="47.14277" lon="6.40137">
        <ele>755.8</ele>
        <time>2023-04-30T07:25:34Z</time>
      </trkpt>
      <trkpt lat="47.14271" lon="6.40137">
        <ele>755.4</ele>
        <time>2023-04-30T07:25:35Z</time>
      </trkpt>
      <trkpt lat="47.14253" lon="6.40135">
        <ele>754.2</ele>
        <time>2023-04-30T07:25:38Z</time>
      </trkpt>
      <trkpt lat="47.14241" lon="6.40135">
        <ele>752.8</ele>
        <time>2023-04-30T07:25:40Z</time>
      </trkpt>
      <trkpt lat="47.14228" lon="6.40134">
        <ele>751.2</ele>
        <time>2023-04-30T07:25:42Z</time>
      </trkpt>
      <trkpt lat="47.14222" lon="6.40133">
        <ele>750.4</ele>
        <time>2023-04-30T07:25:43Z</time>
      </trkpt>
      <trkpt lat="47.14216" lon="6.40133">
        <ele>749.8</ele>
        <time>2023-04-30T07:25:44Z</time>
      </trkpt>
      <trkpt lat="47.14204" lon="6.40134">
        <ele>748.4</ele>
        <time>2023-04-30T07:25:47Z</time>
      </trkpt>
      <trkpt lat="47.14202" lon="6.40137">
        <ele>748</ele>
        <time>2023-04-30T07:25:48Z</time>
      </trkpt>
      <trkpt lat="47.14203" lon="6.40145">
        <ele>747.2</ele>
        <time>2023-04-30T07:25:50Z</time>
      </trkpt>
      <trkpt lat="47.14208" lon="6.40156">
        <ele>746</ele>
        <time>2023-04-30T07:25:53Z</time>
      </trkpt>
      <trkpt lat="47.14214" lon="6.40172">
        <ele>745.2</ele>
        <time>2023-04-30T07:25:56Z</time>
      </trkpt>
      <trkpt lat="47.1422" lon="6.40189">
        <ele>745</ele>
        <time>2023-04-30T07:25:59Z</time>
      </trkpt>
      <trkpt lat="47.14228" lon="6.40212">
        <ele>744.6</ele>
        <time>2023-04-30T07:26:03Z</time>
      </trkpt>
      <trkpt lat="47.14244" lon="6.40263">
        <ele>745.4</ele>
        <time>2023-04-30T07:26:12Z</time>
      </trkpt>
      <trkpt lat="47.14254" lon="6.403">
        <ele>745.8</ele>
        <time>2023-04-30T07:26:20Z</time>
      </trkpt>
      <trkpt lat="47.14266" lon="6.40337">
        <ele>745.8</ele>
        <time>2023-04-30T07:26:28Z</time>
      </trkpt>
      <trkpt lat="47.14268" lon="6.40342">
        <ele>746</ele>
        <time>2023-04-30T07:26:29Z</time>
      </trkpt>
      <trkpt lat="47.14282" lon="6.40371">
        <ele>747</ele>
        <time>2023-04-30T07:26:36Z</time>
      </trkpt>
      <trkpt lat="47.14289" lon="6.40382">
        <ele>748</ele>
        <time>2023-04-30T07:26:39Z</time>
      </trkpt>
      <trkpt lat="47.143" lon="6.40399">
        <ele>749.2</ele>
        <time>2023-04-30T07:26:44Z</time>
      </trkpt>
      <trkpt lat="47.14302" lon="6.40402">
        <ele>749.4</ele>
        <time>2023-04-30T07:26:45Z</time>
      </trkpt>
      <trkpt lat="47.14313" lon="6.40415">
        <ele>750.4</ele>
        <time>2023-04-30T07:26:50Z</time>
      </trkpt>
      <trkpt lat="47.14319" lon="6.40423">
        <ele>751.2</ele>
        <time>2023-04-30T07:26:53Z</time>
      </trkpt>
      <trkpt lat="47.14323" lon="6.40428">
        <ele>751.6</ele>
        <time>2023-04-30T07:26:55Z</time>
      </trkpt>
      <trkpt lat="47.14336" lon="6.40447">
        <ele>752.4</ele>
        <time>2023-04-30T07:27:02Z</time>
      </trkpt>
      <trkpt lat="47.14337" lon="6.4045">
        <ele>752.6</ele>
        <time>2023-04-30T07:27:03Z</time>
      </trkpt>
      <trkpt lat="47.14349" lon="6.40467">
        <ele>753.4</ele>
        <time>2023-04-30T07:27:09Z</time>
      </trkpt>
      <trkpt lat="47.14354" lon="6.40476">
        <ele>753.8</ele>
        <time>2023-04-30T07:27:12Z</time>
      </trkpt>
      <trkpt lat="47.14364" lon="6.40497">
        <ele>754.6</ele>
        <time>2023-04-30T07:27:18Z</time>
      </trkpt>
      <trkpt lat="47.14366" lon="6.40504">
        <ele>755</ele>
        <time>2023-04-30T07:27:20Z</time>
      </trkpt>
      <trkpt lat="47.14374" lon="6.40535">
        <ele>755.8</ele>
        <time>2023-04-30T07:27:28Z</time>
      </trkpt>
      <trkpt lat="47.14382" lon="6.40561">
        <ele>756.2</ele>
        <time>2023-04-30T07:27:35Z</time>
      </trkpt>
      <trkpt lat="47.14384" lon="6.40568">
        <ele>756</ele>
        <time>2023-04-30T07:27:37Z</time>
      </trkpt>
      <trkpt lat="47.14388" lon="6.4059">
        <ele>756.2</ele>
        <time>2023-04-30T07:27:44Z</time>
      </trkpt>
      <trkpt lat="47.14385" lon="6.40607">
        <ele>755.8</ele>
        <time>2023-04-30T07:27:48Z</time>
      </trkpt>
      <trkpt lat="47.14377" lon="6.40618">
        <ele>755</ele>
        <time>2023-04-30T07:27:51Z</time>
      </trkpt>
      <trkpt lat="47.1437" lon="6.40625">
        <ele>754.4</ele>
        <time>2023-04-30T07:27:53Z</time>
      </trkpt>
      <trkpt lat="47.1436" lon="6.40638">
        <ele>753.8</ele>
        <time>2023-04-30T07:27:56Z</time>
      </trkpt>
      <trkpt lat="47.1435" lon="6.40651">
        <ele>752.6</ele>
        <time>2023-04-30T07:27:59Z</time>
      </trkpt>
      <trkpt lat="47.14346" lon="6.40656">
        <ele>752.2</ele>
        <time>2023-04-30T07:28:00Z</time>
      </trkpt>
      <trkpt lat="47.14339" lon="6.40665">
        <ele>751.4</ele>
        <time>2023-04-30T07:28:02Z</time>
      </trkpt>
      <trkpt lat="47.14328" lon="6.40677">
        <ele>750</ele>
        <time>2023-04-30T07:28:05Z</time>
      </trkpt>
      <trkpt lat="47.14316" lon="6.40687">
        <ele>748.8</ele>
        <time>2023-04-30T07:28:08Z</time>
      </trkpt>
      <trkpt lat="47.14303" lon="6.40694">
        <ele>747.2</ele>
        <time>2023-04-30T07:28:11Z</time>
      </trkpt>
      <trkpt lat="47.1429" lon="6.40699">
        <ele>746</ele>
        <time>2023-04-30T07:28:14Z</time>
      </trkpt>
      <trkpt lat="47.14285" lon="6.40701">
        <ele>745.6</ele>
        <time>2023-04-30T07:28:15Z</time>
      </trkpt>
      <trkpt lat="47.1428" lon="6.40702">
        <ele>745</ele>
        <time>2023-04-30T07:28:16Z</time>
      </trkpt>
      <trkpt lat="47.14269" lon="6.40706">
        <ele>744</ele>
        <time>2023-04-30T07:28:18Z</time>
      </trkpt>
      <trkpt lat="47.14252" lon="6.40711">
        <ele>742.6</ele>
        <time>2023-04-30T07:28:21Z</time>
      </trkpt>
      <trkpt lat="47.14236" lon="6.40717">
        <ele>741.6</ele>
        <time>2023-04-30T07:28:24Z</time>
      </trkpt>
      <trkpt lat="47.14207" lon="6.40726">
        <ele>740.4</ele>
        <time>2023-04-30T07:28:29Z</time>
      </trkpt>
      <trkpt lat="47.14185" lon="6.40733">
        <ele>739.2</ele>
        <time>2023-04-30T07:28:33Z</time>
      </trkpt>
      <trkpt lat="47.14164" lon="6.4074">
        <ele>738.4</ele>
        <time>2023-04-30T07:28:37Z</time>
      </trkpt>
      <trkpt lat="47.14154" lon="6.40743">
        <ele>738.2</ele>
        <time>2023-04-30T07:28:39Z</time>
      </trkpt>
      <trkpt lat="47.14132" lon="6.40745">
        <ele>737</ele>
        <time>2023-04-30T07:28:43Z</time>
      </trkpt>
      <trkpt lat="47.14126" lon="6.40744">
        <ele>736.8</ele>
        <time>2023-04-30T07:28:44Z</time>
      </trkpt>
      <trkpt lat="47.14109" lon="6.40745">
        <ele>736</ele>
        <time>2023-04-30T07:28:47Z</time>
      </trkpt>
      <trkpt lat="47.14095" lon="6.40748">
        <ele>735.6</ele>
        <time>2023-04-30T07:28:49Z</time>
      </trkpt>
      <trkpt lat="47.14076" lon="6.40761">
        <ele>734.8</ele>
        <time>2023-04-30T07:28:52Z</time>
      </trkpt>
      <trkpt lat="47.14069" lon="6.40766">
        <ele>734.4</ele>
        <time>2023-04-30T07:28:53Z</time>
      </trkpt>
      <trkpt lat="47.14049" lon="6.4078">
        <ele>733.8</ele>
        <time>2023-04-30T07:28:56Z</time>
      </trkpt>
      <trkpt lat="47.14015" lon="6.40809">
        <ele>732.6</ele>
        <time>2023-04-30T07:29:01Z</time>
      </trkpt>
      <trkpt lat="47.14" lon="6.40836">
        <ele>731.8</ele>
        <time>2023-04-30T07:29:04Z</time>
      </trkpt>
      <trkpt lat="47.13997" lon="6.40845">
        <ele>731.4</ele>
        <time>2023-04-30T07:29:05Z</time>
      </trkpt>
      <trkpt lat="47.13992" lon="6.40862">
        <ele>731</ele>
        <time>2023-04-30T07:29:07Z</time>
      </trkpt>
      <trkpt lat="47.13992" lon="6.4087">
        <ele>731</ele>
        <time>2023-04-30T07:29:08Z</time>
      </trkpt>
      <trkpt lat="47.13997" lon="6.40879">
        <ele>731.4</ele>
        <time>2023-04-30T07:29:10Z</time>
      </trkpt>
      <trkpt lat="47.14001" lon="6.40882">
        <ele>731.8</ele>
        <time>2023-04-30T07:29:11Z</time>
      </trkpt>
      <trkpt lat="47.14017" lon="6.40896">
        <ele>732.6</ele>
        <time>2023-04-30T07:29:15Z</time>
      </trkpt>
      <trkpt lat="47.1402" lon="6.409">
        <ele>732.8</ele>
        <time>2023-04-30T07:29:16Z</time>
      </trkpt>
      <trkpt lat="47.14046" lon="6.40939">
        <ele>733.4</ele>
        <time>2023-04-30T07:29:24Z</time>
      </trkpt>
      <trkpt lat="47.14051" lon="6.40949">
        <ele>733.6</ele>
        <time>2023-04-30T07:29:26Z</time>
      </trkpt>
      <trkpt lat="47.14075" lon="6.4099">
        <ele>734</ele>
        <time>2023-04-30T07:29:34Z</time>
      </trkpt>
      <trkpt lat="47.14095" lon="6.41019">
        <ele>734.6</ele>
        <time>2023-04-30T07:29:41Z</time>
      </trkpt>
      <trkpt lat="47.1412" lon="6.4104">
        <ele>735.4</ele>
        <time>2023-04-30T07:29:48Z</time>
      </trkpt>
      <trkpt lat="47.14131" lon="6.41046">
        <ele>735.6</ele>
        <time>2023-04-30T07:29:51Z</time>
      </trkpt>
      <trkpt lat="47.14152" lon="6.41055">
        <ele>736.4</ele>
        <time>2023-04-30T07:29:56Z</time>
      </trkpt>
      <trkpt lat="47.14187" lon="6.41069">
        <ele>736.4</ele>
        <time>2023-04-30T07:30:04Z</time>
      </trkpt>
      <trkpt lat="47.14225" lon="6.41086">
        <ele>735.6</ele>
        <time>2023-04-30T07:30:13Z</time>
      </trkpt>
      <trkpt lat="47.14245" lon="6.41098">
        <ele>734.8</ele>
        <time>2023-04-30T07:30:18Z</time>
      </trkpt>
      <trkpt lat="47.14254" lon="6.41105">
        <ele>735</ele>
        <time>2023-04-30T07:30:20Z</time>
      </trkpt>
      <trkpt lat="47.1428" lon="6.41139">
        <ele>734.6</ele>
        <time>2023-04-30T07:30:27Z</time>
      </trkpt>
      <trkpt lat="47.14294" lon="6.41167">
        <ele>734.4</ele>
        <time>2023-04-30T07:30:32Z</time>
      </trkpt>
      <trkpt lat="47.14298" lon="6.41178">
        <ele>734.2</ele>
        <time>2023-04-30T07:30:34Z</time>
      </trkpt>
      <trkpt lat="47.14308" lon="6.41198">
        <ele>733.4</ele>
        <time>2023-04-30T07:30:38Z</time>
      </trkpt>
      <trkpt lat="47.14311" lon="6.41209">
        <ele>733</ele>
        <time>2023-04-30T07:30:40Z</time>
      </trkpt>
      <trkpt lat="47.14319" lon="6.41233">
        <ele>732.4</ele>
        <time>2023-04-30T07:30:44Z</time>
      </trkpt>
      <trkpt lat="47.14324" lon="6.41258">
        <ele>731.8</ele>
        <time>2023-04-30T07:30:48Z</time>
      </trkpt>
      <trkpt lat="47.14326" lon="6.41272">
        <ele>731.2</ele>
        <time>2023-04-30T07:30:50Z</time>
      </trkpt>
      <trkpt lat="47.1433" lon="6.41286">
        <ele>730.8</ele>
        <time>2023-04-30T07:30:52Z</time>
      </trkpt>
      <trkpt lat="47.14337" lon="6.41301">
        <ele>730.4</ele>
        <time>2023-04-30T07:30:54Z</time>
      </trkpt>
      <trkpt lat="47.14346" lon="6.41316">
        <ele>730.2</ele>
        <time>2023-04-30T07:30:56Z</time>
      </trkpt>
      <trkpt lat="47.14363" lon="6.41339">
        <ele>729.8</ele>
        <time>2023-04-30T07:30:59Z</time>
      </trkpt>
      <trkpt lat="47.14377" lon="6.41361">
        <ele>729</ele>
        <time>2023-04-30T07:31:02Z</time>
      </trkpt>
      <trkpt lat="47.14391" lon="6.41381">
        <ele>728.4</ele>
        <time>2023-04-30T07:31:05Z</time>
      </trkpt>
      <trkpt lat="47.144" lon="6.41394">
        <ele>727.8</ele>
        <time>2023-04-30T07:31:07Z</time>
      </trkpt>
      <trkpt lat="47.14425" lon="6.41436">
        <ele>727.8</ele>
        <time>2023-04-30T07:31:13Z</time>
      </trkpt>
      <trkpt lat="47.14458" lon="6.41482">
        <ele>728.8</ele>
        <time>2023-04-30T07:31:21Z</time>
      </trkpt>
      <trkpt lat="47.14462" lon="6.41487">
        <ele>728.8</ele>
        <time>2023-04-30T07:31:22Z</time>
      </trkpt>
      <trkpt lat="47.14488" lon="6.41509">
        <ele>730</ele>
        <time>2023-04-30T07:31:28Z</time>
      </trkpt>
      <trkpt lat="47.14514" lon="6.41539">
        <ele>730.8</ele>
        <time>2023-04-30T07:31:35Z</time>
      </trkpt>
      <trkpt lat="47.1454" lon="6.41573">
        <ele>731</ele>
        <time>2023-04-30T07:31:42Z</time>
      </trkpt>
      <trkpt lat="47.14547" lon="6.41582">
        <ele>731</ele>
        <time>2023-04-30T07:31:44Z</time>
      </trkpt>
      <trkpt lat="47.14561" lon="6.41605">
        <ele>730.8</ele>
        <time>2023-04-30T07:31:49Z</time>
      </trkpt>
      <trkpt lat="47.14565" lon="6.41616">
        <ele>730.8</ele>
        <time>2023-04-30T07:31:51Z</time>
      </trkpt>
      <trkpt lat="47.14579" lon="6.41657">
        <ele>730.2</ele>
        <time>2023-04-30T07:31:57Z</time>
      </trkpt>
      <trkpt lat="47.14583" lon="6.41666">
        <ele>730</ele>
        <time>2023-04-30T07:31:58Z</time>
      </trkpt>
      <trkpt lat="47.14596" lon="6.41689">
        <ele>729.4</ele>
        <time>2023-04-30T07:32:01Z</time>
      </trkpt>
      <trkpt lat="47.14618" lon="6.41714">
        <ele>729.2</ele>
        <time>2023-04-30T07:32:06Z</time>
      </trkpt>
      <trkpt lat="47.14645" lon="6.41742">
        <ele>730.2</ele>
        <time>2023-04-30T07:32:14Z</time>
      </trkpt>
      <trkpt lat="47.14673" lon="6.41774">
        <ele>730</ele>
        <time>2023-04-30T07:32:22Z</time>
      </trkpt>
      <trkpt lat="47.14712" lon="6.4182">
        <ele>729.8</ele>
        <time>2023-04-30T07:32:33Z</time>
      </trkpt>
      <trkpt lat="47.14742" lon="6.41853">
        <ele>730.4</ele>
        <time>2023-04-30T07:32:42Z</time>
      </trkpt>
      <trkpt lat="47.14766" lon="6.41875">
        <ele>730.8</ele>
        <time>2023-04-30T07:32:49Z</time>
      </trkpt>
      <trkpt lat="47.14806" lon="6.41914">
        <ele>730.4</ele>
        <time>2023-04-30T07:33:00Z</time>
      </trkpt>
      <trkpt lat="47.1482" lon="6.41931">
        <ele>729.8</ele>
        <time>2023-04-30T07:33:04Z</time>
      </trkpt>
      <trkpt lat="47.14829" lon="6.41942">
        <ele>729.6</ele>
        <time>2023-04-30T07:33:06Z</time>
      </trkpt>
      <trkpt lat="47.14841" lon="6.41962">
        <ele>728.8</ele>
        <time>2023-04-30T07:33:09Z</time>
      </trkpt>
      <trkpt lat="47.14844" lon="6.41969">
        <ele>728.4</ele>
        <time>2023-04-30T07:33:10Z</time>
      </trkpt>
      <trkpt lat="47.14845" lon="6.41976">
        <ele>728.2</ele>
        <time>2023-04-30T07:33:11Z</time>
      </trkpt>
      <trkpt lat="47.14842" lon="6.41989">
        <ele>727.6</ele>
        <time>2023-04-30T07:33:13Z</time>
      </trkpt>
      <trkpt lat="47.14839" lon="6.41993">
        <ele>727.2</ele>
        <time>2023-04-30T07:33:14Z</time>
      </trkpt>
      <trkpt lat="47.14831" lon="6.41999">
        <ele>726.6</ele>
        <time>2023-04-30T07:33:16Z</time>
      </trkpt>
      <trkpt lat="47.14827" lon="6.42002">
        <ele>726.4</ele>
        <time>2023-04-30T07:33:17Z</time>
      </trkpt>
      <trkpt lat="47.14818" lon="6.42007">
        <ele>726.2</ele>
        <time>2023-04-30T07:33:19Z</time>
      </trkpt>
      <trkpt lat="47.14809" lon="6.42014">
        <ele>725.4</ele>
        <time>2023-04-30T07:33:21Z</time>
      </trkpt>
      <trkpt lat="47.148" lon="6.4202">
        <ele>725</ele>
        <time>2023-04-30T07:33:23Z</time>
      </trkpt>
      <trkpt lat="47.1479" lon="6.42026">
        <ele>724.6</ele>
        <time>2023-04-30T07:33:25Z</time>
      </trkpt>
      <trkpt lat="47.1478" lon="6.42033">
        <ele>724.4</ele>
        <time>2023-04-30T07:33:27Z</time>
      </trkpt>
      <trkpt lat="47.14748" lon="6.42055">
        <ele>723.2</ele>
        <time>2023-04-30T07:33:33Z</time>
      </trkpt>
      <trkpt lat="47.14742" lon="6.42059">
        <ele>723.2</ele>
        <time>2023-04-30T07:33:34Z</time>
      </trkpt>
      <trkpt lat="47.147" lon="6.42089">
        <ele>722.2</ele>
        <time>2023-04-30T07:33:42Z</time>
      </trkpt>
      <trkpt lat="47.14694" lon="6.42092">
        <ele>722</ele>
        <time>2023-04-30T07:33:43Z</time>
      </trkpt>
      <trkpt lat="47.14665" lon="6.42116">
        <ele>721.8</ele>
        <time>2023-04-30T07:33:49Z</time>
      </trkpt>
      <trkpt lat="47.1466" lon="6.4212">
        <ele>721.8</ele>
        <time>2023-04-30T07:33:50Z</time>
      </trkpt>
      <trkpt lat="47.14628" lon="6.42164">
        <ele>721.2</ele>
        <time>2023-04-30T07:33:58Z</time>
      </trkpt>
      <trkpt lat="47.1462" lon="6.42174">
        <ele>721.2</ele>
        <time>2023-04-30T07:34:00Z</time>
      </trkpt>
      <trkpt lat="47.14603" lon="6.422">
        <ele>721</ele>
        <time>2023-04-30T07:34:05Z</time>
      </trkpt>
      <trkpt lat="47.1457" lon="6.42248">
        <ele>721.8</ele>
        <time>2023-04-30T07:34:15Z</time>
      </trkpt>
      <trkpt lat="47.14542" lon="6.42287">
        <ele>722</ele>
        <time>2023-04-30T07:34:24Z</time>
      </trkpt>
      <trkpt lat="47.14524" lon="6.42312">
        <ele>722.2</ele>
        <time>2023-04-30T07:34:30Z</time>
      </trkpt>
      <trkpt lat="47.14517" lon="6.4232">
        <ele>722.2</ele>
        <time>2023-04-30T07:34:32Z</time>
      </trkpt>
      <trkpt lat="47.14487" lon="6.42352">
        <ele>722.4</ele>
        <time>2023-04-30T07:34:41Z</time>
      </trkpt>
      <trkpt lat="47.14462" lon="6.42378">
        <ele>723</ele>
        <time>2023-04-30T07:34:48Z</time>
      </trkpt>
      <trkpt lat="47.14458" lon="6.42381">
        <ele>723.2</ele>
        <time>2023-04-30T07:34:49Z</time>
      </trkpt>
      <trkpt lat="47.14422" lon="6.42419">
        <ele>724</ele>
        <time>2023-04-30T07:34:59Z</time>
      </trkpt>
      <trkpt lat="47.14415" lon="6.42427">
        <ele>724.2</ele>
        <time>2023-04-30T07:35:01Z</time>
      </trkpt>
      <trkpt lat="47.14386" lon="6.42464">
        <ele>724.8</ele>
        <time>2023-04-30T07:35:10Z</time>
      </trkpt>
      <trkpt lat="47.14365" lon="6.42493">
        <ele>725.2</ele>
        <time>2023-04-30T07:35:17Z</time>
      </trkpt>
      <trkpt lat="47.14359" lon="6.425">
        <ele>725.2</ele>
        <time>2023-04-30T07:35:19Z</time>
      </trkpt>
      <trkpt lat="47.14337" lon="6.42531">
        <ele>726</ele>
        <time>2023-04-30T07:35:27Z</time>
      </trkpt>
      <trkpt lat="47.14307" lon="6.42572">
        <ele>726.2</ele>
        <time>2023-04-30T07:35:38Z</time>
      </trkpt>
      <trkpt lat="47.14285" lon="6.42609">
        <ele>725.4</ele>
        <time>2023-04-30T07:35:47Z</time>
      </trkpt>
      <trkpt lat="47.14269" lon="6.42646">
        <ele>724.2</ele>
        <time>2023-04-30T07:35:55Z</time>
      </trkpt>
      <trkpt lat="47.14253" lon="6.42683">
        <ele>723</ele>
        <time>2023-04-30T07:36:02Z</time>
      </trkpt>
      <trkpt lat="47.1425" lon="6.42689">
        <ele>722.6</ele>
        <time>2023-04-30T07:36:03Z</time>
      </trkpt>
      <trkpt lat="47.14244" lon="6.42702">
        <ele>721.8</ele>
        <time>2023-04-30T07:36:05Z</time>
      </trkpt>
      <trkpt lat="47.14231" lon="6.42728">
        <ele>720.8</ele>
        <time>2023-04-30T07:36:09Z</time>
      </trkpt>
      <trkpt lat="47.14228" lon="6.42735">
        <ele>720.6</ele>
        <time>2023-04-30T07:36:10Z</time>
      </trkpt>
      <trkpt lat="47.14213" lon="6.42762">
        <ele>719.4</ele>
        <time>2023-04-30T07:36:14Z</time>
      </trkpt>
      <trkpt lat="47.14201" lon="6.42782">
        <ele>718.6</ele>
        <time>2023-04-30T07:36:17Z</time>
      </trkpt>
      <trkpt lat="47.14193" lon="6.42795">
        <ele>718.2</ele>
        <time>2023-04-30T07:36:19Z</time>
      </trkpt>
      <trkpt lat="47.14172" lon="6.42828">
        <ele>717.2</ele>
        <time>2023-04-30T07:36:24Z</time>
      </trkpt>
      <trkpt lat="47.14164" lon="6.42841">
        <ele>716.6</ele>
        <time>2023-04-30T07:36:26Z</time>
      </trkpt>
      <trkpt lat="47.14155" lon="6.42855">
        <ele>716.2</ele>
        <time>2023-04-30T07:36:28Z</time>
      </trkpt>
      <trkpt lat="47.14134" lon="6.42889">
        <ele>715</ele>
        <time>2023-04-30T07:36:33Z</time>
      </trkpt>
      <trkpt lat="47.1413" lon="6.42896">
        <ele>714.6</ele>
        <time>2023-04-30T07:36:34Z</time>
      </trkpt>
      <trkpt lat="47.14117" lon="6.42917">
        <ele>713.8</ele>
        <time>2023-04-30T07:36:37Z</time>
      </trkpt>
      <trkpt lat="47.14095" lon="6.42951">
        <ele>712.8</ele>
        <time>2023-04-30T07:36:42Z</time>
      </trkpt>
      <trkpt lat="47.14075" lon="6.42984">
        <ele>711.8</ele>
        <time>2023-04-30T07:36:47Z</time>
      </trkpt>
      <trkpt lat="47.14054" lon="6.43015">
        <ele>711</ele>
        <time>2023-04-30T07:36:52Z</time>
      </trkpt>
      <trkpt lat="47.14038" lon="6.43039">
        <ele>710.6</ele>
        <time>2023-04-30T07:36:56Z</time>
      </trkpt>
      <trkpt lat="47.14018" lon="6.43066">
        <ele>709.6</ele>
        <time>2023-04-30T07:37:01Z</time>
      </trkpt>
      <trkpt lat="47.13984" lon="6.43113">
        <ele>708.6</ele>
        <time>2023-04-30T07:37:09Z</time>
      </trkpt>
      <trkpt lat="47.13979" lon="6.43119">
        <ele>708.4</ele>
        <time>2023-04-30T07:37:10Z</time>
      </trkpt>
      <trkpt lat="47.13949" lon="6.43176">
        <ele>707.6</ele>
        <time>2023-04-30T07:37:18Z</time>
      </trkpt>
      <trkpt lat="47.13945" lon="6.43183">
        <ele>707.4</ele>
        <time>2023-04-30T07:37:19Z</time>
      </trkpt>
      <trkpt lat="47.13913" lon="6.43246">
        <ele>707.2</ele>
        <time>2023-04-30T07:37:28Z</time>
      </trkpt>
      <trkpt lat="47.13883" lon="6.43305">
        <ele>708</ele>
        <time>2023-04-30T07:37:37Z</time>
      </trkpt>
      <trkpt lat="47.13859" lon="6.43355">
        <ele>708.4</ele>
        <time>2023-04-30T07:37:45Z</time>
      </trkpt>
      <trkpt lat="47.13855" lon="6.43367">
        <ele>708.6</ele>
        <time>2023-04-30T07:37:47Z</time>
      </trkpt>
      <trkpt lat="47.13841" lon="6.43406">
        <ele>709</ele>
        <time>2023-04-30T07:37:53Z</time>
      </trkpt>
      <trkpt lat="47.13818" lon="6.43448">
        <ele>708.8</ele>
        <time>2023-04-30T07:38:00Z</time>
      </trkpt>
      <trkpt lat="47.13782" lon="6.435">
        <ele>708</ele>
        <time>2023-04-30T07:38:09Z</time>
      </trkpt>
      <trkpt lat="47.13773" lon="6.43507">
        <ele>707.4</ele>
        <time>2023-04-30T07:38:11Z</time>
      </trkpt>
      <trkpt lat="47.13758" lon="6.43518">
        <ele>707</ele>
        <time>2023-04-30T07:38:14Z</time>
      </trkpt>
      <trkpt lat="47.1374" lon="6.43534">
        <ele>706.4</ele>
        <time>2023-04-30T07:38:18Z</time>
      </trkpt>
      <trkpt lat="47.13726" lon="6.43547">
        <ele>706</ele>
        <time>2023-04-30T07:38:21Z</time>
      </trkpt>
      <trkpt lat="47.13701" lon="6.43571">
        <ele>705.4</ele>
        <time>2023-04-30T07:38:27Z</time>
      </trkpt>
      <trkpt lat="47.13687" lon="6.43579">
        <ele>705.4</ele>
        <time>2023-04-30T07:38:30Z</time>
      </trkpt>
      <trkpt lat="47.13655" lon="6.43593">
        <ele>705.2</ele>
        <time>2023-04-30T07:38:37Z</time>
      </trkpt>
      <trkpt lat="47.13616" lon="6.43611">
        <ele>705.2</ele>
        <time>2023-04-30T07:38:47Z</time>
      </trkpt>
      <trkpt lat="47.13583" lon="6.43627">
        <ele>706.2</ele>
        <time>2023-04-30T07:38:56Z</time>
      </trkpt>
      <trkpt lat="47.13576" lon="6.43631">
        <ele>706.6</ele>
        <time>2023-04-30T07:38:58Z</time>
      </trkpt>
      <trkpt lat="47.13546" lon="6.43646">
        <ele>707.8</ele>
        <time>2023-04-30T07:39:06Z</time>
      </trkpt>
      <trkpt lat="47.13523" lon="6.43656">
        <ele>708.4</ele>
        <time>2023-04-30T07:39:13Z</time>
      </trkpt>
      <trkpt lat="47.13505" lon="6.43665">
        <ele>708.8</ele>
        <time>2023-04-30T07:39:19Z</time>
      </trkpt>
      <trkpt lat="47.13501" lon="6.43667">
        <ele>709.2</ele>
        <time>2023-04-30T07:39:21Z</time>
      </trkpt>
      <trkpt lat="47.135" lon="6.43666">
        <ele>709.2</ele>
        <time>2023-04-30T07:39:22Z</time>
      </trkpt>
      <trkpt lat="47.13498" lon="6.43663">
        <ele>709.2</ele>
        <time>2023-04-30T07:39:25Z</time>
      </trkpt>
      <trkpt lat="47.13501" lon="6.43665">
        <ele>711</ele>
        <time>2023-04-30T07:45:45Z</time>
      </trkpt>
      <trkpt lat="47.13499" lon="6.43669">
        <ele>711.2</ele>
        <time>2023-04-30T07:45:47Z</time>
      </trkpt>
      <trkpt lat="47.1349" lon="6.43673">
        <ele>712.4</ele>
        <time>2023-04-30T07:45:52Z</time>
      </trkpt>
      <trkpt lat="47.13488" lon="6.43675">
        <ele>712.6</ele>
        <time>2023-04-30T07:45:53Z</time>
      </trkpt>
      <trkpt lat="47.13486" lon="6.43675">
        <ele>713.4</ele>
        <time>2023-04-30T07:45:54Z</time>
      </trkpt>
      <trkpt lat="47.13481" lon="6.43676">
        <ele>714.4</ele>
        <time>2023-04-30T07:45:56Z</time>
      </trkpt>
      <trkpt lat="47.13475" lon="6.43679">
        <ele>714.2</ele>
        <time>2023-04-30T07:45:59Z</time>
      </trkpt>
      <trkpt lat="47.13463" lon="6.43685">
        <ele>713.4</ele>
        <time>2023-04-30T07:46:04Z</time>
      </trkpt>
      <trkpt lat="47.13454" lon="6.43691">
        <ele>712.6</ele>
        <time>2023-04-30T07:46:08Z</time>
      </trkpt>
      <trkpt lat="47.13433" lon="6.43702">
        <ele>712.6</ele>
        <time>2023-04-30T07:46:17Z</time>
      </trkpt>
      <trkpt lat="47.13407" lon="6.43715">
        <ele>714</ele>
        <time>2023-04-30T07:46:26Z</time>
      </trkpt>
      <trkpt lat="47.13398" lon="6.4372">
        <ele>714.4</ele>
        <time>2023-04-30T07:46:29Z</time>
      </trkpt>
      <trkpt lat="47.13384" lon="6.43727">
        <ele>714.4</ele>
        <time>2023-04-30T07:46:34Z</time>
      </trkpt>
      <trkpt lat="47.13358" lon="6.4374">
        <ele>714.8</ele>
        <time>2023-04-30T07:46:44Z</time>
      </trkpt>
      <trkpt lat="47.13349" lon="6.43744">
        <ele>715.4</ele>
        <time>2023-04-30T07:46:47Z</time>
      </trkpt>
      <trkpt lat="47.13331" lon="6.43761">
        <ele>715.8</ele>
        <time>2023-04-30T07:46:54Z</time>
      </trkpt>
      <trkpt lat="47.13327" lon="6.43778">
        <ele>716.4</ele>
        <time>2023-04-30T07:46:58Z</time>
      </trkpt>
      <trkpt lat="47.13327" lon="6.43784">
        <ele>716.6</ele>
        <time>2023-04-30T07:46:59Z</time>
      </trkpt>
      <trkpt lat="47.13325" lon="6.43804">
        <ele>717.4</ele>
        <time>2023-04-30T07:47:03Z</time>
      </trkpt>
      <trkpt lat="47.13325" lon="6.4383">
        <ele>718.2</ele>
        <time>2023-04-30T07:47:08Z</time>
      </trkpt>
      <trkpt lat="47.13326" lon="6.43841">
        <ele>718.6</ele>
        <time>2023-04-30T07:47:10Z</time>
      </trkpt>
      <trkpt lat="47.1333" lon="6.43879">
        <ele>719.2</ele>
        <time>2023-04-30T07:47:17Z</time>
      </trkpt>
      <trkpt lat="47.13331" lon="6.439">
        <ele>719.8</ele>
        <time>2023-04-30T07:47:21Z</time>
      </trkpt>
      <trkpt lat="47.13332" lon="6.43922">
        <ele>720</ele>
        <time>2023-04-30T07:47:25Z</time>
      </trkpt>
      <trkpt lat="47.13326" lon="6.43953">
        <ele>720.2</ele>
        <time>2023-04-30T07:47:31Z</time>
      </trkpt>
      <trkpt lat="47.1331" lon="6.43973">
        <ele>720.6</ele>
        <time>2023-04-30T07:47:36Z</time>
      </trkpt>
      <trkpt lat="47.13287" lon="6.43995">
        <ele>720.6</ele>
        <time>2023-04-30T07:47:42Z</time>
      </trkpt>
      <trkpt lat="47.13279" lon="6.44">
        <ele>720.6</ele>
        <time>2023-04-30T07:47:44Z</time>
      </trkpt>
      <trkpt lat="47.13265" lon="6.4401">
        <ele>720.2</ele>
        <time>2023-04-30T07:47:47Z</time>
      </trkpt>
      <trkpt lat="47.13256" lon="6.44023">
        <ele>720</ele>
        <time>2023-04-30T07:47:49Z</time>
      </trkpt>
      <trkpt lat="47.13239" lon="6.44055">
        <ele>719.2</ele>
        <time>2023-04-30T07:47:53Z</time>
      </trkpt>
      <trkpt lat="47.13233" lon="6.4406">
        <ele>718.8</ele>
        <time>2023-04-30T07:47:54Z</time>
      </trkpt>
      <trkpt lat="47.13227" lon="6.44064">
        <ele>718.6</ele>
        <time>2023-04-30T07:47:55Z</time>
      </trkpt>
      <trkpt lat="47.1321" lon="6.44064">
        <ele>717.8</ele>
        <time>2023-04-30T07:47:57Z</time>
      </trkpt>
      <trkpt lat="47.13201" lon="6.44065">
        <ele>717.4</ele>
        <time>2023-04-30T07:47:58Z</time>
      </trkpt>
      <trkpt lat="47.13192" lon="6.44067">
        <ele>716.8</ele>
        <time>2023-04-30T07:47:59Z</time>
      </trkpt>
      <trkpt lat="47.13183" lon="6.44071">
        <ele>716.2</ele>
        <time>2023-04-30T07:48:00Z</time>
      </trkpt>
      <trkpt lat="47.13173" lon="6.44076">
        <ele>715.6</ele>
        <time>2023-04-30T07:48:01Z</time>
      </trkpt>
      <trkpt lat="47.13164" lon="6.44081">
        <ele>715</ele>
        <time>2023-04-30T07:48:02Z</time>
      </trkpt>
      <trkpt lat="47.13155" lon="6.44087">
        <ele>714.6</ele>
        <time>2023-04-30T07:48:03Z</time>
      </trkpt>
      <trkpt lat="47.13147" lon="6.44095">
        <ele>714</ele>
        <time>2023-04-30T07:48:04Z</time>
      </trkpt>
      <trkpt lat="47.13131" lon="6.44108">
        <ele>713.2</ele>
        <time>2023-04-30T07:48:06Z</time>
      </trkpt>
      <trkpt lat="47.13116" lon="6.44119">
        <ele>713</ele>
        <time>2023-04-30T07:48:08Z</time>
      </trkpt>
      <trkpt lat="47.13103" lon="6.44126">
        <ele>712.8</ele>
        <time>2023-04-30T07:48:10Z</time>
      </trkpt>
      <trkpt lat="47.13085" lon="6.44135">
        <ele>713.6</ele>
        <time>2023-04-30T07:48:14Z</time>
      </trkpt>
      <trkpt lat="47.13078" lon="6.44139">
        <ele>714.4</ele>
        <time>2023-04-30T07:48:16Z</time>
      </trkpt>
      <trkpt lat="47.13064" lon="6.44147">
        <ele>715.4</ele>
        <time>2023-04-30T07:48:20Z</time>
      </trkpt>
      <trkpt lat="47.13061" lon="6.44149">
        <ele>715.8</ele>
        <time>2023-04-30T07:48:21Z</time>
      </trkpt>
      <trkpt lat="47.13052" lon="6.44155">
        <ele>716.6</ele>
        <time>2023-04-30T07:48:24Z</time>
      </trkpt>
      <trkpt lat="47.13043" lon="6.44161">
        <ele>717.4</ele>
        <time>2023-04-30T07:48:27Z</time>
      </trkpt>
      <trkpt lat="47.13041" lon="6.44162">
        <ele>717.8</ele>
        <time>2023-04-30T07:48:28Z</time>
      </trkpt>
      <trkpt lat="47.13017" lon="6.44174">
        <ele>718.8</ele>
        <time>2023-04-30T07:48:36Z</time>
      </trkpt>
      <trkpt lat="47.12985" lon="6.44184">
        <ele>720</ele>
        <time>2023-04-30T07:48:45Z</time>
      </trkpt>
      <trkpt lat="47.12972" lon="6.44189">
        <ele>721</ele>
        <time>2023-04-30T07:48:49Z</time>
      </trkpt>
      <trkpt lat="47.12956" lon="6.44194">
        <ele>721.8</ele>
        <time>2023-04-30T07:48:54Z</time>
      </trkpt>
      <trkpt lat="47.12949" lon="6.44196">
        <ele>722.2</ele>
        <time>2023-04-30T07:48:56Z</time>
      </trkpt>
      <trkpt lat="47.12938" lon="6.44203">
        <ele>723.4</ele>
        <time>2023-04-30T07:49:00Z</time>
      </trkpt>
      <trkpt lat="47.1293" lon="6.44209">
        <ele>723.8</ele>
        <time>2023-04-30T07:49:03Z</time>
      </trkpt>
      <trkpt lat="47.12923" lon="6.44215">
        <ele>724.6</ele>
        <time>2023-04-30T07:49:06Z</time>
      </trkpt>
      <trkpt lat="47.12916" lon="6.44225">
        <ele>725.6</ele>
        <time>2023-04-30T07:49:10Z</time>
      </trkpt>
      <trkpt lat="47.12908" lon="6.44237">
        <ele>726.6</ele>
        <time>2023-04-30T07:49:14Z</time>
      </trkpt>
      <trkpt lat="47.12905" lon="6.44242">
        <ele>727.2</ele>
        <time>2023-04-30T07:49:16Z</time>
      </trkpt>
      <trkpt lat="47.12902" lon="6.44248">
        <ele>727.8</ele>
        <time>2023-04-30T07:49:18Z</time>
      </trkpt>
      <trkpt lat="47.12897" lon="6.44257">
        <ele>728.8</ele>
        <time>2023-04-30T07:49:21Z</time>
      </trkpt>
      <trkpt lat="47.12887" lon="6.4427">
        <ele>729.8</ele>
        <time>2023-04-30T07:49:26Z</time>
      </trkpt>
      <trkpt lat="47.12871" lon="6.44293">
        <ele>730.8</ele>
        <time>2023-04-30T07:49:34Z</time>
      </trkpt>
      <trkpt lat="47.12852" lon="6.44317">
        <ele>730.8</ele>
        <time>2023-04-30T07:49:43Z</time>
      </trkpt>
      <trkpt lat="47.12836" lon="6.4433">
        <ele>730.6</ele>
        <time>2023-04-30T07:49:49Z</time>
      </trkpt>
      <trkpt lat="47.12811" lon="6.44349">
        <ele>729.4</ele>
        <time>2023-04-30T07:49:57Z</time>
      </trkpt>
      <trkpt lat="47.12784" lon="6.44365">
        <ele>731</ele>
        <time>2023-04-30T07:50:05Z</time>
      </trkpt>
      <trkpt lat="47.12758" lon="6.44378">
        <ele>732.2</ele>
        <time>2023-04-30T07:50:12Z</time>
      </trkpt>
      <trkpt lat="47.12754" lon="6.44381">
        <ele>732.4</ele>
        <time>2023-04-30T07:50:13Z</time>
      </trkpt>
      <trkpt lat="47.12727" lon="6.44397">
        <ele>733</ele>
        <time>2023-04-30T07:50:20Z</time>
      </trkpt>
      <trkpt lat="47.12707" lon="6.44414">
        <ele>733.2</ele>
        <time>2023-04-30T07:50:25Z</time>
      </trkpt>
      <trkpt lat="47.12692" lon="6.44426">
        <ele>734</ele>
        <time>2023-04-30T07:50:29Z</time>
      </trkpt>
      <trkpt lat="47.12688" lon="6.44429">
        <ele>734.6</ele>
        <time>2023-04-30T07:50:30Z</time>
      </trkpt>
      <trkpt lat="47.12677" lon="6.44434">
        <ele>735.8</ele>
        <time>2023-04-30T07:50:33Z</time>
      </trkpt>
      <trkpt lat="47.12671" lon="6.44439">
        <ele>736.6</ele>
        <time>2023-04-30T07:50:35Z</time>
      </trkpt>
      <trkpt lat="47.12668" lon="6.44441">
        <ele>736.8</ele>
        <time>2023-04-30T07:50:36Z</time>
      </trkpt>
      <trkpt lat="47.12656" lon="6.44445">
        <ele>737.6</ele>
        <time>2023-04-30T07:50:40Z</time>
      </trkpt>
      <trkpt lat="47.12653" lon="6.44446">
        <ele>737.8</ele>
        <time>2023-04-30T07:50:41Z</time>
      </trkpt>
      <trkpt lat="47.12639" lon="6.44446">
        <ele>738</ele>
        <time>2023-04-30T07:50:45Z</time>
      </trkpt>
      <trkpt lat="47.12627" lon="6.44432">
        <ele>738.2</ele>
        <time>2023-04-30T07:50:49Z</time>
      </trkpt>
      <trkpt lat="47.12619" lon="6.44408">
        <ele>738.6</ele>
        <time>2023-04-30T07:50:53Z</time>
      </trkpt>
      <trkpt lat="47.12614" lon="6.44397">
        <ele>738.6</ele>
        <time>2023-04-30T07:50:55Z</time>
      </trkpt>
      <trkpt lat="47.12603" lon="6.44377">
        <ele>739</ele>
        <time>2023-04-30T07:50:59Z</time>
      </trkpt>
      <trkpt lat="47.12596" lon="6.4437">
        <ele>739.2</ele>
        <time>2023-04-30T07:51:01Z</time>
      </trkpt>
      <trkpt lat="47.12586" lon="6.44361">
        <ele>740</ele>
        <time>2023-04-30T07:51:04Z</time>
      </trkpt>
      <trkpt lat="47.12575" lon="6.44351">
        <ele>740.2</ele>
        <time>2023-04-30T07:51:07Z</time>
      </trkpt>
      <trkpt lat="47.12559" lon="6.44337">
        <ele>739.8</ele>
        <time>2023-04-30T07:51:11Z</time>
      </trkpt>
      <trkpt lat="47.12549" lon="6.44334">
        <ele>739.6</ele>
        <time>2023-04-30T07:51:13Z</time>
      </trkpt>
      <trkpt lat="47.12538" lon="6.44331">
        <ele>739.2</ele>
        <time>2023-04-30T07:51:15Z</time>
      </trkpt>
      <trkpt lat="47.12533" lon="6.44329">
        <ele>739</ele>
        <time>2023-04-30T07:51:16Z</time>
      </trkpt>
      <trkpt lat="47.12523" lon="6.44327">
        <ele>738.6</ele>
        <time>2023-04-30T07:51:18Z</time>
      </trkpt>
      <trkpt lat="47.12513" lon="6.44328">
        <ele>738.4</ele>
        <time>2023-04-30T07:51:20Z</time>
      </trkpt>
      <trkpt lat="47.125" lon="6.44327">
        <ele>738.4</ele>
        <time>2023-04-30T07:51:23Z</time>
      </trkpt>
      <trkpt lat="47.12484" lon="6.44322">
        <ele>738.2</ele>
        <time>2023-04-30T07:51:28Z</time>
      </trkpt>
      <trkpt lat="47.12465" lon="6.44315">
        <ele>738</ele>
        <time>2023-04-30T07:51:32Z</time>
      </trkpt>
      <trkpt lat="47.1246" lon="6.44312">
        <ele>738</ele>
        <time>2023-04-30T07:51:33Z</time>
      </trkpt>
      <trkpt lat="47.12436" lon="6.44296">
        <ele>737.4</ele>
        <time>2023-04-30T07:51:37Z</time>
      </trkpt>
      <trkpt lat="47.124" lon="6.44284">
        <ele>736.8</ele>
        <time>2023-04-30T07:51:42Z</time>
      </trkpt>
      <trkpt lat="47.12387" lon="6.44285">
        <ele>736.6</ele>
        <time>2023-04-30T07:51:44Z</time>
      </trkpt>
      <trkpt lat="47.12368" lon="6.4429">
        <ele>736.2</ele>
        <time>2023-04-30T07:51:47Z</time>
      </trkpt>
      <trkpt lat="47.12347" lon="6.44285">
        <ele>736</ele>
        <time>2023-04-30T07:51:51Z</time>
      </trkpt>
      <trkpt lat="47.12342" lon="6.4428">
        <ele>735.8</ele>
        <time>2023-04-30T07:51:52Z</time>
      </trkpt>
      <trkpt lat="47.12336" lon="6.44275">
        <ele>735.6</ele>
        <time>2023-04-30T07:51:53Z</time>
      </trkpt>
      <trkpt lat="47.12327" lon="6.44265">
        <ele>734.8</ele>
        <time>2023-04-30T07:51:55Z</time>
      </trkpt>
      <trkpt lat="47.12321" lon="6.44259">
        <ele>734.4</ele>
        <time>2023-04-30T07:51:56Z</time>
      </trkpt>
      <trkpt lat="47.12299" lon="6.44226">
        <ele>733.6</ele>
        <time>2023-04-30T07:52:01Z</time>
      </trkpt>
      <trkpt lat="47.12295" lon="6.4422">
        <ele>733.4</ele>
        <time>2023-04-30T07:52:02Z</time>
      </trkpt>
      <trkpt lat="47.12279" lon="6.44186">
        <ele>733.4</ele>
        <time>2023-04-30T07:52:08Z</time>
      </trkpt>
      <trkpt lat="47.1226" lon="6.44171">
        <ele>733.2</ele>
        <time>2023-04-30T07:52:12Z</time>
      </trkpt>
      <trkpt lat="47.1225" lon="6.44164">
        <ele>732.8</ele>
        <time>2023-04-30T07:52:14Z</time>
      </trkpt>
      <trkpt lat="47.1224" lon="6.44159">
        <ele>732.6</ele>
        <time>2023-04-30T07:52:16Z</time>
      </trkpt>
      <trkpt lat="47.1223" lon="6.44153">
        <ele>732</ele>
        <time>2023-04-30T07:52:18Z</time>
      </trkpt>
      <trkpt lat="47.1222" lon="6.44146">
        <ele>731.2</ele>
        <time>2023-04-30T07:52:20Z</time>
      </trkpt>
      <trkpt lat="47.12216" lon="6.44142">
        <ele>731</ele>
        <time>2023-04-30T07:52:21Z</time>
      </trkpt>
      <trkpt lat="47.12207" lon="6.44133">
        <ele>730.2</ele>
        <time>2023-04-30T07:52:23Z</time>
      </trkpt>
      <trkpt lat="47.12203" lon="6.44128">
        <ele>729.6</ele>
        <time>2023-04-30T07:52:24Z</time>
      </trkpt>
      <trkpt lat="47.12194" lon="6.44118">
        <ele>728.6</ele>
        <time>2023-04-30T07:52:26Z</time>
      </trkpt>
      <trkpt lat="47.12183" lon="6.44107">
        <ele>727.6</ele>
        <time>2023-04-30T07:52:28Z</time>
      </trkpt>
      <trkpt lat="47.12176" lon="6.44102">
        <ele>727</ele>
        <time>2023-04-30T07:52:29Z</time>
      </trkpt>
      <trkpt lat="47.12169" lon="6.44098">
        <ele>726.6</ele>
        <time>2023-04-30T07:52:30Z</time>
      </trkpt>
      <trkpt lat="47.12161" lon="6.44095">
        <ele>726</ele>
        <time>2023-04-30T07:52:31Z</time>
      </trkpt>
      <trkpt lat="47.12147" lon="6.44086">
        <ele>725.2</ele>
        <time>2023-04-30T07:52:33Z</time>
      </trkpt>
      <trkpt lat="47.12141" lon="6.44081">
        <ele>724.8</ele>
        <time>2023-04-30T07:52:34Z</time>
      </trkpt>
      <trkpt lat="47.12122" lon="6.44063">
        <ele>723.8</ele>
        <time>2023-04-30T07:52:37Z</time>
      </trkpt>
      <trkpt lat="47.12111" lon="6.44049">
        <ele>723.2</ele>
        <time>2023-04-30T07:52:39Z</time>
      </trkpt>
      <trkpt lat="47.12105" lon="6.44042">
        <ele>722.8</ele>
        <time>2023-04-30T07:52:40Z</time>
      </trkpt>
      <trkpt lat="47.12088" lon="6.4402">
        <ele>721.6</ele>
        <time>2023-04-30T07:52:43Z</time>
      </trkpt>
      <trkpt lat="47.12069" lon="6.43996">
        <ele>720.2</ele>
        <time>2023-04-30T07:52:46Z</time>
      </trkpt>
      <trkpt lat="47.12026" lon="6.43945">
        <ele>719.4</ele>
        <time>2023-04-30T07:52:52Z</time>
      </trkpt>
      <trkpt lat="47.12014" lon="6.4393">
        <ele>719.4</ele>
        <time>2023-04-30T07:52:54Z</time>
      </trkpt>
      <trkpt lat="47.11971" lon="6.43876">
        <ele>720.6</ele>
        <time>2023-04-30T07:53:01Z</time>
      </trkpt>
      <trkpt lat="47.11966" lon="6.43867">
        <ele>720.4</ele>
        <time>2023-04-30T07:53:02Z</time>
      </trkpt>
      <trkpt lat="47.11945" lon="6.43826">
        <ele>720.6</ele>
        <time>2023-04-30T07:53:07Z</time>
      </trkpt>
      <trkpt lat="47.11935" lon="6.43799">
        <ele>720.6</ele>
        <time>2023-04-30T07:53:11Z</time>
      </trkpt>
      <trkpt lat="47.11933" lon="6.43792">
        <ele>720.6</ele>
        <time>2023-04-30T07:53:12Z</time>
      </trkpt>
      <trkpt lat="47.11929" lon="6.43755">
        <ele>721.2</ele>
        <time>2023-04-30T07:53:16Z</time>
      </trkpt>
      <trkpt lat="47.11927" lon="6.43728">
        <ele>720.8</ele>
        <time>2023-04-30T07:53:20Z</time>
      </trkpt>
      <trkpt lat="47.11916" lon="6.43715">
        <ele>720.4</ele>
        <time>2023-04-30T07:53:24Z</time>
      </trkpt>
      <trkpt lat="47.11912" lon="6.43715">
        <ele>720.2</ele>
        <time>2023-04-30T07:53:25Z</time>
      </trkpt>
      <trkpt lat="47.11903" lon="6.43717">
        <ele>720</ele>
        <time>2023-04-30T07:53:27Z</time>
      </trkpt>
      <trkpt lat="47.1188" lon="6.43721">
        <ele>719.8</ele>
        <time>2023-04-30T07:53:32Z</time>
      </trkpt>
      <trkpt lat="47.1187" lon="6.43719">
        <ele>719.8</ele>
        <time>2023-04-30T07:53:34Z</time>
      </trkpt>
      <trkpt lat="47.11849" lon="6.43702">
        <ele>720.2</ele>
        <time>2023-04-30T07:53:39Z</time>
      </trkpt>
      <trkpt lat="47.11846" lon="6.43698">
        <ele>720.4</ele>
        <time>2023-04-30T07:53:40Z</time>
      </trkpt>
      <trkpt lat="47.11827" lon="6.43672">
        <ele>720</ele>
        <time>2023-04-30T07:53:45Z</time>
      </trkpt>
      <trkpt lat="47.11801" lon="6.43638">
        <ele>720.4</ele>
        <time>2023-04-30T07:53:52Z</time>
      </trkpt>
      <trkpt lat="47.11772" lon="6.43603">
        <ele>720.4</ele>
        <time>2023-04-30T07:54:01Z</time>
      </trkpt>
      <trkpt lat="47.11758" lon="6.43586">
        <ele>719.8</ele>
        <time>2023-04-30T07:54:06Z</time>
      </trkpt>
      <trkpt lat="47.11742" lon="6.4358">
        <ele>719.6</ele>
        <time>2023-04-30T07:54:10Z</time>
      </trkpt>
      <trkpt lat="47.11734" lon="6.43586">
        <ele>720.2</ele>
        <time>2023-04-30T07:54:13Z</time>
      </trkpt>
      <trkpt lat="47.11733" lon="6.43587">
        <ele>720.6</ele>
        <time>2023-04-30T07:54:15Z</time>
      </trkpt>
      <trkpt lat="47.11731" lon="6.43588">
        <ele>720.8</ele>
        <time>2023-04-30T07:54:17Z</time>
      </trkpt>
      <trkpt lat="47.1173" lon="6.43588">
        <ele>721</ele>
        <time>2023-04-30T07:54:19Z</time>
      </trkpt>
      <trkpt lat="47.11723" lon="6.4359">
        <ele>721.2</ele>
        <time>2023-04-30T07:54:37Z</time>
      </trkpt>
      <trkpt lat="47.11694" lon="6.43609">
        <ele>724.2</ele>
        <time>2023-04-30T07:55:06Z</time>
      </trkpt>
      <trkpt lat="47.11691" lon="6.43611">
        <ele>725.4</ele>
        <time>2023-04-30T07:55:08Z</time>
      </trkpt>
      <trkpt lat="47.11679" lon="6.43616">
        <ele>726.6</ele>
        <time>2023-04-30T07:55:13Z</time>
      </trkpt>
      <trkpt lat="47.11676" lon="6.43618">
        <ele>726.6</ele>
        <time>2023-04-30T07:55:14Z</time>
      </trkpt>
      <trkpt lat="47.11652" lon="6.43631">
        <ele>726.2</ele>
        <time>2023-04-30T07:55:20Z</time>
      </trkpt>
      <trkpt lat="47.11643" lon="6.43637">
        <ele>725.4</ele>
        <time>2023-04-30T07:55:22Z</time>
      </trkpt>
      <trkpt lat="47.11633" lon="6.43643">
        <ele>724.4</ele>
        <time>2023-04-30T07:55:24Z</time>
      </trkpt>
      <trkpt lat="47.11627" lon="6.43645">
        <ele>723.8</ele>
        <time>2023-04-30T07:55:25Z</time>
      </trkpt>
      <trkpt lat="47.11622" lon="6.43649">
        <ele>723.4</ele>
        <time>2023-04-30T07:55:26Z</time>
      </trkpt>
      <trkpt lat="47.11613" lon="6.43656">
        <ele>722.4</ele>
        <time>2023-04-30T07:55:28Z</time>
      </trkpt>
      <trkpt lat="47.11608" lon="6.43658">
        <ele>722</ele>
        <time>2023-04-30T07:55:29Z</time>
      </trkpt>
      <trkpt lat="47.11605" lon="6.4366">
        <ele>721.4</ele>
        <time>2023-04-30T07:55:30Z</time>
      </trkpt>
      <trkpt lat="47.116" lon="6.4366">
        <ele>720.8</ele>
        <time>2023-04-30T07:55:32Z</time>
      </trkpt>
      <trkpt lat="47.11598" lon="6.43661">
        <ele>720.6</ele>
        <time>2023-04-30T07:55:33Z</time>
      </trkpt>
      <trkpt lat="47.11582" lon="6.43663">
        <ele>724</ele>
        <time>2023-04-30T07:56:35Z</time>
      </trkpt>
      <trkpt lat="47.1158" lon="6.43662">
        <ele>723.8</ele>
        <time>2023-04-30T07:56:36Z</time>
      </trkpt>
      <trkpt lat="47.11579" lon="6.43661">
        <ele>723.4</ele>
        <time>2023-04-30T07:56:37Z</time>
      </trkpt>
      <trkpt lat="47.11576" lon="6.43658">
        <ele>722.8</ele>
        <time>2023-04-30T07:56:39Z</time>
      </trkpt>
      <trkpt lat="47.11565" lon="6.43652">
        <ele>721.6</ele>
        <time>2023-04-30T07:56:43Z</time>
      </trkpt>
      <trkpt lat="47.11557" lon="6.43647">
        <ele>720.4</ele>
        <time>2023-04-30T07:56:46Z</time>
      </trkpt>
      <trkpt lat="47.11546" lon="6.43645">
        <ele>719.4</ele>
        <time>2023-04-30T07:56:49Z</time>
      </trkpt>
      <trkpt lat="47.11543" lon="6.43644">
        <ele>719.2</ele>
        <time>2023-04-30T07:56:50Z</time>
      </trkpt>
      <trkpt lat="47.11531" lon="6.4364">
        <ele>718.2</ele>
        <time>2023-04-30T07:56:54Z</time>
      </trkpt>
      <trkpt lat="47.11527" lon="6.43639">
        <ele>717.8</ele>
        <time>2023-04-30T07:56:55Z</time>
      </trkpt>
      <trkpt lat="47.11518" lon="6.43634">
        <ele>717</ele>
        <time>2023-04-30T07:56:58Z</time>
      </trkpt>
      <trkpt lat="47.11506" lon="6.43626">
        <ele>715.6</ele>
        <time>2023-04-30T07:57:02Z</time>
      </trkpt>
      <trkpt lat="47.11492" lon="6.4362">
        <ele>714.6</ele>
        <time>2023-04-30T07:57:07Z</time>
      </trkpt>
      <trkpt lat="47.1149" lon="6.43619">
        <ele>714.6</ele>
        <time>2023-04-30T07:57:08Z</time>
      </trkpt>
      <trkpt lat="47.11473" lon="6.43618">
        <ele>713.8</ele>
        <time>2023-04-30T07:57:14Z</time>
      </trkpt>
      <trkpt lat="47.11468" lon="6.43618">
        <ele>713.6</ele>
        <time>2023-04-30T07:57:16Z</time>
      </trkpt>
      <trkpt lat="47.11458" lon="6.43616">
        <ele>714.4</ele>
        <time>2023-04-30T07:57:21Z</time>
      </trkpt>
      <trkpt lat="47.11449" lon="6.43616">
        <ele>715</ele>
        <time>2023-04-30T07:57:27Z</time>
      </trkpt>
      <trkpt lat="47.11444" lon="6.43617">
        <ele>716.8</ele>
        <time>2023-04-30T07:57:29Z</time>
      </trkpt>
      <trkpt lat="47.11442" lon="6.43617">
        <ele>718</ele>
        <time>2023-04-30T07:57:30Z</time>
      </trkpt>
      <trkpt lat="47.11439" lon="6.43617">
        <ele>719.6</ele>
        <time>2023-04-30T07:57:32Z</time>
      </trkpt>
      <trkpt lat="47.11436" lon="6.43618">
        <ele>721</ele>
        <time>2023-04-30T07:57:34Z</time>
      </trkpt>
      <trkpt lat="47.11433" lon="6.43618">
        <ele>722</ele>
        <time>2023-04-30T07:57:36Z</time>
      </trkpt>
      <trkpt lat="47.11429" lon="6.43617">
        <ele>723.4</ele>
        <time>2023-04-30T07:57:39Z</time>
      </trkpt>
      <trkpt lat="47.11427" lon="6.43617">
        <ele>723.8</ele>
        <time>2023-04-30T07:57:40Z</time>
      </trkpt>
      <trkpt lat="47.11424" lon="6.43615">
        <ele>724.8</ele>
        <time>2023-04-30T07:57:42Z</time>
      </trkpt>
      <trkpt lat="47.11419" lon="6.43614">
        <ele>726.6</ele>
        <time>2023-04-30T07:57:44Z</time>
      </trkpt>
      <trkpt lat="47.11413" lon="6.43613">
        <ele>728</ele>
        <time>2023-04-30T07:57:46Z</time>
      </trkpt>
      <trkpt lat="47.11411" lon="6.43612">
        <ele>728.6</ele>
        <time>2023-04-30T07:57:47Z</time>
      </trkpt>
      <trkpt lat="47.11408" lon="6.4361">
        <ele>729.4</ele>
        <time>2023-04-30T07:57:48Z</time>
      </trkpt>
      <trkpt lat="47.11404" lon="6.4361">
        <ele>730.8</ele>
        <time>2023-04-30T07:57:50Z</time>
      </trkpt>
      <trkpt lat="47.114" lon="6.43609">
        <ele>732.2</ele>
        <time>2023-04-30T07:57:52Z</time>
      </trkpt>
      <trkpt lat="47.11398" lon="6.43608">
        <ele>732.8</ele>
        <time>2023-04-30T07:57:53Z</time>
      </trkpt>
      <trkpt lat="47.11396" lon="6.43607">
        <ele>733.4</ele>
        <time>2023-04-30T07:57:54Z</time>
      </trkpt>
      <trkpt lat="47.1139" lon="6.43606">
        <ele>734.6</ele>
        <time>2023-04-30T07:57:56Z</time>
      </trkpt>
      <trkpt lat="47.11379" lon="6.43602">
        <ele>734.6</ele>
        <time>2023-04-30T07:58:00Z</time>
      </trkpt>
      <trkpt lat="47.1136" lon="6.43592">
        <ele>735</ele>
        <time>2023-04-30T07:58:07Z</time>
      </trkpt>
      <trkpt lat="47.11344" lon="6.43577">
        <ele>734.6</ele>
        <time>2023-04-30T07:58:14Z</time>
      </trkpt>
      <trkpt lat="47.11329" lon="6.43565">
        <ele>735.6</ele>
        <time>2023-04-30T07:58:20Z</time>
      </trkpt>
      <trkpt lat="47.11312" lon="6.43559">
        <ele>735.2</ele>
        <time>2023-04-30T07:58:27Z</time>
      </trkpt>
      <trkpt lat="47.11296" lon="6.43562">
        <ele>734.4</ele>
        <time>2023-04-30T07:58:32Z</time>
      </trkpt>
      <trkpt lat="47.11281" lon="6.43573">
        <ele>733.6</ele>
        <time>2023-04-30T07:58:38Z</time>
      </trkpt>
      <trkpt lat="47.1128" lon="6.43577">
        <ele>733.8</ele>
        <time>2023-04-30T07:58:39Z</time>
      </trkpt>
      <trkpt lat="47.11279" lon="6.43583">
        <ele>733.8</ele>
        <time>2023-04-30T07:58:42Z</time>
      </trkpt>
      <trkpt lat="47.11281" lon="6.436">
        <ele>734</ele>
        <time>2023-04-30T07:58:49Z</time>
      </trkpt>
      <trkpt lat="47.11281" lon="6.43603">
        <ele>733.2</ele>
        <time>2023-04-30T07:58:51Z</time>
      </trkpt>
      <trkpt lat="47.11282" lon="6.43612">
        <ele>732.4</ele>
        <time>2023-04-30T07:58:54Z</time>
      </trkpt>
      <trkpt lat="47.11282" lon="6.43615">
        <ele>732</ele>
        <time>2023-04-30T07:58:55Z</time>
      </trkpt>
      <trkpt lat="47.11286" lon="6.43632">
        <ele>731</ele>
        <time>2023-04-30T07:58:58Z</time>
      </trkpt>
      <trkpt lat="47.11287" lon="6.4364">
        <ele>730.8</ele>
        <time>2023-04-30T07:58:59Z</time>
      </trkpt>
      <trkpt lat="47.11289" lon="6.43656">
        <ele>730.4</ele>
        <time>2023-04-30T07:59:01Z</time>
      </trkpt>
      <trkpt lat="47.11292" lon="6.43669">
        <ele>730.2</ele>
        <time>2023-04-30T07:59:03Z</time>
      </trkpt>
      <trkpt lat="47.11297" lon="6.43684">
        <ele>729.8</ele>
        <time>2023-04-30T07:59:06Z</time>
      </trkpt>
      <trkpt lat="47.11299" lon="6.43693">
        <ele>729.8</ele>
        <time>2023-04-30T07:59:08Z</time>
      </trkpt>
      <trkpt lat="47.11306" lon="6.43726">
        <ele>730.8</ele>
        <time>2023-04-30T07:59:16Z</time>
      </trkpt>
      <trkpt lat="47.11311" lon="6.43753">
        <ele>731.8</ele>
        <time>2023-04-30T07:59:23Z</time>
      </trkpt>
      <trkpt lat="47.11308" lon="6.43765">
        <ele>731.6</ele>
        <time>2023-04-30T07:59:27Z</time>
      </trkpt>
      <trkpt lat="47.11306" lon="6.43766">
        <ele>731.6</ele>
        <time>2023-04-30T07:59:28Z</time>
      </trkpt>
      <trkpt lat="47.11297" lon="6.43773">
        <ele>732</ele>
        <time>2023-04-30T07:59:32Z</time>
      </trkpt>
      <trkpt lat="47.11293" lon="6.43777">
        <ele>732</ele>
        <time>2023-04-30T07:59:34Z</time>
      </trkpt>
      <trkpt lat="47.1128" lon="6.43784">
        <ele>731.8</ele>
        <time>2023-04-30T07:59:39Z</time>
      </trkpt>
      <trkpt lat="47.11269" lon="6.43791">
        <ele>732.6</ele>
        <time>2023-04-30T07:59:44Z</time>
      </trkpt>
      <trkpt lat="47.11254" lon="6.43799">
        <ele>733</ele>
        <time>2023-04-30T07:59:48Z</time>
      </trkpt>
      <trkpt lat="47.1125" lon="6.438">
        <ele>733.2</ele>
        <time>2023-04-30T07:59:49Z</time>
      </trkpt>
      <trkpt lat="47.11241" lon="6.43804">
        <ele>734</ele>
        <time>2023-04-30T07:59:51Z</time>
      </trkpt>
      <trkpt lat="47.11228" lon="6.43807">
        <ele>735.2</ele>
        <time>2023-04-30T07:59:54Z</time>
      </trkpt>
      <trkpt lat="47.11216" lon="6.43811">
        <ele>736</ele>
        <time>2023-04-30T07:59:57Z</time>
      </trkpt>
      <trkpt lat="47.11208" lon="6.43815">
        <ele>736.4</ele>
        <time>2023-04-30T07:59:59Z</time>
      </trkpt>
      <trkpt lat="47.11195" lon="6.43817">
        <ele>737.4</ele>
        <time>2023-04-30T08:00:02Z</time>
      </trkpt>
      <trkpt lat="47.1119" lon="6.43819">
        <ele>738.2</ele>
        <time>2023-04-30T08:00:03Z</time>
      </trkpt>
      <trkpt lat="47.11185" lon="6.4382">
        <ele>739.2</ele>
        <time>2023-04-30T08:00:04Z</time>
      </trkpt>
      <trkpt lat="47.1118" lon="6.43822">
        <ele>740.2</ele>
        <time>2023-04-30T08:00:05Z</time>
      </trkpt>
      <trkpt lat="47.11175" lon="6.43822">
        <ele>741.4</ele>
        <time>2023-04-30T08:00:06Z</time>
      </trkpt>
      <trkpt lat="47.11167" lon="6.43823">
        <ele>743</ele>
        <time>2023-04-30T08:00:08Z</time>
      </trkpt>
      <trkpt lat="47.11163" lon="6.43823">
        <ele>743.8</ele>
        <time>2023-04-30T08:00:09Z</time>
      </trkpt>
      <trkpt lat="47.11159" lon="6.43822">
        <ele>744.2</ele>
        <time>2023-04-30T08:00:10Z</time>
      </trkpt>
      <trkpt lat="47.11146" lon="6.4382">
        <ele>745.6</ele>
        <time>2023-04-30T08:00:13Z</time>
      </trkpt>
      <trkpt lat="47.11139" lon="6.43814">
        <ele>746</ele>
        <time>2023-04-30T08:00:15Z</time>
      </trkpt>
      <trkpt lat="47.11133" lon="6.43805">
        <ele>746.6</ele>
        <time>2023-04-30T08:00:17Z</time>
      </trkpt>
      <trkpt lat="47.11125" lon="6.43787">
        <ele>747.2</ele>
        <time>2023-04-30T08:00:20Z</time>
      </trkpt>
      <trkpt lat="47.11122" lon="6.43781">
        <ele>747.4</ele>
        <time>2023-04-30T08:00:21Z</time>
      </trkpt>
      <trkpt lat="47.11117" lon="6.43767">
        <ele>747.6</ele>
        <time>2023-04-30T08:00:23Z</time>
      </trkpt>
      <trkpt lat="47.11112" lon="6.43743">
        <ele>747.4</ele>
        <time>2023-04-30T08:00:26Z</time>
      </trkpt>
      <trkpt lat="47.11098" lon="6.43692">
        <ele>746.8</ele>
        <time>2023-04-30T08:00:32Z</time>
      </trkpt>
      <trkpt lat="47.11072" lon="6.43658">
        <ele>745.8</ele>
        <time>2023-04-30T08:00:37Z</time>
      </trkpt>
      <trkpt lat="47.11066" lon="6.43653">
        <ele>745.6</ele>
        <time>2023-04-30T08:00:38Z</time>
      </trkpt>
      <trkpt lat="47.11043" lon="6.43649">
        <ele>745</ele>
        <time>2023-04-30T08:00:41Z</time>
      </trkpt>
      <trkpt lat="47.11028" lon="6.43658">
        <ele>744.2</ele>
        <time>2023-04-30T08:00:43Z</time>
      </trkpt>
      <trkpt lat="47.1102" lon="6.43664">
        <ele>743.4</ele>
        <time>2023-04-30T08:00:44Z</time>
      </trkpt>
      <trkpt lat="47.11015" lon="6.43671">
        <ele>742.8</ele>
        <time>2023-04-30T08:00:45Z</time>
      </trkpt>
      <trkpt lat="47.11004" lon="6.43687">
        <ele>741.8</ele>
        <time>2023-04-30T08:00:47Z</time>
      </trkpt>
      <trkpt lat="47.10985" lon="6.43708">
        <ele>740.4</ele>
        <time>2023-04-30T08:00:50Z</time>
      </trkpt>
      <trkpt lat="47.10972" lon="6.4372">
        <ele>739.6</ele>
        <time>2023-04-30T08:00:52Z</time>
      </trkpt>
      <trkpt lat="47.10967" lon="6.43727">
        <ele>739.2</ele>
        <time>2023-04-30T08:00:53Z</time>
      </trkpt>
      <trkpt lat="47.1096" lon="6.43733">
        <ele>738.6</ele>
        <time>2023-04-30T08:00:54Z</time>
      </trkpt>
      <trkpt lat="47.10954" lon="6.43739">
        <ele>738.2</ele>
        <time>2023-04-30T08:00:55Z</time>
      </trkpt>
      <trkpt lat="47.10947" lon="6.43745">
        <ele>737.4</ele>
        <time>2023-04-30T08:00:56Z</time>
      </trkpt>
      <trkpt lat="47.1094" lon="6.43752">
        <ele>736.8</ele>
        <time>2023-04-30T08:00:57Z</time>
      </trkpt>
      <trkpt lat="47.10929" lon="6.43767">
        <ele>735.4</ele>
        <time>2023-04-30T08:00:59Z</time>
      </trkpt>
      <trkpt lat="47.10924" lon="6.43776">
        <ele>734.8</ele>
        <time>2023-04-30T08:01:00Z</time>
      </trkpt>
      <trkpt lat="47.1092" lon="6.43786">
        <ele>734</ele>
        <time>2023-04-30T08:01:01Z</time>
      </trkpt>
      <trkpt lat="47.10915" lon="6.43814">
        <ele>733</ele>
        <time>2023-04-30T08:01:03Z</time>
      </trkpt>
      <trkpt lat="47.10913" lon="6.43827">
        <ele>732.4</ele>
        <time>2023-04-30T08:01:04Z</time>
      </trkpt>
      <trkpt lat="47.10912" lon="6.43837">
        <ele>731.8</ele>
        <time>2023-04-30T08:01:05Z</time>
      </trkpt>
      <trkpt lat="47.10909" lon="6.43856">
        <ele>730.6</ele>
        <time>2023-04-30T08:01:07Z</time>
      </trkpt>
      <trkpt lat="47.10906" lon="6.43862">
        <ele>730.2</ele>
        <time>2023-04-30T08:01:08Z</time>
      </trkpt>
      <trkpt lat="47.10897" lon="6.43868">
        <ele>729.6</ele>
        <time>2023-04-30T08:01:10Z</time>
      </trkpt>
      <trkpt lat="47.10892" lon="6.43869">
        <ele>729.4</ele>
        <time>2023-04-30T08:01:11Z</time>
      </trkpt>
      <trkpt lat="47.10883" lon="6.43876">
        <ele>729</ele>
        <time>2023-04-30T08:01:13Z</time>
      </trkpt>
      <trkpt lat="47.10873" lon="6.43885">
        <ele>728.8</ele>
        <time>2023-04-30T08:01:15Z</time>
      </trkpt>
      <trkpt lat="47.10862" lon="6.43908">
        <ele>729.4</ele>
        <time>2023-04-30T08:01:19Z</time>
      </trkpt>
      <trkpt lat="47.10862" lon="6.43928">
        <ele>729.4</ele>
        <time>2023-04-30T08:01:23Z</time>
      </trkpt>
      <trkpt lat="47.10863" lon="6.43957">
        <ele>728.4</ele>
        <time>2023-04-30T08:01:29Z</time>
      </trkpt>
      <trkpt lat="47.10867" lon="6.43975">
        <ele>727.8</ele>
        <time>2023-04-30T08:01:34Z</time>
      </trkpt>
      <trkpt lat="47.10871" lon="6.43988">
        <ele>727.8</ele>
        <time>2023-04-30T08:01:39Z</time>
      </trkpt>
      <trkpt lat="47.10871" lon="6.44061">
        <ele>734.6</ele>
        <time>2023-04-30T08:02:38Z</time>
      </trkpt>
      <trkpt lat="47.10868" lon="6.44066">
        <ele>735.2</ele>
        <time>2023-04-30T08:02:40Z</time>
      </trkpt>
      <trkpt lat="47.10866" lon="6.44071">
        <ele>735.8</ele>
        <time>2023-04-30T08:02:42Z</time>
      </trkpt>
      <trkpt lat="47.10845" lon="6.44102">
        <ele>741</ele>
        <time>2023-04-30T08:03:27Z</time>
      </trkpt>
      <trkpt lat="47.1084" lon="6.44109">
        <ele>742.4</ele>
        <time>2023-04-30T08:03:29Z</time>
      </trkpt>
      <trkpt lat="47.10831" lon="6.44115">
        <ele>743.8</ele>
        <time>2023-04-30T08:03:32Z</time>
      </trkpt>
      <trkpt lat="47.10826" lon="6.44116">
        <ele>743.6</ele>
        <time>2023-04-30T08:03:35Z</time>
      </trkpt>
      <trkpt lat="47.10823" lon="6.44116">
        <ele>742.8</ele>
        <time>2023-04-30T08:03:38Z</time>
      </trkpt>
      <trkpt lat="47.10815" lon="6.44114">
        <ele>742.8</ele>
        <time>2023-04-30T08:03:42Z</time>
      </trkpt>
      <trkpt lat="47.10808" lon="6.44111">
        <ele>743.8</ele>
        <time>2023-04-30T08:03:45Z</time>
      </trkpt>
      <trkpt lat="47.10801" lon="6.44105">
        <ele>743.6</ele>
        <time>2023-04-30T08:03:49Z</time>
      </trkpt>
      <trkpt lat="47.10789" lon="6.44094">
        <ele>743</ele>
        <time>2023-04-30T08:03:56Z</time>
      </trkpt>
      <trkpt lat="47.10781" lon="6.44082">
        <ele>745</ele>
        <time>2023-04-30T08:04:03Z</time>
      </trkpt>
      <trkpt lat="47.10777" lon="6.4408">
        <ele>745.2</ele>
        <time>2023-04-30T08:04:05Z</time>
      </trkpt>
      <trkpt lat="47.1077" lon="6.44072">
        <ele>745.4</ele>
        <time>2023-04-30T08:04:08Z</time>
      </trkpt>
      <trkpt lat="47.10754" lon="6.44059">
        <ele>744.2</ele>
        <time>2023-04-30T08:04:15Z</time>
      </trkpt>
      <trkpt lat="47.1075" lon="6.44056">
        <ele>743.6</ele>
        <time>2023-04-30T08:04:17Z</time>
      </trkpt>
      <trkpt lat="47.10719" lon="6.44025">
        <ele>750</ele>
        <time>2023-04-30T08:04:38Z</time>
      </trkpt>
      <trkpt lat="47.10718" lon="6.44023">
        <ele>749.6</ele>
        <time>2023-04-30T08:04:39Z</time>
      </trkpt>
      <trkpt lat="47.10709" lon="6.44017">
        <ele>749</ele>
        <time>2023-04-30T08:04:45Z</time>
      </trkpt>
      <trkpt lat="47.10707" lon="6.44015">
        <ele>748.8</ele>
        <time>2023-04-30T08:04:46Z</time>
      </trkpt>
      <trkpt lat="47.1068" lon="6.43961">
        <ele>760.8</ele>
        <time>2023-04-30T08:05:22Z</time>
      </trkpt>
      <trkpt lat="47.10676" lon="6.43958">
        <ele>760.8</ele>
        <time>2023-04-30T08:05:24Z</time>
      </trkpt>
      <trkpt lat="47.10657" lon="6.43946">
        <ele>761</ele>
        <time>2023-04-30T08:05:35Z</time>
      </trkpt>
      <trkpt lat="47.10645" lon="6.4395">
        <ele>764</ele>
        <time>2023-04-30T08:05:51Z</time>
      </trkpt>
      <trkpt lat="47.10648" lon="6.43962">
        <ele>764.6</ele>
        <time>2023-04-30T08:05:55Z</time>
      </trkpt>
      <trkpt lat="47.10649" lon="6.43967">
        <ele>764.8</ele>
        <time>2023-04-30T08:05:57Z</time>
      </trkpt>
      <trkpt lat="47.1065" lon="6.43972">
        <ele>765.2</ele>
        <time>2023-04-30T08:05:59Z</time>
      </trkpt>
      <trkpt lat="47.10654" lon="6.43986">
        <ele>766.2</ele>
        <time>2023-04-30T08:06:04Z</time>
      </trkpt>
      <trkpt lat="47.10655" lon="6.43994">
        <ele>766.2</ele>
        <time>2023-04-30T08:06:06Z</time>
      </trkpt>
      <trkpt lat="47.10657" lon="6.44">
        <ele>765.8</ele>
        <time>2023-04-30T08:06:08Z</time>
      </trkpt>
      <trkpt lat="47.10664" lon="6.4401">
        <ele>765.6</ele>
        <time>2023-04-30T08:06:12Z</time>
      </trkpt>
      <trkpt lat="47.10669" lon="6.44014">
        <ele>764.8</ele>
        <time>2023-04-30T08:06:14Z</time>
      </trkpt>
      <trkpt lat="47.10673" lon="6.44023">
        <ele>763.4</ele>
        <time>2023-04-30T08:06:17Z</time>
      </trkpt>
      <trkpt lat="47.10676" lon="6.44027">
        <ele>763</ele>
        <time>2023-04-30T08:06:19Z</time>
      </trkpt>
      <trkpt lat="47.1068" lon="6.44035">
        <ele>763</ele>
        <time>2023-04-30T08:06:22Z</time>
      </trkpt>
      <trkpt lat="47.10692" lon="6.44052">
        <ele>762.8</ele>
        <time>2023-04-30T08:06:27Z</time>
      </trkpt>
      <trkpt lat="47.10706" lon="6.44069">
        <ele>762.6</ele>
        <time>2023-04-30T08:06:33Z</time>
      </trkpt>
      <trkpt lat="47.10714" lon="6.44083">
        <ele>762</ele>
        <time>2023-04-30T08:06:37Z</time>
      </trkpt>
      <trkpt lat="47.10715" lon="6.4409">
        <ele>761.4</ele>
        <time>2023-04-30T08:06:39Z</time>
      </trkpt>
      <trkpt lat="47.10716" lon="6.44094">
        <ele>760.8</ele>
        <time>2023-04-30T08:06:40Z</time>
      </trkpt>
      <trkpt lat="47.10722" lon="6.44103">
        <ele>759.8</ele>
        <time>2023-04-30T08:06:42Z</time>
      </trkpt>
      <trkpt lat="47.10725" lon="6.44112">
        <ele>758.6</ele>
        <time>2023-04-30T08:06:44Z</time>
      </trkpt>
      <trkpt lat="47.10731" lon="6.44124">
        <ele>757.2</ele>
        <time>2023-04-30T08:06:46Z</time>
      </trkpt>
      <trkpt lat="47.10734" lon="6.44131">
        <ele>756.2</ele>
        <time>2023-04-30T08:06:47Z</time>
      </trkpt>
      <trkpt lat="47.10737" lon="6.44137">
        <ele>755.4</ele>
        <time>2023-04-30T08:06:48Z</time>
      </trkpt>
      <trkpt lat="47.10742" lon="6.44151">
        <ele>753.8</ele>
        <time>2023-04-30T08:06:50Z</time>
      </trkpt>
      <trkpt lat="47.10748" lon="6.44164">
        <ele>752</ele>
        <time>2023-04-30T08:06:52Z</time>
      </trkpt>
      <trkpt lat="47.10751" lon="6.4417">
        <ele>751.2</ele>
        <time>2023-04-30T08:06:53Z</time>
      </trkpt>
      <trkpt lat="47.10759" lon="6.4418">
        <ele>749.4</ele>
        <time>2023-04-30T08:06:54Z</time>
      </trkpt>
      <trkpt lat="47.1077" lon="6.44193">
        <ele>747.4</ele>
        <time>2023-04-30T08:06:56Z</time>
      </trkpt>
      <trkpt lat="47.10772" lon="6.44196">
        <ele>746.4</ele>
        <time>2023-04-30T08:06:57Z</time>
      </trkpt>
      <trkpt lat="47.10776" lon="6.44201">
        <ele>746.4</ele>
        <time>2023-04-30T08:06:58Z</time>
      </trkpt>
      <trkpt lat="47.1079" lon="6.44212">
        <ele>744.8</ele>
        <time>2023-04-30T08:07:00Z</time>
      </trkpt>
      <trkpt lat="47.10804" lon="6.44219">
        <ele>743.4</ele>
        <time>2023-04-30T08:07:03Z</time>
      </trkpt>
      <trkpt lat="47.10811" lon="6.44221">
        <ele>743</ele>
        <time>2023-04-30T08:07:04Z</time>
      </trkpt>
      <trkpt lat="47.10824" lon="6.44223">
        <ele>742.2</ele>
        <time>2023-04-30T08:07:06Z</time>
      </trkpt>
      <trkpt lat="47.10844" lon="6.44222">
        <ele>741</ele>
        <time>2023-04-30T08:07:10Z</time>
      </trkpt>
      <trkpt lat="47.10871" lon="6.44228">
        <ele>740.2</ele>
        <time>2023-04-30T08:07:18Z</time>
      </trkpt>
      <trkpt lat="47.10873" lon="6.44236">
        <ele>740</ele>
        <time>2023-04-30T08:07:21Z</time>
      </trkpt>
      <trkpt lat="47.10876" lon="6.44244">
        <ele>739</ele>
        <time>2023-04-30T08:07:25Z</time>
      </trkpt>
      <trkpt lat="47.10878" lon="6.44254">
        <ele>737.8</ele>
        <time>2023-04-30T08:07:28Z</time>
      </trkpt>
      <trkpt lat="47.10878" lon="6.44261">
        <ele>735.2</ele>
        <time>2023-04-30T08:07:30Z</time>
      </trkpt>
      <trkpt lat="47.10877" lon="6.44268">
        <ele>733.4</ele>
        <time>2023-04-30T08:07:32Z</time>
      </trkpt>
      <trkpt lat="47.10877" lon="6.44274">
        <ele>731.8</ele>
        <time>2023-04-30T08:07:34Z</time>
      </trkpt>
      <trkpt lat="47.10876" lon="6.4428">
        <ele>730.4</ele>
        <time>2023-04-30T08:07:36Z</time>
      </trkpt>
      <trkpt lat="47.10876" lon="6.44292">
        <ele>728.2</ele>
        <time>2023-04-30T08:07:39Z</time>
      </trkpt>
      <trkpt lat="47.10876" lon="6.44298">
        <ele>727.4</ele>
        <time>2023-04-30T08:07:41Z</time>
      </trkpt>
      <trkpt lat="47.10876" lon="6.44301">
        <ele>726.6</ele>
        <time>2023-04-30T08:07:42Z</time>
      </trkpt>
      <trkpt lat="47.10877" lon="6.44305">
        <ele>725.2</ele>
        <time>2023-04-30T08:07:44Z</time>
      </trkpt>
      <trkpt lat="47.10878" lon="6.44311">
        <ele>723</ele>
        <time>2023-04-30T08:07:46Z</time>
      </trkpt>
      <trkpt lat="47.10878" lon="6.44315">
        <ele>722.2</ele>
        <time>2023-04-30T08:07:47Z</time>
      </trkpt>
      <trkpt lat="47.10879" lon="6.44318">
        <ele>721.6</ele>
        <time>2023-04-30T08:07:48Z</time>
      </trkpt>
      <trkpt lat="47.10882" lon="6.44324">
        <ele>720.2</ele>
        <time>2023-04-30T08:07:50Z</time>
      </trkpt>
      <trkpt lat="47.10886" lon="6.44328">
        <ele>719</ele>
        <time>2023-04-30T08:07:52Z</time>
      </trkpt>
      <trkpt lat="47.10902" lon="6.44341">
        <ele>715.2</ele>
        <time>2023-04-30T08:07:59Z</time>
      </trkpt>
      <trkpt lat="47.10909" lon="6.44347">
        <ele>713.8</ele>
        <time>2023-04-30T08:08:01Z</time>
      </trkpt>
      <trkpt lat="47.10912" lon="6.44349">
        <ele>713</ele>
        <time>2023-04-30T08:08:02Z</time>
      </trkpt>
      <trkpt lat="47.10916" lon="6.44352">
        <ele>711.6</ele>
        <time>2023-04-30T08:08:03Z</time>
      </trkpt>
      <trkpt lat="47.10926" lon="6.44362">
        <ele>712.2</ele>
        <time>2023-04-30T08:08:07Z</time>
      </trkpt>
      <trkpt lat="47.10929" lon="6.44365">
        <ele>713</ele>
        <time>2023-04-30T08:08:08Z</time>
      </trkpt>
      <trkpt lat="47.10935" lon="6.44373">
        <ele>714.2</ele>
        <time>2023-04-30T08:08:11Z</time>
      </trkpt>
      <trkpt lat="47.10937" lon="6.44381">
        <ele>714.2</ele>
        <time>2023-04-30T08:08:13Z</time>
      </trkpt>
      <trkpt lat="47.10947" lon="6.44405">
        <ele>714.4</ele>
        <time>2023-04-30T08:08:20Z</time>
      </trkpt>
      <trkpt lat="47.10958" lon="6.44421">
        <ele>715.4</ele>
        <time>2023-04-30T08:08:25Z</time>
      </trkpt>
      <trkpt lat="47.10963" lon="6.44427">
        <ele>716.8</ele>
        <time>2023-04-30T08:08:27Z</time>
      </trkpt>
      <trkpt lat="47.10968" lon="6.44433">
        <ele>718.4</ele>
        <time>2023-04-30T08:08:29Z</time>
      </trkpt>
      <trkpt lat="47.10973" lon="6.44438">
        <ele>720.4</ele>
        <time>2023-04-30T08:08:31Z</time>
      </trkpt>
      <trkpt lat="47.10975" lon="6.44441">
        <ele>721.8</ele>
        <time>2023-04-30T08:08:32Z</time>
      </trkpt>
      <trkpt lat="47.10979" lon="6.44444">
        <ele>723</ele>
        <time>2023-04-30T08:08:33Z</time>
      </trkpt>
      <trkpt lat="47.10982" lon="6.44447">
        <ele>724.2</ele>
        <time>2023-04-30T08:08:34Z</time>
      </trkpt>
      <trkpt lat="47.10987" lon="6.44452">
        <ele>725.8</ele>
        <time>2023-04-30T08:08:36Z</time>
      </trkpt>
      <trkpt lat="47.10994" lon="6.4446">
        <ele>728.4</ele>
        <time>2023-04-30T08:08:39Z</time>
      </trkpt>
      <trkpt lat="47.10995" lon="6.44462">
        <ele>729.4</ele>
        <time>2023-04-30T08:08:40Z</time>
      </trkpt>
      <trkpt lat="47.10996" lon="6.44465">
        <ele>730.2</ele>
        <time>2023-04-30T08:08:41Z</time>
      </trkpt>
      <trkpt lat="47.10997" lon="6.44472">
        <ele>731.2</ele>
        <time>2023-04-30T08:08:43Z</time>
      </trkpt>
      <trkpt lat="47.10998" lon="6.44478">
        <ele>732.2</ele>
        <time>2023-04-30T08:08:45Z</time>
      </trkpt>
      <trkpt lat="47.10998" lon="6.44482">
        <ele>732.6</ele>
        <time>2023-04-30T08:08:46Z</time>
      </trkpt>
      <trkpt lat="47.10997" lon="6.44486">
        <ele>732.6</ele>
        <time>2023-04-30T08:08:47Z</time>
      </trkpt>
      <trkpt lat="47.10996" lon="6.44493">
        <ele>733.6</ele>
        <time>2023-04-30T08:08:49Z</time>
      </trkpt>
      <trkpt lat="47.10992" lon="6.44508">
        <ele>734.2</ele>
        <time>2023-04-30T08:08:53Z</time>
      </trkpt>
      <trkpt lat="47.10992" lon="6.44515">
        <ele>734.2</ele>
        <time>2023-04-30T08:08:55Z</time>
      </trkpt>
      <trkpt lat="47.10992" lon="6.44536">
        <ele>734</ele>
        <time>2023-04-30T08:08:59Z</time>
      </trkpt>
      <trkpt lat="47.10994" lon="6.44552">
        <ele>734.6</ele>
        <time>2023-04-30T08:09:03Z</time>
      </trkpt>
      <trkpt lat="47.10998" lon="6.44565">
        <ele>735.8</ele>
        <time>2023-04-30T08:09:06Z</time>
      </trkpt>
      <trkpt lat="47.11" lon="6.44568">
        <ele>736.8</ele>
        <time>2023-04-30T08:09:07Z</time>
      </trkpt>
      <trkpt lat="47.11004" lon="6.44573">
        <ele>738</ele>
        <time>2023-04-30T08:09:09Z</time>
      </trkpt>
      <trkpt lat="47.11007" lon="6.44582">
        <ele>738.4</ele>
        <time>2023-04-30T08:09:12Z</time>
      </trkpt>
      <trkpt lat="47.11011" lon="6.44593">
        <ele>739.2</ele>
        <time>2023-04-30T08:09:15Z</time>
      </trkpt>
      <trkpt lat="47.11015" lon="6.44608">
        <ele>740</ele>
        <time>2023-04-30T08:09:19Z</time>
      </trkpt>
      <trkpt lat="47.11017" lon="6.44615">
        <ele>740.4</ele>
        <time>2023-04-30T08:09:21Z</time>
      </trkpt>
      <trkpt lat="47.11019" lon="6.4463">
        <ele>741</ele>
        <time>2023-04-30T08:09:25Z</time>
      </trkpt>
      <trkpt lat="47.11022" lon="6.44637">
        <ele>741.6</ele>
        <time>2023-04-30T08:09:28Z</time>
      </trkpt>
      <trkpt lat="47.11023" lon="6.44643">
        <ele>742.8</ele>
        <time>2023-04-30T08:09:30Z</time>
      </trkpt>
      <trkpt lat="47.11024" lon="6.44649">
        <ele>743.4</ele>
        <time>2023-04-30T08:09:32Z</time>
      </trkpt>
      <trkpt lat="47.11024" lon="6.44656">
        <ele>744</ele>
        <time>2023-04-30T08:09:34Z</time>
      </trkpt>
      <trkpt lat="47.11025" lon="6.44669">
        <ele>745</ele>
        <time>2023-04-30T08:09:38Z</time>
      </trkpt>
      <trkpt lat="47.11026" lon="6.44679">
        <ele>746.2</ele>
        <time>2023-04-30T08:09:40Z</time>
      </trkpt>
      <trkpt lat="47.11028" lon="6.44691">
        <ele>747.4</ele>
        <time>2023-04-30T08:09:43Z</time>
      </trkpt>
      <trkpt lat="47.11032" lon="6.44701">
        <ele>747.8</ele>
        <time>2023-04-30T08:09:46Z</time>
      </trkpt>
      <trkpt lat="47.11036" lon="6.44707">
        <ele>748.8</ele>
        <time>2023-04-30T08:09:48Z</time>
      </trkpt>
      <trkpt lat="47.11042" lon="6.44719">
        <ele>750</ele>
        <time>2023-04-30T08:09:51Z</time>
      </trkpt>
      <trkpt lat="47.11045" lon="6.44726">
        <ele>750.6</ele>
        <time>2023-04-30T08:09:53Z</time>
      </trkpt>
      <trkpt lat="47.11055" lon="6.4475">
        <ele>750.6</ele>
        <time>2023-04-30T08:09:59Z</time>
      </trkpt>
      <trkpt lat="47.11058" lon="6.44758">
        <ele>751</ele>
        <time>2023-04-30T08:10:01Z</time>
      </trkpt>
      <trkpt lat="47.11062" lon="6.44773">
        <ele>751.4</ele>
        <time>2023-04-30T08:10:06Z</time>
      </trkpt>
      <trkpt lat="47.11064" lon="6.44777">
        <ele>751.6</ele>
        <time>2023-04-30T08:14:58Z</time>
      </trkpt>
      <trkpt lat="47.11062" lon="6.44778">
        <ele>751.6</ele>
        <time>2023-04-30T08:15:00Z</time>
      </trkpt>
      <trkpt lat="47.11061" lon="6.4478">
        <ele>751.6</ele>
        <time>2023-04-30T08:15:02Z</time>
      </trkpt>
      <trkpt lat="47.11059" lon="6.44787">
        <ele>752.2</ele>
        <time>2023-04-30T08:15:05Z</time>
      </trkpt>
      <trkpt lat="47.11057" lon="6.44795">
        <ele>753</ele>
        <time>2023-04-30T08:15:09Z</time>
      </trkpt>
      <trkpt lat="47.11056" lon="6.44802">
        <ele>753</ele>
        <time>2023-04-30T08:15:11Z</time>
      </trkpt>
      <trkpt lat="47.11056" lon="6.44819">
        <ele>753.2</ele>
        <time>2023-04-30T08:15:17Z</time>
      </trkpt>
      <trkpt lat="47.11058" lon="6.44824">
        <ele>753.8</ele>
        <time>2023-04-30T08:15:19Z</time>
      </trkpt>
      <trkpt lat="47.11063" lon="6.44837">
        <ele>754.2</ele>
        <time>2023-04-30T08:15:24Z</time>
      </trkpt>
      <trkpt lat="47.11064" lon="6.4484">
        <ele>754.4</ele>
        <time>2023-04-30T08:15:25Z</time>
      </trkpt>
      <trkpt lat="47.11067" lon="6.44851">
        <ele>755.4</ele>
        <time>2023-04-30T08:15:30Z</time>
      </trkpt>
      <trkpt lat="47.11069" lon="6.44857">
        <ele>755.8</ele>
        <time>2023-04-30T08:15:33Z</time>
      </trkpt>
      <trkpt lat="47.11071" lon="6.44866">
        <ele>756.6</ele>
        <time>2023-04-30T08:15:37Z</time>
      </trkpt>
      <trkpt lat="47.11073" lon="6.44872">
        <ele>758</ele>
        <time>2023-04-30T08:15:40Z</time>
      </trkpt>
      <trkpt lat="47.11074" lon="6.44876">
        <ele>759.2</ele>
        <time>2023-04-30T08:15:42Z</time>
      </trkpt>
      <trkpt lat="47.11078" lon="6.44887">
        <ele>760</ele>
        <time>2023-04-30T08:15:47Z</time>
      </trkpt>
      <trkpt lat="47.11079" lon="6.44892">
        <ele>760.2</ele>
        <time>2023-04-30T08:15:49Z</time>
      </trkpt>
      <trkpt lat="47.11084" lon="6.44907">
        <ele>761.2</ele>
        <time>2023-04-30T08:15:55Z</time>
      </trkpt>
      <trkpt lat="47.11085" lon="6.4491">
        <ele>761.4</ele>
        <time>2023-04-30T08:15:56Z</time>
      </trkpt>
      <trkpt lat="47.11091" lon="6.44923">
        <ele>762.6</ele>
        <time>2023-04-30T08:16:02Z</time>
      </trkpt>
      <trkpt lat="47.11092" lon="6.44925">
        <ele>762.8</ele>
        <time>2023-04-30T08:16:03Z</time>
      </trkpt>
      <trkpt lat="47.11095" lon="6.44929">
        <ele>763.6</ele>
        <time>2023-04-30T08:16:06Z</time>
      </trkpt>
      <trkpt lat="47.11097" lon="6.44933">
        <ele>764.4</ele>
        <time>2023-04-30T08:16:09Z</time>
      </trkpt>
      <trkpt lat="47.11098" lon="6.44935">
        <ele>764.8</ele>
        <time>2023-04-30T08:16:10Z</time>
      </trkpt>
      <trkpt lat="47.11107" lon="6.44961">
        <ele>766.4</ele>
        <time>2023-04-30T08:16:23Z</time>
      </trkpt>
      <trkpt lat="47.11108" lon="6.44964">
        <ele>766.4</ele>
        <time>2023-04-30T08:16:24Z</time>
      </trkpt>
      <trkpt lat="47.11116" lon="6.44986">
        <ele>764.8</ele>
        <time>2023-04-30T08:16:30Z</time>
      </trkpt>
      <trkpt lat="47.11117" lon="6.4499">
        <ele>764.4</ele>
        <time>2023-04-30T08:16:31Z</time>
      </trkpt>
      <trkpt lat="47.11129" lon="6.45008">
        <ele>764.6</ele>
        <time>2023-04-30T08:16:38Z</time>
      </trkpt>
      <trkpt lat="47.11134" lon="6.45026">
        <ele>764.8</ele>
        <time>2023-04-30T08:16:44Z</time>
      </trkpt>
      <trkpt lat="47.11143" lon="6.45053">
        <ele>764</ele>
        <time>2023-04-30T08:16:52Z</time>
      </trkpt>
      <trkpt lat="47.11145" lon="6.45056">
        <ele>763.8</ele>
        <time>2023-04-30T08:16:53Z</time>
      </trkpt>
      <trkpt lat="47.11159" lon="6.45079">
        <ele>764.4</ele>
        <time>2023-04-30T08:17:00Z</time>
      </trkpt>
      <trkpt lat="47.11162" lon="6.45082">
        <ele>764.8</ele>
        <time>2023-04-30T08:17:01Z</time>
      </trkpt>
      <trkpt lat="47.11169" lon="6.45092">
        <ele>765.4</ele>
        <time>2023-04-30T08:17:05Z</time>
      </trkpt>
      <trkpt lat="47.11171" lon="6.45097">
        <ele>766</ele>
        <time>2023-04-30T08:17:07Z</time>
      </trkpt>
      <trkpt lat="47.11173" lon="6.45105">
        <ele>767</ele>
        <time>2023-04-30T08:17:10Z</time>
      </trkpt>
      <trkpt lat="47.11174" lon="6.45108">
        <ele>767.2</ele>
        <time>2023-04-30T08:17:11Z</time>
      </trkpt>
      <trkpt lat="47.11178" lon="6.45125">
        <ele>768.2</ele>
        <time>2023-04-30T08:17:17Z</time>
      </trkpt>
      <trkpt lat="47.11187" lon="6.4515">
        <ele>768.4</ele>
        <time>2023-04-30T08:17:22Z</time>
      </trkpt>
      <trkpt lat="47.11198" lon="6.45175">
        <ele>768.4</ele>
        <time>2023-04-30T08:17:27Z</time>
      </trkpt>
      <trkpt lat="47.11209" lon="6.45208">
        <ele>767.2</ele>
        <time>2023-04-30T08:17:32Z</time>
      </trkpt>
      <trkpt lat="47.11212" lon="6.45216">
        <ele>766.8</ele>
        <time>2023-04-30T08:17:33Z</time>
      </trkpt>
      <trkpt lat="47.11224" lon="6.4524">
        <ele>765.8</ele>
        <time>2023-04-30T08:17:36Z</time>
      </trkpt>
      <trkpt lat="47.11244" lon="6.45281">
        <ele>765.2</ele>
        <time>2023-04-30T08:17:42Z</time>
      </trkpt>
      <trkpt lat="47.11259" lon="6.45313">
        <ele>766.4</ele>
        <time>2023-04-30T08:17:48Z</time>
      </trkpt>
      <trkpt lat="47.11264" lon="6.45323">
        <ele>767</ele>
        <time>2023-04-30T08:17:50Z</time>
      </trkpt>
      <trkpt lat="47.11274" lon="6.45341">
        <ele>768.2</ele>
        <time>2023-04-30T08:17:54Z</time>
      </trkpt>
      <trkpt lat="47.11278" lon="6.45349">
        <ele>769</ele>
        <time>2023-04-30T08:17:56Z</time>
      </trkpt>
      <trkpt lat="47.1128" lon="6.45353">
        <ele>769.4</ele>
        <time>2023-04-30T08:17:57Z</time>
      </trkpt>
      <trkpt lat="47.11285" lon="6.45364">
        <ele>770.4</ele>
        <time>2023-04-30T08:18:00Z</time>
      </trkpt>
      <trkpt lat="47.11291" lon="6.45376">
        <ele>771.8</ele>
        <time>2023-04-30T08:18:03Z</time>
      </trkpt>
      <trkpt lat="47.11295" lon="6.45384">
        <ele>772.8</ele>
        <time>2023-04-30T08:18:05Z</time>
      </trkpt>
      <trkpt lat="47.11297" lon="6.45388">
        <ele>773.4</ele>
        <time>2023-04-30T08:18:06Z</time>
      </trkpt>
      <trkpt lat="47.11299" lon="6.45392">
        <ele>773.8</ele>
        <time>2023-04-30T08:18:07Z</time>
      </trkpt>
      <trkpt lat="47.11306" lon="6.45403">
        <ele>775.4</ele>
        <time>2023-04-30T08:18:10Z</time>
      </trkpt>
      <trkpt lat="47.1131" lon="6.4541">
        <ele>776.4</ele>
        <time>2023-04-30T08:18:12Z</time>
      </trkpt>
      <trkpt lat="47.11311" lon="6.45413">
        <ele>777</ele>
        <time>2023-04-30T08:18:13Z</time>
      </trkpt>
      <trkpt lat="47.11312" lon="6.45416">
        <ele>777.6</ele>
        <time>2023-04-30T08:18:14Z</time>
      </trkpt>
      <trkpt lat="47.11315" lon="6.45423">
        <ele>778.8</ele>
        <time>2023-04-30T08:18:16Z</time>
      </trkpt>
      <trkpt lat="47.1132" lon="6.45431">
        <ele>780</ele>
        <time>2023-04-30T08:18:19Z</time>
      </trkpt>
      <trkpt lat="47.11322" lon="6.45434">
        <ele>780.2</ele>
        <time>2023-04-30T08:18:20Z</time>
      </trkpt>
      <trkpt lat="47.11334" lon="6.45457">
        <ele>780</ele>
        <time>2023-04-30T08:18:26Z</time>
      </trkpt>
      <trkpt lat="47.11343" lon="6.45476">
        <ele>779</ele>
        <time>2023-04-30T08:18:31Z</time>
      </trkpt>
      <trkpt lat="47.11349" lon="6.45484">
        <ele>778.6</ele>
        <time>2023-04-30T08:18:33Z</time>
      </trkpt>
      <trkpt lat="47.11356" lon="6.45495">
        <ele>777.6</ele>
        <time>2023-04-30T08:18:35Z</time>
      </trkpt>
      <trkpt lat="47.11365" lon="6.4551">
        <ele>776.6</ele>
        <time>2023-04-30T08:18:38Z</time>
      </trkpt>
      <trkpt lat="47.11371" lon="6.45521">
        <ele>775.8</ele>
        <time>2023-04-30T08:18:40Z</time>
      </trkpt>
      <trkpt lat="47.11374" lon="6.45527">
        <ele>775.4</ele>
        <time>2023-04-30T08:18:41Z</time>
      </trkpt>
      <trkpt lat="47.11382" lon="6.45543">
        <ele>774</ele>
        <time>2023-04-30T08:18:43Z</time>
      </trkpt>
      <trkpt lat="47.11384" lon="6.45552">
        <ele>773.4</ele>
        <time>2023-04-30T08:18:44Z</time>
      </trkpt>
      <trkpt lat="47.11386" lon="6.45563">
        <ele>772.8</ele>
        <time>2023-04-30T08:18:45Z</time>
      </trkpt>
      <trkpt lat="47.11397" lon="6.456">
        <ele>771.4</ele>
        <time>2023-04-30T08:18:48Z</time>
      </trkpt>
      <trkpt lat="47.1141" lon="6.45642">
        <ele>770.4</ele>
        <time>2023-04-30T08:18:52Z</time>
      </trkpt>
      <trkpt lat="47.11431" lon="6.45685">
        <ele>770</ele>
        <time>2023-04-30T08:18:58Z</time>
      </trkpt>
      <trkpt lat="47.11446" lon="6.45709">
        <ele>770.2</ele>
        <time>2023-04-30T08:19:03Z</time>
      </trkpt>
      <trkpt lat="47.11448" lon="6.45715">
        <ele>770.2</ele>
        <time>2023-04-30T08:19:04Z</time>
      </trkpt>
      <trkpt lat="47.11466" lon="6.45759">
        <ele>769.8</ele>
        <time>2023-04-30T08:19:11Z</time>
      </trkpt>
      <trkpt lat="47.11483" lon="6.45798">
        <ele>769.6</ele>
        <time>2023-04-30T08:19:18Z</time>
      </trkpt>
      <trkpt lat="47.11503" lon="6.45831">
        <ele>770</ele>
        <time>2023-04-30T08:19:25Z</time>
      </trkpt>
      <trkpt lat="47.11526" lon="6.45866">
        <ele>771.2</ele>
        <time>2023-04-30T08:19:33Z</time>
      </trkpt>
      <trkpt lat="47.11537" lon="6.45885">
        <ele>771.4</ele>
        <time>2023-04-30T08:19:37Z</time>
      </trkpt>
      <trkpt lat="47.11544" lon="6.45901">
        <ele>771.8</ele>
        <time>2023-04-30T08:19:40Z</time>
      </trkpt>
      <trkpt lat="47.11557" lon="6.45933">
        <ele>772.6</ele>
        <time>2023-04-30T08:19:47Z</time>
      </trkpt>
      <trkpt lat="47.11572" lon="6.45957">
        <ele>773.2</ele>
        <time>2023-04-30T08:19:54Z</time>
      </trkpt>
      <trkpt lat="47.11584" lon="6.45977">
        <ele>773.6</ele>
        <time>2023-04-30T08:19:59Z</time>
      </trkpt>
      <trkpt lat="47.11588" lon="6.45986">
        <ele>773.8</ele>
        <time>2023-04-30T08:20:01Z</time>
      </trkpt>
      <trkpt lat="47.11606" lon="6.46013">
        <ele>774</ele>
        <time>2023-04-30T08:20:08Z</time>
      </trkpt>
      <trkpt lat="47.1162" lon="6.4603">
        <ele>774.2</ele>
        <time>2023-04-30T08:20:15Z</time>
      </trkpt>
      <trkpt lat="47.11621" lon="6.46031">
        <ele>774.6</ele>
        <time>2023-04-30T08:20:16Z</time>
      </trkpt>
      <trkpt lat="47.11627" lon="6.46035">
        <ele>776</ele>
        <time>2023-04-30T08:20:19Z</time>
      </trkpt>
      <trkpt lat="47.1163" lon="6.46039">
        <ele>777.2</ele>
        <time>2023-04-30T08:20:22Z</time>
      </trkpt>
      <trkpt lat="47.11629" lon="6.46042">
        <ele>778.2</ele>
        <time>2023-04-30T08:20:24Z</time>
      </trkpt>
      <trkpt lat="47.1163" lon="6.46044">
        <ele>778.6</ele>
        <time>2023-04-30T08:20:25Z</time>
      </trkpt>
      <trkpt lat="47.11629" lon="6.46048">
        <ele>779.4</ele>
        <time>2023-04-30T08:20:28Z</time>
      </trkpt>
      <trkpt lat="47.11628" lon="6.46052">
        <ele>779.6</ele>
        <time>2023-04-30T08:20:30Z</time>
      </trkpt>
      <trkpt lat="47.11627" lon="6.46058">
        <ele>779.6</ele>
        <time>2023-04-30T08:20:34Z</time>
      </trkpt>
      <trkpt lat="47.11633" lon="6.46102">
        <ele>783.4</ele>
        <time>2023-04-30T08:21:18Z</time>
      </trkpt>
      <trkpt lat="47.11635" lon="6.46108">
        <ele>783.6</ele>
        <time>2023-04-30T08:21:21Z</time>
      </trkpt>
      <trkpt lat="47.11607" lon="6.46173">
        <ele>797.2</ele>
        <time>2023-04-30T08:23:12Z</time>
      </trkpt>
      <trkpt lat="47.11606" lon="6.46176">
        <ele>796.8</ele>
        <time>2023-04-30T08:23:13Z</time>
      </trkpt>
      <trkpt lat="47.11604" lon="6.4618">
        <ele>796</ele>
        <time>2023-04-30T08:23:14Z</time>
      </trkpt>
      <trkpt lat="47.11603" lon="6.4619">
        <ele>795.6</ele>
        <time>2023-04-30T08:23:18Z</time>
      </trkpt>
      <trkpt lat="47.11606" lon="6.46195">
        <ele>796.2</ele>
        <time>2023-04-30T08:23:22Z</time>
      </trkpt>
      <trkpt lat="47.11608" lon="6.46198">
        <ele>796.8</ele>
        <time>2023-04-30T08:23:25Z</time>
      </trkpt>
      <trkpt lat="47.11612" lon="6.46206">
        <ele>800</ele>
        <time>2023-04-30T08:23:32Z</time>
      </trkpt>
      <trkpt lat="47.11615" lon="6.46214">
        <ele>801.2</ele>
        <time>2023-04-30T08:23:35Z</time>
      </trkpt>
      <trkpt lat="47.11626" lon="6.46239">
        <ele>800.8</ele>
        <time>2023-04-30T08:23:39Z</time>
      </trkpt>
      <trkpt lat="47.11646" lon="6.46271">
        <ele>800.2</ele>
        <time>2023-04-30T08:23:44Z</time>
      </trkpt>
      <trkpt lat="47.11649" lon="6.46278">
        <ele>800.2</ele>
        <time>2023-04-30T08:23:45Z</time>
      </trkpt>
      <trkpt lat="47.11653" lon="6.46285">
        <ele>799.6</ele>
        <time>2023-04-30T08:23:46Z</time>
      </trkpt>
      <trkpt lat="47.11658" lon="6.463">
        <ele>798.8</ele>
        <time>2023-04-30T08:23:48Z</time>
      </trkpt>
      <trkpt lat="47.1166" lon="6.46308">
        <ele>798</ele>
        <time>2023-04-30T08:23:49Z</time>
      </trkpt>
      <trkpt lat="47.11662" lon="6.46315">
        <ele>797.6</ele>
        <time>2023-04-30T08:23:50Z</time>
      </trkpt>
      <trkpt lat="47.11664" lon="6.46323">
        <ele>797</ele>
        <time>2023-04-30T08:23:51Z</time>
      </trkpt>
      <trkpt lat="47.11666" lon="6.4633">
        <ele>796.6</ele>
        <time>2023-04-30T08:23:52Z</time>
      </trkpt>
      <trkpt lat="47.11675" lon="6.46352">
        <ele>795.8</ele>
        <time>2023-04-30T08:23:55Z</time>
      </trkpt>
      <trkpt lat="47.11685" lon="6.46375">
        <ele>794.8</ele>
        <time>2023-04-30T08:23:58Z</time>
      </trkpt>
      <trkpt lat="47.11688" lon="6.46381">
        <ele>794.6</ele>
        <time>2023-04-30T08:23:59Z</time>
      </trkpt>
      <trkpt lat="47.11709" lon="6.46416">
        <ele>793.6</ele>
        <time>2023-04-30T08:24:05Z</time>
      </trkpt>
      <trkpt lat="47.11723" lon="6.46437">
        <ele>792.4</ele>
        <time>2023-04-30T08:24:09Z</time>
      </trkpt>
      <trkpt lat="47.11733" lon="6.46454">
        <ele>791.4</ele>
        <time>2023-04-30T08:24:12Z</time>
      </trkpt>
      <trkpt lat="47.11737" lon="6.46459">
        <ele>791.2</ele>
        <time>2023-04-30T08:24:13Z</time>
      </trkpt>
      <trkpt lat="47.11749" lon="6.4648">
        <ele>790</ele>
        <time>2023-04-30T08:24:16Z</time>
      </trkpt>
      <trkpt lat="47.11754" lon="6.46489">
        <ele>789.6</ele>
        <time>2023-04-30T08:24:17Z</time>
      </trkpt>
      <trkpt lat="47.11765" lon="6.46505">
        <ele>788.8</ele>
        <time>2023-04-30T08:24:19Z</time>
      </trkpt>
      <trkpt lat="47.11781" lon="6.4653">
        <ele>788.8</ele>
        <time>2023-04-30T08:24:22Z</time>
      </trkpt>
      <trkpt lat="47.11807" lon="6.46576">
        <ele>788.2</ele>
        <time>2023-04-30T08:24:27Z</time>
      </trkpt>
      <trkpt lat="47.11835" lon="6.46623">
        <ele>787.8</ele>
        <time>2023-04-30T08:24:32Z</time>
      </trkpt>
      <trkpt lat="47.11847" lon="6.46643">
        <ele>787.6</ele>
        <time>2023-04-30T08:24:34Z</time>
      </trkpt>
      <trkpt lat="47.11877" lon="6.4669">
        <ele>786.6</ele>
        <time>2023-04-30T08:24:39Z</time>
      </trkpt>
      <trkpt lat="47.11889" lon="6.46709">
        <ele>785.8</ele>
        <time>2023-04-30T08:24:41Z</time>
      </trkpt>
      <trkpt lat="47.11895" lon="6.46719">
        <ele>785.6</ele>
        <time>2023-04-30T08:24:42Z</time>
      </trkpt>
      <trkpt lat="47.11908" lon="6.4675">
        <ele>784.4</ele>
        <time>2023-04-30T08:24:45Z</time>
      </trkpt>
      <trkpt lat="47.11912" lon="6.46759">
        <ele>784</ele>
        <time>2023-04-30T08:24:46Z</time>
      </trkpt>
      <trkpt lat="47.11921" lon="6.46776">
        <ele>783.2</ele>
        <time>2023-04-30T08:24:48Z</time>
      </trkpt>
      <trkpt lat="47.11934" lon="6.46802">
        <ele>782</ele>
        <time>2023-04-30T08:24:51Z</time>
      </trkpt>
      <trkpt lat="47.11939" lon="6.4681">
        <ele>781.4</ele>
        <time>2023-04-30T08:24:52Z</time>
      </trkpt>
      <trkpt lat="47.1195" lon="6.46826">
        <ele>780.8</ele>
        <time>2023-04-30T08:24:54Z</time>
      </trkpt>
      <trkpt lat="47.11966" lon="6.46849">
        <ele>779.4</ele>
        <time>2023-04-30T08:24:57Z</time>
      </trkpt>
      <trkpt lat="47.1197" lon="6.46857">
        <ele>779.2</ele>
        <time>2023-04-30T08:24:58Z</time>
      </trkpt>
      <trkpt lat="47.11984" lon="6.46892">
        <ele>778.2</ele>
        <time>2023-04-30T08:25:02Z</time>
      </trkpt>
      <trkpt lat="47.11988" lon="6.46899">
        <ele>778.2</ele>
        <time>2023-04-30T08:25:03Z</time>
      </trkpt>
      <trkpt lat="47.12" lon="6.46924">
        <ele>777.6</ele>
        <time>2023-04-30T08:25:07Z</time>
      </trkpt>
      <trkpt lat="47.12024" lon="6.46964">
        <ele>777.6</ele>
        <time>2023-04-30T08:25:13Z</time>
      </trkpt>
      <trkpt lat="47.12028" lon="6.46971">
        <ele>777.2</ele>
        <time>2023-04-30T08:25:14Z</time>
      </trkpt>
      <trkpt lat="47.12038" lon="6.46989">
        <ele>776.2</ele>
        <time>2023-04-30T08:25:17Z</time>
      </trkpt>
      <trkpt lat="47.12049" lon="6.47011">
        <ele>775.4</ele>
        <time>2023-04-30T08:25:21Z</time>
      </trkpt>
      <trkpt lat="47.12062" lon="6.47035">
        <ele>776.2</ele>
        <time>2023-04-30T08:25:27Z</time>
      </trkpt>
      <trkpt lat="47.12076" lon="6.47055">
        <ele>776.2</ele>
        <time>2023-04-30T08:25:33Z</time>
      </trkpt>
      <trkpt lat="47.12091" lon="6.47075">
        <ele>776.4</ele>
        <time>2023-04-30T08:25:40Z</time>
      </trkpt>
      <trkpt lat="47.12099" lon="6.47084">
        <ele>777.2</ele>
        <time>2023-04-30T08:25:43Z</time>
      </trkpt>
      <trkpt lat="47.1211" lon="6.47095">
        <ele>777.6</ele>
        <time>2023-04-30T08:25:47Z</time>
      </trkpt>
      <trkpt lat="47.12124" lon="6.47108">
        <ele>778.4</ele>
        <time>2023-04-30T08:25:52Z</time>
      </trkpt>
      <trkpt lat="47.12126" lon="6.4711">
        <ele>778.8</ele>
        <time>2023-04-30T08:25:53Z</time>
      </trkpt>
      <trkpt lat="47.12132" lon="6.47114">
        <ele>779.6</ele>
        <time>2023-04-30T08:25:55Z</time>
      </trkpt>
      <trkpt lat="47.12136" lon="6.47119">
        <ele>780.6</ele>
        <time>2023-04-30T08:25:57Z</time>
      </trkpt>
      <trkpt lat="47.12138" lon="6.47121">
        <ele>780.6</ele>
        <time>2023-04-30T08:25:58Z</time>
      </trkpt>
      <trkpt lat="47.12146" lon="6.47129">
        <ele>782.2</ele>
        <time>2023-04-30T08:26:01Z</time>
      </trkpt>
      <trkpt lat="47.12152" lon="6.47134">
        <ele>783.6</ele>
        <time>2023-04-30T08:26:03Z</time>
      </trkpt>
      <trkpt lat="47.12159" lon="6.47138">
        <ele>785</ele>
        <time>2023-04-30T08:26:05Z</time>
      </trkpt>
      <trkpt lat="47.12167" lon="6.47146">
        <ele>786.2</ele>
        <time>2023-04-30T08:26:08Z</time>
      </trkpt>
      <trkpt lat="47.12173" lon="6.47152">
        <ele>787.2</ele>
        <time>2023-04-30T08:26:10Z</time>
      </trkpt>
      <trkpt lat="47.12185" lon="6.47161">
        <ele>788.6</ele>
        <time>2023-04-30T08:26:13Z</time>
      </trkpt>
      <trkpt lat="47.12197" lon="6.47171">
        <ele>789.8</ele>
        <time>2023-04-30T08:26:15Z</time>
      </trkpt>
      <trkpt lat="47.12212" lon="6.47183">
        <ele>791</ele>
        <time>2023-04-30T08:26:17Z</time>
      </trkpt>
      <trkpt lat="47.12232" lon="6.47199">
        <ele>792.4</ele>
        <time>2023-04-30T08:26:20Z</time>
      </trkpt>
      <trkpt lat="47.12249" lon="6.47212">
        <ele>793.4</ele>
        <time>2023-04-30T08:26:23Z</time>
      </trkpt>
      <trkpt lat="47.12257" lon="6.4722">
        <ele>794</ele>
        <time>2023-04-30T08:26:25Z</time>
      </trkpt>
      <trkpt lat="47.12265" lon="6.47228">
        <ele>794.6</ele>
        <time>2023-04-30T08:26:27Z</time>
      </trkpt>
      <trkpt lat="47.12279" lon="6.47242">
        <ele>795.4</ele>
        <time>2023-04-30T08:26:31Z</time>
      </trkpt>
      <trkpt lat="47.12285" lon="6.47246">
        <ele>795.8</ele>
        <time>2023-04-30T08:26:33Z</time>
      </trkpt>
      <trkpt lat="47.12291" lon="6.47252">
        <ele>796.2</ele>
        <time>2023-04-30T08:26:36Z</time>
      </trkpt>
      <trkpt lat="47.12292" lon="6.47255">
        <ele>796.4</ele>
        <time>2023-04-30T08:26:37Z</time>
      </trkpt>
      <trkpt lat="47.12292" lon="6.47258">
        <ele>797</ele>
        <time>2023-04-30T08:26:39Z</time>
      </trkpt>
      <trkpt lat="47.12291" lon="6.47259">
        <ele>797.2</ele>
        <time>2023-04-30T08:26:40Z</time>
      </trkpt>
      <trkpt lat="47.1229" lon="6.47259">
        <ele>797.6</ele>
        <time>2023-04-30T08:26:41Z</time>
      </trkpt>
      <trkpt lat="47.12285" lon="6.47259">
        <ele>798.2</ele>
        <time>2023-04-30T08:26:43Z</time>
      </trkpt>
      <trkpt lat="47.12281" lon="6.47258">
        <ele>798.8</ele>
        <time>2023-04-30T08:26:45Z</time>
      </trkpt>
      <trkpt lat="47.12277" lon="6.47257">
        <ele>799.2</ele>
        <time>2023-04-30T08:26:47Z</time>
      </trkpt>
      <trkpt lat="47.12266" lon="6.47257">
        <ele>799.4</ele>
        <time>2023-04-30T08:26:51Z</time>
      </trkpt>
      <trkpt lat="47.12248" lon="6.47255">
        <ele>799.2</ele>
        <time>2023-04-30T08:26:57Z</time>
      </trkpt>
      <trkpt lat="47.12221" lon="6.47256">
        <ele>798.4</ele>
        <time>2023-04-30T08:27:07Z</time>
      </trkpt>
      <trkpt lat="47.12208" lon="6.47259">
        <ele>798.2</ele>
        <time>2023-04-30T08:27:14Z</time>
      </trkpt>
      <trkpt lat="47.12195" lon="6.47262">
        <ele>797.2</ele>
        <time>2023-04-30T08:27:21Z</time>
      </trkpt>
      <trkpt lat="47.12193" lon="6.47262">
        <ele>797</ele>
        <time>2023-04-30T08:27:22Z</time>
      </trkpt>
      <trkpt lat="47.12184" lon="6.47263">
        <ele>797.4</ele>
        <time>2023-04-30T08:27:27Z</time>
      </trkpt>
      <trkpt lat="47.12179" lon="6.47264">
        <ele>795.8</ele>
        <time>2023-04-30T08:27:30Z</time>
      </trkpt>
      <trkpt lat="47.12173" lon="6.47268">
        <ele>794.4</ele>
        <time>2023-04-30T08:27:33Z</time>
      </trkpt>
      <trkpt lat="47.12163" lon="6.47272">
        <ele>795.8</ele>
        <time>2023-04-30T08:27:39Z</time>
      </trkpt>
      <trkpt lat="47.1216" lon="6.47275">
        <ele>796.4</ele>
        <time>2023-04-30T08:27:41Z</time>
      </trkpt>
      <trkpt lat="47.12159" lon="6.47276">
        <ele>796.8</ele>
        <time>2023-04-30T08:27:42Z</time>
      </trkpt>
      <trkpt lat="47.12166" lon="6.4731">
        <ele>800.2</ele>
        <time>2023-04-30T08:28:02Z</time>
      </trkpt>
      <trkpt lat="47.12173" lon="6.47316">
        <ele>800.6</ele>
        <time>2023-04-30T08:28:05Z</time>
      </trkpt>
      <trkpt lat="47.12177" lon="6.47319">
        <ele>800.6</ele>
        <time>2023-04-30T08:28:07Z</time>
      </trkpt>
      <trkpt lat="47.12182" lon="6.47325">
        <ele>801.4</ele>
        <time>2023-04-30T08:28:10Z</time>
      </trkpt>
      <trkpt lat="47.12184" lon="6.47329">
        <ele>801.2</ele>
        <time>2023-04-30T08:28:12Z</time>
      </trkpt>
      <trkpt lat="47.12186" lon="6.47333">
        <ele>801.6</ele>
        <time>2023-04-30T08:28:14Z</time>
      </trkpt>
      <trkpt lat="47.12188" lon="6.47338">
        <ele>802.4</ele>
        <time>2023-04-30T08:28:17Z</time>
      </trkpt>
      <trkpt lat="47.12189" lon="6.4734">
        <ele>802.4</ele>
        <time>2023-04-30T08:28:18Z</time>
      </trkpt>
      <trkpt lat="47.12191" lon="6.47342">
        <ele>802.4</ele>
        <time>2023-04-30T08:28:19Z</time>
      </trkpt>
      <trkpt lat="47.12205" lon="6.47355">
        <ele>801.6</ele>
        <time>2023-04-30T08:28:24Z</time>
      </trkpt>
      <trkpt lat="47.12208" lon="6.47359">
        <ele>801.2</ele>
        <time>2023-04-30T08:28:25Z</time>
      </trkpt>
      <trkpt lat="47.12217" lon="6.47366">
        <ele>800.2</ele>
        <time>2023-04-30T08:28:28Z</time>
      </trkpt>
      <trkpt lat="47.12232" lon="6.47372">
        <ele>799</ele>
        <time>2023-04-30T08:28:32Z</time>
      </trkpt>
      <trkpt lat="47.12249" lon="6.47391">
        <ele>799.2</ele>
        <time>2023-04-30T08:28:39Z</time>
      </trkpt>
      <trkpt lat="47.12267" lon="6.47406">
        <ele>799.6</ele>
        <time>2023-04-30T08:28:44Z</time>
      </trkpt>
      <trkpt lat="47.1228" lon="6.47414">
        <ele>800.2</ele>
        <time>2023-04-30T08:28:47Z</time>
      </trkpt>
      <trkpt lat="47.12292" lon="6.47421">
        <ele>801.2</ele>
        <time>2023-04-30T08:28:50Z</time>
      </trkpt>
      <trkpt lat="47.12297" lon="6.47423">
        <ele>801.4</ele>
        <time>2023-04-30T08:28:51Z</time>
      </trkpt>
      <trkpt lat="47.1232" lon="6.47434">
        <ele>802.4</ele>
        <time>2023-04-30T08:28:57Z</time>
      </trkpt>
      <trkpt lat="47.1233" lon="6.47438">
        <ele>803.2</ele>
        <time>2023-04-30T08:28:59Z</time>
      </trkpt>
      <trkpt lat="47.12335" lon="6.47441">
        <ele>803.6</ele>
        <time>2023-04-30T08:29:00Z</time>
      </trkpt>
      <trkpt lat="47.12351" lon="6.47448">
        <ele>804.6</ele>
        <time>2023-04-30T08:29:03Z</time>
      </trkpt>
      <trkpt lat="47.12368" lon="6.47456">
        <ele>804.8</ele>
        <time>2023-04-30T08:29:06Z</time>
      </trkpt>
      <trkpt lat="47.12385" lon="6.47467">
        <ele>803.6</ele>
        <time>2023-04-30T08:29:09Z</time>
      </trkpt>
      <trkpt lat="47.12397" lon="6.47477">
        <ele>803.2</ele>
        <time>2023-04-30T08:29:11Z</time>
      </trkpt>
      <trkpt lat="47.12413" lon="6.47493">
        <ele>802.4</ele>
        <time>2023-04-30T08:29:14Z</time>
      </trkpt>
      <trkpt lat="47.12426" lon="6.47503">
        <ele>802.2</ele>
        <time>2023-04-30T08:29:16Z</time>
      </trkpt>
      <trkpt lat="47.12456" lon="6.47513">
        <ele>801.6</ele>
        <time>2023-04-30T08:29:20Z</time>
      </trkpt>
      <trkpt lat="47.12464" lon="6.47513">
        <ele>801.4</ele>
        <time>2023-04-30T08:29:21Z</time>
      </trkpt>
      <trkpt lat="47.12473" lon="6.47512">
        <ele>801.2</ele>
        <time>2023-04-30T08:29:22Z</time>
      </trkpt>
      <trkpt lat="47.1249" lon="6.47511">
        <ele>800.4</ele>
        <time>2023-04-30T08:29:24Z</time>
      </trkpt>
      <trkpt lat="47.12498" lon="6.47511">
        <ele>800</ele>
        <time>2023-04-30T08:29:25Z</time>
      </trkpt>
      <trkpt lat="47.12515" lon="6.47513">
        <ele>799</ele>
        <time>2023-04-30T08:29:27Z</time>
      </trkpt>
      <trkpt lat="47.12537" lon="6.47517">
        <ele>798</ele>
        <time>2023-04-30T08:29:30Z</time>
      </trkpt>
      <trkpt lat="47.12553" lon="6.47519">
        <ele>796.4</ele>
        <time>2023-04-30T08:29:33Z</time>
      </trkpt>
      <trkpt lat="47.12558" lon="6.47519">
        <ele>796</ele>
        <time>2023-04-30T08:29:34Z</time>
      </trkpt>
      <trkpt lat="47.12565" lon="6.47513">
        <ele>794.8</ele>
        <time>2023-04-30T08:29:36Z</time>
      </trkpt>
      <trkpt lat="47.12568" lon="6.47508">
        <ele>794.2</ele>
        <time>2023-04-30T08:29:37Z</time>
      </trkpt>
      <trkpt lat="47.12571" lon="6.47503">
        <ele>793.4</ele>
        <time>2023-04-30T08:29:38Z</time>
      </trkpt>
      <trkpt lat="47.12576" lon="6.47492">
        <ele>792.2</ele>
        <time>2023-04-30T08:29:40Z</time>
      </trkpt>
      <trkpt lat="47.12578" lon="6.47481">
        <ele>791</ele>
        <time>2023-04-30T08:29:42Z</time>
      </trkpt>
      <trkpt lat="47.12579" lon="6.47475">
        <ele>790.4</ele>
        <time>2023-04-30T08:29:43Z</time>
      </trkpt>
      <trkpt lat="47.12581" lon="6.4747">
        <ele>790</ele>
        <time>2023-04-30T08:29:44Z</time>
      </trkpt>
      <trkpt lat="47.12583" lon="6.47457">
        <ele>788.8</ele>
        <time>2023-04-30T08:29:46Z</time>
      </trkpt>
      <trkpt lat="47.12584" lon="6.47442">
        <ele>787.2</ele>
        <time>2023-04-30T08:29:48Z</time>
      </trkpt>
      <trkpt lat="47.12581" lon="6.4743">
        <ele>786</ele>
        <time>2023-04-30T08:29:49Z</time>
      </trkpt>
      <trkpt lat="47.12579" lon="6.47416">
        <ele>785</ele>
        <time>2023-04-30T08:29:50Z</time>
      </trkpt>
      <trkpt lat="47.12576" lon="6.47403">
        <ele>783.6</ele>
        <time>2023-04-30T08:29:51Z</time>
      </trkpt>
      <trkpt lat="47.12572" lon="6.47382">
        <ele>781.8</ele>
        <time>2023-04-30T08:29:53Z</time>
      </trkpt>
      <trkpt lat="47.12572" lon="6.47374">
        <ele>780.6</ele>
        <time>2023-04-30T08:29:54Z</time>
      </trkpt>
      <trkpt lat="47.12573" lon="6.47365">
        <ele>779.2</ele>
        <time>2023-04-30T08:29:55Z</time>
      </trkpt>
      <trkpt lat="47.12575" lon="6.47357">
        <ele>778</ele>
        <time>2023-04-30T08:29:56Z</time>
      </trkpt>
      <trkpt lat="47.12579" lon="6.47349">
        <ele>776.2</ele>
        <time>2023-04-30T08:29:57Z</time>
      </trkpt>
      <trkpt lat="47.12583" lon="6.47343">
        <ele>774.8</ele>
        <time>2023-04-30T08:29:58Z</time>
      </trkpt>
      <trkpt lat="47.12588" lon="6.47338">
        <ele>773.4</ele>
        <time>2023-04-30T08:29:59Z</time>
      </trkpt>
      <trkpt lat="47.12593" lon="6.47334">
        <ele>772</ele>
        <time>2023-04-30T08:30:00Z</time>
      </trkpt>
      <trkpt lat="47.12599" lon="6.47332">
        <ele>771</ele>
        <time>2023-04-30T08:30:01Z</time>
      </trkpt>
      <trkpt lat="47.12605" lon="6.4733">
        <ele>770</ele>
        <time>2023-04-30T08:30:02Z</time>
      </trkpt>
      <trkpt lat="47.12612" lon="6.47328">
        <ele>769.2</ele>
        <time>2023-04-30T08:30:03Z</time>
      </trkpt>
      <trkpt lat="47.12627" lon="6.47325">
        <ele>767.8</ele>
        <time>2023-04-30T08:30:05Z</time>
      </trkpt>
      <trkpt lat="47.12642" lon="6.47322">
        <ele>766.8</ele>
        <time>2023-04-30T08:30:07Z</time>
      </trkpt>
      <trkpt lat="47.12658" lon="6.4732">
        <ele>765.6</ele>
        <time>2023-04-30T08:30:09Z</time>
      </trkpt>
      <trkpt lat="47.12675" lon="6.47318">
        <ele>764.4</ele>
        <time>2023-04-30T08:30:11Z</time>
      </trkpt>
      <trkpt lat="47.12699" lon="6.47316">
        <ele>762.8</ele>
        <time>2023-04-30T08:30:14Z</time>
      </trkpt>
      <trkpt lat="47.12707" lon="6.47317">
        <ele>762.4</ele>
        <time>2023-04-30T08:30:15Z</time>
      </trkpt>
      <trkpt lat="47.12723" lon="6.47319">
        <ele>761</ele>
        <time>2023-04-30T08:30:17Z</time>
      </trkpt>
      <trkpt lat="47.12731" lon="6.4732">
        <ele>760</ele>
        <time>2023-04-30T08:30:18Z</time>
      </trkpt>
      <trkpt lat="47.12739" lon="6.47321">
        <ele>759</ele>
        <time>2023-04-30T08:30:19Z</time>
      </trkpt>
      <trkpt lat="47.12747" lon="6.47322">
        <ele>758</ele>
        <time>2023-04-30T08:30:20Z</time>
      </trkpt>
      <trkpt lat="47.12764" lon="6.47324">
        <ele>755.8</ele>
        <time>2023-04-30T08:30:22Z</time>
      </trkpt>
      <trkpt lat="47.12782" lon="6.47325">
        <ele>754.2</ele>
        <time>2023-04-30T08:30:24Z</time>
      </trkpt>
      <trkpt lat="47.12801" lon="6.47327">
        <ele>752.8</ele>
        <time>2023-04-30T08:30:26Z</time>
      </trkpt>
      <trkpt lat="47.12819" lon="6.47329">
        <ele>751.6</ele>
        <time>2023-04-30T08:30:28Z</time>
      </trkpt>
      <trkpt lat="47.12827" lon="6.47331">
        <ele>750.8</ele>
        <time>2023-04-30T08:30:29Z</time>
      </trkpt>
      <trkpt lat="47.12836" lon="6.47333">
        <ele>750.2</ele>
        <time>2023-04-30T08:30:30Z</time>
      </trkpt>
      <trkpt lat="47.12854" lon="6.47337">
        <ele>748.4</ele>
        <time>2023-04-30T08:30:32Z</time>
      </trkpt>
      <trkpt lat="47.12872" lon="6.47342">
        <ele>747</ele>
        <time>2023-04-30T08:30:34Z</time>
      </trkpt>
      <trkpt lat="47.12892" lon="6.47346">
        <ele>745.4</ele>
        <time>2023-04-30T08:30:36Z</time>
      </trkpt>
      <trkpt lat="47.12901" lon="6.47349">
        <ele>745</ele>
        <time>2023-04-30T08:30:37Z</time>
      </trkpt>
      <trkpt lat="47.12911" lon="6.47351">
        <ele>744.4</ele>
        <time>2023-04-30T08:30:38Z</time>
      </trkpt>
      <trkpt lat="47.12931" lon="6.47356">
        <ele>742.4</ele>
        <time>2023-04-30T08:30:40Z</time>
      </trkpt>
      <trkpt lat="47.12951" lon="6.47362">
        <ele>740.6</ele>
        <time>2023-04-30T08:30:42Z</time>
      </trkpt>
      <trkpt lat="47.1297" lon="6.47367">
        <ele>739.8</ele>
        <time>2023-04-30T08:30:44Z</time>
      </trkpt>
      <trkpt lat="47.1298" lon="6.47369">
        <ele>739.4</ele>
        <time>2023-04-30T08:30:45Z</time>
      </trkpt>
      <trkpt lat="47.13" lon="6.47378">
        <ele>738.4</ele>
        <time>2023-04-30T08:30:47Z</time>
      </trkpt>
      <trkpt lat="47.13021" lon="6.4739">
        <ele>737.2</ele>
        <time>2023-04-30T08:30:49Z</time>
      </trkpt>
      <trkpt lat="47.13058" lon="6.47418">
        <ele>736</ele>
        <time>2023-04-30T08:30:53Z</time>
      </trkpt>
      <trkpt lat="47.13067" lon="6.47424">
        <ele>736</ele>
        <time>2023-04-30T08:30:54Z</time>
      </trkpt>
      <trkpt lat="47.1312" lon="6.47452">
        <ele>736</ele>
        <time>2023-04-30T08:31:00Z</time>
      </trkpt>
      <trkpt lat="47.13129" lon="6.47455">
        <ele>736.2</ele>
        <time>2023-04-30T08:31:01Z</time>
      </trkpt>
      <trkpt lat="47.13184" lon="6.47478">
        <ele>736.4</ele>
        <time>2023-04-30T08:31:08Z</time>
      </trkpt>
      <trkpt lat="47.1324" lon="6.47499">
        <ele>735.8</ele>
        <time>2023-04-30T08:31:15Z</time>
      </trkpt>
      <trkpt lat="47.13266" lon="6.47507">
        <ele>735</ele>
        <time>2023-04-30T08:31:18Z</time>
      </trkpt>
      <trkpt lat="47.13294" lon="6.47515">
        <ele>733.8</ele>
        <time>2023-04-30T08:31:21Z</time>
      </trkpt>
      <trkpt lat="47.13314" lon="6.47521">
        <ele>732.8</ele>
        <time>2023-04-30T08:31:23Z</time>
      </trkpt>
      <trkpt lat="47.13334" lon="6.47527">
        <ele>731.4</ele>
        <time>2023-04-30T08:31:25Z</time>
      </trkpt>
      <trkpt lat="47.13353" lon="6.47532">
        <ele>730</ele>
        <time>2023-04-30T08:31:27Z</time>
      </trkpt>
      <trkpt lat="47.13372" lon="6.47536">
        <ele>728.6</ele>
        <time>2023-04-30T08:31:29Z</time>
      </trkpt>
      <trkpt lat="47.13382" lon="6.47539">
        <ele>728</ele>
        <time>2023-04-30T08:31:30Z</time>
      </trkpt>
      <trkpt lat="47.13392" lon="6.47541">
        <ele>727.4</ele>
        <time>2023-04-30T08:31:31Z</time>
      </trkpt>
      <trkpt lat="47.1342" lon="6.47547">
        <ele>726</ele>
        <time>2023-04-30T08:31:34Z</time>
      </trkpt>
      <trkpt lat="47.13437" lon="6.4755">
        <ele>724.8</ele>
        <time>2023-04-30T08:31:36Z</time>
      </trkpt>
      <trkpt lat="47.13446" lon="6.47551">
        <ele>724.4</ele>
        <time>2023-04-30T08:31:37Z</time>
      </trkpt>
      <trkpt lat="47.13463" lon="6.47554">
        <ele>723.8</ele>
        <time>2023-04-30T08:31:39Z</time>
      </trkpt>
      <trkpt lat="47.13503" lon="6.47564">
        <ele>723</ele>
        <time>2023-04-30T08:31:44Z</time>
      </trkpt>
      <trkpt lat="47.13518" lon="6.47569">
        <ele>722.6</ele>
        <time>2023-04-30T08:31:46Z</time>
      </trkpt>
      <trkpt lat="47.13562" lon="6.47576">
        <ele>723.4</ele>
        <time>2023-04-30T08:31:52Z</time>
      </trkpt>
      <trkpt lat="47.13575" lon="6.47576">
        <ele>723.8</ele>
        <time>2023-04-30T08:31:54Z</time>
      </trkpt>
      <trkpt lat="47.13608" lon="6.47576">
        <ele>724.8</ele>
        <time>2023-04-30T08:31:59Z</time>
      </trkpt>
      <trkpt lat="47.13615" lon="6.47575">
        <ele>725</ele>
        <time>2023-04-30T08:32:00Z</time>
      </trkpt>
      <trkpt lat="47.13642" lon="6.47574">
        <ele>726.2</ele>
        <time>2023-04-30T08:32:04Z</time>
      </trkpt>
      <trkpt lat="47.13656" lon="6.47572">
        <ele>726.4</ele>
        <time>2023-04-30T08:32:06Z</time>
      </trkpt>
      <trkpt lat="47.13713" lon="6.47559">
        <ele>726.8</ele>
        <time>2023-04-30T08:32:14Z</time>
      </trkpt>
      <trkpt lat="47.13727" lon="6.47554">
        <ele>727.2</ele>
        <time>2023-04-30T08:32:16Z</time>
      </trkpt>
      <trkpt lat="47.13758" lon="6.47538">
        <ele>728.2</ele>
        <time>2023-04-30T08:32:21Z</time>
      </trkpt>
      <trkpt lat="47.13764" lon="6.47535">
        <ele>728.2</ele>
        <time>2023-04-30T08:32:22Z</time>
      </trkpt>
      <trkpt lat="47.13785" lon="6.47522">
        <ele>729.4</ele>
        <time>2023-04-30T08:32:26Z</time>
      </trkpt>
      <trkpt lat="47.13805" lon="6.47511">
        <ele>730</ele>
        <time>2023-04-30T08:32:30Z</time>
      </trkpt>
      <trkpt lat="47.13822" lon="6.47506">
        <ele>729.6</ele>
        <time>2023-04-30T08:32:33Z</time>
      </trkpt>
      <trkpt lat="47.13834" lon="6.47503">
        <ele>729.4</ele>
        <time>2023-04-30T08:32:35Z</time>
      </trkpt>
      <trkpt lat="47.13855" lon="6.47495">
        <ele>728.4</ele>
        <time>2023-04-30T08:32:38Z</time>
      </trkpt>
      <trkpt lat="47.1387" lon="6.47485">
        <ele>727.4</ele>
        <time>2023-04-30T08:32:40Z</time>
      </trkpt>
      <trkpt lat="47.13877" lon="6.47477">
        <ele>726.8</ele>
        <time>2023-04-30T08:32:41Z</time>
      </trkpt>
      <trkpt lat="47.13884" lon="6.47469">
        <ele>725.6</ele>
        <time>2023-04-30T08:32:42Z</time>
      </trkpt>
      <trkpt lat="47.1389" lon="6.47459">
        <ele>724.6</ele>
        <time>2023-04-30T08:32:43Z</time>
      </trkpt>
      <trkpt lat="47.13897" lon="6.47449">
        <ele>723.6</ele>
        <time>2023-04-30T08:32:44Z</time>
      </trkpt>
      <trkpt lat="47.13903" lon="6.4744">
        <ele>723</ele>
        <time>2023-04-30T08:32:45Z</time>
      </trkpt>
      <trkpt lat="47.13921" lon="6.47412">
        <ele>721.8</ele>
        <time>2023-04-30T08:32:48Z</time>
      </trkpt>
      <trkpt lat="47.13939" lon="6.47385">
        <ele>720.8</ele>
        <time>2023-04-30T08:32:51Z</time>
      </trkpt>
      <trkpt lat="47.13945" lon="6.47376">
        <ele>720.4</ele>
        <time>2023-04-30T08:32:52Z</time>
      </trkpt>
      <trkpt lat="47.13951" lon="6.47368">
        <ele>720.2</ele>
        <time>2023-04-30T08:32:53Z</time>
      </trkpt>
      <trkpt lat="47.13965" lon="6.47357">
        <ele>720</ele>
        <time>2023-04-30T08:32:55Z</time>
      </trkpt>
      <trkpt lat="47.13988" lon="6.47354">
        <ele>720</ele>
        <time>2023-04-30T08:32:58Z</time>
      </trkpt>
      <trkpt lat="47.14028" lon="6.47354">
        <ele>719.4</ele>
        <time>2023-04-30T08:33:04Z</time>
      </trkpt>
      <trkpt lat="47.14033" lon="6.47354">
        <ele>719.4</ele>
        <time>2023-04-30T08:33:05Z</time>
      </trkpt>
      <trkpt lat="47.14042" lon="6.4735">
        <ele>719.4</ele>
        <time>2023-04-30T08:33:08Z</time>
      </trkpt>
      <trkpt lat="47.14046" lon="6.47344">
        <ele>719.6</ele>
        <time>2023-04-30T08:33:10Z</time>
      </trkpt>
      <trkpt lat="47.14046" lon="6.47338">
        <ele>719.8</ele>
        <time>2023-04-30T08:33:12Z</time>
      </trkpt>
      <trkpt lat="47.14048" lon="6.47312">
        <ele>720.2</ele>
        <time>2023-04-30T08:33:17Z</time>
      </trkpt>
      <trkpt lat="47.14048" lon="6.47305">
        <ele>720.4</ele>
        <time>2023-04-30T08:33:18Z</time>
      </trkpt>
      <trkpt lat="47.14048" lon="6.4728">
        <ele>721.4</ele>
        <time>2023-04-30T08:33:22Z</time>
      </trkpt>
      <trkpt lat="47.14049" lon="6.47274">
        <ele>721.6</ele>
        <time>2023-04-30T08:33:23Z</time>
      </trkpt>
      <trkpt lat="47.14051" lon="6.47255">
        <ele>722.4</ele>
        <time>2023-04-30T08:33:26Z</time>
      </trkpt>
      <trkpt lat="47.14053" lon="6.47248">
        <ele>722.6</ele>
        <time>2023-04-30T08:33:27Z</time>
      </trkpt>
      <trkpt lat="47.14054" lon="6.47235">
        <ele>723.4</ele>
        <time>2023-04-30T08:33:29Z</time>
      </trkpt>
      <trkpt lat="47.14056" lon="6.47229">
        <ele>723.8</ele>
        <time>2023-04-30T08:33:30Z</time>
      </trkpt>
      <trkpt lat="47.1406" lon="6.47209">
        <ele>725.2</ele>
        <time>2023-04-30T08:33:33Z</time>
      </trkpt>
      <trkpt lat="47.14063" lon="6.47188">
        <ele>726.2</ele>
        <time>2023-04-30T08:33:36Z</time>
      </trkpt>
      <trkpt lat="47.14064" lon="6.47182">
        <ele>726.6</ele>
        <time>2023-04-30T08:33:37Z</time>
      </trkpt>
      <trkpt lat="47.14066" lon="6.47168">
        <ele>727.4</ele>
        <time>2023-04-30T08:33:39Z</time>
      </trkpt>
      <trkpt lat="47.14069" lon="6.47149">
        <ele>728.6</ele>
        <time>2023-04-30T08:33:42Z</time>
      </trkpt>
      <trkpt lat="47.14072" lon="6.4713">
        <ele>729.8</ele>
        <time>2023-04-30T08:33:45Z</time>
      </trkpt>
      <trkpt lat="47.14076" lon="6.47118">
        <ele>730.4</ele>
        <time>2023-04-30T08:33:47Z</time>
      </trkpt>
      <trkpt lat="47.1408" lon="6.47105">
        <ele>730.8</ele>
        <time>2023-04-30T08:33:49Z</time>
      </trkpt>
      <trkpt lat="47.14087" lon="6.47088">
        <ele>731.6</ele>
        <time>2023-04-30T08:33:52Z</time>
      </trkpt>
      <trkpt lat="47.14089" lon="6.47082">
        <ele>732</ele>
        <time>2023-04-30T08:33:53Z</time>
      </trkpt>
      <trkpt lat="47.14098" lon="6.47059">
        <ele>733.2</ele>
        <time>2023-04-30T08:33:57Z</time>
      </trkpt>
      <trkpt lat="47.14105" lon="6.47041">
        <ele>734</ele>
        <time>2023-04-30T08:34:00Z</time>
      </trkpt>
      <trkpt lat="47.14106" lon="6.47034">
        <ele>734.4</ele>
        <time>2023-04-30T08:34:01Z</time>
      </trkpt>
      <trkpt lat="47.14107" lon="6.47028">
        <ele>734.8</ele>
        <time>2023-04-30T08:34:02Z</time>
      </trkpt>
      <trkpt lat="47.14108" lon="6.47014">
        <ele>735.4</ele>
        <time>2023-04-30T08:34:04Z</time>
      </trkpt>
      <trkpt lat="47.14108" lon="6.47007">
        <ele>735.8</ele>
        <time>2023-04-30T08:34:05Z</time>
      </trkpt>
      <trkpt lat="47.14108" lon="6.46986">
        <ele>737</ele>
        <time>2023-04-30T08:34:08Z</time>
      </trkpt>
      <trkpt lat="47.14106" lon="6.46952">
        <ele>738</ele>
        <time>2023-04-30T08:34:13Z</time>
      </trkpt>
      <trkpt lat="47.14104" lon="6.46932">
        <ele>739.2</ele>
        <time>2023-04-30T08:34:16Z</time>
      </trkpt>
      <trkpt lat="47.14103" lon="6.46918">
        <ele>740.2</ele>
        <time>2023-04-30T08:34:18Z</time>
      </trkpt>
      <trkpt lat="47.14103" lon="6.46903">
        <ele>740.8</ele>
        <time>2023-04-30T08:34:20Z</time>
      </trkpt>
      <trkpt lat="47.14102" lon="6.46884">
        <ele>741.2</ele>
        <time>2023-04-30T08:34:23Z</time>
      </trkpt>
      <trkpt lat="47.14103" lon="6.46866">
        <ele>742</ele>
        <time>2023-04-30T08:34:27Z</time>
      </trkpt>
      <trkpt lat="47.14104" lon="6.46857">
        <ele>742</ele>
        <time>2023-04-30T08:34:48Z</time>
      </trkpt>
      <trkpt lat="47.14103" lon="6.46847">
        <ele>741.6</ele>
        <time>2023-04-30T08:34:53Z</time>
      </trkpt>
      <trkpt lat="47.141" lon="6.4684">
        <ele>741.6</ele>
        <time>2023-04-30T08:34:55Z</time>
      </trkpt>
      <trkpt lat="47.141" lon="6.46837">
        <ele>741.6</ele>
        <time>2023-04-30T08:34:56Z</time>
      </trkpt>
      <trkpt lat="47.141" lon="6.46827">
        <ele>741.6</ele>
        <time>2023-04-30T08:34:58Z</time>
      </trkpt>
      <trkpt lat="47.141" lon="6.46817">
        <ele>742</ele>
        <time>2023-04-30T08:35:00Z</time>
      </trkpt>
      <trkpt lat="47.14098" lon="6.468">
        <ele>742.4</ele>
        <time>2023-04-30T08:35:03Z</time>
      </trkpt>
      <trkpt lat="47.14097" lon="6.46795">
        <ele>742.8</ele>
        <time>2023-04-30T08:35:04Z</time>
      </trkpt>
      <trkpt lat="47.14093" lon="6.46774">
        <ele>743.2</ele>
        <time>2023-04-30T08:35:09Z</time>
      </trkpt>
      <trkpt lat="47.14092" lon="6.46773">
        <ele>743.4</ele>
        <time>2023-04-30T08:35:11Z</time>
      </trkpt>
      <trkpt lat="47.14093" lon="6.46778">
        <ele>742.8</ele>
        <time>2023-04-30T08:36:27Z</time>
      </trkpt>
      <trkpt lat="47.14094" lon="6.46786">
        <ele>742.4</ele>
        <time>2023-04-30T08:36:29Z</time>
      </trkpt>
      <trkpt lat="47.14095" lon="6.46789">
        <ele>742.4</ele>
        <time>2023-04-30T08:36:30Z</time>
      </trkpt>
      <trkpt lat="47.14096" lon="6.468">
        <ele>742.2</ele>
        <time>2023-04-30T08:36:32Z</time>
      </trkpt>
      <trkpt lat="47.14097" lon="6.46806">
        <ele>742</ele>
        <time>2023-04-30T08:36:33Z</time>
      </trkpt>
      <trkpt lat="47.14098" lon="6.46812">
        <ele>741.8</ele>
        <time>2023-04-30T08:36:34Z</time>
      </trkpt>
      <trkpt lat="47.14098" lon="6.46819">
        <ele>741.8</ele>
        <time>2023-04-30T08:36:35Z</time>
      </trkpt>
      <trkpt lat="47.141" lon="6.46845">
        <ele>741.4</ele>
        <time>2023-04-30T08:36:39Z</time>
      </trkpt>
      <trkpt lat="47.14103" lon="6.46847">
        <ele>741.2</ele>
        <time>2023-04-30T08:36:40Z</time>
      </trkpt>
      <trkpt lat="47.14106" lon="6.46846">
        <ele>740.8</ele>
        <time>2023-04-30T08:36:41Z</time>
      </trkpt>
      <trkpt lat="47.14119" lon="6.46831">
        <ele>739.8</ele>
        <time>2023-04-30T08:36:44Z</time>
      </trkpt>
      <trkpt lat="47.14141" lon="6.46813">
        <ele>738.8</ele>
        <time>2023-04-30T08:36:48Z</time>
      </trkpt>
      <trkpt lat="47.14147" lon="6.46809">
        <ele>738.4</ele>
        <time>2023-04-30T08:36:49Z</time>
      </trkpt>
      <trkpt lat="47.1416" lon="6.46799">
        <ele>737.4</ele>
        <time>2023-04-30T08:36:51Z</time>
      </trkpt>
      <trkpt lat="47.14182" lon="6.46787">
        <ele>736</ele>
        <time>2023-04-30T08:36:54Z</time>
      </trkpt>
      <trkpt lat="47.1419" lon="6.46784">
        <ele>735.6</ele>
        <time>2023-04-30T08:36:55Z</time>
      </trkpt>
      <trkpt lat="47.14206" lon="6.46779">
        <ele>734.8</ele>
        <time>2023-04-30T08:36:57Z</time>
      </trkpt>
      <trkpt lat="47.1423" lon="6.46774">
        <ele>733.8</ele>
        <time>2023-04-30T08:37:00Z</time>
      </trkpt>
      <trkpt lat="47.14246" lon="6.46769">
        <ele>732.6</ele>
        <time>2023-04-30T08:37:02Z</time>
      </trkpt>
      <trkpt lat="47.1427" lon="6.46765">
        <ele>731.6</ele>
        <time>2023-04-30T08:37:05Z</time>
      </trkpt>
      <trkpt lat="47.14301" lon="6.46759">
        <ele>731</ele>
        <time>2023-04-30T08:37:09Z</time>
      </trkpt>
      <trkpt lat="47.14324" lon="6.46753">
        <ele>730.2</ele>
        <time>2023-04-30T08:37:12Z</time>
      </trkpt>
      <trkpt lat="47.14358" lon="6.46744">
        <ele>729.2</ele>
        <time>2023-04-30T08:37:17Z</time>
      </trkpt>
      <trkpt lat="47.14401" lon="6.46726">
        <ele>729</ele>
        <time>2023-04-30T08:37:24Z</time>
      </trkpt>
      <trkpt lat="47.14428" lon="6.46708">
        <ele>728.6</ele>
        <time>2023-04-30T08:37:29Z</time>
      </trkpt>
      <trkpt lat="47.14439" lon="6.46706">
        <ele>728.4</ele>
        <time>2023-04-30T08:37:31Z</time>
      </trkpt>
      <trkpt lat="47.14451" lon="6.46705">
        <ele>728.2</ele>
        <time>2023-04-30T08:37:33Z</time>
      </trkpt>
      <trkpt lat="47.14481" lon="6.46707">
        <ele>727.6</ele>
        <time>2023-04-30T08:37:38Z</time>
      </trkpt>
      <trkpt lat="47.14486" lon="6.46706">
        <ele>727.6</ele>
        <time>2023-04-30T08:37:39Z</time>
      </trkpt>
      <trkpt lat="47.14496" lon="6.46698">
        <ele>727.2</ele>
        <time>2023-04-30T08:37:41Z</time>
      </trkpt>
      <trkpt lat="47.14504" lon="6.46678">
        <ele>727.2</ele>
        <time>2023-04-30T08:37:44Z</time>
      </trkpt>
      <trkpt lat="47.14506" lon="6.46671">
        <ele>727.2</ele>
        <time>2023-04-30T08:37:45Z</time>
      </trkpt>
      <trkpt lat="47.14519" lon="6.46616">
        <ele>727.4</ele>
        <time>2023-04-30T08:37:52Z</time>
      </trkpt>
      <trkpt lat="47.14525" lon="6.46577">
        <ele>728.2</ele>
        <time>2023-04-30T08:37:57Z</time>
      </trkpt>
      <trkpt lat="47.14528" lon="6.46563">
        <ele>728.6</ele>
        <time>2023-04-30T08:37:59Z</time>
      </trkpt>
      <trkpt lat="47.14532" lon="6.46542">
        <ele>729.4</ele>
        <time>2023-04-30T08:38:02Z</time>
      </trkpt>
      <trkpt lat="47.1454" lon="6.46519">
        <ele>730.6</ele>
        <time>2023-04-30T08:38:06Z</time>
      </trkpt>
      <trkpt lat="47.14548" lon="6.465">
        <ele>731.6</ele>
        <time>2023-04-30T08:38:10Z</time>
      </trkpt>
      <trkpt lat="47.14556" lon="6.46482">
        <ele>732.6</ele>
        <time>2023-04-30T08:38:14Z</time>
      </trkpt>
      <trkpt lat="47.14559" lon="6.46477">
        <ele>732.8</ele>
        <time>2023-04-30T08:38:15Z</time>
      </trkpt>
      <trkpt lat="47.14569" lon="6.46455">
        <ele>734</ele>
        <time>2023-04-30T08:38:20Z</time>
      </trkpt>
      <trkpt lat="47.14573" lon="6.46447">
        <ele>734.2</ele>
        <time>2023-04-30T08:38:22Z</time>
      </trkpt>
      <trkpt lat="47.14581" lon="6.46431">
        <ele>735</ele>
        <time>2023-04-30T08:38:26Z</time>
      </trkpt>
      <trkpt lat="47.14593" lon="6.4641">
        <ele>735.6</ele>
        <time>2023-04-30T08:38:31Z</time>
      </trkpt>
      <trkpt lat="47.14603" lon="6.46388">
        <ele>736.2</ele>
        <time>2023-04-30T08:38:36Z</time>
      </trkpt>
      <trkpt lat="47.14614" lon="6.46367">
        <ele>736.8</ele>
        <time>2023-04-30T08:38:41Z</time>
      </trkpt>
      <trkpt lat="47.14623" lon="6.46348">
        <ele>737.4</ele>
        <time>2023-04-30T08:38:46Z</time>
      </trkpt>
      <trkpt lat="47.14628" lon="6.46336">
        <ele>737.4</ele>
        <time>2023-04-30T08:38:50Z</time>
      </trkpt>
      <trkpt lat="47.14639" lon="6.46316">
        <ele>737.6</ele>
        <time>2023-04-30T08:38:58Z</time>
      </trkpt>
      <trkpt lat="47.14644" lon="6.46305">
        <ele>738.2</ele>
        <time>2023-04-30T08:39:03Z</time>
      </trkpt>
      <trkpt lat="47.14646" lon="6.46302">
        <ele>737.8</ele>
        <time>2023-04-30T08:40:05Z</time>
      </trkpt>
      <trkpt lat="47.14649" lon="6.46295">
        <ele>737.6</ele>
        <time>2023-04-30T08:40:07Z</time>
      </trkpt>
      <trkpt lat="47.14663" lon="6.46275">
        <ele>736.6</ele>
        <time>2023-04-30T08:40:11Z</time>
      </trkpt>
      <trkpt lat="47.14667" lon="6.46268">
        <ele>736.2</ele>
        <time>2023-04-30T08:40:12Z</time>
      </trkpt>
      <trkpt lat="47.14679" lon="6.46246">
        <ele>735.2</ele>
        <time>2023-04-30T08:40:15Z</time>
      </trkpt>
      <trkpt lat="47.14683" lon="6.46237">
        <ele>735</ele>
        <time>2023-04-30T08:40:16Z</time>
      </trkpt>
      <trkpt lat="47.14686" lon="6.46228">
        <ele>734.6</ele>
        <time>2023-04-30T08:40:17Z</time>
      </trkpt>
      <trkpt lat="47.14693" lon="6.46208">
        <ele>734.2</ele>
        <time>2023-04-30T08:40:19Z</time>
      </trkpt>
      <trkpt lat="47.147" lon="6.46187">
        <ele>733.6</ele>
        <time>2023-04-30T08:40:21Z</time>
      </trkpt>
      <trkpt lat="47.14708" lon="6.46165">
        <ele>733</ele>
        <time>2023-04-30T08:40:23Z</time>
      </trkpt>
      <trkpt lat="47.14725" lon="6.46133">
        <ele>731.8</ele>
        <time>2023-04-30T08:40:26Z</time>
      </trkpt>
      <trkpt lat="47.14741" lon="6.46105">
        <ele>730.8</ele>
        <time>2023-04-30T08:40:29Z</time>
      </trkpt>
      <trkpt lat="47.14758" lon="6.46081">
        <ele>730.4</ele>
        <time>2023-04-30T08:40:32Z</time>
      </trkpt>
      <trkpt lat="47.14789" lon="6.46042">
        <ele>730</ele>
        <time>2023-04-30T08:40:38Z</time>
      </trkpt>
      <trkpt lat="47.14795" lon="6.46037">
        <ele>729.8</ele>
        <time>2023-04-30T08:40:39Z</time>
      </trkpt>
      <trkpt lat="47.14801" lon="6.46033">
        <ele>729.6</ele>
        <time>2023-04-30T08:40:40Z</time>
      </trkpt>
      <trkpt lat="47.14818" lon="6.46029">
        <ele>728.6</ele>
        <time>2023-04-30T08:40:42Z</time>
      </trkpt>
      <trkpt lat="47.14833" lon="6.46028">
        <ele>728</ele>
        <time>2023-04-30T08:40:44Z</time>
      </trkpt>
      <trkpt lat="47.14841" lon="6.46025">
        <ele>728</ele>
        <time>2023-04-30T08:40:45Z</time>
      </trkpt>
      <trkpt lat="47.14847" lon="6.46019">
        <ele>727.8</ele>
        <time>2023-04-30T08:40:46Z</time>
      </trkpt>
      <trkpt lat="47.14853" lon="6.4601">
        <ele>727.6</ele>
        <time>2023-04-30T08:40:47Z</time>
      </trkpt>
      <trkpt lat="47.14861" lon="6.4599">
        <ele>727.2</ele>
        <time>2023-04-30T08:40:49Z</time>
      </trkpt>
      <trkpt lat="47.14867" lon="6.45955">
        <ele>726.4</ele>
        <time>2023-04-30T08:40:52Z</time>
      </trkpt>
      <trkpt lat="47.14868" lon="6.45942">
        <ele>726.2</ele>
        <time>2023-04-30T08:40:53Z</time>
      </trkpt>
      <trkpt lat="47.14867" lon="6.45893">
        <ele>725.4</ele>
        <time>2023-04-30T08:40:57Z</time>
      </trkpt>
      <trkpt lat="47.14866" lon="6.45881">
        <ele>725.2</ele>
        <time>2023-04-30T08:40:58Z</time>
      </trkpt>
      <trkpt lat="47.14867" lon="6.45869">
        <ele>724.8</ele>
        <time>2023-04-30T08:40:59Z</time>
      </trkpt>
      <trkpt lat="47.14876" lon="6.45848">
        <ele>724</ele>
        <time>2023-04-30T08:41:01Z</time>
      </trkpt>
      <trkpt lat="47.14888" lon="6.45827">
        <ele>722.6</ele>
        <time>2023-04-30T08:41:03Z</time>
      </trkpt>
      <trkpt lat="47.14902" lon="6.45812">
        <ele>721.4</ele>
        <time>2023-04-30T08:41:05Z</time>
      </trkpt>
      <trkpt lat="47.14921" lon="6.45808">
        <ele>720.2</ele>
        <time>2023-04-30T08:41:07Z</time>
      </trkpt>
      <trkpt lat="47.14931" lon="6.45807">
        <ele>719.4</ele>
        <time>2023-04-30T08:41:08Z</time>
      </trkpt>
      <trkpt lat="47.1494" lon="6.45803">
        <ele>718.8</ele>
        <time>2023-04-30T08:41:09Z</time>
      </trkpt>
      <trkpt lat="47.14956" lon="6.45788">
        <ele>717.2</ele>
        <time>2023-04-30T08:41:11Z</time>
      </trkpt>
      <trkpt lat="47.14969" lon="6.4577">
        <ele>716.2</ele>
        <time>2023-04-30T08:41:13Z</time>
      </trkpt>
      <trkpt lat="47.1498" lon="6.45752">
        <ele>715.4</ele>
        <time>2023-04-30T08:41:15Z</time>
      </trkpt>
      <trkpt lat="47.14989" lon="6.45732">
        <ele>715</ele>
        <time>2023-04-30T08:41:17Z</time>
      </trkpt>
      <trkpt lat="47.15001" lon="6.45702">
        <ele>714.4</ele>
        <time>2023-04-30T08:41:20Z</time>
      </trkpt>
      <trkpt lat="47.15007" lon="6.45682">
        <ele>714</ele>
        <time>2023-04-30T08:41:22Z</time>
      </trkpt>
      <trkpt lat="47.15011" lon="6.45661">
        <ele>713.8</ele>
        <time>2023-04-30T08:41:24Z</time>
      </trkpt>
      <trkpt lat="47.15012" lon="6.4565">
        <ele>713.8</ele>
        <time>2023-04-30T08:41:25Z</time>
      </trkpt>
      <trkpt lat="47.15019" lon="6.45591">
        <ele>713.8</ele>
        <time>2023-04-30T08:41:31Z</time>
      </trkpt>
      <trkpt lat="47.15026" lon="6.45545">
        <ele>714.6</ele>
        <time>2023-04-30T08:41:37Z</time>
      </trkpt>
      <trkpt lat="47.15028" lon="6.45537">
        <ele>715</ele>
        <time>2023-04-30T08:41:38Z</time>
      </trkpt>
      <trkpt lat="47.15037" lon="6.45476">
        <ele>714.8</ele>
        <time>2023-04-30T08:41:45Z</time>
      </trkpt>
      <trkpt lat="47.15042" lon="6.45444">
        <ele>713.6</ele>
        <time>2023-04-30T08:41:48Z</time>
      </trkpt>
      <trkpt lat="47.15045" lon="6.45422">
        <ele>712.4</ele>
        <time>2023-04-30T08:41:50Z</time>
      </trkpt>
      <trkpt lat="47.15048" lon="6.45399">
        <ele>711.2</ele>
        <time>2023-04-30T08:41:52Z</time>
      </trkpt>
      <trkpt lat="47.15052" lon="6.45376">
        <ele>710</ele>
        <time>2023-04-30T08:41:54Z</time>
      </trkpt>
      <trkpt lat="47.15056" lon="6.45353">
        <ele>708.6</ele>
        <time>2023-04-30T08:41:56Z</time>
      </trkpt>
      <trkpt lat="47.15059" lon="6.45341">
        <ele>707.8</ele>
        <time>2023-04-30T08:41:57Z</time>
      </trkpt>
      <trkpt lat="47.15063" lon="6.4533">
        <ele>706.8</ele>
        <time>2023-04-30T08:41:58Z</time>
      </trkpt>
      <trkpt lat="47.1507" lon="6.45308">
        <ele>705.2</ele>
        <time>2023-04-30T08:42:00Z</time>
      </trkpt>
      <trkpt lat="47.15074" lon="6.45297">
        <ele>704.4</ele>
        <time>2023-04-30T08:42:01Z</time>
      </trkpt>
      <trkpt lat="47.15078" lon="6.45286">
        <ele>703.8</ele>
        <time>2023-04-30T08:42:02Z</time>
      </trkpt>
      <trkpt lat="47.15085" lon="6.45265">
        <ele>702.4</ele>
        <time>2023-04-30T08:42:04Z</time>
      </trkpt>
      <trkpt lat="47.15092" lon="6.45246">
        <ele>701.4</ele>
        <time>2023-04-30T08:42:06Z</time>
      </trkpt>
      <trkpt lat="47.15096" lon="6.45238">
        <ele>700.8</ele>
        <time>2023-04-30T08:42:07Z</time>
      </trkpt>
      <trkpt lat="47.15099" lon="6.4523">
        <ele>700.2</ele>
        <time>2023-04-30T08:42:08Z</time>
      </trkpt>
      <trkpt lat="47.15106" lon="6.45216">
        <ele>699.2</ele>
        <time>2023-04-30T08:42:10Z</time>
      </trkpt>
      <trkpt lat="47.15111" lon="6.45203">
        <ele>698.2</ele>
        <time>2023-04-30T08:42:12Z</time>
      </trkpt>
      <trkpt lat="47.15118" lon="6.45183">
        <ele>697</ele>
        <time>2023-04-30T08:42:15Z</time>
      </trkpt>
      <trkpt lat="47.1512" lon="6.45176">
        <ele>696.6</ele>
        <time>2023-04-30T08:42:16Z</time>
      </trkpt>
      <trkpt lat="47.15119" lon="6.45165">
        <ele>696</ele>
        <time>2023-04-30T08:42:18Z</time>
      </trkpt>
      <trkpt lat="47.15115" lon="6.4516">
        <ele>695.8</ele>
        <time>2023-04-30T08:42:19Z</time>
      </trkpt>
      <trkpt lat="47.15111" lon="6.45155">
        <ele>695.8</ele>
        <time>2023-04-30T08:42:20Z</time>
      </trkpt>
      <trkpt lat="47.15107" lon="6.4515">
        <ele>695.8</ele>
        <time>2023-04-30T08:42:21Z</time>
      </trkpt>
      <trkpt lat="47.1508" lon="6.45112">
        <ele>696.2</ele>
        <time>2023-04-30T08:42:27Z</time>
      </trkpt>
      <trkpt lat="47.15043" lon="6.45063">
        <ele>696.6</ele>
        <time>2023-04-30T08:42:34Z</time>
      </trkpt>
      <trkpt lat="47.15038" lon="6.45055">
        <ele>696.8</ele>
        <time>2023-04-30T08:42:35Z</time>
      </trkpt>
      <trkpt lat="47.1501" lon="6.45013">
        <ele>697.6</ele>
        <time>2023-04-30T08:42:40Z</time>
      </trkpt>
      <trkpt lat="47.14998" lon="6.44996">
        <ele>697.8</ele>
        <time>2023-04-30T08:42:42Z</time>
      </trkpt>
      <trkpt lat="47.14961" lon="6.44942">
        <ele>697.8</ele>
        <time>2023-04-30T08:42:48Z</time>
      </trkpt>
      <trkpt lat="47.14922" lon="6.44887">
        <ele>697.6</ele>
        <time>2023-04-30T08:42:54Z</time>
      </trkpt>
      <trkpt lat="47.1489" lon="6.44841">
        <ele>697.8</ele>
        <time>2023-04-30T08:42:59Z</time>
      </trkpt>
      <trkpt lat="47.1485" lon="6.44787">
        <ele>697.8</ele>
        <time>2023-04-30T08:43:05Z</time>
      </trkpt>
      <trkpt lat="47.14825" lon="6.44751">
        <ele>697.8</ele>
        <time>2023-04-30T08:43:09Z</time>
      </trkpt>
      <trkpt lat="47.14782" lon="6.44695">
        <ele>697.4</ele>
        <time>2023-04-30T08:43:16Z</time>
      </trkpt>
      <trkpt lat="47.14776" lon="6.44688">
        <ele>697.4</ele>
        <time>2023-04-30T08:43:17Z</time>
      </trkpt>
      <trkpt lat="47.14758" lon="6.44666">
        <ele>697.4</ele>
        <time>2023-04-30T08:43:21Z</time>
      </trkpt>
      <trkpt lat="47.14756" lon="6.44661">
        <ele>697.4</ele>
        <time>2023-04-30T08:43:22Z</time>
      </trkpt>
      <trkpt lat="47.14758" lon="6.44652">
        <ele>697.4</ele>
        <time>2023-04-30T08:43:24Z</time>
      </trkpt>
      <trkpt lat="47.1477" lon="6.44651">
        <ele>697.2</ele>
        <time>2023-04-30T08:43:27Z</time>
      </trkpt>
      <trkpt lat="47.14774" lon="6.44652">
        <ele>697.2</ele>
        <time>2023-04-30T08:43:28Z</time>
      </trkpt>
      <trkpt lat="47.14779" lon="6.44654">
        <ele>697.2</ele>
        <time>2023-04-30T08:43:29Z</time>
      </trkpt>
      <trkpt lat="47.14794" lon="6.44658">
        <ele>696.8</ele>
        <time>2023-04-30T08:43:32Z</time>
      </trkpt>
      <trkpt lat="47.148" lon="6.44659">
        <ele>696.8</ele>
        <time>2023-04-30T08:43:33Z</time>
      </trkpt>
      <trkpt lat="47.1484" lon="6.44664">
        <ele>696.8</ele>
        <time>2023-04-30T08:43:40Z</time>
      </trkpt>
      <trkpt lat="47.14874" lon="6.44668">
        <ele>696.4</ele>
        <time>2023-04-30T08:43:47Z</time>
      </trkpt>
      <trkpt lat="47.14879" lon="6.44668">
        <ele>696.6</ele>
        <time>2023-04-30T08:44:00Z</time>
      </trkpt>
      <trkpt lat="47.14896" lon="6.44672">
        <ele>696.6</ele>
        <time>2023-04-30T08:44:05Z</time>
      </trkpt>
      <trkpt lat="47.14927" lon="6.44675">
        <ele>696.8</ele>
        <time>2023-04-30T08:44:11Z</time>
      </trkpt>
      <trkpt lat="47.1498" lon="6.4468">
        <ele>696.2</ele>
        <time>2023-04-30T08:44:20Z</time>
      </trkpt>
      <trkpt lat="47.15024" lon="6.44686">
        <ele>695.8</ele>
        <time>2023-04-30T08:44:27Z</time>
      </trkpt>
      <trkpt lat="47.15031" lon="6.44688">
        <ele>695.6</ele>
        <time>2023-04-30T08:44:28Z</time>
      </trkpt>
      <trkpt lat="47.15077" lon="6.44703">
        <ele>695.6</ele>
        <time>2023-04-30T08:44:35Z</time>
      </trkpt>
      <trkpt lat="47.15132" lon="6.44715">
        <ele>695.4</ele>
        <time>2023-04-30T08:44:43Z</time>
      </trkpt>
      <trkpt lat="47.15139" lon="6.44714">
        <ele>695.6</ele>
        <time>2023-04-30T08:44:44Z</time>
      </trkpt>
      <trkpt lat="47.15145" lon="6.44713">
        <ele>695.6</ele>
        <time>2023-04-30T08:44:45Z</time>
      </trkpt>
      <trkpt lat="47.15166" lon="6.44714">
        <ele>695.4</ele>
        <time>2023-04-30T08:44:48Z</time>
      </trkpt>
      <trkpt lat="47.15172" lon="6.44714">
        <ele>695.2</ele>
        <time>2023-04-30T08:44:49Z</time>
      </trkpt>
      <trkpt lat="47.1521" lon="6.44709">
        <ele>695.6</ele>
        <time>2023-04-30T08:44:55Z</time>
      </trkpt>
      <trkpt lat="47.15227" lon="6.44708">
        <ele>695.4</ele>
        <time>2023-04-30T08:44:58Z</time>
      </trkpt>
      <trkpt lat="47.15237" lon="6.44712">
        <ele>695.4</ele>
        <time>2023-04-30T08:45:00Z</time>
      </trkpt>
      <trkpt lat="47.15253" lon="6.44728">
        <ele>695.8</ele>
        <time>2023-04-30T08:45:04Z</time>
      </trkpt>
      <trkpt lat="47.15256" lon="6.44733">
        <ele>696</ele>
        <time>2023-04-30T08:45:05Z</time>
      </trkpt>
      <trkpt lat="47.1526" lon="6.44737">
        <ele>696</ele>
        <time>2023-04-30T08:45:06Z</time>
      </trkpt>
      <trkpt lat="47.15274" lon="6.44742">
        <ele>696.2</ele>
        <time>2023-04-30T08:45:09Z</time>
      </trkpt>
      <trkpt lat="47.15287" lon="6.44733">
        <ele>696.4</ele>
        <time>2023-04-30T08:45:12Z</time>
      </trkpt>
      <trkpt lat="47.15297" lon="6.4472">
        <ele>696.8</ele>
        <time>2023-04-30T08:45:15Z</time>
      </trkpt>
      <trkpt lat="47.153" lon="6.44715">
        <ele>696.8</ele>
        <time>2023-04-30T08:45:16Z</time>
      </trkpt>
      <trkpt lat="47.15303" lon="6.44709">
        <ele>697</ele>
        <time>2023-04-30T08:45:17Z</time>
      </trkpt>
      <trkpt lat="47.15326" lon="6.44675">
        <ele>697</ele>
        <time>2023-04-30T08:45:24Z</time>
      </trkpt>
      <trkpt lat="47.1533" lon="6.4467">
        <ele>697.2</ele>
        <time>2023-04-30T08:45:25Z</time>
      </trkpt>
      <trkpt lat="47.15352" lon="6.44639">
        <ele>697.8</ele>
        <time>2023-04-30T08:45:32Z</time>
      </trkpt>
      <trkpt lat="47.15356" lon="6.44635">
        <ele>697.8</ele>
        <time>2023-04-30T08:45:33Z</time>
      </trkpt>
      <trkpt lat="47.15375" lon="6.44612">
        <ele>698.8</ele>
        <time>2023-04-30T08:45:39Z</time>
      </trkpt>
      <trkpt lat="47.15402" lon="6.44581">
        <ele>699.4</ele>
        <time>2023-04-30T08:45:47Z</time>
      </trkpt>
      <trkpt lat="47.15419" lon="6.44561">
        <ele>699.8</ele>
        <time>2023-04-30T08:45:52Z</time>
      </trkpt>
      <trkpt lat="47.15439" lon="6.44539">
        <ele>700.6</ele>
        <time>2023-04-30T08:45:58Z</time>
      </trkpt>
      <trkpt lat="47.15448" lon="6.44527">
        <ele>701</ele>
        <time>2023-04-30T08:46:01Z</time>
      </trkpt>
      <trkpt lat="47.15469" lon="6.44502">
        <ele>701.8</ele>
        <time>2023-04-30T08:46:08Z</time>
      </trkpt>
      <trkpt lat="47.15475" lon="6.44495">
        <ele>702</ele>
        <time>2023-04-30T08:46:10Z</time>
      </trkpt>
      <trkpt lat="47.15493" lon="6.44469">
        <ele>703.2</ele>
        <time>2023-04-30T08:46:17Z</time>
      </trkpt>
      <trkpt lat="47.15496" lon="6.4446">
        <ele>703.8</ele>
        <time>2023-04-30T08:46:19Z</time>
      </trkpt>
      <trkpt lat="47.15494" lon="6.44445">
        <ele>704.2</ele>
        <time>2023-04-30T08:46:22Z</time>
      </trkpt>
      <trkpt lat="47.15493" lon="6.44439">
        <ele>704.4</ele>
        <time>2023-04-30T08:46:23Z</time>
      </trkpt>
      <trkpt lat="47.1549" lon="6.44434">
        <ele>704.6</ele>
        <time>2023-04-30T08:46:24Z</time>
      </trkpt>
      <trkpt lat="47.1548" lon="6.44406">
        <ele>704.6</ele>
        <time>2023-04-30T08:46:29Z</time>
      </trkpt>
      <trkpt lat="47.15467" lon="6.44371">
        <ele>705.2</ele>
        <time>2023-04-30T08:46:35Z</time>
      </trkpt>
      <trkpt lat="47.1546" lon="6.44351">
        <ele>706</ele>
        <time>2023-04-30T08:46:39Z</time>
      </trkpt>
      <trkpt lat="47.15458" lon="6.44346">
        <ele>706.4</ele>
        <time>2023-04-30T08:46:40Z</time>
      </trkpt>
      <trkpt lat="47.15445" lon="6.44313">
        <ele>707.6</ele>
        <time>2023-04-30T08:46:47Z</time>
      </trkpt>
      <trkpt lat="47.15439" lon="6.44295">
        <ele>708.4</ele>
        <time>2023-04-30T08:46:51Z</time>
      </trkpt>
      <trkpt lat="47.15437" lon="6.44287">
        <ele>708.6</ele>
        <time>2023-04-30T08:46:53Z</time>
      </trkpt>
      <trkpt lat="47.15429" lon="6.44262">
        <ele>709.6</ele>
        <time>2023-04-30T08:46:59Z</time>
      </trkpt>
      <trkpt lat="47.15428" lon="6.44257">
        <ele>709.8</ele>
        <time>2023-04-30T08:47:00Z</time>
      </trkpt>
      <trkpt lat="47.15416" lon="6.44215">
        <ele>710</ele>
        <time>2023-04-30T08:47:09Z</time>
      </trkpt>
      <trkpt lat="47.15401" lon="6.44161">
        <ele>710.4</ele>
        <time>2023-04-30T08:47:19Z</time>
      </trkpt>
      <trkpt lat="47.15386" lon="6.44103">
        <ele>710.4</ele>
        <time>2023-04-30T08:47:30Z</time>
      </trkpt>
      <trkpt lat="47.15384" lon="6.44094">
        <ele>711</ele>
        <time>2023-04-30T08:47:32Z</time>
      </trkpt>
      <trkpt lat="47.15376" lon="6.44063">
        <ele>711.4</ele>
        <time>2023-04-30T08:47:39Z</time>
      </trkpt>
      <trkpt lat="47.15372" lon="6.44046">
        <ele>712</ele>
        <time>2023-04-30T08:47:43Z</time>
      </trkpt>
      <trkpt lat="47.15366" lon="6.44022">
        <ele>712.8</ele>
        <time>2023-04-30T08:47:48Z</time>
      </trkpt>
      <trkpt lat="47.15364" lon="6.44013">
        <ele>713.2</ele>
        <time>2023-04-30T08:47:50Z</time>
      </trkpt>
      <trkpt lat="47.15355" lon="6.43979">
        <ele>714.2</ele>
        <time>2023-04-30T08:47:58Z</time>
      </trkpt>
      <trkpt lat="47.15354" lon="6.43975">
        <ele>714.6</ele>
        <time>2023-04-30T08:47:59Z</time>
      </trkpt>
      <trkpt lat="47.15351" lon="6.43963">
        <ele>715.4</ele>
        <time>2023-04-30T08:48:02Z</time>
      </trkpt>
      <trkpt lat="47.15348" lon="6.43949">
        <ele>716.6</ele>
        <time>2023-04-30T08:48:06Z</time>
      </trkpt>
      <trkpt lat="47.15347" lon="6.43941">
        <ele>717.4</ele>
        <time>2023-04-30T08:48:08Z</time>
      </trkpt>
      <trkpt lat="47.15345" lon="6.43934">
        <ele>717.8</ele>
        <time>2023-04-30T08:48:10Z</time>
      </trkpt>
      <trkpt lat="47.1534" lon="6.43912">
        <ele>719</ele>
        <time>2023-04-30T08:48:16Z</time>
      </trkpt>
      <trkpt lat="47.15338" lon="6.43905">
        <ele>719.4</ele>
        <time>2023-04-30T08:48:18Z</time>
      </trkpt>
      <trkpt lat="47.15334" lon="6.4389">
        <ele>720.2</ele>
        <time>2023-04-30T08:48:22Z</time>
      </trkpt>
      <trkpt lat="47.1533" lon="6.43875">
        <ele>720.4</ele>
        <time>2023-04-30T08:48:26Z</time>
      </trkpt>
      <trkpt lat="47.15322" lon="6.4384">
        <ele>721</ele>
        <time>2023-04-30T08:48:35Z</time>
      </trkpt>
      <trkpt lat="47.15317" lon="6.43825">
        <ele>721.4</ele>
        <time>2023-04-30T08:48:39Z</time>
      </trkpt>
      <trkpt lat="47.15312" lon="6.43809">
        <ele>722</ele>
        <time>2023-04-30T08:48:43Z</time>
      </trkpt>
      <trkpt lat="47.15307" lon="6.43789">
        <ele>722.4</ele>
        <time>2023-04-30T08:48:48Z</time>
      </trkpt>
      <trkpt lat="47.15303" lon="6.43773">
        <ele>723.6</ele>
        <time>2023-04-30T08:48:52Z</time>
      </trkpt>
      <trkpt lat="47.15301" lon="6.43765">
        <ele>723.8</ele>
        <time>2023-04-30T08:48:54Z</time>
      </trkpt>
      <trkpt lat="47.15296" lon="6.43745">
        <ele>724.6</ele>
        <time>2023-04-30T08:48:59Z</time>
      </trkpt>
      <trkpt lat="47.15291" lon="6.43725">
        <ele>725.8</ele>
        <time>2023-04-30T08:49:04Z</time>
      </trkpt>
      <trkpt lat="47.15286" lon="6.43706">
        <ele>727</ele>
        <time>2023-04-30T08:49:09Z</time>
      </trkpt>
      <trkpt lat="47.15279" lon="6.43692">
        <ele>728</ele>
        <time>2023-04-30T08:49:13Z</time>
      </trkpt>
      <trkpt lat="47.15277" lon="6.43688">
        <ele>728</ele>
        <time>2023-04-30T08:49:14Z</time>
      </trkpt>
      <trkpt lat="47.15262" lon="6.43668">
        <ele>728.4</ele>
        <time>2023-04-30T08:49:21Z</time>
      </trkpt>
      <trkpt lat="47.15237" lon="6.43635">
        <ele>728.8</ele>
        <time>2023-04-30T08:49:31Z</time>
      </trkpt>
      <trkpt lat="47.15229" lon="6.43625">
        <ele>729.2</ele>
        <time>2023-04-30T08:49:34Z</time>
      </trkpt>
      <trkpt lat="47.15213" lon="6.43604">
        <ele>729</ele>
        <time>2023-04-30T08:49:40Z</time>
      </trkpt>
      <trkpt lat="47.15195" lon="6.43581">
        <ele>730.2</ele>
        <time>2023-04-30T08:49:47Z</time>
      </trkpt>
      <trkpt lat="47.15184" lon="6.43567">
        <ele>730.2</ele>
        <time>2023-04-30T08:49:51Z</time>
      </trkpt>
      <trkpt lat="47.15166" lon="6.43544">
        <ele>731.4</ele>
        <time>2023-04-30T08:49:58Z</time>
      </trkpt>
      <trkpt lat="47.15159" lon="6.43535">
        <ele>731.6</ele>
        <time>2023-04-30T08:50:01Z</time>
      </trkpt>
      <trkpt lat="47.15148" lon="6.43522">
        <ele>732.4</ele>
        <time>2023-04-30T08:50:05Z</time>
      </trkpt>
      <trkpt lat="47.15136" lon="6.43504">
        <ele>733.2</ele>
        <time>2023-04-30T08:50:10Z</time>
      </trkpt>
      <trkpt lat="47.15133" lon="6.435">
        <ele>733.4</ele>
        <time>2023-04-30T08:50:11Z</time>
      </trkpt>
      <trkpt lat="47.15122" lon="6.43477">
        <ele>734.6</ele>
        <time>2023-04-30T08:50:17Z</time>
      </trkpt>
      <trkpt lat="47.15121" lon="6.43473">
        <ele>734.8</ele>
        <time>2023-04-30T08:50:18Z</time>
      </trkpt>
      <trkpt lat="47.15117" lon="6.43462">
        <ele>735.6</ele>
        <time>2023-04-30T08:50:21Z</time>
      </trkpt>
      <trkpt lat="47.15111" lon="6.43445">
        <ele>737</ele>
        <time>2023-04-30T08:50:26Z</time>
      </trkpt>
      <trkpt lat="47.1511" lon="6.43442">
        <ele>737.4</ele>
        <time>2023-04-30T08:50:27Z</time>
      </trkpt>
      <trkpt lat="47.15105" lon="6.43433">
        <ele>738.2</ele>
        <time>2023-04-30T08:50:30Z</time>
      </trkpt>
      <trkpt lat="47.15096" lon="6.43415">
        <ele>739.4</ele>
        <time>2023-04-30T08:50:36Z</time>
      </trkpt>
      <trkpt lat="47.15085" lon="6.43403">
        <ele>740.4</ele>
        <time>2023-04-30T08:50:41Z</time>
      </trkpt>
      <trkpt lat="47.15079" lon="6.43395">
        <ele>740.8</ele>
        <time>2023-04-30T08:50:44Z</time>
      </trkpt>
      <trkpt lat="47.15059" lon="6.43371">
        <ele>741.2</ele>
        <time>2023-04-30T08:50:52Z</time>
      </trkpt>
      <trkpt lat="47.15041" lon="6.43347">
        <ele>741.2</ele>
        <time>2023-04-30T08:50:59Z</time>
      </trkpt>
      <trkpt lat="47.15027" lon="6.43324">
        <ele>741</ele>
        <time>2023-04-30T08:51:05Z</time>
      </trkpt>
      <trkpt lat="47.15007" lon="6.43292">
        <ele>740.2</ele>
        <time>2023-04-30T08:51:12Z</time>
      </trkpt>
      <trkpt lat="47.14987" lon="6.43258">
        <ele>739.4</ele>
        <time>2023-04-30T08:51:18Z</time>
      </trkpt>
      <trkpt lat="47.14983" lon="6.43252">
        <ele>739.2</ele>
        <time>2023-04-30T08:51:19Z</time>
      </trkpt>
      <trkpt lat="47.14959" lon="6.43214">
        <ele>738.4</ele>
        <time>2023-04-30T08:51:25Z</time>
      </trkpt>
      <trkpt lat="47.14955" lon="6.43207">
        <ele>738.2</ele>
        <time>2023-04-30T08:51:26Z</time>
      </trkpt>
      <trkpt lat="47.14929" lon="6.43164">
        <ele>737.2</ele>
        <time>2023-04-30T08:51:32Z</time>
      </trkpt>
      <trkpt lat="47.1492" lon="6.4315">
        <ele>736.8</ele>
        <time>2023-04-30T08:51:34Z</time>
      </trkpt>
      <trkpt lat="47.14904" lon="6.43133">
        <ele>736.4</ele>
        <time>2023-04-30T08:51:37Z</time>
      </trkpt>
      <trkpt lat="47.14893" lon="6.43128">
        <ele>736.6</ele>
        <time>2023-04-30T08:51:39Z</time>
      </trkpt>
      <trkpt lat="47.14869" lon="6.43126">
        <ele>736.8</ele>
        <time>2023-04-30T08:51:43Z</time>
      </trkpt>
      <trkpt lat="47.14832" lon="6.43131">
        <ele>738</ele>
        <time>2023-04-30T08:51:49Z</time>
      </trkpt>
      <trkpt lat="47.14828" lon="6.43132">
        <ele>738.2</ele>
        <time>2023-04-30T08:51:50Z</time>
      </trkpt>
      <trkpt lat="47.14817" lon="6.43133">
        <ele>738.8</ele>
        <time>2023-04-30T08:51:53Z</time>
      </trkpt>
      <trkpt lat="47.14812" lon="6.43131">
        <ele>739.2</ele>
        <time>2023-04-30T08:51:55Z</time>
      </trkpt>
      <trkpt lat="47.14811" lon="6.43128">
        <ele>739.4</ele>
        <time>2023-04-30T08:51:56Z</time>
      </trkpt>
      <trkpt lat="47.14811" lon="6.43125">
        <ele>739.6</ele>
        <time>2023-04-30T08:51:57Z</time>
      </trkpt>
      <trkpt lat="47.14818" lon="6.43122">
        <ele>740.2</ele>
        <time>2023-04-30T08:52:00Z</time>
      </trkpt>
      <trkpt lat="47.14821" lon="6.43122">
        <ele>740.2</ele>
        <time>2023-04-30T08:52:02Z</time>
      </trkpt>
      <trkpt lat="47.14826" lon="6.43119">
        <ele>740.4</ele>
        <time>2023-04-30T08:52:05Z</time>
      </trkpt>
      <trkpt lat="47.14827" lon="6.43118">
        <ele>740.4</ele>
        <time>2023-04-30T08:52:06Z</time>
      </trkpt>
      <trkpt lat="47.14845" lon="6.43109">
        <ele>740.4</ele>
        <time>2023-04-30T08:52:15Z</time>
      </trkpt>
      <trkpt lat="47.1487" lon="6.43098">
        <ele>741</ele>
        <time>2023-04-30T08:52:26Z</time>
      </trkpt>
      <trkpt lat="47.1489" lon="6.43088">
        <ele>741.6</ele>
        <time>2023-04-30T08:52:34Z</time>
      </trkpt>
      <trkpt lat="47.14893" lon="6.43087">
        <ele>741.6</ele>
        <time>2023-04-30T08:52:35Z</time>
      </trkpt>
      <trkpt lat="47.14914" lon="6.43075">
        <ele>742.6</ele>
        <time>2023-04-30T08:52:43Z</time>
      </trkpt>
      <trkpt lat="47.14916" lon="6.43073">
        <ele>742.8</ele>
        <time>2023-04-30T08:52:44Z</time>
      </trkpt>
      <trkpt lat="47.14936" lon="6.43063">
        <ele>743.8</ele>
        <time>2023-04-30T08:52:51Z</time>
      </trkpt>
      <trkpt lat="47.14949" lon="6.43058">
        <ele>745</ele>
        <time>2023-04-30T08:52:56Z</time>
      </trkpt>
      <trkpt lat="47.14961" lon="6.43057">
        <ele>745.8</ele>
        <time>2023-04-30T08:53:00Z</time>
      </trkpt>
      <trkpt lat="47.14977" lon="6.43058">
        <ele>746.2</ele>
        <time>2023-04-30T08:53:05Z</time>
      </trkpt>
      <trkpt lat="47.14985" lon="6.4306">
        <ele>746.6</ele>
        <time>2023-04-30T08:53:08Z</time>
      </trkpt>
      <trkpt lat="47.15003" lon="6.43066">
        <ele>747.2</ele>
        <time>2023-04-30T08:53:14Z</time>
      </trkpt>
      <trkpt lat="47.1501" lon="6.43068">
        <ele>747.2</ele>
        <time>2023-04-30T08:53:16Z</time>
      </trkpt>
      <trkpt lat="47.15044" lon="6.43079">
        <ele>748.2</ele>
        <time>2023-04-30T08:53:27Z</time>
      </trkpt>
      <trkpt lat="47.15074" lon="6.43085">
        <ele>749</ele>
        <time>2023-04-30T08:53:36Z</time>
      </trkpt>
      <trkpt lat="47.15107" lon="6.43091">
        <ele>748.8</ele>
        <time>2023-04-30T08:53:44Z</time>
      </trkpt>
      <trkpt lat="47.1514" lon="6.43094">
        <ele>748.6</ele>
        <time>2023-04-30T08:53:52Z</time>
      </trkpt>
      <trkpt lat="47.15178" lon="6.43101">
        <ele>748.4</ele>
        <time>2023-04-30T08:54:01Z</time>
      </trkpt>
      <trkpt lat="47.15222" lon="6.43114">
        <ele>747.6</ele>
        <time>2023-04-30T08:54:10Z</time>
      </trkpt>
      <trkpt lat="47.15231" lon="6.43118">
        <ele>747.2</ele>
        <time>2023-04-30T08:54:12Z</time>
      </trkpt>
      <trkpt lat="47.15266" lon="6.43129">
        <ele>746.2</ele>
        <time>2023-04-30T08:54:19Z</time>
      </trkpt>
      <trkpt lat="47.15292" lon="6.43139">
        <ele>746.2</ele>
        <time>2023-04-30T08:54:24Z</time>
      </trkpt>
      <trkpt lat="47.15319" lon="6.43146">
        <ele>745.2</ele>
        <time>2023-04-30T08:54:29Z</time>
      </trkpt>
      <trkpt lat="47.15325" lon="6.43147">
        <ele>745.2</ele>
        <time>2023-04-30T08:54:30Z</time>
      </trkpt>
      <trkpt lat="47.15331" lon="6.43147">
        <ele>745</ele>
        <time>2023-04-30T08:54:31Z</time>
      </trkpt>
      <trkpt lat="47.15363" lon="6.43142">
        <ele>744.8</ele>
        <time>2023-04-30T08:54:37Z</time>
      </trkpt>
      <trkpt lat="47.154" lon="6.43136">
        <ele>744.8</ele>
        <time>2023-04-30T08:54:45Z</time>
      </trkpt>
      <trkpt lat="47.15417" lon="6.43134">
        <ele>744.4</ele>
        <time>2023-04-30T08:54:49Z</time>
      </trkpt>
      <trkpt lat="47.15426" lon="6.43134">
        <ele>744.2</ele>
        <time>2023-04-30T08:54:51Z</time>
      </trkpt>
      <trkpt lat="47.15431" lon="6.43133">
        <ele>744</ele>
        <time>2023-04-30T08:54:52Z</time>
      </trkpt>
      <trkpt lat="47.15469" lon="6.43132">
        <ele>742.4</ele>
        <time>2023-04-30T08:54:59Z</time>
      </trkpt>
      <trkpt lat="47.15494" lon="6.43135">
        <ele>740.8</ele>
        <time>2023-04-30T08:55:03Z</time>
      </trkpt>
      <trkpt lat="47.15514" lon="6.43138">
        <ele>739.6</ele>
        <time>2023-04-30T08:55:06Z</time>
      </trkpt>
      <trkpt lat="47.15521" lon="6.43139">
        <ele>739.4</ele>
        <time>2023-04-30T08:55:07Z</time>
      </trkpt>
      <trkpt lat="47.15535" lon="6.43141">
        <ele>738.4</ele>
        <time>2023-04-30T08:55:09Z</time>
      </trkpt>
      <trkpt lat="47.15558" lon="6.43146">
        <ele>736.8</ele>
        <time>2023-04-30T08:55:12Z</time>
      </trkpt>
      <trkpt lat="47.15573" lon="6.43149">
        <ele>736</ele>
        <time>2023-04-30T08:55:14Z</time>
      </trkpt>
      <trkpt lat="47.1558" lon="6.4315">
        <ele>735.6</ele>
        <time>2023-04-30T08:55:15Z</time>
      </trkpt>
      <trkpt lat="47.15624" lon="6.43156">
        <ele>734.4</ele>
        <time>2023-04-30T08:55:21Z</time>
      </trkpt>
      <trkpt lat="47.1563" lon="6.43157">
        <ele>734.2</ele>
        <time>2023-04-30T08:55:22Z</time>
      </trkpt>
      <trkpt lat="47.15669" lon="6.4316">
        <ele>733.4</ele>
        <time>2023-04-30T08:55:28Z</time>
      </trkpt>
      <trkpt lat="47.15682" lon="6.4316">
        <ele>732.8</ele>
        <time>2023-04-30T08:55:30Z</time>
      </trkpt>
      <trkpt lat="47.15696" lon="6.43159">
        <ele>732</ele>
        <time>2023-04-30T08:55:32Z</time>
      </trkpt>
      <trkpt lat="47.15718" lon="6.43156">
        <ele>730.6</ele>
        <time>2023-04-30T08:55:35Z</time>
      </trkpt>
      <trkpt lat="47.15726" lon="6.43155">
        <ele>730.2</ele>
        <time>2023-04-30T08:55:36Z</time>
      </trkpt>
      <trkpt lat="47.15734" lon="6.43155">
        <ele>729.6</ele>
        <time>2023-04-30T08:55:37Z</time>
      </trkpt>
      <trkpt lat="47.15751" lon="6.43157">
        <ele>728.6</ele>
        <time>2023-04-30T08:55:39Z</time>
      </trkpt>
      <trkpt lat="47.15768" lon="6.43161">
        <ele>727.2</ele>
        <time>2023-04-30T08:55:41Z</time>
      </trkpt>
      <trkpt lat="47.15785" lon="6.43164">
        <ele>726</ele>
        <time>2023-04-30T08:55:43Z</time>
      </trkpt>
      <trkpt lat="47.15812" lon="6.43166">
        <ele>724.6</ele>
        <time>2023-04-30T08:55:46Z</time>
      </trkpt>
      <trkpt lat="47.1582" lon="6.43166">
        <ele>724.4</ele>
        <time>2023-04-30T08:55:47Z</time>
      </trkpt>
      <trkpt lat="47.15852" lon="6.43163">
        <ele>723.6</ele>
        <time>2023-04-30T08:55:51Z</time>
      </trkpt>
      <trkpt lat="47.15875" lon="6.4316">
        <ele>722.8</ele>
        <time>2023-04-30T08:55:54Z</time>
      </trkpt>
      <trkpt lat="47.15889" lon="6.43158">
        <ele>722.6</ele>
        <time>2023-04-30T08:55:56Z</time>
      </trkpt>
      <trkpt lat="47.15934" lon="6.43157">
        <ele>721.4</ele>
        <time>2023-04-30T08:56:02Z</time>
      </trkpt>
      <trkpt lat="47.15941" lon="6.43156">
        <ele>721.2</ele>
        <time>2023-04-30T08:56:03Z</time>
      </trkpt>
      <trkpt lat="47.15963" lon="6.43154">
        <ele>720.4</ele>
        <time>2023-04-30T08:56:06Z</time>
      </trkpt>
      <trkpt lat="47.15978" lon="6.43156">
        <ele>719.4</ele>
        <time>2023-04-30T08:56:08Z</time>
      </trkpt>
      <trkpt lat="47.15986" lon="6.43159">
        <ele>719</ele>
        <time>2023-04-30T08:56:09Z</time>
      </trkpt>
      <trkpt lat="47.16009" lon="6.43172">
        <ele>717.8</ele>
        <time>2023-04-30T08:56:12Z</time>
      </trkpt>
      <trkpt lat="47.16016" lon="6.43178">
        <ele>717.4</ele>
        <time>2023-04-30T08:56:13Z</time>
      </trkpt>
      <trkpt lat="47.16031" lon="6.43189">
        <ele>716.4</ele>
        <time>2023-04-30T08:56:15Z</time>
      </trkpt>
      <trkpt lat="47.16053" lon="6.43202">
        <ele>715.4</ele>
        <time>2023-04-30T08:56:18Z</time>
      </trkpt>
      <trkpt lat="47.1606" lon="6.43204">
        <ele>715.2</ele>
        <time>2023-04-30T08:56:19Z</time>
      </trkpt>
      <trkpt lat="47.16068" lon="6.43205">
        <ele>715</ele>
        <time>2023-04-30T08:56:20Z</time>
      </trkpt>
      <trkpt lat="47.16088" lon="6.43209">
        <ele>714.8</ele>
        <time>2023-04-30T08:56:23Z</time>
      </trkpt>
      <trkpt lat="47.16101" lon="6.43212">
        <ele>714.2</ele>
        <time>2023-04-30T08:56:25Z</time>
      </trkpt>
      <trkpt lat="47.16115" lon="6.43213">
        <ele>713.6</ele>
        <time>2023-04-30T08:56:27Z</time>
      </trkpt>
      <trkpt lat="47.16129" lon="6.43212">
        <ele>713.2</ele>
        <time>2023-04-30T08:56:29Z</time>
      </trkpt>
      <trkpt lat="47.16154" lon="6.43203">
        <ele>712.2</ele>
        <time>2023-04-30T08:56:33Z</time>
      </trkpt>
      <trkpt lat="47.1616" lon="6.432">
        <ele>712</ele>
        <time>2023-04-30T08:56:34Z</time>
      </trkpt>
      <trkpt lat="47.1619" lon="6.43172">
        <ele>712</ele>
        <time>2023-04-30T08:56:40Z</time>
      </trkpt>
      <trkpt lat="47.16211" lon="6.43139">
        <ele>712.2</ele>
        <time>2023-04-30T08:56:46Z</time>
      </trkpt>
      <trkpt lat="47.16224" lon="6.43112">
        <ele>713.2</ele>
        <time>2023-04-30T08:56:51Z</time>
      </trkpt>
      <trkpt lat="47.16231" lon="6.43096">
        <ele>713.4</ele>
        <time>2023-04-30T08:56:54Z</time>
      </trkpt>
      <trkpt lat="47.16236" lon="6.43087">
        <ele>713.6</ele>
        <time>2023-04-30T08:56:56Z</time>
      </trkpt>
      <trkpt lat="47.16246" lon="6.43075">
        <ele>714</ele>
        <time>2023-04-30T08:56:59Z</time>
      </trkpt>
      <trkpt lat="47.16252" lon="6.43067">
        <ele>714.2</ele>
        <time>2023-04-30T08:57:01Z</time>
      </trkpt>
      <trkpt lat="47.16269" lon="6.4305">
        <ele>715.4</ele>
        <time>2023-04-30T08:57:06Z</time>
      </trkpt>
      <trkpt lat="47.16276" lon="6.43044">
        <ele>715.6</ele>
        <time>2023-04-30T08:57:08Z</time>
      </trkpt>
      <trkpt lat="47.16306" lon="6.43018">
        <ele>715.4</ele>
        <time>2023-04-30T08:57:17Z</time>
      </trkpt>
      <trkpt lat="47.16331" lon="6.43">
        <ele>716.2</ele>
        <time>2023-04-30T08:57:25Z</time>
      </trkpt>
      <trkpt lat="47.1634" lon="6.42992">
        <ele>716.4</ele>
        <time>2023-04-30T08:57:28Z</time>
      </trkpt>
      <trkpt lat="47.16356" lon="6.42976">
        <ele>717.2</ele>
        <time>2023-04-30T08:57:34Z</time>
      </trkpt>
      <trkpt lat="47.16359" lon="6.42974">
        <ele>717.4</ele>
        <time>2023-04-30T08:57:35Z</time>
      </trkpt>
      <trkpt lat="47.16377" lon="6.42953">
        <ele>718.8</ele>
        <time>2023-04-30T08:57:43Z</time>
      </trkpt>
      <trkpt lat="47.1639" lon="6.42939">
        <ele>719.8</ele>
        <time>2023-04-30T08:57:49Z</time>
      </trkpt>
      <trkpt lat="47.16396" lon="6.42931">
        <ele>720.4</ele>
        <time>2023-04-30T08:57:52Z</time>
      </trkpt>
      <trkpt lat="47.164" lon="6.42925">
        <ele>721.2</ele>
        <time>2023-04-30T08:57:54Z</time>
      </trkpt>
      <trkpt lat="47.16403" lon="6.42921">
        <ele>722.2</ele>
        <time>2023-04-30T08:57:56Z</time>
      </trkpt>
      <trkpt lat="47.16408" lon="6.42914">
        <ele>723.4</ele>
        <time>2023-04-30T08:57:59Z</time>
      </trkpt>
      <trkpt lat="47.16409" lon="6.42912">
        <ele>723.4</ele>
        <time>2023-04-30T08:58:00Z</time>
      </trkpt>
      <trkpt lat="47.1642" lon="6.42898">
        <ele>724.6</ele>
        <time>2023-04-30T08:58:08Z</time>
      </trkpt>
      <trkpt lat="47.16422" lon="6.42894">
        <ele>725</ele>
        <time>2023-04-30T08:58:10Z</time>
      </trkpt>
      <trkpt lat="47.16427" lon="6.4289">
        <ele>725.8</ele>
        <time>2023-04-30T08:58:13Z</time>
      </trkpt>
      <trkpt lat="47.16434" lon="6.4288">
        <ele>728</ele>
        <time>2023-04-30T09:05:33Z</time>
      </trkpt>
      <trkpt lat="47.16434" lon="6.42873">
        <ele>728.6</ele>
        <time>2023-04-30T09:05:36Z</time>
      </trkpt>
      <trkpt lat="47.16443" lon="6.42863">
        <ele>729.2</ele>
        <time>2023-04-30T09:05:40Z</time>
      </trkpt>
      <trkpt lat="47.16451" lon="6.42852">
        <ele>730.2</ele>
        <time>2023-04-30T09:05:43Z</time>
      </trkpt>
      <trkpt lat="47.16458" lon="6.42839">
        <ele>731.2</ele>
        <time>2023-04-30T09:05:46Z</time>
      </trkpt>
      <trkpt lat="47.16461" lon="6.42835">
        <ele>731.4</ele>
        <time>2023-04-30T09:05:47Z</time>
      </trkpt>
      <trkpt lat="47.16469" lon="6.42823">
        <ele>732.6</ele>
        <time>2023-04-30T09:05:50Z</time>
      </trkpt>
      <trkpt lat="47.16476" lon="6.42812">
        <ele>733.8</ele>
        <time>2023-04-30T09:05:53Z</time>
      </trkpt>
      <trkpt lat="47.16478" lon="6.42807">
        <ele>734.2</ele>
        <time>2023-04-30T09:05:54Z</time>
      </trkpt>
      <trkpt lat="47.1648" lon="6.42803">
        <ele>735</ele>
        <time>2023-04-30T09:05:55Z</time>
      </trkpt>
      <trkpt lat="47.16483" lon="6.42795">
        <ele>736</ele>
        <time>2023-04-30T09:05:57Z</time>
      </trkpt>
      <trkpt lat="47.16488" lon="6.42782">
        <ele>737</ele>
        <time>2023-04-30T09:06:00Z</time>
      </trkpt>
      <trkpt lat="47.1649" lon="6.42778">
        <ele>737.4</ele>
        <time>2023-04-30T09:06:01Z</time>
      </trkpt>
      <trkpt lat="47.16495" lon="6.42772">
        <ele>739</ele>
        <time>2023-04-30T09:06:03Z</time>
      </trkpt>
      <trkpt lat="47.16502" lon="6.42765">
        <ele>740.8</ele>
        <time>2023-04-30T09:06:06Z</time>
      </trkpt>
      <trkpt lat="47.16507" lon="6.42762">
        <ele>742.8</ele>
        <time>2023-04-30T09:06:08Z</time>
      </trkpt>
      <trkpt lat="47.16519" lon="6.42759">
        <ele>743.8</ele>
        <time>2023-04-30T09:06:12Z</time>
      </trkpt>
      <trkpt lat="47.16527" lon="6.42762">
        <ele>744</ele>
        <time>2023-04-30T09:06:15Z</time>
      </trkpt>
      <trkpt lat="47.16536" lon="6.42766">
        <ele>744.4</ele>
        <time>2023-04-30T09:06:18Z</time>
      </trkpt>
      <trkpt lat="47.16542" lon="6.42768">
        <ele>745</ele>
        <time>2023-04-30T09:06:20Z</time>
      </trkpt>
      <trkpt lat="47.16557" lon="6.42776">
        <ele>745.8</ele>
        <time>2023-04-30T09:06:25Z</time>
      </trkpt>
      <trkpt lat="47.1656" lon="6.42776">
        <ele>746.2</ele>
        <time>2023-04-30T09:06:26Z</time>
      </trkpt>
      <trkpt lat="47.16572" lon="6.42778">
        <ele>747.4</ele>
        <time>2023-04-30T09:06:30Z</time>
      </trkpt>
      <trkpt lat="47.16581" lon="6.4278">
        <ele>748</ele>
        <time>2023-04-30T09:06:33Z</time>
      </trkpt>
      <trkpt lat="47.16587" lon="6.4278">
        <ele>748.6</ele>
        <time>2023-04-30T09:06:35Z</time>
      </trkpt>
      <trkpt lat="47.16596" lon="6.42782">
        <ele>749.8</ele>
        <time>2023-04-30T09:06:38Z</time>
      </trkpt>
      <trkpt lat="47.16605" lon="6.42784">
        <ele>750.8</ele>
        <time>2023-04-30T09:06:41Z</time>
      </trkpt>
      <trkpt lat="47.16608" lon="6.42784">
        <ele>751.2</ele>
        <time>2023-04-30T09:06:42Z</time>
      </trkpt>
      <trkpt lat="47.16621" lon="6.42787">
        <ele>752</ele>
        <time>2023-04-30T09:06:46Z</time>
      </trkpt>
      <trkpt lat="47.16633" lon="6.42788">
        <ele>753</ele>
        <time>2023-04-30T09:06:50Z</time>
      </trkpt>
      <trkpt lat="47.16639" lon="6.42789">
        <ele>754</ele>
        <time>2023-04-30T09:06:52Z</time>
      </trkpt>
      <trkpt lat="47.16642" lon="6.42788">
        <ele>754.2</ele>
        <time>2023-04-30T09:06:53Z</time>
      </trkpt>
      <trkpt lat="47.16655" lon="6.42788">
        <ele>755.2</ele>
        <time>2023-04-30T09:06:58Z</time>
      </trkpt>
      <trkpt lat="47.16663" lon="6.42784">
        <ele>756.4</ele>
        <time>2023-04-30T09:07:01Z</time>
      </trkpt>
      <trkpt lat="47.16667" lon="6.4278">
        <ele>757</ele>
        <time>2023-04-30T09:07:03Z</time>
      </trkpt>
      <trkpt lat="47.16672" lon="6.42774">
        <ele>757.4</ele>
        <time>2023-04-30T09:07:05Z</time>
      </trkpt>
      <trkpt lat="47.16675" lon="6.42766">
        <ele>758</ele>
        <time>2023-04-30T09:07:08Z</time>
      </trkpt>
      <trkpt lat="47.16675" lon="6.4276">
        <ele>758.6</ele>
        <time>2023-04-30T09:07:10Z</time>
      </trkpt>
      <trkpt lat="47.16674" lon="6.42751">
        <ele>759.6</ele>
        <time>2023-04-30T09:07:13Z</time>
      </trkpt>
      <trkpt lat="47.16673" lon="6.42745">
        <ele>760.2</ele>
        <time>2023-04-30T09:07:15Z</time>
      </trkpt>
      <trkpt lat="47.16671" lon="6.42739">
        <ele>760.8</ele>
        <time>2023-04-30T09:07:17Z</time>
      </trkpt>
      <trkpt lat="47.16664" lon="6.42728">
        <ele>761.8</ele>
        <time>2023-04-30T09:07:21Z</time>
      </trkpt>
      <trkpt lat="47.16661" lon="6.42725">
        <ele>762</ele>
        <time>2023-04-30T09:07:22Z</time>
      </trkpt>
      <trkpt lat="47.16654" lon="6.42718">
        <ele>763.2</ele>
        <time>2023-04-30T09:07:25Z</time>
      </trkpt>
      <trkpt lat="47.16649" lon="6.42707">
        <ele>763.8</ele>
        <time>2023-04-30T09:07:28Z</time>
      </trkpt>
      <trkpt lat="47.16647" lon="6.42704">
        <ele>764.2</ele>
        <time>2023-04-30T09:07:29Z</time>
      </trkpt>
      <trkpt lat="47.16636" lon="6.42686">
        <ele>765.4</ele>
        <time>2023-04-30T09:07:34Z</time>
      </trkpt>
      <trkpt lat="47.16632" lon="6.42679">
        <ele>766</ele>
        <time>2023-04-30T09:07:36Z</time>
      </trkpt>
      <trkpt lat="47.16628" lon="6.42671">
        <ele>766.6</ele>
        <time>2023-04-30T09:07:38Z</time>
      </trkpt>
      <trkpt lat="47.1662" lon="6.42653">
        <ele>767.8</ele>
        <time>2023-04-30T09:07:42Z</time>
      </trkpt>
      <trkpt lat="47.16615" lon="6.42639">
        <ele>768.6</ele>
        <time>2023-04-30T09:07:45Z</time>
      </trkpt>
      <trkpt lat="47.16613" lon="6.42633">
        <ele>769.2</ele>
        <time>2023-04-30T09:07:46Z</time>
      </trkpt>
      <trkpt lat="47.16606" lon="6.42603">
        <ele>769.4</ele>
        <time>2023-04-30T09:07:52Z</time>
      </trkpt>
      <trkpt lat="47.16605" lon="6.42579">
        <ele>770.2</ele>
        <time>2023-04-30T09:07:58Z</time>
      </trkpt>
      <trkpt lat="47.16605" lon="6.42558">
        <ele>771.4</ele>
        <time>2023-04-30T09:08:03Z</time>
      </trkpt>
      <trkpt lat="47.16607" lon="6.42547">
        <ele>771.8</ele>
        <time>2023-04-30T09:08:06Z</time>
      </trkpt>
      <trkpt lat="47.16613" lon="6.42525">
        <ele>772.4</ele>
        <time>2023-04-30T09:08:12Z</time>
      </trkpt>
      <trkpt lat="47.16615" lon="6.42517">
        <ele>772.4</ele>
        <time>2023-04-30T09:08:14Z</time>
      </trkpt>
      <trkpt lat="47.16624" lon="6.42491">
        <ele>772.2</ele>
        <time>2023-04-30T09:08:21Z</time>
      </trkpt>
      <trkpt lat="47.1663" lon="6.42478">
        <ele>771.4</ele>
        <time>2023-04-30T09:08:25Z</time>
      </trkpt>
      <trkpt lat="47.16632" lon="6.42475">
        <ele>771.2</ele>
        <time>2023-04-30T09:08:26Z</time>
      </trkpt>
      <trkpt lat="47.16644" lon="6.42452">
        <ele>771.6</ele>
        <time>2023-04-30T09:08:33Z</time>
      </trkpt>
      <trkpt lat="47.16652" lon="6.42424">
        <ele>771</ele>
        <time>2023-04-30T09:08:40Z</time>
      </trkpt>
      <trkpt lat="47.16659" lon="6.42403">
        <ele>770.2</ele>
        <time>2023-04-30T09:08:46Z</time>
      </trkpt>
      <trkpt lat="47.1666" lon="6.424">
        <ele>770.4</ele>
        <time>2023-04-30T09:08:47Z</time>
      </trkpt>
      <trkpt lat="47.16661" lon="6.42392">
        <ele>771.4</ele>
        <time>2023-04-30T09:08:49Z</time>
      </trkpt>
      <trkpt lat="47.16664" lon="6.42376">
        <ele>772.6</ele>
        <time>2023-04-30T09:08:53Z</time>
      </trkpt>
      <trkpt lat="47.16665" lon="6.42371">
        <ele>772.6</ele>
        <time>2023-04-30T09:08:54Z</time>
      </trkpt>
      <trkpt lat="47.1667" lon="6.42356">
        <ele>771</ele>
        <time>2023-04-30T09:08:58Z</time>
      </trkpt>
      <trkpt lat="47.16673" lon="6.42349">
        <ele>769.4</ele>
        <time>2023-04-30T09:09:00Z</time>
      </trkpt>
      <trkpt lat="47.16675" lon="6.42341">
        <ele>767.6</ele>
        <time>2023-04-30T09:09:02Z</time>
      </trkpt>
      <trkpt lat="47.16678" lon="6.42333">
        <ele>765.6</ele>
        <time>2023-04-30T09:09:04Z</time>
      </trkpt>
      <trkpt lat="47.1668" lon="6.42325">
        <ele>763.6</ele>
        <time>2023-04-30T09:09:06Z</time>
      </trkpt>
      <trkpt lat="47.16681" lon="6.42321">
        <ele>762.6</ele>
        <time>2023-04-30T09:09:07Z</time>
      </trkpt>
      <trkpt lat="47.16682" lon="6.42317">
        <ele>761.4</ele>
        <time>2023-04-30T09:09:08Z</time>
      </trkpt>
      <trkpt lat="47.16683" lon="6.42313">
        <ele>760.2</ele>
        <time>2023-04-30T09:09:09Z</time>
      </trkpt>
      <trkpt lat="47.16684" lon="6.4231">
        <ele>759.2</ele>
        <time>2023-04-30T09:09:10Z</time>
      </trkpt>
      <trkpt lat="47.16686" lon="6.42306">
        <ele>758.2</ele>
        <time>2023-04-30T09:09:11Z</time>
      </trkpt>
      <trkpt lat="47.16687" lon="6.42302">
        <ele>757</ele>
        <time>2023-04-30T09:09:12Z</time>
      </trkpt>
      <trkpt lat="47.16687" lon="6.42298">
        <ele>756</ele>
        <time>2023-04-30T09:09:13Z</time>
      </trkpt>
      <trkpt lat="47.16688" lon="6.42294">
        <ele>755</ele>
        <time>2023-04-30T09:09:14Z</time>
      </trkpt>
      <trkpt lat="47.16689" lon="6.4229">
        <ele>753.8</ele>
        <time>2023-04-30T09:09:15Z</time>
      </trkpt>
      <trkpt lat="47.16689" lon="6.42287">
        <ele>752.8</ele>
        <time>2023-04-30T09:09:16Z</time>
      </trkpt>
      <trkpt lat="47.1669" lon="6.42283">
        <ele>751.6</ele>
        <time>2023-04-30T09:09:17Z</time>
      </trkpt>
      <trkpt lat="47.16691" lon="6.42279">
        <ele>750.4</ele>
        <time>2023-04-30T09:09:18Z</time>
      </trkpt>
      <trkpt lat="47.16693" lon="6.42272">
        <ele>748.6</ele>
        <time>2023-04-30T09:09:20Z</time>
      </trkpt>
      <trkpt lat="47.16695" lon="6.42265">
        <ele>746.8</ele>
        <time>2023-04-30T09:09:22Z</time>
      </trkpt>
      <trkpt lat="47.16697" lon="6.42262">
        <ele>746</ele>
        <time>2023-04-30T09:09:23Z</time>
      </trkpt>
      <trkpt lat="47.16699" lon="6.42259">
        <ele>745.2</ele>
        <time>2023-04-30T09:09:24Z</time>
      </trkpt>
      <trkpt lat="47.16701" lon="6.42253">
        <ele>743.6</ele>
        <time>2023-04-30T09:09:26Z</time>
      </trkpt>
      <trkpt lat="47.16706" lon="6.42242">
        <ele>742.6</ele>
        <time>2023-04-30T09:09:29Z</time>
      </trkpt>
      <trkpt lat="47.16706" lon="6.42239">
        <ele>741.4</ele>
        <time>2023-04-30T09:09:30Z</time>
      </trkpt>
      <trkpt lat="47.16706" lon="6.42235">
        <ele>740.4</ele>
        <time>2023-04-30T09:09:31Z</time>
      </trkpt>
      <trkpt lat="47.16705" lon="6.42229">
        <ele>739.2</ele>
        <time>2023-04-30T09:09:33Z</time>
      </trkpt>
      <trkpt lat="47.16705" lon="6.42219">
        <ele>738.4</ele>
        <time>2023-04-30T09:09:36Z</time>
      </trkpt>
      <trkpt lat="47.16705" lon="6.42211">
        <ele>737.6</ele>
        <time>2023-04-30T09:09:38Z</time>
      </trkpt>
      <trkpt lat="47.16704" lon="6.42204">
        <ele>736</ele>
        <time>2023-04-30T09:09:40Z</time>
      </trkpt>
      <trkpt lat="47.16704" lon="6.42196">
        <ele>734.4</ele>
        <time>2023-04-30T09:09:42Z</time>
      </trkpt>
      <trkpt lat="47.16704" lon="6.42193">
        <ele>733.4</ele>
        <time>2023-04-30T09:09:43Z</time>
      </trkpt>
      <trkpt lat="47.16703" lon="6.4219">
        <ele>732.6</ele>
        <time>2023-04-30T09:09:44Z</time>
      </trkpt>
      <trkpt lat="47.16703" lon="6.42183">
        <ele>730.8</ele>
        <time>2023-04-30T09:09:46Z</time>
      </trkpt>
      <trkpt lat="47.16703" lon="6.42176">
        <ele>729.4</ele>
        <time>2023-04-30T09:09:48Z</time>
      </trkpt>
      <trkpt lat="47.16704" lon="6.42168">
        <ele>728.2</ele>
        <time>2023-04-30T09:09:50Z</time>
      </trkpt>
      <trkpt lat="47.16707" lon="6.42149">
        <ele>728.8</ele>
        <time>2023-04-30T09:09:55Z</time>
      </trkpt>
      <trkpt lat="47.16708" lon="6.42145">
        <ele>729.2</ele>
        <time>2023-04-30T09:09:56Z</time>
      </trkpt>
      <trkpt lat="47.1671" lon="6.42134">
        <ele>730.8</ele>
        <time>2023-04-30T09:09:59Z</time>
      </trkpt>
      <trkpt lat="47.1671" lon="6.42129">
        <ele>731.2</ele>
        <time>2023-04-30T09:10:00Z</time>
      </trkpt>
      <trkpt lat="47.16712" lon="6.42118">
        <ele>732</ele>
        <time>2023-04-30T09:10:03Z</time>
      </trkpt>
      <trkpt lat="47.16713" lon="6.4211">
        <ele>733</ele>
        <time>2023-04-30T09:10:05Z</time>
      </trkpt>
      <trkpt lat="47.16713" lon="6.42107">
        <ele>733.4</ele>
        <time>2023-04-30T09:10:06Z</time>
      </trkpt>
      <trkpt lat="47.16714" lon="6.42095">
        <ele>734.6</ele>
        <time>2023-04-30T09:10:09Z</time>
      </trkpt>
      <trkpt lat="47.16715" lon="6.42083">
        <ele>735.8</ele>
        <time>2023-04-30T09:10:12Z</time>
      </trkpt>
      <trkpt lat="47.16715" lon="6.42079">
        <ele>736</ele>
        <time>2023-04-30T09:10:13Z</time>
      </trkpt>
      <trkpt lat="47.16716" lon="6.42067">
        <ele>737.4</ele>
        <time>2023-04-30T09:10:16Z</time>
      </trkpt>
      <trkpt lat="47.16717" lon="6.42059">
        <ele>738.8</ele>
        <time>2023-04-30T09:10:18Z</time>
      </trkpt>
      <trkpt lat="47.16721" lon="6.42052">
        <ele>742.8</ele>
        <time>2023-04-30T09:10:20Z</time>
      </trkpt>
      <trkpt lat="47.16724" lon="6.4205">
        <ele>746.4</ele>
        <time>2023-04-30T09:10:21Z</time>
      </trkpt>
      <trkpt lat="47.16725" lon="6.42044">
        <ele>747.8</ele>
        <time>2023-04-30T09:10:23Z</time>
      </trkpt>
      <trkpt lat="47.16725" lon="6.42039">
        <ele>749</ele>
        <time>2023-04-30T09:10:25Z</time>
      </trkpt>
      <trkpt lat="47.16726" lon="6.42034">
        <ele>751</ele>
        <time>2023-04-30T09:10:27Z</time>
      </trkpt>
      <trkpt lat="47.16727" lon="6.42032">
        <ele>752.4</ele>
        <time>2023-04-30T09:10:28Z</time>
      </trkpt>
      <trkpt lat="47.16727" lon="6.42028">
        <ele>754.4</ele>
        <time>2023-04-30T09:10:30Z</time>
      </trkpt>
      <trkpt lat="47.16727" lon="6.42026">
        <ele>755.4</ele>
        <time>2023-04-30T09:10:31Z</time>
      </trkpt>
      <trkpt lat="47.16727" lon="6.42024">
        <ele>756.6</ele>
        <time>2023-04-30T09:10:32Z</time>
      </trkpt>
      <trkpt lat="47.16728" lon="6.42019">
        <ele>758.2</ele>
        <time>2023-04-30T09:10:34Z</time>
      </trkpt>
      <trkpt lat="47.16727" lon="6.42017">
        <ele>759</ele>
        <time>2023-04-30T09:10:35Z</time>
      </trkpt>
      <trkpt lat="47.16726" lon="6.42014">
        <ele>759.8</ele>
        <time>2023-04-30T09:10:36Z</time>
      </trkpt>
      <trkpt lat="47.16724" lon="6.42012">
        <ele>760</ele>
        <time>2023-04-30T09:10:37Z</time>
      </trkpt>
      <trkpt lat="47.16722" lon="6.42009">
        <ele>761.2</ele>
        <time>2023-04-30T09:10:39Z</time>
      </trkpt>
      <trkpt lat="47.16715" lon="6.42">
        <ele>762.4</ele>
        <time>2023-04-30T09:10:42Z</time>
      </trkpt>
      <trkpt lat="47.16713" lon="6.41997">
        <ele>762.8</ele>
        <time>2023-04-30T09:10:43Z</time>
      </trkpt>
      <trkpt lat="47.1671" lon="6.41994">
        <ele>763.4</ele>
        <time>2023-04-30T09:10:44Z</time>
      </trkpt>
      <trkpt lat="47.16709" lon="6.41991">
        <ele>764.6</ele>
        <time>2023-04-30T09:10:45Z</time>
      </trkpt>
      <trkpt lat="47.16707" lon="6.41988">
        <ele>765.6</ele>
        <time>2023-04-30T09:10:46Z</time>
      </trkpt>
      <trkpt lat="47.16704" lon="6.41984">
        <ele>767</ele>
        <time>2023-04-30T09:10:48Z</time>
      </trkpt>
      <trkpt lat="47.16701" lon="6.4198">
        <ele>768.8</ele>
        <time>2023-04-30T09:10:50Z</time>
      </trkpt>
      <trkpt lat="47.16699" lon="6.41979">
        <ele>770</ele>
        <time>2023-04-30T09:10:51Z</time>
      </trkpt>
      <trkpt lat="47.16697" lon="6.41977">
        <ele>772.2</ele>
        <time>2023-04-30T09:10:52Z</time>
      </trkpt>
      <trkpt lat="47.16696" lon="6.41975">
        <ele>775.8</ele>
        <time>2023-04-30T09:10:53Z</time>
      </trkpt>
      <trkpt lat="47.16695" lon="6.41972">
        <ele>779</ele>
        <time>2023-04-30T09:10:54Z</time>
      </trkpt>
      <trkpt lat="47.16696" lon="6.41969">
        <ele>781.6</ele>
        <time>2023-04-30T09:10:55Z</time>
      </trkpt>
      <trkpt lat="47.16697" lon="6.41966">
        <ele>782.8</ele>
        <time>2023-04-30T09:10:56Z</time>
      </trkpt>
      <trkpt lat="47.16696" lon="6.41963">
        <ele>784.6</ele>
        <time>2023-04-30T09:10:57Z</time>
      </trkpt>
      <trkpt lat="47.16698" lon="6.41962">
        <ele>787.4</ele>
        <time>2023-04-30T09:10:58Z</time>
      </trkpt>
      <trkpt lat="47.16701" lon="6.41962">
        <ele>790.4</ele>
        <time>2023-04-30T09:10:59Z</time>
      </trkpt>
      <trkpt lat="47.16705" lon="6.41962">
        <ele>793.2</ele>
        <time>2023-04-30T09:11:00Z</time>
      </trkpt>
      <trkpt lat="47.16707" lon="6.41962">
        <ele>795.4</ele>
        <time>2023-04-30T09:11:01Z</time>
      </trkpt>
      <trkpt lat="47.16709" lon="6.41962">
        <ele>797</ele>
        <time>2023-04-30T09:11:02Z</time>
      </trkpt>
      <trkpt lat="47.16711" lon="6.41962">
        <ele>798.2</ele>
        <time>2023-04-30T09:11:03Z</time>
      </trkpt>
      <trkpt lat="47.16713" lon="6.41963">
        <ele>800.2</ele>
        <time>2023-04-30T09:11:05Z</time>
      </trkpt>
      <trkpt lat="47.16716" lon="6.41964">
        <ele>802</ele>
        <time>2023-04-30T09:11:07Z</time>
      </trkpt>
      <trkpt lat="47.16721" lon="6.41964">
        <ele>803.2</ele>
        <time>2023-04-30T09:11:10Z</time>
      </trkpt>
      <trkpt lat="47.16727" lon="6.41965">
        <ele>804</ele>
        <time>2023-04-30T09:11:13Z</time>
      </trkpt>
      <trkpt lat="47.16729" lon="6.41966">
        <ele>804.4</ele>
        <time>2023-04-30T09:11:14Z</time>
      </trkpt>
      <trkpt lat="47.16736" lon="6.4197">
        <ele>805.8</ele>
        <time>2023-04-30T09:11:18Z</time>
      </trkpt>
      <trkpt lat="47.16739" lon="6.41971">
        <ele>806</ele>
        <time>2023-04-30T09:11:19Z</time>
      </trkpt>
      <trkpt lat="47.16745" lon="6.41972">
        <ele>806.8</ele>
        <time>2023-04-30T09:11:22Z</time>
      </trkpt>
      <trkpt lat="47.16753" lon="6.41972">
        <ele>807.6</ele>
        <time>2023-04-30T09:11:26Z</time>
      </trkpt>
      <trkpt lat="47.16755" lon="6.41972">
        <ele>807.8</ele>
        <time>2023-04-30T09:11:27Z</time>
      </trkpt>
      <trkpt lat="47.16756" lon="6.41967">
        <ele>808.2</ele>
        <time>2023-04-30T09:11:33Z</time>
      </trkpt>
      <trkpt lat="47.16752" lon="6.41956">
        <ele>807.4</ele>
        <time>2023-04-30T09:11:37Z</time>
      </trkpt>
      <trkpt lat="47.16759" lon="6.41944">
        <ele>808.2</ele>
        <time>2023-04-30T09:11:42Z</time>
      </trkpt>
      <trkpt lat="47.1677" lon="6.41929">
        <ele>809</ele>
        <time>2023-04-30T09:11:48Z</time>
      </trkpt>
      <trkpt lat="47.16775" lon="6.41923">
        <ele>809.4</ele>
        <time>2023-04-30T09:11:51Z</time>
      </trkpt>
      <trkpt lat="47.16781" lon="6.41915">
        <ele>810</ele>
        <time>2023-04-30T09:11:54Z</time>
      </trkpt>
      <trkpt lat="47.16793" lon="6.419">
        <ele>811</ele>
        <time>2023-04-30T09:12:00Z</time>
      </trkpt>
      <trkpt lat="47.16814" lon="6.41873">
        <ele>812</ele>
        <time>2023-04-30T09:12:09Z</time>
      </trkpt>
      <trkpt lat="47.16826" lon="6.41858">
        <ele>813.2</ele>
        <time>2023-04-30T09:12:14Z</time>
      </trkpt>
      <trkpt lat="47.16833" lon="6.41848">
        <ele>813.8</ele>
        <time>2023-04-30T09:12:17Z</time>
      </trkpt>
      <trkpt lat="47.16843" lon="6.41835">
        <ele>814.4</ele>
        <time>2023-04-30T09:12:21Z</time>
      </trkpt>
      <trkpt lat="47.16856" lon="6.41819">
        <ele>815</ele>
        <time>2023-04-30T09:12:26Z</time>
      </trkpt>
      <trkpt lat="47.16861" lon="6.41813">
        <ele>815.4</ele>
        <time>2023-04-30T09:12:28Z</time>
      </trkpt>
      <trkpt lat="47.16874" lon="6.41796">
        <ele>816.6</ele>
        <time>2023-04-30T09:12:33Z</time>
      </trkpt>
      <trkpt lat="47.16889" lon="6.41777">
        <ele>817.6</ele>
        <time>2023-04-30T09:12:39Z</time>
      </trkpt>
      <trkpt lat="47.16899" lon="6.41762">
        <ele>818</ele>
        <time>2023-04-30T09:12:43Z</time>
      </trkpt>
      <trkpt lat="47.16908" lon="6.41752">
        <ele>818.6</ele>
        <time>2023-04-30T09:12:46Z</time>
      </trkpt>
      <trkpt lat="47.16919" lon="6.41737">
        <ele>819.2</ele>
        <time>2023-04-30T09:12:50Z</time>
      </trkpt>
      <trkpt lat="47.16927" lon="6.41727">
        <ele>819.8</ele>
        <time>2023-04-30T09:12:53Z</time>
      </trkpt>
      <trkpt lat="47.16935" lon="6.41719">
        <ele>820.4</ele>
        <time>2023-04-30T09:12:56Z</time>
      </trkpt>
      <trkpt lat="47.16945" lon="6.41708">
        <ele>820.8</ele>
        <time>2023-04-30T09:13:00Z</time>
      </trkpt>
      <trkpt lat="47.16954" lon="6.417">
        <ele>821.6</ele>
        <time>2023-04-30T09:13:03Z</time>
      </trkpt>
      <trkpt lat="47.1696" lon="6.41694">
        <ele>821.8</ele>
        <time>2023-04-30T09:13:05Z</time>
      </trkpt>
      <trkpt lat="47.16974" lon="6.41679">
        <ele>822.4</ele>
        <time>2023-04-30T09:13:10Z</time>
      </trkpt>
      <trkpt lat="47.16983" lon="6.41668">
        <ele>822.4</ele>
        <time>2023-04-30T09:13:13Z</time>
      </trkpt>
      <trkpt lat="47.1699" lon="6.4166">
        <ele>822.8</ele>
        <time>2023-04-30T09:13:15Z</time>
      </trkpt>
      <trkpt lat="47.16994" lon="6.41657">
        <ele>823</ele>
        <time>2023-04-30T09:13:16Z</time>
      </trkpt>
      <trkpt lat="47.16998" lon="6.41654">
        <ele>823.2</ele>
        <time>2023-04-30T09:13:17Z</time>
      </trkpt>
      <trkpt lat="47.1701" lon="6.4164">
        <ele>824</ele>
        <time>2023-04-30T09:13:21Z</time>
      </trkpt>
      <trkpt lat="47.17014" lon="6.41637">
        <ele>824.2</ele>
        <time>2023-04-30T09:13:22Z</time>
      </trkpt>
      <trkpt lat="47.17031" lon="6.41617">
        <ele>824.6</ele>
        <time>2023-04-30T09:13:27Z</time>
      </trkpt>
      <trkpt lat="47.17034" lon="6.41613">
        <ele>824.6</ele>
        <time>2023-04-30T09:13:28Z</time>
      </trkpt>
      <trkpt lat="47.17041" lon="6.41597">
        <ele>824.6</ele>
        <time>2023-04-30T09:13:31Z</time>
      </trkpt>
      <trkpt lat="47.17046" lon="6.41586">
        <ele>824.6</ele>
        <time>2023-04-30T09:13:33Z</time>
      </trkpt>
      <trkpt lat="47.17053" lon="6.41568">
        <ele>824.4</ele>
        <time>2023-04-30T09:13:36Z</time>
      </trkpt>
      <trkpt lat="47.17059" lon="6.41556">
        <ele>824.2</ele>
        <time>2023-04-30T09:13:39Z</time>
      </trkpt>
      <trkpt lat="47.17062" lon="6.4155">
        <ele>824</ele>
        <time>2023-04-30T09:13:43Z</time>
      </trkpt>
      <trkpt lat="47.17058" lon="6.4155">
        <ele>823.8</ele>
        <time>2023-04-30T09:13:46Z</time>
      </trkpt>
      <trkpt lat="47.17057" lon="6.41555">
        <ele>823.6</ele>
        <time>2023-04-30T09:13:48Z</time>
      </trkpt>
      <trkpt lat="47.17054" lon="6.41564">
        <ele>823.6</ele>
        <time>2023-04-30T09:13:51Z</time>
      </trkpt>
      <trkpt lat="47.17046" lon="6.41587">
        <ele>823.6</ele>
        <time>2023-04-30T09:13:58Z</time>
      </trkpt>
      <trkpt lat="47.17033" lon="6.41611">
        <ele>824.6</ele>
        <time>2023-04-30T09:14:05Z</time>
      </trkpt>
      <trkpt lat="47.17021" lon="6.41628">
        <ele>825</ele>
        <time>2023-04-30T09:14:10Z</time>
      </trkpt>
      <trkpt lat="47.17014" lon="6.41634">
        <ele>825.4</ele>
        <time>2023-04-30T09:14:13Z</time>
      </trkpt>
      <trkpt lat="47.16998" lon="6.4165">
        <ele>825.8</ele>
        <time>2023-04-30T09:14:20Z</time>
      </trkpt>
      <trkpt lat="47.16977" lon="6.4167">
        <ele>825.6</ele>
        <time>2023-04-30T09:14:27Z</time>
      </trkpt>
      <trkpt lat="47.16951" lon="6.41697">
        <ele>824.8</ele>
        <time>2023-04-30T09:14:35Z</time>
      </trkpt>
      <trkpt lat="47.16928" lon="6.41721">
        <ele>824</ele>
        <time>2023-04-30T09:14:42Z</time>
      </trkpt>
      <trkpt lat="47.16925" lon="6.41725">
        <ele>823.8</ele>
        <time>2023-04-30T09:14:43Z</time>
      </trkpt>
      <trkpt lat="47.16911" lon="6.4174">
        <ele>822.8</ele>
        <time>2023-04-30T09:14:47Z</time>
      </trkpt>
      <trkpt lat="47.16905" lon="6.41747">
        <ele>822.4</ele>
        <time>2023-04-30T09:14:49Z</time>
      </trkpt>
      <trkpt lat="47.16897" lon="6.41758">
        <ele>821.8</ele>
        <time>2023-04-30T09:14:52Z</time>
      </trkpt>
      <trkpt lat="47.16888" lon="6.41774">
        <ele>821.4</ele>
        <time>2023-04-30T09:14:56Z</time>
      </trkpt>
      <trkpt lat="47.16869" lon="6.41794">
        <ele>821.6</ele>
        <time>2023-04-30T09:15:02Z</time>
      </trkpt>
      <trkpt lat="47.16854" lon="6.41815">
        <ele>820.6</ele>
        <time>2023-04-30T09:15:07Z</time>
      </trkpt>
      <trkpt lat="47.16847" lon="6.41823">
        <ele>820.6</ele>
        <time>2023-04-30T09:15:09Z</time>
      </trkpt>
      <trkpt lat="47.16822" lon="6.41852">
        <ele>819.6</ele>
        <time>2023-04-30T09:15:16Z</time>
      </trkpt>
      <trkpt lat="47.16819" lon="6.41856">
        <ele>819.4</ele>
        <time>2023-04-30T09:15:17Z</time>
      </trkpt>
      <trkpt lat="47.168" lon="6.41879">
        <ele>819</ele>
        <time>2023-04-30T09:15:23Z</time>
      </trkpt>
      <trkpt lat="47.16789" lon="6.41894">
        <ele>818.4</ele>
        <time>2023-04-30T09:15:27Z</time>
      </trkpt>
      <trkpt lat="47.1678" lon="6.41905">
        <ele>817.2</ele>
        <time>2023-04-30T09:15:31Z</time>
      </trkpt>
      <trkpt lat="47.16771" lon="6.41915">
        <ele>816.2</ele>
        <time>2023-04-30T09:15:37Z</time>
      </trkpt>
      <trkpt lat="47.16771" lon="6.41917">
        <ele>816.4</ele>
        <time>2023-04-30T09:15:39Z</time>
      </trkpt>
      <trkpt lat="47.16773" lon="6.41918">
        <ele>816.6</ele>
        <time>2023-04-30T09:15:41Z</time>
      </trkpt>
      <trkpt lat="47.16777" lon="6.41911">
        <ele>817</ele>
        <time>2023-04-30T09:15:45Z</time>
      </trkpt>
      <trkpt lat="47.16782" lon="6.41908">
        <ele>817</ele>
        <time>2023-04-30T09:15:47Z</time>
      </trkpt>
      <trkpt lat="47.1679" lon="6.41898">
        <ele>817.2</ele>
        <time>2023-04-30T09:15:51Z</time>
      </trkpt>
      <trkpt lat="47.16802" lon="6.41881">
        <ele>817.6</ele>
        <time>2023-04-30T09:15:57Z</time>
      </trkpt>
      <trkpt lat="47.16817" lon="6.41863">
        <ele>817.8</ele>
        <time>2023-04-30T09:16:05Z</time>
      </trkpt>
      <trkpt lat="47.16827" lon="6.41849">
        <ele>817.8</ele>
        <time>2023-04-30T09:16:11Z</time>
      </trkpt>
      <trkpt lat="47.16834" lon="6.4184">
        <ele>818.2</ele>
        <time>2023-04-30T09:16:15Z</time>
      </trkpt>
      <trkpt lat="47.1684" lon="6.41835">
        <ele>818</ele>
        <time>2023-04-30T09:16:18Z</time>
      </trkpt>
      <trkpt lat="47.16851" lon="6.41821">
        <ele>818</ele>
        <time>2023-04-30T09:16:24Z</time>
      </trkpt>
      <trkpt lat="47.16871" lon="6.41797">
        <ele>818.8</ele>
        <time>2023-04-30T09:16:34Z</time>
      </trkpt>
      <trkpt lat="47.16877" lon="6.41789">
        <ele>819.4</ele>
        <time>2023-04-30T09:16:37Z</time>
      </trkpt>
      <trkpt lat="47.16884" lon="6.41781">
        <ele>819.8</ele>
        <time>2023-04-30T09:16:40Z</time>
      </trkpt>
      <trkpt lat="47.16902" lon="6.41759">
        <ele>820</ele>
        <time>2023-04-30T09:16:49Z</time>
      </trkpt>
      <trkpt lat="47.1692" lon="6.41736">
        <ele>820.2</ele>
        <time>2023-04-30T09:16:56Z</time>
      </trkpt>
      <trkpt lat="47.16927" lon="6.41728">
        <ele>820.6</ele>
        <time>2023-04-30T09:16:59Z</time>
      </trkpt>
      <trkpt lat="47.16938" lon="6.41715">
        <ele>821.6</ele>
        <time>2023-04-30T09:17:04Z</time>
      </trkpt>
      <trkpt lat="47.16951" lon="6.41701">
        <ele>822.8</ele>
        <time>2023-04-30T09:17:09Z</time>
      </trkpt>
      <trkpt lat="47.1696" lon="6.41691">
        <ele>823.4</ele>
        <time>2023-04-30T09:17:13Z</time>
      </trkpt>
      <trkpt lat="47.16973" lon="6.41676">
        <ele>823.8</ele>
        <time>2023-04-30T09:17:19Z</time>
      </trkpt>
      <trkpt lat="47.16994" lon="6.41653">
        <ele>824.6</ele>
        <time>2023-04-30T09:17:28Z</time>
      </trkpt>
      <trkpt lat="47.16997" lon="6.41651">
        <ele>824.8</ele>
        <time>2023-04-30T09:17:29Z</time>
      </trkpt>
      <trkpt lat="47.1701" lon="6.41638">
        <ele>825.2</ele>
        <time>2023-04-30T09:17:35Z</time>
      </trkpt>
      <trkpt lat="47.1702" lon="6.41628">
        <ele>825.2</ele>
        <time>2023-04-30T09:17:40Z</time>
      </trkpt>
      <trkpt lat="47.17035" lon="6.41609">
        <ele>824.4</ele>
        <time>2023-04-30T09:17:46Z</time>
      </trkpt>
      <trkpt lat="47.17048" lon="6.4158">
        <ele>823.8</ele>
        <time>2023-04-30T09:17:53Z</time>
      </trkpt>
      <trkpt lat="47.17052" lon="6.41571">
        <ele>823.8</ele>
        <time>2023-04-30T09:17:55Z</time>
      </trkpt>
      <trkpt lat="47.1706" lon="6.41545">
        <ele>823.2</ele>
        <time>2023-04-30T09:18:00Z</time>
      </trkpt>
      <trkpt lat="47.17068" lon="6.41513">
        <ele>822.8</ele>
        <time>2023-04-30T09:18:05Z</time>
      </trkpt>
      <trkpt lat="47.17069" lon="6.41506">
        <ele>822.6</ele>
        <time>2023-04-30T09:18:06Z</time>
      </trkpt>
      <trkpt lat="47.17069" lon="6.41499">
        <ele>822.6</ele>
        <time>2023-04-30T09:18:07Z</time>
      </trkpt>
      <trkpt lat="47.17071" lon="6.41457">
        <ele>821.4</ele>
        <time>2023-04-30T09:18:12Z</time>
      </trkpt>
      <trkpt lat="47.17061" lon="6.41446">
        <ele>821</ele>
        <time>2023-04-30T09:18:15Z</time>
      </trkpt>
      <trkpt lat="47.17051" lon="6.41443">
        <ele>820.6</ele>
        <time>2023-04-30T09:18:17Z</time>
      </trkpt>
      <trkpt lat="47.17046" lon="6.41441">
        <ele>820.2</ele>
        <time>2023-04-30T09:18:18Z</time>
      </trkpt>
      <trkpt lat="47.17028" lon="6.41433">
        <ele>819.4</ele>
        <time>2023-04-30T09:18:21Z</time>
      </trkpt>
      <trkpt lat="47.17022" lon="6.4143">
        <ele>819</ele>
        <time>2023-04-30T09:18:22Z</time>
      </trkpt>
      <trkpt lat="47.16996" lon="6.41418">
        <ele>818</ele>
        <time>2023-04-30T09:18:26Z</time>
      </trkpt>
      <trkpt lat="47.16978" lon="6.41409">
        <ele>817.4</ele>
        <time>2023-04-30T09:18:29Z</time>
      </trkpt>
      <trkpt lat="47.16972" lon="6.41406">
        <ele>816.8</ele>
        <time>2023-04-30T09:18:30Z</time>
      </trkpt>
      <trkpt lat="47.16954" lon="6.41397">
        <ele>815.8</ele>
        <time>2023-04-30T09:18:33Z</time>
      </trkpt>
      <trkpt lat="47.16934" lon="6.41388">
        <ele>814.8</ele>
        <time>2023-04-30T09:18:36Z</time>
      </trkpt>
      <trkpt lat="47.16907" lon="6.41376">
        <ele>813.6</ele>
        <time>2023-04-30T09:18:40Z</time>
      </trkpt>
      <trkpt lat="47.16885" lon="6.41365">
        <ele>812.4</ele>
        <time>2023-04-30T09:18:43Z</time>
      </trkpt>
      <trkpt lat="47.16862" lon="6.41354">
        <ele>811.4</ele>
        <time>2023-04-30T09:18:46Z</time>
      </trkpt>
      <trkpt lat="47.16838" lon="6.41343">
        <ele>810.2</ele>
        <time>2023-04-30T09:18:49Z</time>
      </trkpt>
      <trkpt lat="47.16813" lon="6.41331">
        <ele>809</ele>
        <time>2023-04-30T09:18:52Z</time>
      </trkpt>
      <trkpt lat="47.16796" lon="6.41324">
        <ele>808</ele>
        <time>2023-04-30T09:18:54Z</time>
      </trkpt>
      <trkpt lat="47.16788" lon="6.41319">
        <ele>807.6</ele>
        <time>2023-04-30T09:18:55Z</time>
      </trkpt>
      <trkpt lat="47.16779" lon="6.41315">
        <ele>807.2</ele>
        <time>2023-04-30T09:18:56Z</time>
      </trkpt>
      <trkpt lat="47.1677" lon="6.41312">
        <ele>806.8</ele>
        <time>2023-04-30T09:18:57Z</time>
      </trkpt>
      <trkpt lat="47.16761" lon="6.41307">
        <ele>806.2</ele>
        <time>2023-04-30T09:18:58Z</time>
      </trkpt>
      <trkpt lat="47.16751" lon="6.41303">
        <ele>805.6</ele>
        <time>2023-04-30T09:18:59Z</time>
      </trkpt>
      <trkpt lat="47.16742" lon="6.41299">
        <ele>805.2</ele>
        <time>2023-04-30T09:19:00Z</time>
      </trkpt>
      <trkpt lat="47.16733" lon="6.41294">
        <ele>804.6</ele>
        <time>2023-04-30T09:19:01Z</time>
      </trkpt>
      <trkpt lat="47.16714" lon="6.41284">
        <ele>803.4</ele>
        <time>2023-04-30T09:19:03Z</time>
      </trkpt>
      <trkpt lat="47.16695" lon="6.41275">
        <ele>802</ele>
        <time>2023-04-30T09:19:05Z</time>
      </trkpt>
      <trkpt lat="47.16664" lon="6.41261">
        <ele>800.6</ele>
        <time>2023-04-30T09:19:08Z</time>
      </trkpt>
      <trkpt lat="47.16634" lon="6.41246">
        <ele>799.2</ele>
        <time>2023-04-30T09:19:11Z</time>
      </trkpt>
      <trkpt lat="47.16614" lon="6.41237">
        <ele>798.4</ele>
        <time>2023-04-30T09:19:13Z</time>
      </trkpt>
      <trkpt lat="47.16604" lon="6.41232">
        <ele>798</ele>
        <time>2023-04-30T09:19:14Z</time>
      </trkpt>
      <trkpt lat="47.16576" lon="6.41221">
        <ele>796.8</ele>
        <time>2023-04-30T09:19:17Z</time>
      </trkpt>
      <trkpt lat="47.16561" lon="6.41215">
        <ele>796.2</ele>
        <time>2023-04-30T09:19:19Z</time>
      </trkpt>
      <trkpt lat="47.16555" lon="6.41213">
        <ele>795.6</ele>
        <time>2023-04-30T09:19:20Z</time>
      </trkpt>
      <trkpt lat="47.16545" lon="6.41207">
        <ele>794.8</ele>
        <time>2023-04-30T09:19:22Z</time>
      </trkpt>
      <trkpt lat="47.16542" lon="6.41203">
        <ele>794.4</ele>
        <time>2023-04-30T09:19:23Z</time>
      </trkpt>
      <trkpt lat="47.16544" lon="6.41189">
        <ele>793.2</ele>
        <time>2023-04-30T09:19:26Z</time>
      </trkpt>
      <trkpt lat="47.1655" lon="6.41179">
        <ele>792.2</ele>
        <time>2023-04-30T09:19:28Z</time>
      </trkpt>
      <trkpt lat="47.16554" lon="6.41174">
        <ele>791.6</ele>
        <time>2023-04-30T09:19:29Z</time>
      </trkpt>
      <trkpt lat="47.16559" lon="6.41169">
        <ele>791.4</ele>
        <time>2023-04-30T09:19:30Z</time>
      </trkpt>
      <trkpt lat="47.16563" lon="6.41163">
        <ele>791</ele>
        <time>2023-04-30T09:19:31Z</time>
      </trkpt>
      <trkpt lat="47.16577" lon="6.41144">
        <ele>790</ele>
        <time>2023-04-30T09:19:34Z</time>
      </trkpt>
      <trkpt lat="47.16591" lon="6.41125">
        <ele>789</ele>
        <time>2023-04-30T09:19:37Z</time>
      </trkpt>
      <trkpt lat="47.16596" lon="6.41118">
        <ele>788.6</ele>
        <time>2023-04-30T09:19:38Z</time>
      </trkpt>
      <trkpt lat="47.16612" lon="6.41098">
        <ele>787.6</ele>
        <time>2023-04-30T09:19:41Z</time>
      </trkpt>
      <trkpt lat="47.16623" lon="6.41084">
        <ele>786.8</ele>
        <time>2023-04-30T09:19:43Z</time>
      </trkpt>
      <trkpt lat="47.16629" lon="6.41077">
        <ele>786.4</ele>
        <time>2023-04-30T09:19:44Z</time>
      </trkpt>
      <trkpt lat="47.16652" lon="6.41045">
        <ele>785.2</ele>
        <time>2023-04-30T09:19:48Z</time>
      </trkpt>
      <trkpt lat="47.16664" lon="6.41031">
        <ele>784.6</ele>
        <time>2023-04-30T09:19:50Z</time>
      </trkpt>
      <trkpt lat="47.16675" lon="6.41017">
        <ele>784.2</ele>
        <time>2023-04-30T09:19:52Z</time>
      </trkpt>
      <trkpt lat="47.16692" lon="6.40994">
        <ele>783</ele>
        <time>2023-04-30T09:19:55Z</time>
      </trkpt>
      <trkpt lat="47.16703" lon="6.4098">
        <ele>782.2</ele>
        <time>2023-04-30T09:19:57Z</time>
      </trkpt>
      <trkpt lat="47.16708" lon="6.40972">
        <ele>781.6</ele>
        <time>2023-04-30T09:19:58Z</time>
      </trkpt>
      <trkpt lat="47.16719" lon="6.40957">
        <ele>780.4</ele>
        <time>2023-04-30T09:20:00Z</time>
      </trkpt>
      <trkpt lat="47.1673" lon="6.40942">
        <ele>779</ele>
        <time>2023-04-30T09:20:02Z</time>
      </trkpt>
      <trkpt lat="47.16735" lon="6.40935">
        <ele>778.2</ele>
        <time>2023-04-30T09:20:03Z</time>
      </trkpt>
      <trkpt lat="47.1674" lon="6.40928">
        <ele>777.6</ele>
        <time>2023-04-30T09:20:04Z</time>
      </trkpt>
      <trkpt lat="47.16749" lon="6.40915">
        <ele>776</ele>
        <time>2023-04-30T09:20:06Z</time>
      </trkpt>
      <trkpt lat="47.16758" lon="6.40902">
        <ele>774.6</ele>
        <time>2023-04-30T09:20:08Z</time>
      </trkpt>
      <trkpt lat="47.16762" lon="6.40895">
        <ele>773.8</ele>
        <time>2023-04-30T09:20:09Z</time>
      </trkpt>
      <trkpt lat="47.16765" lon="6.40888">
        <ele>773</ele>
        <time>2023-04-30T09:20:10Z</time>
      </trkpt>
      <trkpt lat="47.16771" lon="6.40874">
        <ele>771.2</ele>
        <time>2023-04-30T09:20:12Z</time>
      </trkpt>
      <trkpt lat="47.16777" lon="6.40862">
        <ele>769.8</ele>
        <time>2023-04-30T09:20:14Z</time>
      </trkpt>
      <trkpt lat="47.16781" lon="6.40852">
        <ele>768.4</ele>
        <time>2023-04-30T09:20:16Z</time>
      </trkpt>
      <trkpt lat="47.16783" lon="6.40846">
        <ele>767.2</ele>
        <time>2023-04-30T09:20:18Z</time>
      </trkpt>
      <trkpt lat="47.16784" lon="6.40842">
        <ele>766.2</ele>
        <time>2023-04-30T09:20:20Z</time>
      </trkpt>
      <trkpt lat="47.16785" lon="6.4084">
        <ele>765.2</ele>
        <time>2023-04-30T09:20:22Z</time>
      </trkpt>
      <trkpt lat="47.16786" lon="6.40837">
        <ele>764.8</ele>
        <time>2023-04-30T09:20:23Z</time>
      </trkpt>
      <trkpt lat="47.16784" lon="6.40831">
        <ele>763.8</ele>
        <time>2023-04-30T09:20:26Z</time>
      </trkpt>
      <trkpt lat="47.16783" lon="6.40829">
        <ele>763.2</ele>
        <time>2023-04-30T09:20:28Z</time>
      </trkpt>
      <trkpt lat="47.16782" lon="6.4083">
        <ele>763</ele>
        <time>2023-04-30T09:20:29Z</time>
      </trkpt>
      <trkpt lat="47.16781" lon="6.40832">
        <ele>762.8</ele>
        <time>2023-04-30T09:20:31Z</time>
      </trkpt>
      <trkpt lat="47.1678" lon="6.40835">
        <ele>762.4</ele>
        <time>2023-04-30T09:20:34Z</time>
      </trkpt>
      <trkpt lat="47.16784" lon="6.4085">
        <ele>762.8</ele>
        <time>2023-04-30T09:20:40Z</time>
      </trkpt>
      <trkpt lat="47.1679" lon="6.40858">
        <ele>764</ele>
        <time>2023-04-30T09:20:44Z</time>
      </trkpt>
      <trkpt lat="47.16795" lon="6.4086">
        <ele>764.8</ele>
        <time>2023-04-30T09:20:46Z</time>
      </trkpt>
      <trkpt lat="47.16797" lon="6.40862">
        <ele>765.4</ele>
        <time>2023-04-30T09:20:47Z</time>
      </trkpt>
      <trkpt lat="47.16802" lon="6.40865">
        <ele>766.2</ele>
        <time>2023-04-30T09:20:49Z</time>
      </trkpt>
      <trkpt lat="47.16804" lon="6.40867">
        <ele>767</ele>
        <time>2023-04-30T09:20:50Z</time>
      </trkpt>
      <trkpt lat="47.16809" lon="6.40871">
        <ele>768</ele>
        <time>2023-04-30T09:20:52Z</time>
      </trkpt>
      <trkpt lat="47.16815" lon="6.40876">
        <ele>769.4</ele>
        <time>2023-04-30T09:20:55Z</time>
      </trkpt>
      <trkpt lat="47.16821" lon="6.40879">
        <ele>770.6</ele>
        <time>2023-04-30T09:20:58Z</time>
      </trkpt>
      <trkpt lat="47.16826" lon="6.40883">
        <ele>771.4</ele>
        <time>2023-04-30T09:21:00Z</time>
      </trkpt>
      <trkpt lat="47.16828" lon="6.40885">
        <ele>772</ele>
        <time>2023-04-30T09:21:01Z</time>
      </trkpt>
      <trkpt lat="47.16835" lon="6.40892">
        <ele>773.2</ele>
        <time>2023-04-30T09:21:04Z</time>
      </trkpt>
      <trkpt lat="47.1684" lon="6.40893">
        <ele>774</ele>
        <time>2023-04-30T09:21:06Z</time>
      </trkpt>
      <trkpt lat="47.16842" lon="6.40895">
        <ele>774.4</ele>
        <time>2023-04-30T09:21:07Z</time>
      </trkpt>
      <trkpt lat="47.16849" lon="6.40902">
        <ele>775.6</ele>
        <time>2023-04-30T09:21:11Z</time>
      </trkpt>
      <trkpt lat="47.16857" lon="6.40907">
        <ele>776.6</ele>
        <time>2023-04-30T09:21:15Z</time>
      </trkpt>
      <trkpt lat="47.16863" lon="6.40911">
        <ele>777.2</ele>
        <time>2023-04-30T09:21:18Z</time>
      </trkpt>
      <trkpt lat="47.16873" lon="6.40912">
        <ele>777.6</ele>
        <time>2023-04-30T09:21:23Z</time>
      </trkpt>
      <trkpt lat="47.16873" lon="6.4091">
        <ele>778</ele>
        <time>2023-04-30T09:24:51Z</time>
      </trkpt>
      <trkpt lat="47.16862" lon="6.40908">
        <ele>778</ele>
        <time>2023-04-30T09:24:56Z</time>
      </trkpt>
      <trkpt lat="47.16847" lon="6.40897">
        <ele>777.6</ele>
        <time>2023-04-30T09:25:01Z</time>
      </trkpt>
      <trkpt lat="47.16832" lon="6.40887">
        <ele>776.8</ele>
        <time>2023-04-30T09:25:04Z</time>
      </trkpt>
      <trkpt lat="47.16826" lon="6.40883">
        <ele>776.2</ele>
        <time>2023-04-30T09:25:05Z</time>
      </trkpt>
      <trkpt lat="47.1682" lon="6.40877">
        <ele>775.6</ele>
        <time>2023-04-30T09:25:06Z</time>
      </trkpt>
      <trkpt lat="47.16806" lon="6.40866">
        <ele>774</ele>
        <time>2023-04-30T09:25:08Z</time>
      </trkpt>
      <trkpt lat="47.16799" lon="6.40861">
        <ele>773</ele>
        <time>2023-04-30T09:25:09Z</time>
      </trkpt>
      <trkpt lat="47.16793" lon="6.40857">
        <ele>772.2</ele>
        <time>2023-04-30T09:25:10Z</time>
      </trkpt>
      <trkpt lat="47.16787" lon="6.40851">
        <ele>771.4</ele>
        <time>2023-04-30T09:25:11Z</time>
      </trkpt>
      <trkpt lat="47.16783" lon="6.40843">
        <ele>770.4</ele>
        <time>2023-04-30T09:25:12Z</time>
      </trkpt>
      <trkpt lat="47.16782" lon="6.40833">
        <ele>769.2</ele>
        <time>2023-04-30T09:25:13Z</time>
      </trkpt>
      <trkpt lat="47.16776" lon="6.40814">
        <ele>767.2</ele>
        <time>2023-04-30T09:25:15Z</time>
      </trkpt>
      <trkpt lat="47.16771" lon="6.40804">
        <ele>766.2</ele>
        <time>2023-04-30T09:25:16Z</time>
      </trkpt>
      <trkpt lat="47.16764" lon="6.40794">
        <ele>765.2</ele>
        <time>2023-04-30T09:25:17Z</time>
      </trkpt>
      <trkpt lat="47.16758" lon="6.40784">
        <ele>764</ele>
        <time>2023-04-30T09:25:18Z</time>
      </trkpt>
      <trkpt lat="47.16752" lon="6.40774">
        <ele>763</ele>
        <time>2023-04-30T09:25:19Z</time>
      </trkpt>
      <trkpt lat="47.16745" lon="6.40763">
        <ele>761.8</ele>
        <time>2023-04-30T09:25:20Z</time>
      </trkpt>
      <trkpt lat="47.16739" lon="6.40752">
        <ele>760.6</ele>
        <time>2023-04-30T09:25:21Z</time>
      </trkpt>
      <trkpt lat="47.16732" lon="6.40742">
        <ele>759.6</ele>
        <time>2023-04-30T09:25:22Z</time>
      </trkpt>
      <trkpt lat="47.16726" lon="6.40732">
        <ele>758.4</ele>
        <time>2023-04-30T09:25:23Z</time>
      </trkpt>
      <trkpt lat="47.1672" lon="6.40722">
        <ele>757.2</ele>
        <time>2023-04-30T09:25:24Z</time>
      </trkpt>
      <trkpt lat="47.16715" lon="6.40713">
        <ele>756.2</ele>
        <time>2023-04-30T09:25:25Z</time>
      </trkpt>
      <trkpt lat="47.16711" lon="6.40705">
        <ele>755</ele>
        <time>2023-04-30T09:25:26Z</time>
      </trkpt>
      <trkpt lat="47.16708" lon="6.40699">
        <ele>753.8</ele>
        <time>2023-04-30T09:25:27Z</time>
      </trkpt>
      <trkpt lat="47.16704" lon="6.40695">
        <ele>752.6</ele>
        <time>2023-04-30T09:25:28Z</time>
      </trkpt>
      <trkpt lat="47.16703" lon="6.40694">
        <ele>751.6</ele>
        <time>2023-04-30T09:25:29Z</time>
      </trkpt>
      <trkpt lat="47.16701" lon="6.40694">
        <ele>750.8</ele>
        <time>2023-04-30T09:25:30Z</time>
      </trkpt>
      <trkpt lat="47.167" lon="6.40695">
        <ele>750.2</ele>
        <time>2023-04-30T09:25:31Z</time>
      </trkpt>
      <trkpt lat="47.16699" lon="6.40695">
        <ele>749.6</ele>
        <time>2023-04-30T09:25:32Z</time>
      </trkpt>
      <trkpt lat="47.16696" lon="6.40695">
        <ele>748.8</ele>
        <time>2023-04-30T09:25:34Z</time>
      </trkpt>
      <trkpt lat="47.16694" lon="6.40694">
        <ele>748.4</ele>
        <time>2023-04-30T09:25:35Z</time>
      </trkpt>
      <trkpt lat="47.16691" lon="6.40692">
        <ele>747.6</ele>
        <time>2023-04-30T09:25:37Z</time>
      </trkpt>
      <trkpt lat="47.16688" lon="6.40691">
        <ele>746.6</ele>
        <time>2023-04-30T09:25:40Z</time>
      </trkpt>
      <trkpt lat="47.16687" lon="6.40685">
        <ele>745.2</ele>
        <time>2023-04-30T09:26:02Z</time>
      </trkpt>
      <trkpt lat="47.16681" lon="6.40665">
        <ele>746</ele>
        <time>2023-04-30T09:26:07Z</time>
      </trkpt>
      <trkpt lat="47.16675" lon="6.40656">
        <ele>746.2</ele>
        <time>2023-04-30T09:26:09Z</time>
      </trkpt>
      <trkpt lat="47.16666" lon="6.40638">
        <ele>745.6</ele>
        <time>2023-04-30T09:26:12Z</time>
      </trkpt>
      <trkpt lat="47.16662" lon="6.40632">
        <ele>745.4</ele>
        <time>2023-04-30T09:26:13Z</time>
      </trkpt>
      <trkpt lat="47.16657" lon="6.40627">
        <ele>745</ele>
        <time>2023-04-30T09:26:14Z</time>
      </trkpt>
      <trkpt lat="47.16652" lon="6.40619">
        <ele>744.8</ele>
        <time>2023-04-30T09:26:16Z</time>
      </trkpt>
      <trkpt lat="47.16648" lon="6.40609">
        <ele>743.8</ele>
        <time>2023-04-30T09:26:19Z</time>
      </trkpt>
      <trkpt lat="47.16648" lon="6.40605">
        <ele>743.4</ele>
        <time>2023-04-30T09:26:20Z</time>
      </trkpt>
      <trkpt lat="47.16645" lon="6.40597">
        <ele>742.4</ele>
        <time>2023-04-30T09:26:22Z</time>
      </trkpt>
      <trkpt lat="47.16636" lon="6.40579">
        <ele>741.2</ele>
        <time>2023-04-30T09:26:25Z</time>
      </trkpt>
      <trkpt lat="47.16627" lon="6.40555">
        <ele>739.6</ele>
        <time>2023-04-30T09:26:28Z</time>
      </trkpt>
      <trkpt lat="47.16621" lon="6.40539">
        <ele>738.6</ele>
        <time>2023-04-30T09:26:30Z</time>
      </trkpt>
      <trkpt lat="47.16614" lon="6.40523">
        <ele>737.4</ele>
        <time>2023-04-30T09:26:32Z</time>
      </trkpt>
      <trkpt lat="47.16603" lon="6.40507">
        <ele>736</ele>
        <time>2023-04-30T09:26:34Z</time>
      </trkpt>
      <trkpt lat="47.16598" lon="6.405">
        <ele>735.4</ele>
        <time>2023-04-30T09:26:35Z</time>
      </trkpt>
      <trkpt lat="47.16592" lon="6.40491">
        <ele>734.8</ele>
        <time>2023-04-30T09:26:36Z</time>
      </trkpt>
      <trkpt lat="47.16582" lon="6.40474">
        <ele>733.4</ele>
        <time>2023-04-30T09:26:38Z</time>
      </trkpt>
      <trkpt lat="47.16573" lon="6.40454">
        <ele>732</ele>
        <time>2023-04-30T09:26:40Z</time>
      </trkpt>
      <trkpt lat="47.16568" lon="6.40443">
        <ele>731.4</ele>
        <time>2023-04-30T09:26:41Z</time>
      </trkpt>
      <trkpt lat="47.16564" lon="6.40433">
        <ele>730.8</ele>
        <time>2023-04-30T09:26:42Z</time>
      </trkpt>
      <trkpt lat="47.16557" lon="6.40413">
        <ele>729.4</ele>
        <time>2023-04-30T09:26:44Z</time>
      </trkpt>
      <trkpt lat="47.16549" lon="6.40394">
        <ele>728</ele>
        <time>2023-04-30T09:26:46Z</time>
      </trkpt>
      <trkpt lat="47.16542" lon="6.40373">
        <ele>726.6</ele>
        <time>2023-04-30T09:26:48Z</time>
      </trkpt>
      <trkpt lat="47.16538" lon="6.4035">
        <ele>725.2</ele>
        <time>2023-04-30T09:26:50Z</time>
      </trkpt>
      <trkpt lat="47.16535" lon="6.40328">
        <ele>723.8</ele>
        <time>2023-04-30T09:26:52Z</time>
      </trkpt>
      <trkpt lat="47.16532" lon="6.40317">
        <ele>723</ele>
        <time>2023-04-30T09:26:53Z</time>
      </trkpt>
      <trkpt lat="47.16529" lon="6.40305">
        <ele>722.2</ele>
        <time>2023-04-30T09:26:54Z</time>
      </trkpt>
      <trkpt lat="47.16523" lon="6.40284">
        <ele>721</ele>
        <time>2023-04-30T09:26:56Z</time>
      </trkpt>
      <trkpt lat="47.16517" lon="6.40261">
        <ele>719.4</ele>
        <time>2023-04-30T09:26:58Z</time>
      </trkpt>
      <trkpt lat="47.16512" lon="6.40237">
        <ele>718.2</ele>
        <time>2023-04-30T09:27:00Z</time>
      </trkpt>
      <trkpt lat="47.16511" lon="6.40224">
        <ele>717.6</ele>
        <time>2023-04-30T09:27:01Z</time>
      </trkpt>
      <trkpt lat="47.1651" lon="6.40212">
        <ele>716.8</ele>
        <time>2023-04-30T09:27:02Z</time>
      </trkpt>
      <trkpt lat="47.16508" lon="6.40187">
        <ele>715.6</ele>
        <time>2023-04-30T09:27:04Z</time>
      </trkpt>
      <trkpt lat="47.16505" lon="6.40151">
        <ele>714.2</ele>
        <time>2023-04-30T09:27:07Z</time>
      </trkpt>
      <trkpt lat="47.16505" lon="6.40129">
        <ele>713.6</ele>
        <time>2023-04-30T09:27:09Z</time>
      </trkpt>
      <trkpt lat="47.16511" lon="6.40112">
        <ele>713</ele>
        <time>2023-04-30T09:27:11Z</time>
      </trkpt>
      <trkpt lat="47.16513" lon="6.40106">
        <ele>712.8</ele>
        <time>2023-04-30T09:27:12Z</time>
      </trkpt>
      <trkpt lat="47.16514" lon="6.401">
        <ele>712.6</ele>
        <time>2023-04-30T09:27:13Z</time>
      </trkpt>
      <trkpt lat="47.16509" lon="6.40091">
        <ele>712.6</ele>
        <time>2023-04-30T09:27:15Z</time>
      </trkpt>
      <trkpt lat="47.16501" lon="6.40087">
        <ele>712</ele>
        <time>2023-04-30T09:27:17Z</time>
      </trkpt>
      <trkpt lat="47.16497" lon="6.40083">
        <ele>712</ele>
        <time>2023-04-30T09:27:18Z</time>
      </trkpt>
      <trkpt lat="47.16487" lon="6.40077">
        <ele>711.2</ele>
        <time>2023-04-30T09:27:20Z</time>
      </trkpt>
      <trkpt lat="47.16476" lon="6.40068">
        <ele>710.6</ele>
        <time>2023-04-30T09:27:22Z</time>
      </trkpt>
      <trkpt lat="47.16465" lon="6.4006">
        <ele>709.4</ele>
        <time>2023-04-30T09:27:24Z</time>
      </trkpt>
      <trkpt lat="47.16459" lon="6.40056">
        <ele>709</ele>
        <time>2023-04-30T09:27:25Z</time>
      </trkpt>
      <trkpt lat="47.16452" lon="6.40052">
        <ele>708.4</ele>
        <time>2023-04-30T09:27:26Z</time>
      </trkpt>
      <trkpt lat="47.16434" lon="6.40039">
        <ele>707</ele>
        <time>2023-04-30T09:27:29Z</time>
      </trkpt>
      <trkpt lat="47.1642" lon="6.4003">
        <ele>705.8</ele>
        <time>2023-04-30T09:27:31Z</time>
      </trkpt>
      <trkpt lat="47.16414" lon="6.40025">
        <ele>705.4</ele>
        <time>2023-04-30T09:27:32Z</time>
      </trkpt>
      <trkpt lat="47.164" lon="6.40015">
        <ele>704.4</ele>
        <time>2023-04-30T09:27:34Z</time>
      </trkpt>
      <trkpt lat="47.16382" lon="6.4">
        <ele>703.2</ele>
        <time>2023-04-30T09:27:37Z</time>
      </trkpt>
      <trkpt lat="47.1637" lon="6.3999">
        <ele>702.6</ele>
        <time>2023-04-30T09:27:39Z</time>
      </trkpt>
      <trkpt lat="47.16347" lon="6.39974">
        <ele>702.2</ele>
        <time>2023-04-30T09:27:43Z</time>
      </trkpt>
      <trkpt lat="47.16337" lon="6.39965">
        <ele>701.8</ele>
        <time>2023-04-30T09:27:45Z</time>
      </trkpt>
      <trkpt lat="47.16319" lon="6.39951">
        <ele>701.2</ele>
        <time>2023-04-30T09:27:49Z</time>
      </trkpt>
      <trkpt lat="47.1631" lon="6.39942">
        <ele>700.6</ele>
        <time>2023-04-30T09:27:51Z</time>
      </trkpt>
      <trkpt lat="47.16299" lon="6.39929">
        <ele>702.8</ele>
        <time>2023-04-30T09:27:55Z</time>
      </trkpt>
      <trkpt lat="47.16292" lon="6.39923">
        <ele>703.4</ele>
        <time>2023-04-30T09:27:57Z</time>
      </trkpt>
      <trkpt lat="47.16284" lon="6.39915">
        <ele>704</ele>
        <time>2023-04-30T09:27:59Z</time>
      </trkpt>
      <trkpt lat="47.16277" lon="6.39904">
        <ele>704.2</ele>
        <time>2023-04-30T09:28:02Z</time>
      </trkpt>
      <trkpt lat="47.16268" lon="6.39896">
        <ele>704</ele>
        <time>2023-04-30T09:28:05Z</time>
      </trkpt>
      <trkpt lat="47.16255" lon="6.39888">
        <ele>704.4</ele>
        <time>2023-04-30T09:28:09Z</time>
      </trkpt>
      <trkpt lat="47.16239" lon="6.39884">
        <ele>704.4</ele>
        <time>2023-04-30T09:28:14Z</time>
      </trkpt>
      <trkpt lat="47.16227" lon="6.39877">
        <ele>702.8</ele>
        <time>2023-04-30T09:28:19Z</time>
      </trkpt>
      <trkpt lat="47.1622" lon="6.3987">
        <ele>702.2</ele>
        <time>2023-04-30T09:28:25Z</time>
      </trkpt>
      <trkpt lat="47.16209" lon="6.39859">
        <ele>702</ele>
        <time>2023-04-30T09:28:34Z</time>
      </trkpt>
      <trkpt lat="47.16204" lon="6.39853">
        <ele>703</ele>
        <time>2023-04-30T09:28:40Z</time>
      </trkpt>
      <trkpt lat="47.16199" lon="6.39849">
        <ele>704.2</ele>
        <time>2023-04-30T09:28:44Z</time>
      </trkpt>
      <trkpt lat="47.16195" lon="6.39846">
        <ele>704.6</ele>
        <time>2023-04-30T09:28:47Z</time>
      </trkpt>
      <trkpt lat="47.16189" lon="6.39844">
        <ele>706</ele>
        <time>2023-04-30T09:28:50Z</time>
      </trkpt>
      <trkpt lat="47.16186" lon="6.39843">
        <ele>707.2</ele>
        <time>2023-04-30T09:28:52Z</time>
      </trkpt>
      <trkpt lat="47.16183" lon="6.39842">
        <ele>708.2</ele>
        <time>2023-04-30T09:28:54Z</time>
      </trkpt>
      <trkpt lat="47.16182" lon="6.39841">
        <ele>708.6</ele>
        <time>2023-04-30T09:28:55Z</time>
      </trkpt>
      <trkpt lat="47.16171" lon="6.39837">
        <ele>709.6</ele>
        <time>2023-04-30T09:29:00Z</time>
      </trkpt>
      <trkpt lat="47.16169" lon="6.39837">
        <ele>710.2</ele>
        <time>2023-04-30T09:29:01Z</time>
      </trkpt>
      <trkpt lat="47.16163" lon="6.39835">
        <ele>711</ele>
        <time>2023-04-30T09:29:03Z</time>
      </trkpt>
      <trkpt lat="47.16159" lon="6.39832">
        <ele>712.4</ele>
        <time>2023-04-30T09:29:05Z</time>
      </trkpt>
      <trkpt lat="47.16157" lon="6.3983">
        <ele>714</ele>
        <time>2023-04-30T09:29:06Z</time>
      </trkpt>
      <trkpt lat="47.16153" lon="6.39827">
        <ele>715.8</ele>
        <time>2023-04-30T09:29:07Z</time>
      </trkpt>
      <trkpt lat="47.16149" lon="6.39825">
        <ele>717.2</ele>
        <time>2023-04-30T09:29:08Z</time>
      </trkpt>
      <trkpt lat="47.16147" lon="6.39823">
        <ele>719</ele>
        <time>2023-04-30T09:29:09Z</time>
      </trkpt>
      <trkpt lat="47.16144" lon="6.39822">
        <ele>720.8</ele>
        <time>2023-04-30T09:29:10Z</time>
      </trkpt>
      <trkpt lat="47.16141" lon="6.3982">
        <ele>722</ele>
        <time>2023-04-30T09:29:11Z</time>
      </trkpt>
      <trkpt lat="47.16135" lon="6.39816">
        <ele>724.4</ele>
        <time>2023-04-30T09:29:13Z</time>
      </trkpt>
      <trkpt lat="47.16133" lon="6.39814">
        <ele>725.4</ele>
        <time>2023-04-30T09:29:14Z</time>
      </trkpt>
      <trkpt lat="47.1613" lon="6.3981">
        <ele>727</ele>
        <time>2023-04-30T09:29:16Z</time>
      </trkpt>
      <trkpt lat="47.16123" lon="6.39803">
        <ele>728.8</ele>
        <time>2023-04-30T09:29:19Z</time>
      </trkpt>
      <trkpt lat="47.16121" lon="6.39799">
        <ele>729.2</ele>
        <time>2023-04-30T09:29:20Z</time>
      </trkpt>
      <trkpt lat="47.16119" lon="6.39798">
        <ele>729.6</ele>
        <time>2023-04-30T09:29:21Z</time>
      </trkpt>
      <trkpt lat="47.16116" lon="6.39796">
        <ele>730</ele>
        <time>2023-04-30T09:29:22Z</time>
      </trkpt>
      <trkpt lat="47.16111" lon="6.39791">
        <ele>730.2</ele>
        <time>2023-04-30T09:29:24Z</time>
      </trkpt>
      <trkpt lat="47.16102" lon="6.39784">
        <ele>729</ele>
        <time>2023-04-30T09:29:28Z</time>
      </trkpt>
      <trkpt lat="47.16098" lon="6.39781">
        <ele>728</ele>
        <time>2023-04-30T09:29:30Z</time>
      </trkpt>
      <trkpt lat="47.16097" lon="6.3978">
        <ele>727.8</ele>
        <time>2023-04-30T09:29:31Z</time>
      </trkpt>
      <trkpt lat="47.16089" lon="6.3977">
        <ele>727.4</ele>
        <time>2023-04-30T09:29:36Z</time>
      </trkpt>
      <trkpt lat="47.16081" lon="6.39763">
        <ele>728.8</ele>
        <time>2023-04-30T09:29:39Z</time>
      </trkpt>
      <trkpt lat="47.16075" lon="6.39755">
        <ele>730.4</ele>
        <time>2023-04-30T09:29:42Z</time>
      </trkpt>
      <trkpt lat="47.16069" lon="6.39744">
        <ele>731.4</ele>
        <time>2023-04-30T09:29:46Z</time>
      </trkpt>
      <trkpt lat="47.16067" lon="6.39741">
        <ele>731.6</ele>
        <time>2023-04-30T09:29:47Z</time>
      </trkpt>
      <trkpt lat="47.1606" lon="6.39723">
        <ele>731.4</ele>
        <time>2023-04-30T09:29:53Z</time>
      </trkpt>
      <trkpt lat="47.16066" lon="6.39712">
        <ele>731.6</ele>
        <time>2023-04-30T09:30:01Z</time>
      </trkpt>
      <trkpt lat="47.16067" lon="6.39708">
        <ele>731.6</ele>
        <time>2023-04-30T09:30:03Z</time>
      </trkpt>
      <trkpt lat="47.16067" lon="6.39705">
        <ele>731.4</ele>
        <time>2023-04-30T09:30:04Z</time>
      </trkpt>
      <trkpt lat="47.16063" lon="6.39702">
        <ele>731.8</ele>
        <time>2023-04-30T09:30:07Z</time>
      </trkpt>
      <trkpt lat="47.16056" lon="6.39703">
        <ele>731.8</ele>
        <time>2023-04-30T09:30:11Z</time>
      </trkpt>
      <trkpt lat="47.16053" lon="6.39703">
        <ele>731.8</ele>
        <time>2023-04-30T09:30:13Z</time>
      </trkpt>
      <trkpt lat="47.16038" lon="6.39701">
        <ele>731.8</ele>
        <time>2023-04-30T09:30:20Z</time>
      </trkpt>
      <trkpt lat="47.16022" lon="6.39689">
        <ele>731.4</ele>
        <time>2023-04-30T09:30:26Z</time>
      </trkpt>
      <trkpt lat="47.16002" lon="6.39669">
        <ele>730.4</ele>
        <time>2023-04-30T09:30:31Z</time>
      </trkpt>
      <trkpt lat="47.15996" lon="6.39663">
        <ele>730.4</ele>
        <time>2023-04-30T09:30:32Z</time>
      </trkpt>
      <trkpt lat="47.15983" lon="6.39649">
        <ele>729</ele>
        <time>2023-04-30T09:30:35Z</time>
      </trkpt>
      <trkpt lat="47.15974" lon="6.39641">
        <ele>728.2</ele>
        <time>2023-04-30T09:30:37Z</time>
      </trkpt>
      <trkpt lat="47.1597" lon="6.39638">
        <ele>727.8</ele>
        <time>2023-04-30T09:30:38Z</time>
      </trkpt>
      <trkpt lat="47.15961" lon="6.39631">
        <ele>726.4</ele>
        <time>2023-04-30T09:30:41Z</time>
      </trkpt>
      <trkpt lat="47.15958" lon="6.39629">
        <ele>725.8</ele>
        <time>2023-04-30T09:30:42Z</time>
      </trkpt>
      <trkpt lat="47.15954" lon="6.39624">
        <ele>725</ele>
        <time>2023-04-30T09:30:44Z</time>
      </trkpt>
      <trkpt lat="47.15946" lon="6.39619">
        <ele>723.4</ele>
        <time>2023-04-30T09:30:47Z</time>
      </trkpt>
      <trkpt lat="47.15944" lon="6.39616">
        <ele>723.2</ele>
        <time>2023-04-30T09:30:48Z</time>
      </trkpt>
      <trkpt lat="47.1594" lon="6.39611">
        <ele>722.4</ele>
        <time>2023-04-30T09:30:50Z</time>
      </trkpt>
      <trkpt lat="47.15931" lon="6.39601">
        <ele>722.4</ele>
        <time>2023-04-30T09:30:55Z</time>
      </trkpt>
      <trkpt lat="47.15915" lon="6.39585">
        <ele>722.8</ele>
        <time>2023-04-30T09:31:03Z</time>
      </trkpt>
      <trkpt lat="47.15911" lon="6.39581">
        <ele>723.6</ele>
        <time>2023-04-30T09:31:05Z</time>
      </trkpt>
      <trkpt lat="47.15902" lon="6.39568">
        <ele>724.6</ele>
        <time>2023-04-30T09:31:10Z</time>
      </trkpt>
      <trkpt lat="47.15899" lon="6.39564">
        <ele>724.8</ele>
        <time>2023-04-30T09:31:12Z</time>
      </trkpt>
      <trkpt lat="47.15896" lon="6.3956">
        <ele>725.8</ele>
        <time>2023-04-30T09:31:14Z</time>
      </trkpt>
      <trkpt lat="47.15892" lon="6.39555">
        <ele>727</ele>
        <time>2023-04-30T09:31:17Z</time>
      </trkpt>
      <trkpt lat="47.15889" lon="6.39552">
        <ele>728.2</ele>
        <time>2023-04-30T09:31:19Z</time>
      </trkpt>
      <trkpt lat="47.15888" lon="6.3955">
        <ele>728.8</ele>
        <time>2023-04-30T09:31:20Z</time>
      </trkpt>
      <trkpt lat="47.15888" lon="6.39548">
        <ele>729.4</ele>
        <time>2023-04-30T09:31:21Z</time>
      </trkpt>
      <trkpt lat="47.15884" lon="6.39543">
        <ele>730.8</ele>
        <time>2023-04-30T09:31:24Z</time>
      </trkpt>
      <trkpt lat="47.15881" lon="6.39541">
        <ele>731.4</ele>
        <time>2023-04-30T09:31:26Z</time>
      </trkpt>
      <trkpt lat="47.15879" lon="6.39539">
        <ele>732</ele>
        <time>2023-04-30T09:31:27Z</time>
      </trkpt>
      <trkpt lat="47.15873" lon="6.39535">
        <ele>733.2</ele>
        <time>2023-04-30T09:31:31Z</time>
      </trkpt>
      <trkpt lat="47.1587" lon="6.39533">
        <ele>734.2</ele>
        <time>2023-04-30T09:31:33Z</time>
      </trkpt>
      <trkpt lat="47.15867" lon="6.39531">
        <ele>734.8</ele>
        <time>2023-04-30T09:31:35Z</time>
      </trkpt>
      <trkpt lat="47.15863" lon="6.39527">
        <ele>736.2</ele>
        <time>2023-04-30T09:31:37Z</time>
      </trkpt>
      <trkpt lat="47.1586" lon="6.39525">
        <ele>738</ele>
        <time>2023-04-30T09:31:38Z</time>
      </trkpt>
      <trkpt lat="47.15858" lon="6.39523">
        <ele>740</ele>
        <time>2023-04-30T09:31:39Z</time>
      </trkpt>
      <trkpt lat="47.15855" lon="6.39522">
        <ele>741.2</ele>
        <time>2023-04-30T09:31:40Z</time>
      </trkpt>
      <trkpt lat="47.15853" lon="6.39521">
        <ele>742.4</ele>
        <time>2023-04-30T09:31:41Z</time>
      </trkpt>
      <trkpt lat="47.15851" lon="6.3952">
        <ele>743.4</ele>
        <time>2023-04-30T09:31:42Z</time>
      </trkpt>
      <trkpt lat="47.1585" lon="6.39519">
        <ele>743.8</ele>
        <time>2023-04-30T09:31:43Z</time>
      </trkpt>
      <trkpt lat="47.15848" lon="6.39517">
        <ele>745.2</ele>
        <time>2023-04-30T09:31:45Z</time>
      </trkpt>
      <trkpt lat="47.15843" lon="6.39514">
        <ele>746.4</ele>
        <time>2023-04-30T09:31:48Z</time>
      </trkpt>
      <trkpt lat="47.15838" lon="6.39511">
        <ele>748.2</ele>
        <time>2023-04-30T09:31:50Z</time>
      </trkpt>
      <trkpt lat="47.15836" lon="6.3951">
        <ele>748.8</ele>
        <time>2023-04-30T09:31:51Z</time>
      </trkpt>
      <trkpt lat="47.15833" lon="6.39508">
        <ele>749.6</ele>
        <time>2023-04-30T09:31:52Z</time>
      </trkpt>
      <trkpt lat="47.15826" lon="6.39504">
        <ele>751.2</ele>
        <time>2023-04-30T09:31:55Z</time>
      </trkpt>
      <trkpt lat="47.15817" lon="6.39498">
        <ele>752.6</ele>
        <time>2023-04-30T09:31:59Z</time>
      </trkpt>
      <trkpt lat="47.15809" lon="6.39494">
        <ele>753.8</ele>
        <time>2023-04-30T09:32:02Z</time>
      </trkpt>
      <trkpt lat="47.15804" lon="6.39491">
        <ele>754.8</ele>
        <time>2023-04-30T09:32:04Z</time>
      </trkpt>
      <trkpt lat="47.15798" lon="6.39488">
        <ele>756</ele>
        <time>2023-04-30T09:32:06Z</time>
      </trkpt>
      <trkpt lat="47.15796" lon="6.39487">
        <ele>756.4</ele>
        <time>2023-04-30T09:32:07Z</time>
      </trkpt>
      <trkpt lat="47.15792" lon="6.39485">
        <ele>757.2</ele>
        <time>2023-04-30T09:32:09Z</time>
      </trkpt>
      <trkpt lat="47.15782" lon="6.3948">
        <ele>758</ele>
        <time>2023-04-30T09:32:14Z</time>
      </trkpt>
      <trkpt lat="47.15778" lon="6.39477">
        <ele>758.2</ele>
        <time>2023-04-30T09:32:16Z</time>
      </trkpt>
      <trkpt lat="47.15772" lon="6.39473">
        <ele>759.4</ele>
        <time>2023-04-30T09:32:19Z</time>
      </trkpt>
      <trkpt lat="47.15767" lon="6.39471">
        <ele>760.8</ele>
        <time>2023-04-30T09:32:21Z</time>
      </trkpt>
      <trkpt lat="47.15762" lon="6.39468">
        <ele>762</ele>
        <time>2023-04-30T09:32:23Z</time>
      </trkpt>
      <trkpt lat="47.15759" lon="6.39467">
        <ele>762.2</ele>
        <time>2023-04-30T09:32:24Z</time>
      </trkpt>
      <trkpt lat="47.15748" lon="6.39459">
        <ele>763</ele>
        <time>2023-04-30T09:32:29Z</time>
      </trkpt>
      <trkpt lat="47.15742" lon="6.39454">
        <ele>764.2</ele>
        <time>2023-04-30T09:32:32Z</time>
      </trkpt>
      <trkpt lat="47.15734" lon="6.3945">
        <ele>765.2</ele>
        <time>2023-04-30T09:32:35Z</time>
      </trkpt>
      <trkpt lat="47.15723" lon="6.39443">
        <ele>765.4</ele>
        <time>2023-04-30T09:32:39Z</time>
      </trkpt>
      <trkpt lat="47.15701" lon="6.39429">
        <ele>764.8</ele>
        <time>2023-04-30T09:32:47Z</time>
      </trkpt>
      <trkpt lat="47.15693" lon="6.39423">
        <ele>764</ele>
        <time>2023-04-30T09:32:50Z</time>
      </trkpt>
      <trkpt lat="47.15682" lon="6.39414">
        <ele>763.6</ele>
        <time>2023-04-30T09:32:54Z</time>
      </trkpt>
      <trkpt lat="47.15672" lon="6.39405">
        <ele>763</ele>
        <time>2023-04-30T09:32:58Z</time>
      </trkpt>
      <trkpt lat="47.15665" lon="6.394">
        <ele>761.8</ele>
        <time>2023-04-30T09:33:01Z</time>
      </trkpt>
      <trkpt lat="47.15655" lon="6.39392">
        <ele>760.8</ele>
        <time>2023-04-30T09:33:05Z</time>
      </trkpt>
      <trkpt lat="47.15646" lon="6.39386">
        <ele>759.4</ele>
        <time>2023-04-30T09:33:08Z</time>
      </trkpt>
      <trkpt lat="47.1564" lon="6.39382">
        <ele>758.2</ele>
        <time>2023-04-30T09:33:10Z</time>
      </trkpt>
      <trkpt lat="47.15632" lon="6.39375">
        <ele>756.8</ele>
        <time>2023-04-30T09:33:13Z</time>
      </trkpt>
      <trkpt lat="47.1563" lon="6.39373">
        <ele>756.8</ele>
        <time>2023-04-30T09:33:14Z</time>
      </trkpt>
      <trkpt lat="47.15617" lon="6.39362">
        <ele>755.8</ele>
        <time>2023-04-30T09:33:19Z</time>
      </trkpt>
      <trkpt lat="47.15613" lon="6.3936">
        <ele>755.6</ele>
        <time>2023-04-30T09:33:20Z</time>
      </trkpt>
      <trkpt lat="47.15604" lon="6.39354">
        <ele>754.6</ele>
        <time>2023-04-30T09:33:23Z</time>
      </trkpt>
      <trkpt lat="47.15586" lon="6.39341">
        <ele>754</ele>
        <time>2023-04-30T09:33:28Z</time>
      </trkpt>
      <trkpt lat="47.15578" lon="6.39336">
        <ele>753.6</ele>
        <time>2023-04-30T09:33:30Z</time>
      </trkpt>
      <trkpt lat="47.15562" lon="6.39324">
        <ele>752.8</ele>
        <time>2023-04-30T09:33:35Z</time>
      </trkpt>
      <trkpt lat="47.15559" lon="6.39322">
        <ele>752.4</ele>
        <time>2023-04-30T09:33:36Z</time>
      </trkpt>
      <trkpt lat="47.15546" lon="6.39311">
        <ele>751.4</ele>
        <time>2023-04-30T09:33:41Z</time>
      </trkpt>
      <trkpt lat="47.1554" lon="6.39307">
        <ele>751.4</ele>
        <time>2023-04-30T09:33:43Z</time>
      </trkpt>
      <trkpt lat="47.15524" lon="6.39294">
        <ele>751.8</ele>
        <time>2023-04-30T09:33:49Z</time>
      </trkpt>
      <trkpt lat="47.15515" lon="6.39287">
        <ele>752.4</ele>
        <time>2023-04-30T09:33:53Z</time>
      </trkpt>
      <trkpt lat="47.15511" lon="6.39284">
        <ele>753</ele>
        <time>2023-04-30T09:33:55Z</time>
      </trkpt>
      <trkpt lat="47.15507" lon="6.39281">
        <ele>753.6</ele>
        <time>2023-04-30T09:33:57Z</time>
      </trkpt>
      <trkpt lat="47.15499" lon="6.39275">
        <ele>754.2</ele>
        <time>2023-04-30T09:34:03Z</time>
      </trkpt>
      <trkpt lat="47.155" lon="6.39266">
        <ele>755.6</ele>
        <time>2023-04-30T09:34:57Z</time>
      </trkpt>
      <trkpt lat="47.15502" lon="6.39262">
        <ele>755.8</ele>
        <time>2023-04-30T09:34:58Z</time>
      </trkpt>
      <trkpt lat="47.15517" lon="6.39237">
        <ele>755.4</ele>
        <time>2023-04-30T09:35:02Z</time>
      </trkpt>
      <trkpt lat="47.15526" lon="6.39214">
        <ele>754.4</ele>
        <time>2023-04-30T09:35:05Z</time>
      </trkpt>
      <trkpt lat="47.15532" lon="6.39202">
        <ele>754.2</ele>
        <time>2023-04-30T09:35:07Z</time>
      </trkpt>
      <trkpt lat="47.15542" lon="6.39179">
        <ele>753.4</ele>
        <time>2023-04-30T09:35:12Z</time>
      </trkpt>
      <trkpt lat="47.15544" lon="6.39176">
        <ele>753.2</ele>
        <time>2023-04-30T09:35:13Z</time>
      </trkpt>
      <trkpt lat="47.15554" lon="6.3916">
        <ele>751.8</ele>
        <time>2023-04-30T09:35:17Z</time>
      </trkpt>
      <trkpt lat="47.15555" lon="6.39157">
        <ele>751.6</ele>
        <time>2023-04-30T09:35:18Z</time>
      </trkpt>
      <trkpt lat="47.15562" lon="6.39147">
        <ele>750.8</ele>
        <time>2023-04-30T09:35:21Z</time>
      </trkpt>
      <trkpt lat="47.15568" lon="6.39136">
        <ele>749.8</ele>
        <time>2023-04-30T09:35:24Z</time>
      </trkpt>
      <trkpt lat="47.1557" lon="6.39132">
        <ele>749.6</ele>
        <time>2023-04-30T09:35:25Z</time>
      </trkpt>
      <trkpt lat="47.15575" lon="6.39118">
        <ele>748.2</ele>
        <time>2023-04-30T09:35:29Z</time>
      </trkpt>
      <trkpt lat="47.15582" lon="6.39102">
        <ele>747.2</ele>
        <time>2023-04-30T09:35:34Z</time>
      </trkpt>
      <trkpt lat="47.15584" lon="6.391">
        <ele>746.8</ele>
        <time>2023-04-30T09:35:35Z</time>
      </trkpt>
      <trkpt lat="47.15589" lon="6.39092">
        <ele>745.8</ele>
        <time>2023-04-30T09:35:38Z</time>
      </trkpt>
      <trkpt lat="47.15592" lon="6.39082">
        <ele>745</ele>
        <time>2023-04-30T09:35:41Z</time>
      </trkpt>
      <trkpt lat="47.15593" lon="6.39079">
        <ele>744.8</ele>
        <time>2023-04-30T09:35:42Z</time>
      </trkpt>
      <trkpt lat="47.15599" lon="6.39062">
        <ele>743.4</ele>
        <time>2023-04-30T09:35:46Z</time>
      </trkpt>
      <trkpt lat="47.15601" lon="6.39058">
        <ele>742.8</ele>
        <time>2023-04-30T09:35:47Z</time>
      </trkpt>
      <trkpt lat="47.15604" lon="6.3905">
        <ele>742.2</ele>
        <time>2023-04-30T09:35:49Z</time>
      </trkpt>
      <trkpt lat="47.15609" lon="6.39041">
        <ele>741</ele>
        <time>2023-04-30T09:35:53Z</time>
      </trkpt>
      <trkpt lat="47.1561" lon="6.39037">
        <ele>740.4</ele>
        <time>2023-04-30T09:35:54Z</time>
      </trkpt>
      <trkpt lat="47.1561" lon="6.39033">
        <ele>740</ele>
        <time>2023-04-30T09:35:55Z</time>
      </trkpt>
      <trkpt lat="47.1561" lon="6.39027">
        <ele>738.8</ele>
        <time>2023-04-30T09:35:57Z</time>
      </trkpt>
      <trkpt lat="47.15608" lon="6.39022">
        <ele>738.4</ele>
        <time>2023-04-30T09:35:58Z</time>
      </trkpt>
      <trkpt lat="47.15605" lon="6.39018">
        <ele>738</ele>
        <time>2023-04-30T09:35:59Z</time>
      </trkpt>
      <trkpt lat="47.15604" lon="6.39014">
        <ele>737.6</ele>
        <time>2023-04-30T09:36:00Z</time>
      </trkpt>
      <trkpt lat="47.15601" lon="6.39008">
        <ele>736.4</ele>
        <time>2023-04-30T09:36:02Z</time>
      </trkpt>
      <trkpt lat="47.15596" lon="6.39">
        <ele>735.2</ele>
        <time>2023-04-30T09:36:06Z</time>
      </trkpt>
      <trkpt lat="47.15587" lon="6.38984">
        <ele>734.4</ele>
        <time>2023-04-30T09:36:13Z</time>
      </trkpt>
      <trkpt lat="47.15581" lon="6.38977">
        <ele>734</ele>
        <time>2023-04-30T09:36:16Z</time>
      </trkpt>
      <trkpt lat="47.15576" lon="6.3897">
        <ele>733.2</ele>
        <time>2023-04-30T09:36:19Z</time>
      </trkpt>
      <trkpt lat="47.15565" lon="6.38956">
        <ele>732.8</ele>
        <time>2023-04-30T09:36:24Z</time>
      </trkpt>
      <trkpt lat="47.15553" lon="6.38941">
        <ele>731.8</ele>
        <time>2023-04-30T09:36:30Z</time>
      </trkpt>
      <trkpt lat="47.15551" lon="6.38939">
        <ele>731.4</ele>
        <time>2023-04-30T09:36:31Z</time>
      </trkpt>
      <trkpt lat="47.15546" lon="6.38932">
        <ele>730.2</ele>
        <time>2023-04-30T09:36:34Z</time>
      </trkpt>
      <trkpt lat="47.1554" lon="6.38924">
        <ele>729.2</ele>
        <time>2023-04-30T09:36:37Z</time>
      </trkpt>
      <trkpt lat="47.15523" lon="6.38899">
        <ele>728.4</ele>
        <time>2023-04-30T09:36:44Z</time>
      </trkpt>
      <trkpt lat="47.1552" lon="6.38894">
        <ele>728.2</ele>
        <time>2023-04-30T09:36:46Z</time>
      </trkpt>
      <trkpt lat="47.15517" lon="6.3889">
        <ele>728</ele>
        <time>2023-04-30T09:36:48Z</time>
      </trkpt>
      <trkpt lat="47.15509" lon="6.38883">
        <ele>729</ele>
        <time>2023-04-30T09:36:54Z</time>
      </trkpt>
      <trkpt lat="47.15507" lon="6.38884">
        <ele>729</ele>
        <time>2023-04-30T09:36:55Z</time>
      </trkpt>
      <trkpt lat="47.15504" lon="6.38891">
        <ele>729</ele>
        <time>2023-04-30T09:36:59Z</time>
      </trkpt>
      <trkpt lat="47.15502" lon="6.38895">
        <ele>729</ele>
        <time>2023-04-30T09:37:02Z</time>
      </trkpt>
      <trkpt lat="47.15496" lon="6.38911">
        <ele>729.8</ele>
        <time>2023-04-30T09:37:11Z</time>
      </trkpt>
      <trkpt lat="47.15495" lon="6.38913">
        <ele>730</ele>
        <time>2023-04-30T09:37:12Z</time>
      </trkpt>
      <trkpt lat="47.15493" lon="6.38918">
        <ele>730.2</ele>
        <time>2023-04-30T09:37:15Z</time>
      </trkpt>
      <trkpt lat="47.15483" lon="6.38938">
        <ele>732.6</ele>
        <time>2023-04-30T09:37:29Z</time>
      </trkpt>
      <trkpt lat="47.1548" lon="6.38945">
        <ele>732.6</ele>
        <time>2023-04-30T09:37:32Z</time>
      </trkpt>
      <trkpt lat="47.15458" lon="6.38978">
        <ele>735.2</ele>
        <time>2023-04-30T09:38:03Z</time>
      </trkpt>
      <trkpt lat="47.15455" lon="6.38975">
        <ele>735.4</ele>
        <time>2023-04-30T09:38:04Z</time>
      </trkpt>
      <trkpt lat="47.15448" lon="6.38966">
        <ele>735.8</ele>
        <time>2023-04-30T09:38:07Z</time>
      </trkpt>
      <trkpt lat="47.15439" lon="6.38955">
        <ele>735.6</ele>
        <time>2023-04-30T09:38:10Z</time>
      </trkpt>
      <trkpt lat="47.1542" lon="6.3893">
        <ele>734.6</ele>
        <time>2023-04-30T09:38:16Z</time>
      </trkpt>
      <trkpt lat="47.15412" lon="6.38914">
        <ele>734</ele>
        <time>2023-04-30T09:38:19Z</time>
      </trkpt>
      <trkpt lat="47.15405" lon="6.38904">
        <ele>733.8</ele>
        <time>2023-04-30T09:38:21Z</time>
      </trkpt>
      <trkpt lat="47.15395" lon="6.38889">
        <ele>732.8</ele>
        <time>2023-04-30T09:38:24Z</time>
      </trkpt>
      <trkpt lat="47.15385" lon="6.38873">
        <ele>731.8</ele>
        <time>2023-04-30T09:38:27Z</time>
      </trkpt>
      <trkpt lat="47.15381" lon="6.38867">
        <ele>731.4</ele>
        <time>2023-04-30T09:38:28Z</time>
      </trkpt>
      <trkpt lat="47.15374" lon="6.38856">
        <ele>730.2</ele>
        <time>2023-04-30T09:38:30Z</time>
      </trkpt>
      <trkpt lat="47.15366" lon="6.38845">
        <ele>729.6</ele>
        <time>2023-04-30T09:38:33Z</time>
      </trkpt>
      <trkpt lat="47.15364" lon="6.38841">
        <ele>729.2</ele>
        <time>2023-04-30T09:38:34Z</time>
      </trkpt>
      <trkpt lat="47.15357" lon="6.38827">
        <ele>727.8</ele>
        <time>2023-04-30T09:38:37Z</time>
      </trkpt>
      <trkpt lat="47.15355" lon="6.38824">
        <ele>727.4</ele>
        <time>2023-04-30T09:38:38Z</time>
      </trkpt>
      <trkpt lat="47.15354" lon="6.3882">
        <ele>726.4</ele>
        <time>2023-04-30T09:38:40Z</time>
      </trkpt>
      <trkpt lat="47.15353" lon="6.38819">
        <ele>726</ele>
        <time>2023-04-30T09:38:41Z</time>
      </trkpt>
      <trkpt lat="47.15346" lon="6.38809">
        <ele>725.2</ele>
        <time>2023-04-30T09:38:44Z</time>
      </trkpt>
      <trkpt lat="47.15343" lon="6.38804">
        <ele>724.8</ele>
        <time>2023-04-30T09:38:45Z</time>
      </trkpt>
      <trkpt lat="47.1534" lon="6.388">
        <ele>724</ele>
        <time>2023-04-30T09:38:46Z</time>
      </trkpt>
      <trkpt lat="47.15328" lon="6.38785">
        <ele>722.6</ele>
        <time>2023-04-30T09:38:50Z</time>
      </trkpt>
      <trkpt lat="47.15326" lon="6.38784">
        <ele>722</ele>
        <time>2023-04-30T09:38:51Z</time>
      </trkpt>
      <trkpt lat="47.15326" lon="6.38782">
        <ele>721.4</ele>
        <time>2023-04-30T09:38:52Z</time>
      </trkpt>
      <trkpt lat="47.15321" lon="6.38775">
        <ele>720.4</ele>
        <time>2023-04-30T09:38:55Z</time>
      </trkpt>
      <trkpt lat="47.15319" lon="6.38773">
        <ele>720.2</ele>
        <time>2023-04-30T09:38:56Z</time>
      </trkpt>
      <trkpt lat="47.15315" lon="6.38768">
        <ele>719.2</ele>
        <time>2023-04-30T09:38:58Z</time>
      </trkpt>
      <trkpt lat="47.15311" lon="6.38764">
        <ele>717.6</ele>
        <time>2023-04-30T09:39:00Z</time>
      </trkpt>
      <trkpt lat="47.15308" lon="6.3876">
        <ele>717.4</ele>
        <time>2023-04-30T09:39:02Z</time>
      </trkpt>
      <trkpt lat="47.15305" lon="6.38755">
        <ele>716.4</ele>
        <time>2023-04-30T09:39:04Z</time>
      </trkpt>
      <trkpt lat="47.15297" lon="6.38748">
        <ele>715.4</ele>
        <time>2023-04-30T09:39:08Z</time>
      </trkpt>
      <trkpt lat="47.15296" lon="6.38747">
        <ele>714.8</ele>
        <time>2023-04-30T09:39:09Z</time>
      </trkpt>
      <trkpt lat="47.15292" lon="6.38743">
        <ele>714</ele>
        <time>2023-04-30T09:39:12Z</time>
      </trkpt>
      <trkpt lat="47.15289" lon="6.38739">
        <ele>713.6</ele>
        <time>2023-04-30T09:39:15Z</time>
      </trkpt>
      <trkpt lat="47.15284" lon="6.38732">
        <ele>712.8</ele>
        <time>2023-04-30T09:39:18Z</time>
      </trkpt>
      <trkpt lat="47.15281" lon="6.38729">
        <ele>712.4</ele>
        <time>2023-04-30T09:39:21Z</time>
      </trkpt>
      <trkpt lat="47.15276" lon="6.38726">
        <ele>711.6</ele>
        <time>2023-04-30T09:39:24Z</time>
      </trkpt>
      <trkpt lat="47.15273" lon="6.38715">
        <ele>708.4</ele>
        <time>2023-04-30T09:39:40Z</time>
      </trkpt>
      <trkpt lat="47.15277" lon="6.38712">
        <ele>707</ele>
        <time>2023-04-30T09:39:44Z</time>
      </trkpt>
      <trkpt lat="47.15278" lon="6.3871">
        <ele>706.4</ele>
        <time>2023-04-30T09:39:45Z</time>
      </trkpt>
      <trkpt lat="47.15284" lon="6.38704">
        <ele>705.6</ele>
        <time>2023-04-30T09:39:47Z</time>
      </trkpt>
      <trkpt lat="47.15289" lon="6.38699">
        <ele>705</ele>
        <time>2023-04-30T09:39:48Z</time>
      </trkpt>
      <trkpt lat="47.15294" lon="6.38693">
        <ele>704.4</ele>
        <time>2023-04-30T09:39:49Z</time>
      </trkpt>
      <trkpt lat="47.15299" lon="6.38688">
        <ele>703.8</ele>
        <time>2023-04-30T09:39:50Z</time>
      </trkpt>
      <trkpt lat="47.15303" lon="6.38682">
        <ele>703.2</ele>
        <time>2023-04-30T09:39:51Z</time>
      </trkpt>
      <trkpt lat="47.1531" lon="6.38672">
        <ele>702</ele>
        <time>2023-04-30T09:39:53Z</time>
      </trkpt>
      <trkpt lat="47.15317" lon="6.38656">
        <ele>700.8</ele>
        <time>2023-04-30T09:39:56Z</time>
      </trkpt>
      <trkpt lat="47.15324" lon="6.38644">
        <ele>699.8</ele>
        <time>2023-04-30T09:39:58Z</time>
      </trkpt>
      <trkpt lat="47.15328" lon="6.38638">
        <ele>698.6</ele>
        <time>2023-04-30T09:39:59Z</time>
      </trkpt>
      <trkpt lat="47.15341" lon="6.3862">
        <ele>697.2</ele>
        <time>2023-04-30T09:40:02Z</time>
      </trkpt>
      <trkpt lat="47.15348" lon="6.3861">
        <ele>696.4</ele>
        <time>2023-04-30T09:40:04Z</time>
      </trkpt>
      <trkpt lat="47.15351" lon="6.38606">
        <ele>696</ele>
        <time>2023-04-30T09:40:05Z</time>
      </trkpt>
      <trkpt lat="47.15358" lon="6.38595">
        <ele>694.8</ele>
        <time>2023-04-30T09:40:07Z</time>
      </trkpt>
      <trkpt lat="47.15362" lon="6.38584">
        <ele>694.2</ele>
        <time>2023-04-30T09:40:09Z</time>
      </trkpt>
      <trkpt lat="47.15361" lon="6.38576">
        <ele>693</ele>
        <time>2023-04-30T09:40:10Z</time>
      </trkpt>
      <trkpt lat="47.15356" lon="6.38565">
        <ele>692.6</ele>
        <time>2023-04-30T09:40:12Z</time>
      </trkpt>
      <trkpt lat="47.15336" lon="6.38524">
        <ele>692.8</ele>
        <time>2023-04-30T09:40:17Z</time>
      </trkpt>
      <trkpt lat="47.15309" lon="6.38481">
        <ele>691.8</ele>
        <time>2023-04-30T09:40:24Z</time>
      </trkpt>
      <trkpt lat="47.15304" lon="6.38474">
        <ele>691.6</ele>
        <time>2023-04-30T09:40:25Z</time>
      </trkpt>
      <trkpt lat="47.15272" lon="6.38427">
        <ele>691.8</ele>
        <time>2023-04-30T09:40:33Z</time>
      </trkpt>
      <trkpt lat="47.15259" lon="6.38406">
        <ele>693</ele>
        <time>2023-04-30T09:40:37Z</time>
      </trkpt>
      <trkpt lat="47.15254" lon="6.38397">
        <ele>693.6</ele>
        <time>2023-04-30T09:40:39Z</time>
      </trkpt>
      <trkpt lat="47.15249" lon="6.38389">
        <ele>694.2</ele>
        <time>2023-04-30T09:40:41Z</time>
      </trkpt>
      <trkpt lat="47.15247" lon="6.38383">
        <ele>694.6</ele>
        <time>2023-04-30T09:40:42Z</time>
      </trkpt>
      <trkpt lat="47.15243" lon="6.38371">
        <ele>694.2</ele>
        <time>2023-04-30T09:40:44Z</time>
      </trkpt>
      <trkpt lat="47.15248" lon="6.3835">
        <ele>693.4</ele>
        <time>2023-04-30T09:40:47Z</time>
      </trkpt>
      <trkpt lat="47.15258" lon="6.38338">
        <ele>693.2</ele>
        <time>2023-04-30T09:40:49Z</time>
      </trkpt>
      <trkpt lat="47.15263" lon="6.38334">
        <ele>693</ele>
        <time>2023-04-30T09:40:50Z</time>
      </trkpt>
      <trkpt lat="47.15267" lon="6.3833">
        <ele>692.6</ele>
        <time>2023-04-30T09:40:51Z</time>
      </trkpt>
      <trkpt lat="47.1527" lon="6.38326">
        <ele>692.2</ele>
        <time>2023-04-30T09:40:52Z</time>
      </trkpt>
      <trkpt lat="47.15275" lon="6.38313">
        <ele>691</ele>
        <time>2023-04-30T09:40:55Z</time>
      </trkpt>
      <trkpt lat="47.15275" lon="6.38307">
        <ele>690.6</ele>
        <time>2023-04-30T09:40:56Z</time>
      </trkpt>
      <trkpt lat="47.15269" lon="6.38296">
        <ele>690</ele>
        <time>2023-04-30T09:40:58Z</time>
      </trkpt>
      <trkpt lat="47.15266" lon="6.3829">
        <ele>690</ele>
        <time>2023-04-30T09:40:59Z</time>
      </trkpt>
      <trkpt lat="47.15249" lon="6.38267">
        <ele>689.8</ele>
        <time>2023-04-30T09:41:04Z</time>
      </trkpt>
      <trkpt lat="47.15246" lon="6.38258">
        <ele>689.6</ele>
        <time>2023-04-30T09:41:06Z</time>
      </trkpt>
      <trkpt lat="47.15247" lon="6.38254">
        <ele>689.8</ele>
        <time>2023-04-30T09:41:07Z</time>
      </trkpt>
      <trkpt lat="47.15259" lon="6.38233">
        <ele>689.4</ele>
        <time>2023-04-30T09:41:11Z</time>
      </trkpt>
      <trkpt lat="47.15264" lon="6.38228">
        <ele>689.4</ele>
        <time>2023-04-30T09:41:12Z</time>
      </trkpt>
      <trkpt lat="47.15289" lon="6.38203">
        <ele>688.8</ele>
        <time>2023-04-30T09:41:16Z</time>
      </trkpt>
      <trkpt lat="47.15325" lon="6.38168">
        <ele>687.6</ele>
        <time>2023-04-30T09:41:21Z</time>
      </trkpt>
      <trkpt lat="47.1534" lon="6.38155">
        <ele>687.2</ele>
        <time>2023-04-30T09:41:23Z</time>
      </trkpt>
      <trkpt lat="47.15348" lon="6.38145">
        <ele>686.4</ele>
        <time>2023-04-30T09:41:24Z</time>
      </trkpt>
      <trkpt lat="47.15362" lon="6.38124">
        <ele>685</ele>
        <time>2023-04-30T09:41:26Z</time>
      </trkpt>
      <trkpt lat="47.15378" lon="6.38101">
        <ele>683.4</ele>
        <time>2023-04-30T09:41:28Z</time>
      </trkpt>
      <trkpt lat="47.15394" lon="6.38077">
        <ele>682</ele>
        <time>2023-04-30T09:41:30Z</time>
      </trkpt>
      <trkpt lat="47.1541" lon="6.38054">
        <ele>680.6</ele>
        <time>2023-04-30T09:41:32Z</time>
      </trkpt>
      <trkpt lat="47.15418" lon="6.38043">
        <ele>680</ele>
        <time>2023-04-30T09:41:33Z</time>
      </trkpt>
      <trkpt lat="47.15426" lon="6.38032">
        <ele>679.6</ele>
        <time>2023-04-30T09:41:34Z</time>
      </trkpt>
      <trkpt lat="47.15443" lon="6.38011">
        <ele>678.4</ele>
        <time>2023-04-30T09:41:36Z</time>
      </trkpt>
      <trkpt lat="47.15464" lon="6.37984">
        <ele>677</ele>
        <time>2023-04-30T09:41:39Z</time>
      </trkpt>
      <trkpt lat="47.15487" lon="6.37953">
        <ele>675.8</ele>
        <time>2023-04-30T09:41:43Z</time>
      </trkpt>
      <trkpt lat="47.15492" lon="6.37946">
        <ele>675.6</ele>
        <time>2023-04-30T09:41:44Z</time>
      </trkpt>
      <trkpt lat="47.15511" lon="6.37922">
        <ele>674.6</ele>
        <time>2023-04-30T09:41:48Z</time>
      </trkpt>
      <trkpt lat="47.15519" lon="6.3791">
        <ele>674</ele>
        <time>2023-04-30T09:41:50Z</time>
      </trkpt>
      <trkpt lat="47.15534" lon="6.37889">
        <ele>673.4</ele>
        <time>2023-04-30T09:41:54Z</time>
      </trkpt>
      <trkpt lat="47.15541" lon="6.37876">
        <ele>673</ele>
        <time>2023-04-30T09:41:56Z</time>
      </trkpt>
      <trkpt lat="47.1556" lon="6.37851">
        <ele>672.2</ele>
        <time>2023-04-30T09:42:00Z</time>
      </trkpt>
      <trkpt lat="47.15575" lon="6.37832">
        <ele>672</ele>
        <time>2023-04-30T09:42:03Z</time>
      </trkpt>
      <trkpt lat="47.15594" lon="6.37808">
        <ele>671</ele>
        <time>2023-04-30T09:42:07Z</time>
      </trkpt>
      <trkpt lat="47.15603" lon="6.37795">
        <ele>670.8</ele>
        <time>2023-04-30T09:42:09Z</time>
      </trkpt>
      <trkpt lat="47.15629" lon="6.3776">
        <ele>669.8</ele>
        <time>2023-04-30T09:42:14Z</time>
      </trkpt>
      <trkpt lat="47.15635" lon="6.37753">
        <ele>669.6</ele>
        <time>2023-04-30T09:42:15Z</time>
      </trkpt>
      <trkpt lat="47.15658" lon="6.37726">
        <ele>668.6</ele>
        <time>2023-04-30T09:42:19Z</time>
      </trkpt>
      <trkpt lat="47.15675" lon="6.37705">
        <ele>667.4</ele>
        <time>2023-04-30T09:42:22Z</time>
      </trkpt>
      <trkpt lat="47.15693" lon="6.37683">
        <ele>666.2</ele>
        <time>2023-04-30T09:42:25Z</time>
      </trkpt>
      <trkpt lat="47.15705" lon="6.37667">
        <ele>665.2</ele>
        <time>2023-04-30T09:42:27Z</time>
      </trkpt>
      <trkpt lat="47.15719" lon="6.3765">
        <ele>664</ele>
        <time>2023-04-30T09:42:29Z</time>
      </trkpt>
      <trkpt lat="47.15733" lon="6.37632">
        <ele>663</ele>
        <time>2023-04-30T09:42:31Z</time>
      </trkpt>
      <trkpt lat="47.15747" lon="6.37614">
        <ele>661.6</ele>
        <time>2023-04-30T09:42:33Z</time>
      </trkpt>
      <trkpt lat="47.15762" lon="6.37595">
        <ele>660.4</ele>
        <time>2023-04-30T09:42:35Z</time>
      </trkpt>
      <trkpt lat="47.15769" lon="6.37586">
        <ele>660</ele>
        <time>2023-04-30T09:42:36Z</time>
      </trkpt>
      <trkpt lat="47.15784" lon="6.37568">
        <ele>658.8</ele>
        <time>2023-04-30T09:42:38Z</time>
      </trkpt>
      <trkpt lat="47.15807" lon="6.37539">
        <ele>657.4</ele>
        <time>2023-04-30T09:42:41Z</time>
      </trkpt>
      <trkpt lat="47.15815" lon="6.37529">
        <ele>656.6</ele>
        <time>2023-04-30T09:42:42Z</time>
      </trkpt>
      <trkpt lat="47.15823" lon="6.37519">
        <ele>656</ele>
        <time>2023-04-30T09:42:43Z</time>
      </trkpt>
      <trkpt lat="47.15839" lon="6.375">
        <ele>655</ele>
        <time>2023-04-30T09:42:45Z</time>
      </trkpt>
      <trkpt lat="47.15854" lon="6.37482">
        <ele>653.8</ele>
        <time>2023-04-30T09:42:47Z</time>
      </trkpt>
      <trkpt lat="47.15876" lon="6.37453">
        <ele>652.2</ele>
        <time>2023-04-30T09:42:50Z</time>
      </trkpt>
      <trkpt lat="47.15891" lon="6.37436">
        <ele>650.8</ele>
        <time>2023-04-30T09:42:52Z</time>
      </trkpt>
      <trkpt lat="47.15899" lon="6.37427">
        <ele>650</ele>
        <time>2023-04-30T09:42:53Z</time>
      </trkpt>
      <trkpt lat="47.15906" lon="6.37419">
        <ele>649.2</ele>
        <time>2023-04-30T09:42:54Z</time>
      </trkpt>
      <trkpt lat="47.15919" lon="6.37407">
        <ele>647.4</ele>
        <time>2023-04-30T09:42:56Z</time>
      </trkpt>
      <trkpt lat="47.15924" lon="6.37402">
        <ele>646.8</ele>
        <time>2023-04-30T09:42:57Z</time>
      </trkpt>
      <trkpt lat="47.15927" lon="6.37398">
        <ele>646</ele>
        <time>2023-04-30T09:42:58Z</time>
      </trkpt>
      <trkpt lat="47.15928" lon="6.37394">
        <ele>645.4</ele>
        <time>2023-04-30T09:42:59Z</time>
      </trkpt>
      <trkpt lat="47.15928" lon="6.37391">
        <ele>644.6</ele>
        <time>2023-04-30T09:43:00Z</time>
      </trkpt>
      <trkpt lat="47.15922" lon="6.37385">
        <ele>643</ele>
        <time>2023-04-30T09:43:02Z</time>
      </trkpt>
      <trkpt lat="47.15918" lon="6.37384">
        <ele>642</ele>
        <time>2023-04-30T09:43:03Z</time>
      </trkpt>
      <trkpt lat="47.1591" lon="6.37384">
        <ele>640.6</ele>
        <time>2023-04-30T09:43:05Z</time>
      </trkpt>
      <trkpt lat="47.15905" lon="6.37386">
        <ele>639.8</ele>
        <time>2023-04-30T09:43:06Z</time>
      </trkpt>
      <trkpt lat="47.159" lon="6.37387">
        <ele>639.4</ele>
        <time>2023-04-30T09:43:07Z</time>
      </trkpt>
      <trkpt lat="47.1588" lon="6.3739">
        <ele>638.4</ele>
        <time>2023-04-30T09:43:11Z</time>
      </trkpt>
      <trkpt lat="47.15865" lon="6.3739">
        <ele>638.6</ele>
        <time>2023-04-30T09:43:14Z</time>
      </trkpt>
      <trkpt lat="47.15835" lon="6.37383">
        <ele>639.4</ele>
        <time>2023-04-30T09:43:20Z</time>
      </trkpt>
      <trkpt lat="47.1583" lon="6.37382">
        <ele>639.6</ele>
        <time>2023-04-30T09:43:21Z</time>
      </trkpt>
      <trkpt lat="47.1579" lon="6.37378">
        <ele>640.4</ele>
        <time>2023-04-30T09:43:28Z</time>
      </trkpt>
      <trkpt lat="47.15771" lon="6.37368">
        <ele>640.4</ele>
        <time>2023-04-30T09:43:32Z</time>
      </trkpt>
      <trkpt lat="47.15767" lon="6.37364">
        <ele>640.6</ele>
        <time>2023-04-30T09:43:33Z</time>
      </trkpt>
      <trkpt lat="47.15748" lon="6.37335">
        <ele>641</ele>
        <time>2023-04-30T09:43:39Z</time>
      </trkpt>
      <trkpt lat="47.15732" lon="6.37309">
        <ele>641.6</ele>
        <time>2023-04-30T09:43:45Z</time>
      </trkpt>
      <trkpt lat="47.1573" lon="6.37305">
        <ele>641.6</ele>
        <time>2023-04-30T09:43:46Z</time>
      </trkpt>
      <trkpt lat="47.15724" lon="6.37288">
        <ele>641.4</ele>
        <time>2023-04-30T09:43:49Z</time>
      </trkpt>
      <trkpt lat="47.15714" lon="6.37262">
        <ele>641.2</ele>
        <time>2023-04-30T09:43:54Z</time>
      </trkpt>
      <trkpt lat="47.15703" lon="6.37258">
        <ele>641.4</ele>
        <time>2023-04-30T09:43:58Z</time>
      </trkpt>
      <trkpt lat="47.15693" lon="6.37259">
        <ele>641.2</ele>
        <time>2023-04-30T09:44:03Z</time>
      </trkpt>
      <trkpt lat="47.15679" lon="6.37257">
        <ele>641.2</ele>
        <time>2023-04-30T09:44:09Z</time>
      </trkpt>
      <trkpt lat="47.15667" lon="6.37251">
        <ele>641.4</ele>
        <time>2023-04-30T09:44:15Z</time>
      </trkpt>
      <trkpt lat="47.15655" lon="6.37244">
        <ele>642.6</ele>
        <time>2023-04-30T09:44:22Z</time>
      </trkpt>
      <trkpt lat="47.15653" lon="6.37243">
        <ele>642.8</ele>
        <time>2023-04-30T09:44:23Z</time>
      </trkpt>
      <trkpt lat="47.15646" lon="6.37239">
        <ele>644.2</ele>
        <time>2023-04-30T09:44:26Z</time>
      </trkpt>
      <trkpt lat="47.15642" lon="6.37236">
        <ele>645</ele>
        <time>2023-04-30T09:44:28Z</time>
      </trkpt>
      <trkpt lat="47.15641" lon="6.37234">
        <ele>645.4</ele>
        <time>2023-04-30T09:44:29Z</time>
      </trkpt>
      <trkpt lat="47.15637" lon="6.37229">
        <ele>646.6</ele>
        <time>2023-04-30T09:44:32Z</time>
      </trkpt>
      <trkpt lat="47.15636" lon="6.37227">
        <ele>647</ele>
        <time>2023-04-30T09:44:33Z</time>
      </trkpt>
      <trkpt lat="47.15633" lon="6.37223">
        <ele>648</ele>
        <time>2023-04-30T09:44:36Z</time>
      </trkpt>
      <trkpt lat="47.15632" lon="6.37216">
        <ele>649.2</ele>
        <time>2023-04-30T09:44:39Z</time>
      </trkpt>
      <trkpt lat="47.15633" lon="6.37212">
        <ele>649.6</ele>
        <time>2023-04-30T09:44:41Z</time>
      </trkpt>
      <trkpt lat="47.15636" lon="6.37206">
        <ele>649.8</ele>
        <time>2023-04-30T09:44:44Z</time>
      </trkpt>
      <trkpt lat="47.15637" lon="6.37204">
        <ele>649.6</ele>
        <time>2023-04-30T09:44:45Z</time>
      </trkpt>
      <trkpt lat="47.15639" lon="6.3719">
        <ele>650.4</ele>
        <time>2023-04-30T09:44:51Z</time>
      </trkpt>
      <trkpt lat="47.15633" lon="6.37175">
        <ele>650.8</ele>
        <time>2023-04-30T09:44:58Z</time>
      </trkpt>
      <trkpt lat="47.15628" lon="6.37168">
        <ele>651.8</ele>
        <time>2023-04-30T09:45:02Z</time>
      </trkpt>
      <trkpt lat="47.15625" lon="6.3716">
        <ele>651.6</ele>
        <time>2023-04-30T09:45:05Z</time>
      </trkpt>
      <trkpt lat="47.15623" lon="6.37146">
        <ele>652.8</ele>
        <time>2023-04-30T09:45:11Z</time>
      </trkpt>
      <trkpt lat="47.15622" lon="6.37141">
        <ele>653</ele>
        <time>2023-04-30T09:45:13Z</time>
      </trkpt>
      <trkpt lat="47.15615" lon="6.37127">
        <ele>653.4</ele>
        <time>2023-04-30T09:45:20Z</time>
      </trkpt>
      <trkpt lat="47.15612" lon="6.37121">
        <ele>654</ele>
        <time>2023-04-30T09:45:23Z</time>
      </trkpt>
      <trkpt lat="47.15608" lon="6.37112">
        <ele>654.4</ele>
        <time>2023-04-30T09:45:27Z</time>
      </trkpt>
      <trkpt lat="47.15601" lon="6.37092">
        <ele>655</ele>
        <time>2023-04-30T09:45:35Z</time>
      </trkpt>
      <trkpt lat="47.156" lon="6.3709">
        <ele>655</ele>
        <time>2023-04-30T09:45:36Z</time>
      </trkpt>
      <trkpt lat="47.15595" lon="6.37077">
        <ele>656.2</ele>
        <time>2023-04-30T09:45:42Z</time>
      </trkpt>
      <trkpt lat="47.15594" lon="6.37075">
        <ele>656.4</ele>
        <time>2023-04-30T09:45:43Z</time>
      </trkpt>
      <trkpt lat="47.15587" lon="6.3706">
        <ele>657</ele>
        <time>2023-04-30T09:45:50Z</time>
      </trkpt>
      <trkpt lat="47.15585" lon="6.37056">
        <ele>657.2</ele>
        <time>2023-04-30T09:45:52Z</time>
      </trkpt>
      <trkpt lat="47.15582" lon="6.37045">
        <ele>657.8</ele>
        <time>2023-04-30T09:45:57Z</time>
      </trkpt>
      <trkpt lat="47.15581" lon="6.37036">
        <ele>658.6</ele>
        <time>2023-04-30T09:46:01Z</time>
      </trkpt>
      <trkpt lat="47.1558" lon="6.37026">
        <ele>659.2</ele>
        <time>2023-04-30T09:46:05Z</time>
      </trkpt>
      <trkpt lat="47.15581" lon="6.37018">
        <ele>659.8</ele>
        <time>2023-04-30T09:46:08Z</time>
      </trkpt>
      <trkpt lat="47.1558" lon="6.37011">
        <ele>661</ele>
        <time>2023-04-30T09:46:12Z</time>
      </trkpt>
      <trkpt lat="47.15578" lon="6.37005">
        <ele>662.2</ele>
        <time>2023-04-30T09:46:15Z</time>
      </trkpt>
      <trkpt lat="47.15569" lon="6.3698">
        <ele>666.6</ele>
        <time>2023-04-30T09:48:11Z</time>
      </trkpt>
      <trkpt lat="47.15569" lon="6.36976">
        <ele>667</ele>
        <time>2023-04-30T09:48:12Z</time>
      </trkpt>
      <trkpt lat="47.15567" lon="6.36969">
        <ele>667.8</ele>
        <time>2023-04-30T09:48:14Z</time>
      </trkpt>
      <trkpt lat="47.15564" lon="6.36956">
        <ele>668.8</ele>
        <time>2023-04-30T09:48:18Z</time>
      </trkpt>
      <trkpt lat="47.15563" lon="6.36953">
        <ele>668.6</ele>
        <time>2023-04-30T09:48:19Z</time>
      </trkpt>
      <trkpt lat="47.1556" lon="6.36939">
        <ele>669</ele>
        <time>2023-04-30T09:48:24Z</time>
      </trkpt>
      <trkpt lat="47.15558" lon="6.3693">
        <ele>669.8</ele>
        <time>2023-04-30T09:48:27Z</time>
      </trkpt>
      <trkpt lat="47.15555" lon="6.36916">
        <ele>669.6</ele>
        <time>2023-04-30T09:48:31Z</time>
      </trkpt>
      <trkpt lat="47.1555" lon="6.36895">
        <ele>670.8</ele>
        <time>2023-04-30T09:48:37Z</time>
      </trkpt>
      <trkpt lat="47.15549" lon="6.3689">
        <ele>671.2</ele>
        <time>2023-04-30T09:48:39Z</time>
      </trkpt>
      <trkpt lat="47.15544" lon="6.36876">
        <ele>672</ele>
        <time>2023-04-30T09:48:45Z</time>
      </trkpt>
      <trkpt lat="47.15544" lon="6.36873">
        <ele>672.2</ele>
        <time>2023-04-30T09:48:46Z</time>
      </trkpt>
      <trkpt lat="47.15542" lon="6.36866">
        <ele>672.6</ele>
        <time>2023-04-30T09:48:49Z</time>
      </trkpt>
      <trkpt lat="47.15539" lon="6.36856">
        <ele>673</ele>
        <time>2023-04-30T09:48:53Z</time>
      </trkpt>
      <trkpt lat="47.15538" lon="6.36854">
        <ele>673.2</ele>
        <time>2023-04-30T09:48:54Z</time>
      </trkpt>
      <trkpt lat="47.15535" lon="6.36843">
        <ele>674.4</ele>
        <time>2023-04-30T09:48:58Z</time>
      </trkpt>
      <trkpt lat="47.15534" lon="6.3684">
        <ele>674.4</ele>
        <time>2023-04-30T09:48:59Z</time>
      </trkpt>
      <trkpt lat="47.15531" lon="6.36833">
        <ele>675.4</ele>
        <time>2023-04-30T09:49:02Z</time>
      </trkpt>
      <trkpt lat="47.1553" lon="6.36826">
        <ele>676.8</ele>
        <time>2023-04-30T09:49:05Z</time>
      </trkpt>
      <trkpt lat="47.15529" lon="6.36823">
        <ele>677.2</ele>
        <time>2023-04-30T09:49:06Z</time>
      </trkpt>
      <trkpt lat="47.15528" lon="6.36819">
        <ele>677.8</ele>
        <time>2023-04-30T09:49:08Z</time>
      </trkpt>
      <trkpt lat="47.15524" lon="6.36796">
        <ele>682.4</ele>
        <time>2023-04-30T09:49:18Z</time>
      </trkpt>
      <trkpt lat="47.15523" lon="6.36794">
        <ele>682.8</ele>
        <time>2023-04-30T09:49:19Z</time>
      </trkpt>
      <trkpt lat="47.15522" lon="6.36791">
        <ele>683.4</ele>
        <time>2023-04-30T09:49:20Z</time>
      </trkpt>
      <trkpt lat="47.15519" lon="6.3678">
        <ele>684.6</ele>
        <time>2023-04-30T09:49:24Z</time>
      </trkpt>
      <trkpt lat="47.15515" lon="6.36766">
        <ele>685.4</ele>
        <time>2023-04-30T09:49:28Z</time>
      </trkpt>
      <trkpt lat="47.15514" lon="6.36759">
        <ele>685.8</ele>
        <time>2023-04-30T09:49:30Z</time>
      </trkpt>
      <trkpt lat="47.15511" lon="6.36749">
        <ele>686.6</ele>
        <time>2023-04-30T09:49:33Z</time>
      </trkpt>
      <trkpt lat="47.15511" lon="6.36745">
        <ele>687</ele>
        <time>2023-04-30T09:49:34Z</time>
      </trkpt>
      <trkpt lat="47.15506" lon="6.3673">
        <ele>687.6</ele>
        <time>2023-04-30T09:49:39Z</time>
      </trkpt>
      <trkpt lat="47.15504" lon="6.36722">
        <ele>688.2</ele>
        <time>2023-04-30T09:49:41Z</time>
      </trkpt>
      <trkpt lat="47.15502" lon="6.36698">
        <ele>689.6</ele>
        <time>2023-04-30T09:49:46Z</time>
      </trkpt>
      <trkpt lat="47.15495" lon="6.36665">
        <ele>689.2</ele>
        <time>2023-04-30T09:49:52Z</time>
      </trkpt>
      <trkpt lat="47.1549" lon="6.36648">
        <ele>688.6</ele>
        <time>2023-04-30T09:49:56Z</time>
      </trkpt>
      <trkpt lat="47.15489" lon="6.36644">
        <ele>688.6</ele>
        <time>2023-04-30T09:49:57Z</time>
      </trkpt>
      <trkpt lat="47.1549" lon="6.3664">
        <ele>688.2</ele>
        <time>2023-04-30T09:49:58Z</time>
      </trkpt>
      <trkpt lat="47.15495" lon="6.36628">
        <ele>688.2</ele>
        <time>2023-04-30T09:50:02Z</time>
      </trkpt>
      <trkpt lat="47.15496" lon="6.36625">
        <ele>688.6</ele>
        <time>2023-04-30T09:50:03Z</time>
      </trkpt>
      <trkpt lat="47.155" lon="6.36619">
        <ele>689.4</ele>
        <time>2023-04-30T09:50:05Z</time>
      </trkpt>
      <trkpt lat="47.15507" lon="6.36609">
        <ele>688.4</ele>
        <time>2023-04-30T09:50:07Z</time>
      </trkpt>
      <trkpt lat="47.15512" lon="6.36603">
        <ele>687.8</ele>
        <time>2023-04-30T09:50:08Z</time>
      </trkpt>
      <trkpt lat="47.15522" lon="6.36592">
        <ele>686.6</ele>
        <time>2023-04-30T09:50:10Z</time>
      </trkpt>
      <trkpt lat="47.15526" lon="6.36587">
        <ele>686.2</ele>
        <time>2023-04-30T09:50:11Z</time>
      </trkpt>
      <trkpt lat="47.15535" lon="6.36577">
        <ele>685.2</ele>
        <time>2023-04-30T09:50:13Z</time>
      </trkpt>
      <trkpt lat="47.15544" lon="6.36564">
        <ele>683.8</ele>
        <time>2023-04-30T09:50:16Z</time>
      </trkpt>
      <trkpt lat="47.1555" lon="6.36557">
        <ele>682.6</ele>
        <time>2023-04-30T09:50:18Z</time>
      </trkpt>
      <trkpt lat="47.15556" lon="6.36549">
        <ele>681.6</ele>
        <time>2023-04-30T09:50:20Z</time>
      </trkpt>
      <trkpt lat="47.15566" lon="6.36539">
        <ele>680.4</ele>
        <time>2023-04-30T09:50:23Z</time>
      </trkpt>
      <trkpt lat="47.15572" lon="6.36534">
        <ele>679.6</ele>
        <time>2023-04-30T09:50:25Z</time>
      </trkpt>
      <trkpt lat="47.15575" lon="6.36532">
        <ele>679.2</ele>
        <time>2023-04-30T09:50:26Z</time>
      </trkpt>
      <trkpt lat="47.15582" lon="6.36525">
        <ele>678.2</ele>
        <time>2023-04-30T09:50:28Z</time>
      </trkpt>
      <trkpt lat="47.15586" lon="6.36515">
        <ele>677.6</ele>
        <time>2023-04-30T09:50:30Z</time>
      </trkpt>
      <trkpt lat="47.15588" lon="6.36506">
        <ele>677</ele>
        <time>2023-04-30T09:50:32Z</time>
      </trkpt>
      <trkpt lat="47.15589" lon="6.36497">
        <ele>676.4</ele>
        <time>2023-04-30T09:50:34Z</time>
      </trkpt>
      <trkpt lat="47.1559" lon="6.36492">
        <ele>676.6</ele>
        <time>2023-04-30T09:50:35Z</time>
      </trkpt>
      <trkpt lat="47.15593" lon="6.36481">
        <ele>676</ele>
        <time>2023-04-30T09:50:37Z</time>
      </trkpt>
      <trkpt lat="47.15596" lon="6.36468">
        <ele>674.8</ele>
        <time>2023-04-30T09:50:40Z</time>
      </trkpt>
      <trkpt lat="47.15598" lon="6.36464">
        <ele>674.4</ele>
        <time>2023-04-30T09:50:41Z</time>
      </trkpt>
      <trkpt lat="47.15602" lon="6.3646">
        <ele>673.6</ele>
        <time>2023-04-30T09:50:42Z</time>
      </trkpt>
      <trkpt lat="47.15609" lon="6.36452">
        <ele>672</ele>
        <time>2023-04-30T09:50:44Z</time>
      </trkpt>
      <trkpt lat="47.15612" lon="6.36449">
        <ele>671.4</ele>
        <time>2023-04-30T09:50:45Z</time>
      </trkpt>
      <trkpt lat="47.15616" lon="6.36446">
        <ele>670.8</ele>
        <time>2023-04-30T09:50:46Z</time>
      </trkpt>
      <trkpt lat="47.15624" lon="6.36439">
        <ele>669.4</ele>
        <time>2023-04-30T09:50:48Z</time>
      </trkpt>
      <trkpt lat="47.15633" lon="6.36431">
        <ele>668.2</ele>
        <time>2023-04-30T09:50:50Z</time>
      </trkpt>
      <trkpt lat="47.15638" lon="6.36427">
        <ele>667.4</ele>
        <time>2023-04-30T09:50:51Z</time>
      </trkpt>
      <trkpt lat="47.15644" lon="6.36423">
        <ele>666.8</ele>
        <time>2023-04-30T09:50:52Z</time>
      </trkpt>
      <trkpt lat="47.15656" lon="6.36413">
        <ele>665</ele>
        <time>2023-04-30T09:50:54Z</time>
      </trkpt>
      <trkpt lat="47.15663" lon="6.36408">
        <ele>664.2</ele>
        <time>2023-04-30T09:50:55Z</time>
      </trkpt>
      <trkpt lat="47.15669" lon="6.36404">
        <ele>663.2</ele>
        <time>2023-04-30T09:50:56Z</time>
      </trkpt>
      <trkpt lat="47.1568" lon="6.36395">
        <ele>661.4</ele>
        <time>2023-04-30T09:50:58Z</time>
      </trkpt>
      <trkpt lat="47.15687" lon="6.36383">
        <ele>659.6</ele>
        <time>2023-04-30T09:51:00Z</time>
      </trkpt>
      <trkpt lat="47.15693" lon="6.36367">
        <ele>658.4</ele>
        <time>2023-04-30T09:51:02Z</time>
      </trkpt>
      <trkpt lat="47.15693" lon="6.36358">
        <ele>658</ele>
        <time>2023-04-30T09:51:03Z</time>
      </trkpt>
      <trkpt lat="47.15691" lon="6.36333">
        <ele>657.2</ele>
        <time>2023-04-30T09:51:06Z</time>
      </trkpt>
      <trkpt lat="47.15688" lon="6.36315">
        <ele>656.6</ele>
        <time>2023-04-30T09:51:08Z</time>
      </trkpt>
      <trkpt lat="47.15684" lon="6.36296">
        <ele>656.2</ele>
        <time>2023-04-30T09:51:10Z</time>
      </trkpt>
      <trkpt lat="47.15675" lon="6.36256">
        <ele>655</ele>
        <time>2023-04-30T09:51:14Z</time>
      </trkpt>
      <trkpt lat="47.15665" lon="6.36218">
        <ele>654</ele>
        <time>2023-04-30T09:51:18Z</time>
      </trkpt>
      <trkpt lat="47.15659" lon="6.36189">
        <ele>653</ele>
        <time>2023-04-30T09:51:21Z</time>
      </trkpt>
      <trkpt lat="47.15658" lon="6.3618">
        <ele>652.8</ele>
        <time>2023-04-30T09:51:22Z</time>
      </trkpt>
      <trkpt lat="47.15652" lon="6.36139">
        <ele>651.8</ele>
        <time>2023-04-30T09:51:26Z</time>
      </trkpt>
      <trkpt lat="47.1565" lon="6.36119">
        <ele>651.4</ele>
        <time>2023-04-30T09:51:28Z</time>
      </trkpt>
      <trkpt lat="47.15642" lon="6.3605">
        <ele>650.6</ele>
        <time>2023-04-30T09:51:35Z</time>
      </trkpt>
      <trkpt lat="47.1564" lon="6.3604">
        <ele>650.4</ele>
        <time>2023-04-30T09:51:36Z</time>
      </trkpt>
      <trkpt lat="47.15637" lon="6.36031">
        <ele>650.2</ele>
        <time>2023-04-30T09:51:37Z</time>
      </trkpt>
      <trkpt lat="47.15625" lon="6.36004">
        <ele>650.2</ele>
        <time>2023-04-30T09:51:40Z</time>
      </trkpt>
      <trkpt lat="47.1562" lon="6.35996">
        <ele>650</ele>
        <time>2023-04-30T09:51:41Z</time>
      </trkpt>
      <trkpt lat="47.1561" lon="6.3598">
        <ele>649.6</ele>
        <time>2023-04-30T09:51:43Z</time>
      </trkpt>
      <trkpt lat="47.156" lon="6.35963">
        <ele>649.2</ele>
        <time>2023-04-30T09:51:45Z</time>
      </trkpt>
      <trkpt lat="47.15591" lon="6.35948">
        <ele>649</ele>
        <time>2023-04-30T09:51:47Z</time>
      </trkpt>
      <trkpt lat="47.15576" lon="6.35925">
        <ele>648.4</ele>
        <time>2023-04-30T09:51:50Z</time>
      </trkpt>
      <trkpt lat="47.15562" lon="6.35902">
        <ele>648.2</ele>
        <time>2023-04-30T09:51:53Z</time>
      </trkpt>
      <trkpt lat="47.15557" lon="6.35894">
        <ele>648</ele>
        <time>2023-04-30T09:51:54Z</time>
      </trkpt>
      <trkpt lat="47.15545" lon="6.35867">
        <ele>647.4</ele>
        <time>2023-04-30T09:51:57Z</time>
      </trkpt>
      <trkpt lat="47.1554" lon="6.35859">
        <ele>647.2</ele>
        <time>2023-04-30T09:51:58Z</time>
      </trkpt>
      <trkpt lat="47.15522" lon="6.35824">
        <ele>646.4</ele>
        <time>2023-04-30T09:52:02Z</time>
      </trkpt>
      <trkpt lat="47.15513" lon="6.35808">
        <ele>646.2</ele>
        <time>2023-04-30T09:52:04Z</time>
      </trkpt>
      <trkpt lat="47.15497" lon="6.35783">
        <ele>645.4</ele>
        <time>2023-04-30T09:52:07Z</time>
      </trkpt>
      <trkpt lat="47.15488" lon="6.35763">
        <ele>644.6</ele>
        <time>2023-04-30T09:52:09Z</time>
      </trkpt>
      <trkpt lat="47.15479" lon="6.35742">
        <ele>644.2</ele>
        <time>2023-04-30T09:52:11Z</time>
      </trkpt>
      <trkpt lat="47.15476" lon="6.35731">
        <ele>644</ele>
        <time>2023-04-30T09:52:12Z</time>
      </trkpt>
      <trkpt lat="47.15471" lon="6.35708">
        <ele>643.4</ele>
        <time>2023-04-30T09:52:14Z</time>
      </trkpt>
      <trkpt lat="47.1547" lon="6.35697">
        <ele>643.2</ele>
        <time>2023-04-30T09:52:15Z</time>
      </trkpt>
      <trkpt lat="47.1547" lon="6.35686">
        <ele>643</ele>
        <time>2023-04-30T09:52:16Z</time>
      </trkpt>
      <trkpt lat="47.15468" lon="6.35664">
        <ele>642.6</ele>
        <time>2023-04-30T09:52:18Z</time>
      </trkpt>
      <trkpt lat="47.15458" lon="6.35614">
        <ele>642.6</ele>
        <time>2023-04-30T09:52:23Z</time>
      </trkpt>
      <trkpt lat="47.15446" lon="6.35549">
        <ele>642.6</ele>
        <time>2023-04-30T09:52:29Z</time>
      </trkpt>
      <trkpt lat="47.15434" lon="6.35484">
        <ele>643</ele>
        <time>2023-04-30T09:52:35Z</time>
      </trkpt>
      <trkpt lat="47.15425" lon="6.35437">
        <ele>642.8</ele>
        <time>2023-04-30T09:52:40Z</time>
      </trkpt>
      <trkpt lat="47.15419" lon="6.354">
        <ele>642.8</ele>
        <time>2023-04-30T09:52:45Z</time>
      </trkpt>
      <trkpt lat="47.15418" lon="6.35394">
        <ele>642.8</ele>
        <time>2023-04-30T09:52:46Z</time>
      </trkpt>
      <trkpt lat="47.15416" lon="6.35381">
        <ele>642.8</ele>
        <time>2023-04-30T09:52:48Z</time>
      </trkpt>
      <trkpt lat="47.15414" lon="6.35368">
        <ele>642.8</ele>
        <time>2023-04-30T09:52:50Z</time>
      </trkpt>
      <trkpt lat="47.15412" lon="6.35356">
        <ele>642.6</ele>
        <time>2023-04-30T09:52:52Z</time>
      </trkpt>
      <trkpt lat="47.15408" lon="6.35341">
        <ele>642.8</ele>
        <time>2023-04-30T09:52:55Z</time>
      </trkpt>
      <trkpt lat="47.15405" lon="6.35337">
        <ele>643</ele>
        <time>2023-04-30T09:52:56Z</time>
      </trkpt>
      <trkpt lat="47.15398" lon="6.35334">
        <ele>643.4</ele>
        <time>2023-04-30T09:52:58Z</time>
      </trkpt>
      <trkpt lat="47.15389" lon="6.35335">
        <ele>644.2</ele>
        <time>2023-04-30T09:53:00Z</time>
      </trkpt>
      <trkpt lat="47.15386" lon="6.35333">
        <ele>644.4</ele>
        <time>2023-04-30T09:53:01Z</time>
      </trkpt>
    </trkseg>
  </trk>
</gpx>